# Wetter Temperatur Luftdruck Luftfeuchtigkeit Sichtweite Windgeschwindigkeit Windrichtung Zeit
1 Rain 25 1005 100 2500 2.06 270 08:56 14.08.2022
2 Rain 25 1005 100 2500 3.6 280 06:27 14.08.2022
3 Rain 25 1004 100 3000 3.09 270 04:47 14.08.2022
4 Rain 25 1003 94 3000 1.03 250 01:35 14.08.2022
5 Haze 25 1004 94 3000 1.54 240 22:56 13.08.2022
6 Haze 25 1004 100 3000 1.54 220 21:59 13.08.2022
7 Haze 25 1004 94 3000 2.06 250 20:49 13.08.2022
8 Haze 25 1004 94 3000 2.06 270 19:47 13.08.2022
9 Haze 25 1005 94 3000 1.54 260 18:47 13.08.2022
10 Clouds 25 1004 94 2500 4.12 310 16:23 13.08.2022
11 Haze 29 1002 84 4000 1.54 280 14:41 13.08.2022
12 Haze 29 1002 79 4000 2.06 260 13:48 13.08.2022
13 Haze 29 1002 79 4000 2.06 270 13:25 13.08.2022
14 Haze 30 1003 74 5000 2.57 280 11:27 13.08.2022
15 Haze 30 1004 74 5000 4.63 270 09:23 13.08.2022
16 Haze 28 1005 83 5000 5.14 250 06:44 13.08.2022
17 Haze 26 1003 94 3000 1.54 250 01:36 13.08.2022
18 Haze 26 1003 89 3000 2.06 240 23:25 12.08.2022
19 Haze 27 1004 89 4000 6.17 250 21:35 12.08.2022
20 Haze 27 1004 94 4000 0 0 19:47 12.08.2022
21 Haze 27 1004 94 4000 0 0 19:22 12.08.2022
22 Haze 27 1004 89 4000 2.06 220 17:59 12.08.2022
23 Haze 29 1003 84 4000 1.54 240 16:25 12.08.2022
24 Haze 30 1002 74 4000 4.12 230 14:50 12.08.2022
25 Haze 32 1001 70 4000 5.14 240 13:30 12.08.2022
26 Haze 31 1002 79 4000 4.12 210 11:40 12.08.2022
27 Haze 30 1004 79 5000 3.09 250 08:50 12.08.2022
28 Haze 29 1004 84 5000 4.12 270 07:45 12.08.2022
29 Haze 26 1004 94 3000 2.06 240 04:55 12.08.2022
30 Haze 26 1001 94 3000 2.06 200 00:31 12.08.2022
31 Haze 26 1001 94 3000 2.06 200 23:52 11.08.2022
32 Haze 26 1001 94 3000 1.54 200 22:42 11.08.2022
33 Clouds 26 1002 94 3000 2.06 190 21:52 11.08.2022
34 Clouds 26 1002 94 3000 1.54 190 21:23 11.08.2022
35 Haze 26 1002 94 3000 1.54 180 20:30 11.08.2022
36 Haze 26 1003 100 3000 1.54 170 19:33 11.08.2022
37 Clouds 26 1002 94 2500 0 0 18:41 11.08.2022
38 Haze 26 1002 94 3000 1.03 260 16:46 11.08.2022
39 Clouds 26 1000 94 3000 2.06 200 15:42 11.08.2022
40 Clouds 26 1000 94 3000 2.06 200 15:42 11.08.2022
41 Clouds 27 1000 94 3000 2.57 180 14:20 11.08.2022
42 Haze 27 1000 89 4000 2.57 210 11:51 11.08.2022
43 Haze 27 1001 89 4000 2.06 220 08:34 11.08.2022
44 Haze 26 1000 94 4000 4.12 240 05:44 11.08.2022
45 Mist 24 998 100 2500 3.09 210 02:26 11.08.2022
46 Mist 25 998 94 2500 3.09 220 22:55 10.08.2022
47 Clouds 25 998 100 2500 3.6 230 21:45 10.08.2022
48 Clouds 25 998 100 2500 3.6 210 20:56 10.08.2022
49 Clouds 25 999 100 2500 3.09 220 19:58 10.08.2022
50 Clouds 25 998 100 2500 2.57 220 18:45 10.08.2022
51 Clouds 25 998 100 3000 2.57 210 17:20 10.08.2022
52 Rain 25 995 100 3000 5.14 250 13:49 10.08.2022
53 Rain 25 995 100 3000 5.14 250 12:50 10.08.2022
54 Haze 26 996 94 3000 3.6 240 10:21 10.08.2022
55 Haze 25 996 100 3000 4.12 250 08:37 10.08.2022
56 Clouds 25 997 100 3000 3.09 240 07:21 10.08.2022
57 Rain 25 996 94 2000 4.63 240 04:49 10.08.2022
58 Rain 25 995 94 2000 3.09 260 00:49 10.08.2022
59 Rain 25 995 94 2000 3.09 260 23:25 09.08.2022
60 Rain 26 997 94 2000 2.06 210 21:37 09.08.2022
61 Clouds 26 997 94 2500 2.06 210 20:42 09.08.2022
62 Rain 26 997 94 2500 1.54 240 18:56 09.08.2022
63 Thunderstorm 26 997 100 2500 3.6 270 17:31 09.08.2022
64 Thunderstorm 26 997 100 2500 3.6 260 16:43 09.08.2022
65 Rain 26 997 94 3000 2.06 240 15:59 09.08.2022
66 Haze 28 996 89 4000 3.09 250 14:30 09.08.2022
67 Haze 27 996 100 4000 4.12 250 10:45 09.08.2022
68 Rain 25 998 94 2000 4.12 260 08:51 09.08.2022
69 Haze 26 998 94 3000 2.57 310 07:54 09.08.2022
70 Thunderstorm 25 999 100 1500 2.57 280 04:43 09.08.2022
71 Mist 26 997 100 2500 2.06 250 23:58 08.08.2022
72 Clouds 26 998 100 2500 1.54 270 22:58 08.08.2022
73 Clouds 26 998 100 2500 1.54 270 22:38 08.08.2022
74 Clouds 27 998 94 2500 0 0 21:40 08.08.2022
75 Clouds 27 999 94 2500 0 0 19:58 08.08.2022
76 Mist 27 999 94 3000 0 0 19:31 08.08.2022
77 Mist 26 998 94 3000 1.54 290 17:47 08.08.2022
78 Clouds 26 997 94 1000 2.57 190 15:47 08.08.2022
79 Haze 28 996 89 3000 3.09 240 14:45 08.08.2022
80 Haze 31 996 74 4000 1.54 40 12:29 08.08.2022
81 Haze 30 997 89 4000 1.03 50 10:25 08.08.2022
82 Haze 27 998 100 4000 1.03 30 07:49 08.08.2022
83 Mist 25 998 94 2500 3.09 310 03:39 08.08.2022
84 Thunderstorm 25 997 94 2500 3.09 290 22:52 07.08.2022
85 Thunderstorm 25 998 94 2500 2.06 260 21:41 07.08.2022
86 Thunderstorm 24 1000 100 2500 2.06 210 20:54 07.08.2022
87 Rain 24 1001 100 1500 3.6 280 20:18 07.08.2022
88 Thunderstorm 25 1001 94 2000 3.6 250 19:50 07.08.2022
89 Thunderstorm 26 1001 94 2500 2.06 250 18:40 07.08.2022
90 Mist 27 1000 94 2500 1.03 330 17:18 07.08.2022
91 Mist 27 999 89 2500 1.54 220 16:38 07.08.2022
92 Rain 27 998 94 3000 1.03 240 15:24 07.08.2022
93 Thunderstorm 26 998 94 2500 2.06 80 13:44 07.08.2022
94 Clouds 29 998 74 2500 5.14 10 12:18 07.08.2022
95 Haze 33 998 70 5000 2.06 300 10:35 07.08.2022
96 Haze 30 1001 84 5000 1.03 300 08:26 07.08.2022
97 Haze 25 1001 94 3000 1.03 120 04:26 07.08.2022
98 Mist 25 999 100 1800 1.54 330 01:50 07.08.2022
99 Rain 26 1002 94 2000 0 0 22:28 06.08.2022
100 Rain 26 1003 94 2000 1.03 150 21:28 06.08.2022
101 Thunderstorm 26 1002 94 2500 1.54 200 19:42 06.08.2022
102 Thunderstorm 26 1002 94 3000 3.09 150 18:33 06.08.2022
103 Rain 26 1001 94 3000 2.57 220 17:39 06.08.2022
104 Clouds 25 1001 94 3000 4.63 160 15:21 06.08.2022
105 Thunderstorm 30 998 79 3000 3.6 150 13:50 06.08.2022
106 Haze 34 998 62 5000 2.06 320 12:19 06.08.2022
107 Haze 32 1000 70 5000 1.03 230 10:37 06.08.2022
108 Haze 32 1002 74 5000 1.54 230 09:21 06.08.2022
109 Haze 26 1003 94 4000 0 0 03:55 06.08.2022
110 Clouds 25 1002 100 2500 2.06 300 23:56 05.08.2022
111 Clouds 26 1003 94 2500 3.09 290 22:33 05.08.2022
112 Thunderstorm 28 1003 89 2500 2.57 220 20:20 05.08.2022
113 Haze 29 1003 84 3000 1.03 190 18:47 05.08.2022
114 Haze 29 1003 84 3000 1.54 140 18:27 05.08.2022
115 Thunderstorm 30 1002 79 2500 2.57 110 16:50 05.08.2022
116 Haze 31 1000 74 2500 1.03 120 15:23 05.08.2022
117 Clouds 31 1000 79 2500 0 0 14:33 05.08.2022
118 Haze 32 999 74 3000 0 0 13:25 05.08.2022
119 Haze 32 999 74 3000 0 0 12:44 05.08.2022
120 Haze 33 1001 70 4000 2.06 140 10:55 05.08.2022
121 Haze 30 1004 79 4000 2.06 90 08:36 05.08.2022
122 Haze 29 1004 89 4000 1.03 80 07:28 05.08.2022
123 Mist 26 1003 94 2000 1.03 190 01:46 05.08.2022
124 Mist 26 1003 94 2000 0 0 22:33 04.08.2022
125 Mist 26 1004 94 2000 0 0 21:27 04.08.2022
126 Mist 26 1005 94 2000 1.54 310 20:45 04.08.2022
127 Mist 26 1005 94 2000 1.03 260 19:49 04.08.2022
128 Mist 27 1005 94 2000 0 0 18:51 04.08.2022
129 Mist 27 1004 94 2000 0 0 18:32 04.08.2022
130 Clouds 25 1002 94 2500 2.57 40 14:39 04.08.2022
131 Thunderstorm 29 1002 89 2000 2.57 310 13:22 04.08.2022
132 Rain 32 1000 62 10000 1.93 72 11:37 04.08.2022
133 Mist 30 1005 84 2000 1.54 160 07:56 04.08.2022
134 Rain 30 1005 89 2000 1.03 200 07:26 04.08.2022
135 Haze 27 1004 89 2500 0 0 02:38 04.08.2022
136 Haze 27 1004 94 2500 0 0 23:49 03.08.2022
137 Haze 27 1004 94 2500 0 0 23:27 03.08.2022
138 Haze 27 1005 94 2500 0 0 21:26 03.08.2022
139 Haze 28 1006 89 2500 0 0 19:56 03.08.2022
140 Haze 28 1006 89 2500 0 0 18:40 03.08.2022
141 Haze 28 1004 89 2500 1.03 220 16:27 03.08.2022
142 Haze 29 1003 84 2500 1.54 310 15:47 03.08.2022
143 Haze 29 1002 84 2500 2.57 260 13:24 03.08.2022
144 Haze 34 1004 66 4000 1.54 110 09:51 03.08.2022
145 Haze 32 1005 74 5000 1.54 60 06:29 03.08.2022
146 Haze 28 1004 89 3000 2.06 330 04:21 03.08.2022
147 Haze 27 1004 94 3000 2.06 330 02:25 03.08.2022
148 Haze 28 1003 89 3000 2.06 310 23:54 02.08.2022
149 Haze 28 1005 89 3000 1.03 70 21:59 02.08.2022
150 Haze 28 1005 89 3000 1.03 90 21:40 02.08.2022
151 Haze 29 1005 79 3000 0 0 20:20 02.08.2022
152 Haze 30 1004 79 4000 1.54 280 16:51 02.08.2022
153 Rain 32 1002 66 5000 1.03 210 13:54 02.08.2022
154 Haze 33 1004 62 5000 2.06 240 10:34 02.08.2022
155 Haze 32 1006 66 5000 3.09 310 08:36 02.08.2022
156 Haze 31 1006 70 5000 3.09 310 07:51 02.08.2022
157 Haze 28 1006 89 3000 2.06 320 04:56 02.08.2022
158 Haze 26 1005 94 3000 0 0 02:30 02.08.2022
159 Haze 27 1005 89 3000 1.54 290 23:25 01.08.2022
160 Haze 27 1005 89 3000 2.06 320 21:42 01.08.2022
161 Haze 28 1006 83 3500 2.57 320 20:19 01.08.2022
162 Haze 29 1005 84 3500 1.54 320 18:55 01.08.2022
163 Rain 30 1005 79 3500 1.54 260 16:58 01.08.2022
164 Haze 30 1005 79 3500 1.54 260 16:39 01.08.2022
165 Haze 31 1004 74 4000 0 0 15:44 01.08.2022
166 Haze 32 1003 66 4000 1.54 310 14:45 01.08.2022
167 Haze 33 1003 62 5000 2.57 300 13:32 01.08.2022
168 Haze 33 1004 58 5000 3.09 300 11:18 01.08.2022
169 Haze 32 1007 66 5000 2.57 270 08:55 01.08.2022
170 Haze 32 1007 66 5000 4.63 330 07:23 01.08.2022
171 Haze 28 1007 89 3000 4.04 319 04:32 01.08.2022
172 Clouds 26 1003 84 10000 2.29 314 01:23 01.08.2022
173 Haze 28 1005 89 3000 1.54 320 22:44 31.07.2022
174 Haze 28 1006 89 3000 1.54 300 22:25 31.07.2022
175 Haze 29 1006 89 3000 1.03 270 20:28 31.07.2022
176 Haze 29 1006 79 3000 0 0 18:40 31.07.2022
177 Haze 31 1004 70 4000 1.54 300 16:55 31.07.2022
178 Haze 33 1003 58 5000 2.06 300 14:37 31.07.2022
179 Haze 34 1003 59 5000 2.57 290 12:58 31.07.2022
180 Haze 33 1004 66 5000 3.6 270 11:38 31.07.2022
181 Haze 32 1007 70 5000 3.09 290 08:46 31.07.2022
182 Haze 28 1007 89 4000 3.09 300 05:20 31.07.2022
183 Haze 25 1005 100 3000 1.54 290 01:21 31.07.2022
184 Haze 26 1006 94 3000 1.03 300 22:46 30.07.2022
185 Haze 26 1006 94 3000 1.03 280 21:50 30.07.2022
186 Haze 26 1007 94 3000 1.03 240 21:32 30.07.2022
187 Haze 26 1007 94 3000 1.03 270 20:28 30.07.2022
188 Haze 26 1007 94 3000 1.03 270 19:42 30.07.2022
189 Haze 27 1007 89 3000 2.06 220 17:53 30.07.2022
190 Haze 28 1006 89 3000 1.54 210 16:38 30.07.2022
191 Haze 29 1005 89 3000 1.54 300 15:30 30.07.2022
192 Haze 29 1005 89 3000 1.54 180 13:23 30.07.2022
193 Haze 29 1006 89 3000 1.03 120 12:22 30.07.2022
194 Haze 27 1007 89 3000 1.03 60 10:45 30.07.2022
195 Clouds 26 1008 89 3000 1.54 360 09:59 30.07.2022
196 Clouds 27 1009 78 1000 6.17 300 08:54 30.07.2022
197 Haze 29 1010 94 4000 1.54 150 06:55 30.07.2022
198 Mist 25 1008 94 1800 1.03 130 02:33 30.07.2022
199 Rain 26 1008 94 3000 1.03 120 23:30 29.07.2022
200 Mist 26 1009 94 3000 1.54 230 21:37 29.07.2022
201 Mist 26 1009 94 3000 1.54 240 20:50 29.07.2022
202 Mist 26 1010 100 3000 1.54 220 19:45 29.07.2022
203 Mist 27 1008 94 2500 1.03 120 16:59 29.07.2022
204 Rain 27 1007 94 2500 0 0 14:38 29.07.2022
205 Clouds 27 1007 94 2500 1.03 30 12:41 29.07.2022
206 Haze 32 1010 70 3000 2.57 280 08:52 29.07.2022
207 Haze 31 1010 74 3000 1.54 240 08:23 29.07.2022
208 Mist 28 1011 94 2500 0 0 05:19 29.07.2022
209 Haze 26 1009 94 3000 1.54 300 23:59 28.07.2022
210 Haze 27 1010 89 3000 1.03 160 21:39 28.07.2022
211 Haze 27 1010 89 3000 1.03 40 20:52 28.07.2022
212 Haze 27 1010 94 3000 1.03 330 20:18 28.07.2022
213 Haze 27 1011 94 3000 1.03 110 19:40 28.07.2022
214 Haze 28 1010 83 3000 1.03 110 17:46 28.07.2022
215 Haze 28 1010 83 3000 1.03 40 17:23 28.07.2022
216 Haze 28 1009 83 3000 1.03 40 16:41 28.07.2022
217 Haze 32 1007 74 4000 2.57 190 13:57 28.07.2022
218 Haze 31 1008 79 4000 2.57 180 12:40 28.07.2022
219 Haze 31 1011 79 5000 2.57 330 08:49 28.07.2022
220 Haze 28 1011 94 4000 1.03 320 05:41 28.07.2022
221 Haze 28 1011 94 3000 3.09 330 05:20 28.07.2022
222 Mist 25 1009 94 2000 0 0 23:20 27.07.2022
223 Haze 26 1010 94 3000 0 0 21:31 27.07.2022
224 Haze 26 1010 94 3000 0 0 21:31 27.07.2022
225 Haze 26 1010 94 3000 0 0 19:53 27.07.2022
226 Haze 26 1010 94 3000 0 0 19:20 27.07.2022
227 Haze 27 1008 94 3000 0 0 16:31 27.07.2022
228 Haze 27 1008 94 3000 1.54 320 15:51 27.07.2022
229 Haze 28 1007 89 3000 1.54 310 14:41 27.07.2022
230 Haze 28 1007 89 3000 1.54 270 13:34 27.07.2022
231 Haze 30 1009 84 3000 1.03 20 09:29 27.07.2022
232 Haze 27 1010 100 3000 1.54 300 07:47 27.07.2022
233 Clouds 25 1010 100 2000 1.54 220 04:53 27.07.2022
234 Haze 25 1007 94 3000 2.06 320 23:21 26.07.2022
235 Mist 25 1008 100 3000 1.54 280 21:49 26.07.2022
236 Rain 25 1009 94 3000 1.03 240 20:49 26.07.2022
237 Clouds 25 1010 100 2500 1.54 210 19:22 26.07.2022
238 Clouds 25 1010 100 2000 1.03 200 18:40 26.07.2022
239 Clouds 25 1009 94 2000 0 0 17:47 26.07.2022
240 Clouds 25 1008 94 2000 2.06 180 15:43 26.07.2022
241 Thunderstorm 26 1007 94 2500 3.09 180 14:38 26.07.2022
242 Haze 29 1007 79 4000 3.6 300 12:25 26.07.2022
243 Haze 27 1009 94 4000 3.09 310 09:59 26.07.2022
244 Haze 27 1010 94 4000 3.09 320 08:23 26.07.2022
245 Mist 25 1008 94 2000 1.03 210 01:52 26.07.2022
246 Rain 25 1008 94 2000 1.54 220 00:19 26.07.2022
247 Rain 25 1006 90 10000 2.07 189 22:40 25.07.2022
248 Haze 26 1009 94 3000 1.03 260 21:43 25.07.2022
249 Haze 26 1009 94 3000 1.03 260 20:43 25.07.2022
250 Haze 26 1009 94 3000 2.06 300 19:55 25.07.2022
251 Haze 26 1009 94 3000 2.06 280 19:24 25.07.2022
252 Haze 26 1008 94 3000 1.54 280 17:35 25.07.2022
253 Haze 26 1007 94 3000 1.54 220 16:40 25.07.2022
254 Haze 29 1005 84 4000 3.09 240 12:58 25.07.2022
255 Haze 29 1006 79 3000 2.06 260 10:47 25.07.2022
256 Haze 27 1008 94 3000 4.12 270 07:29 25.07.2022
257 Haze 25 1005 94 3000 2.06 250 23:57 24.07.2022
258 Haze 25 1005 94 3000 2.06 250 23:22 24.07.2022
259 Haze 25 1005 100 3000 2.06 250 22:41 24.07.2022
260 Haze 25 1006 100 3000 1.03 210 21:30 24.07.2022
261 Haze 26 1006 94 3000 1.54 210 20:57 24.07.2022
262 Haze 26 1006 94 3000 1.03 210 20:32 24.07.2022
263 Haze 26 1006 94 3000 1.03 260 18:59 24.07.2022
264 Haze 26 1005 94 3000 1.54 230 16:53 24.07.2022
265 Mist 26 1004 94 2500 2.06 230 15:53 24.07.2022
266 Mist 26 1003 100 2500 2.57 230 14:40 24.07.2022
267 Clouds 27 1003 94 2500 2.06 240 13:43 24.07.2022
268 Clouds 26 1003 94 2000 2.57 240 12:19 24.07.2022
269 Clouds 26 1004 94 2000 2.57 220 11:28 24.07.2022
270 Clouds 25 1005 100 2000 2.57 240 09:33 24.07.2022
271 Clouds 25 1005 100 1200 3.6 250 07:53 24.07.2022
272 Rain 25 1005 100 2000 2.57 240 06:38 24.07.2022
273 Mist 25 1003 94 3000 1.03 220 02:33 24.07.2022
274 Mist 25 1003 94 3000 1.54 220 22:37 23.07.2022
275 Clouds 25 1004 100 3000 1.54 240 20:47 23.07.2022
276 Rain 25 1004 100 3000 2.06 250 18:55 23.07.2022
277 Clouds 25 1004 94 3000 1.54 270 17:48 23.07.2022
278 Rain 25 1004 94 3000 2.06 260 17:24 23.07.2022
279 Clouds 25 1003 94 2500 2.57 240 15:51 23.07.2022
280 Clouds 25 1003 94 2500 2.57 250 15:21 23.07.2022
281 Clouds 25 1002 94 2500 2.57 250 14:47 23.07.2022
282 Rain 26 1002 94 2500 2.57 220 13:53 23.07.2022
283 Haze 27 1002 94 2500 5.14 270 11:46 23.07.2022
284 Rain 26 1003 100 2500 2.57 270 10:28 23.07.2022
285 Clouds 26 1004 100 2500 3.6 250 09:26 23.07.2022
286 Clouds 26 1004 94 2000 1.03 230 05:58 23.07.2022
287 Mist 25 1003 100 2500 1.54 270 02:54 23.07.2022
288 Rain 26 1003 94 3000 1.54 260 23:57 22.07.2022
289 Rain 26 1004 94 3000 1.03 240 21:18 22.07.2022
290 Rain 26 1006 94 3000 1.54 300 19:55 22.07.2022
291 Rain 25 1004 90 10000 4.38 294 18:36 22.07.2022
292 Haze 27 1005 89 3000 2.57 280 17:37 22.07.2022
293 Haze 29 1004 79 4000 5.14 300 15:26 22.07.2022
294 Haze 30 1003 74 4000 4.63 300 12:23 22.07.2022
295 Haze 30 1005 79 4000 4.63 310 09:45 22.07.2022
296 Haze 30 1006 79 4000 4.12 280 09:19 22.07.2022
297 Haze 29 1007 84 4000 3.09 310 07:23 22.07.2022
298 Mist 26 1006 94 3000 2.57 280 04:18 22.07.2022
299 Haze 26 1005 94 3000 1.54 250 22:56 21.07.2022
300 Haze 26 1006 94 3000 1.54 260 21:35 21.07.2022
301 Haze 27 1007 94 4000 1.54 300 19:31 21.07.2022
302 Haze 27 1007 89 4000 2.57 300 18:29 21.07.2022
303 Rain 27 1006 89 4000 2.06 250 17:20 21.07.2022
304 Haze 29 1005 79 4000 3.09 290 15:39 21.07.2022
305 Haze 29 1005 79 4000 3.6 290 14:44 21.07.2022
306 Haze 29 1004 79 4000 5.14 300 12:54 21.07.2022
307 Haze 29 1005 79 4000 5.66 290 11:23 21.07.2022
308 Haze 29 1006 79 4000 4.12 280 09:42 21.07.2022
309 Haze 29 1006 84 4000 4.12 300 08:52 21.07.2022
310 Haze 29 1006 84 4000 3.6 270 07:50 21.07.2022
311 Haze 27 1006 94 4000 3.6 240 06:25 21.07.2022
312 Haze 25 1004 100 3000 1.03 220 01:54 21.07.2022
313 Haze 26 1005 94 3000 1.54 220 22:22 20.07.2022
314 Haze 26 1005 94 3000 1.54 220 21:42 20.07.2022
315 Haze 26 1006 94 3000 1.03 200 20:39 20.07.2022
316 Haze 26 1006 94 3000 1.03 180 19:43 20.07.2022
317 Haze 26 1006 94 3000 1.54 230 18:52 20.07.2022
318 Haze 26 1006 94 3000 1.03 200 18:29 20.07.2022
319 Haze 27 1005 89 3000 1.54 230 16:46 20.07.2022
320 Haze 27 1004 89 3000 2.06 250 15:32 20.07.2022
321 Clouds 26 1003 84 10000 2.53 287 14:32 20.07.2022
322 Haze 28 1004 89 3500 3.09 270 12:34 20.07.2022
323 Haze 27 1006 94 3500 2.57 270 10:24 20.07.2022
324 Mist 25 1006 94 3000 2.57 220 04:50 20.07.2022
325 Mist 25 1004 94 3000 1.54 200 00:54 20.07.2022
326 Mist 25 1004 94 3000 1.54 200 00:25 20.07.2022
327 Mist 25 1005 94 3000 1.54 230 22:34 19.07.2022
328 Mist 25 1005 94 3000 1.54 220 21:53 19.07.2022
329 Mist 25 1006 94 3000 1.54 220 20:48 19.07.2022
330 Mist 25 1006 94 3000 2.06 220 19:22 19.07.2022
331 Mist 25 1006 94 3000 1.54 230 18:35 19.07.2022
332 Mist 25 1005 94 3000 1.54 250 17:51 19.07.2022
333 Mist 25 1004 94 3000 1.54 250 15:21 19.07.2022
334 Haze 25 1004 94 3000 3.6 240 12:27 19.07.2022
335 Haze 24 1005 100 3000 3.09 240 11:32 19.07.2022
336 Clouds 24 1006 94 2500 4.12 240 09:51 19.07.2022
337 Clouds 24 1006 94 2500 4.12 250 08:42 19.07.2022
338 Clouds 24 1006 100 2500 4.12 240 07:19 19.07.2022
339 Clouds 24 1006 94 2500 2.57 230 05:50 19.07.2022
340 Clouds 24 1005 94 2500 2.57 230 05:18 19.07.2022
341 Drizzle 23 1003 100 2000 3.09 210 02:33 19.07.2022
342 Haze 24 1003 94 3000 2.57 220 23:50 18.07.2022
343 Haze 24 1003 94 3000 2.57 230 23:19 18.07.2022
344 Haze 24 1003 94 3000 3.09 250 22:23 18.07.2022
345 Haze 24 1004 94 3000 3.09 230 20:57 18.07.2022
346 Haze 25 1004 94 3000 3.6 240 19:52 18.07.2022
347 Haze 25 1003 94 3000 4.12 250 17:53 18.07.2022
348 Clouds 24 1002 94 2000 3.6 240 16:28 18.07.2022
349 Clouds 24 1001 100 2000 3.6 250 15:19 18.07.2022
350 Haze 25 1000 94 3000 5.14 250 13:26 18.07.2022
351 Clouds 25 1001 94 2500 4.12 270 11:31 18.07.2022
352 Clouds 25 1001 94 1800 3.09 240 09:53 18.07.2022
353 Mist 26 1001 94 4000 2.06 240 07:48 18.07.2022
354 Clouds 26 1000 94 1500 1.03 350 02:51 18.07.2022
355 Clouds 25 1000 100 1800 2.06 300 22:55 17.07.2022
356 Clouds 25 1000 94 1500 2.06 300 22:28 17.07.2022
357 Clouds 25 1001 94 1800 5.14 300 21:26 17.07.2022
358 Clouds 25 1001 100 1500 5.14 310 20:44 17.07.2022
359 Clouds 26 1002 94 1800 5.14 300 19:49 17.07.2022
360 Mist 26 1002 94 2000 3.6 310 19:20 17.07.2022
361 Thunderstorm 26 1002 94 1500 4.63 300 17:39 17.07.2022
362 Rain 26 1001 94 1800 4.63 310 16:53 17.07.2022
363 Rain 27 1001 94 500 3.6 300 16:27 17.07.2022
364 Clouds 27 1001 94 2000 2.57 270 15:34 17.07.2022
365 Rain 27 1001 94 2500 3.09 270 13:47 17.07.2022
366 Clouds 26 1001 100 2000 5.14 290 12:40 17.07.2022
367 Rain 27 1002 94 3000 4.12 320 10:18 17.07.2022
368 Rain 27 1004 94 3000 2.06 290 06:58 17.07.2022
369 Haze 27 1002 94 3000 1.54 250 02:34 17.07.2022
370 Haze 28 1002 94 3000 1.03 250 23:23 16.07.2022
371 Haze 28 1003 94 3000 1.03 260 21:59 16.07.2022
372 Haze 28 1004 94 3000 1.03 20 20:28 16.07.2022
373 Clouds 29 1004 89 3000 1.03 220 18:43 16.07.2022
374 Clouds 29 1003 89 3500 1.03 40 17:25 16.07.2022
375 Thunderstorm 30 1001 79 4000 1.54 180 15:50 16.07.2022
376 Haze 31 1001 74 4000 1.03 350 11:55 16.07.2022
377 Haze 30 1002 79 4000 2.06 260 09:41 16.07.2022
378 Haze 30 1003 79 4000 2.57 250 09:22 16.07.2022
379 Haze 29 1003 89 4000 2.57 280 08:35 16.07.2022
380 Mist 27 1003 94 3000 2.57 240 06:57 16.07.2022
381 Mist 25 1002 94 3000 1.03 210 03:32 16.07.2022
382 Mist 25 1001 100 2500 1.54 230 23:54 15.07.2022
383 Mist 25 1001 100 2500 1.54 220 22:46 15.07.2022
384 Mist 26 1002 94 2500 0 0 21:52 15.07.2022
385 Mist 26 1002 94 2000 1.54 240 20:35 15.07.2022
386 Thunderstorm 25 1002 100 3000 0 0 18:46 15.07.2022
387 Clouds 26 1002 94 2000 2.06 290 17:51 15.07.2022
388 Haze 27 1000 94 4000 2.06 160 16:23 15.07.2022
389 Haze 28 999 89 3000 2.57 290 13:48 15.07.2022
390 Haze 30 999 84 4000 3.6 260 12:22 15.07.2022
391 Haze 28 1000 94 4000 3.09 260 10:51 15.07.2022
392 Clouds 26 1000 94 3000 1.54 210 07:47 15.07.2022
393 Rain 25 998 100 2000 2.06 290 02:47 15.07.2022
394 Mist 25 997 100 2500 1.54 280 00:39 15.07.2022
395 Clouds 25 998 100 2500 1.03 290 22:54 14.07.2022
396 Haze 25 998 94 2500 1.54 300 21:57 14.07.2022
397 Haze 25 998 94 2500 1.03 270 21:32 14.07.2022
398 Rain 25 998 100 2500 1.03 250 20:46 14.07.2022
399 Rain 25 998 100 2500 1.03 260 20:28 14.07.2022
400 Rain 25 998 100 2500 2.06 200 19:58 14.07.2022
401 Rain 26 997 94 2500 1.54 270 16:23 14.07.2022
402 Rain 26 996 94 2500 2.06 270 15:54 14.07.2022
403 Rain 26 996 94 2500 2.06 270 14:44 14.07.2022
404 Thunderstorm 26 996 94 2000 2.06 210 13:33 14.07.2022
405 Clouds 25 997 100 1500 3.09 200 12:19 14.07.2022
406 Thunderstorm 26 997 94 1000 1.03 270 11:25 14.07.2022
407 Rain 26 997 94 3000 3.09 200 10:39 14.07.2022
408 Drizzle 28 997 89 4000 3.09 310 08:22 14.07.2022
409 Mist 26 997 94 3000 3.09 310 03:36 14.07.2022
410 Mist 26 996 94 3000 2.57 310 00:55 14.07.2022
411 Mist 25 996 100 3000 2.06 300 23:41 13.07.2022
412 Mist 26 996 94 3000 3.09 320 22:27 13.07.2022
413 Mist 26 997 94 3000 3.6 310 21:32 13.07.2022
414 Mist 26 997 94 3000 3.6 320 20:38 13.07.2022
415 Mist 26 997 94 3000 3.6 310 17:59 13.07.2022
416 Mist 27 996 94 3000 3.6 310 17:20 13.07.2022
417 Mist 26 996 100 3000 3.09 310 15:59 13.07.2022
418 Mist 27 995 94 3000 4.12 290 13:45 13.07.2022
419 Rain 27 996 94 3000 2.57 280 11:24 13.07.2022
420 Rain 27 996 100 3000 3.09 300 10:40 13.07.2022
421 Rain 27 997 100 3000 4.12 300 09:28 13.07.2022
422 Haze 26 998 100 4000 1.03 320 08:21 13.07.2022
423 Thunderstorm 25 998 94 2500 4.12 310 04:36 13.07.2022
424 Thunderstorm 26 997 94 2500 2.57 320 00:25 13.07.2022
425 Thunderstorm 26 997 94 2500 4.12 310 22:28 12.07.2022
426 Rain 26 998 94 2500 3.6 310 21:45 12.07.2022
427 Rain 26 999 94 2500 5.14 310 20:44 12.07.2022
428 Thunderstorm 26 1000 94 2000 1.54 180 19:45 12.07.2022
429 Thunderstorm 26 999 94 3000 4.63 310 18:25 12.07.2022
430 Rain 26 998 94 3000 5.66 300 16:20 12.07.2022
431 Rain 28 998 94 2500 4.12 300 14:31 12.07.2022
432 Haze 29 997 89 3000 5.14 280 13:34 12.07.2022
433 Haze 27 998 94 3000 3.6 270 11:48 12.07.2022
434 Clouds 27 999 89 3000 3.6 320 10:25 12.07.2022
435 Haze 29 1001 89 4000 4.63 310 08:40 12.07.2022
436 Haze 29 1001 89 4000 5.66 320 07:47 12.07.2022
437 Mist 28 1001 89 3000 4.12 310 05:45 12.07.2022
438 Mist 26 1001 94 3000 4.12 300 04:46 12.07.2022
439 Mist 26 1000 94 3000 3.6 320 00:20 12.07.2022
440 Rain 26 1000 94 3000 2.57 290 22:39 11.07.2022
441 Mist 26 1002 94 3000 1.54 280 20:56 11.07.2022
442 Mist 25 1002 100 3000 1.54 260 20:32 11.07.2022
443 Mist 25 1002 100 3000 1.54 280 18:50 11.07.2022
444 Mist 25 1002 100 3000 2.57 300 18:28 11.07.2022
445 Mist 26 1001 94 3000 2.57 270 16:26 11.07.2022
446 Mist 26 1000 94 3000 2.06 250 15:23 11.07.2022
447 Thunderstorm 25 1000 100 4812 7.72 300 12:42 11.07.2022
448 Thunderstorm 28 1000 83 3000 1.54 230 11:23 11.07.2022
449 Haze 30 1001 79 5000 3.6 280 09:55 11.07.2022
450 Haze 28 1001 83 5000 2.57 300 09:25 11.07.2022
451 Haze 28 1002 83 5000 6.17 310 08:30 11.07.2022
452 Haze 25 1000 94 2500 2.57 290 00:56 11.07.2022
453 Haze 25 1000 94 2500 4.12 290 23:54 10.07.2022
454 Haze 25 1001 94 2500 2.57 290 22:45 10.07.2022
455 Clouds 25 1001 94 2500 4.12 290 20:55 10.07.2022
456 Clouds 25 1001 94 2500 4.12 290 20:34 10.07.2022
457 Clouds 25 1002 100 2000 3.6 280 19:29 10.07.2022
458 Clouds 25 1002 100 900 5.14 270 18:23 10.07.2022
459 Clouds 25 1001 100 2000 5.14 170 17:20 10.07.2022
460 Thunderstorm 25 1000 100 2000 2.57 200 16:21 10.07.2022
461 Clouds 25 1000 94 2000 2.57 290 14:44 10.07.2022
462 Thunderstorm 26 999 94 2000 2.57 310 13:29 10.07.2022
463 Thunderstorm 27 998 94 2000 0 0 11:39 10.07.2022
464 Thunderstorm 32 999 70 5000 4.63 320 09:45 10.07.2022
465 Haze 31 1000 74 5000 3.6 320 08:43 10.07.2022
466 Haze 29 1001 89 5000 2.57 340 06:39 10.07.2022
467 Mist 25 999 100 3000 2.06 290 23:50 09.07.2022
468 Mist 25 999 100 3000 3.09 310 22:26 09.07.2022
469 Mist 25 999 100 3000 3.09 310 22:26 09.07.2022
470 Thunderstorm 25 1000 94 3000 4.12 320 21:41 09.07.2022
471 Thunderstorm 26 1001 94 2500 2.57 330 19:44 09.07.2022
472 Mist 26 1000 94 2500 1.54 300 18:28 09.07.2022
473 Rain 26 999 94 3000 3.09 300 17:32 09.07.2022
474 Clouds 25 999 100 3000 2.57 310 16:34 09.07.2022
475 Rain 26 999 94 3000 1.03 230 15:39 09.07.2022
476 Rain 26 999 94 3000 2.57 280 14:23 09.07.2022
477 Clouds 26 998 94 3000 2.57 220 13:48 09.07.2022
478 Clouds 26 998 94 3000 0 0 11:54 09.07.2022
479 Haze 29 999 94 4000 3.09 340 10:27 09.07.2022
480 Clouds 28 999 94 4000 2.57 330 09:56 09.07.2022
481 Haze 31 1001 74 5000 6.17 330 07:44 09.07.2022
482 Haze 28 1000 89 5000 4.12 320 04:45 09.07.2022
483 Haze 26 999 94 3000 2.06 300 23:43 08.07.2022
484 Haze 27 1000 94 3000 1.03 260 22:34 08.07.2022
485 Haze 27 1001 94 3000 2.06 300 21:27 08.07.2022
486 Haze 27 1001 94 3000 1.03 300 20:38 08.07.2022
487 Haze 27 1001 94 3000 2.06 280 19:38 08.07.2022
488 Haze 27 1002 94 3000 1.54 280 17:50 08.07.2022
489 Haze 28 1001 94 3000 1.54 240 16:33 08.07.2022
490 Thunderstorm 28 1000 94 3000 2.06 320 14:50 08.07.2022
491 Thunderstorm 28 1000 94 3000 1.54 330 12:42 08.07.2022
492 Clouds 28 1002 94 2500 3.09 320 10:52 08.07.2022
493 Clouds 28 1002 94 2500 2.06 270 09:58 08.07.2022
494 Clouds 27 1003 94 2500 1.54 350 07:53 08.07.2022
495 Haze 27 1003 94 3000 4.63 320 05:37 08.07.2022
496 Mist 26 1002 94 3000 1.03 270 00:41 08.07.2022
497 Mist 26 1002 100 2500 1.54 280 22:52 07.07.2022
498 Mist 26 1003 100 2500 1.03 200 21:48 07.07.2022
499 Rain 26 1004 100 2500 0 0 19:35 07.07.2022
500 Mist 26 1004 94 2500 0 0 17:50 07.07.2022
501 Mist 26 1003 94 2000 0 0 16:23 07.07.2022
502 Clouds 26 1002 94 2000 2.06 280 14:21 07.07.2022
503 Thunderstorm 26 1002 94 2000 1.54 140 12:43 07.07.2022
504 Thunderstorm 25 1003 100 1000 2.57 150 12:23 07.07.2022
505 Clouds 33 999 58 10000 3.35 257 11:33 07.07.2022
506 Clouds 26 1003 94 1200 4.63 200 10:45 07.07.2022
507 Clouds 28 1003 89 2500 2.06 160 10:27 07.07.2022
508 Clouds 29 1004 84 3000 2.06 200 09:22 07.07.2022
509 Haze 28 1005 89 4000 2.06 270 05:57 07.07.2022
510 Rain 26 1001 83 10000 1.59 235 00:18 07.07.2022
511 Rain 26 1001 83 10000 1.59 235 23:36 06.07.2022
512 Haze 26 1003 94 3000 1.03 310 23:18 06.07.2022
513 Haze 26 1003 94 3000 1.03 310 22:47 06.07.2022
514 Haze 26 1003 94 3000 1.03 310 22:47 06.07.2022
515 Haze 27 1003 89 3000 1.03 250 22:28 06.07.2022
516 Haze 27 1004 89 3000 1.03 290 20:19 06.07.2022
517 Haze 27 1004 94 3000 1.03 330 18:48 06.07.2022
518 Mist 28 1003 89 2500 1.03 20 16:58 06.07.2022
519 Mist 28 1002 89 2500 1.54 310 15:44 06.07.2022
520 Haze 29 1001 84 4000 2.57 310 12:44 06.07.2022
521 Rain 29 1001 89 4000 2.06 200 11:49 06.07.2022
522 Rain 29 1002 84 4000 2.06 180 10:33 06.07.2022
523 Haze 29 1003 79 4000 1.54 230 08:43 06.07.2022
524 Haze 28 1003 94 4000 1.54 260 07:39 06.07.2022
525 Haze 27 1003 94 3000 1.54 240 05:37 06.07.2022
526 Haze 27 1001 94 3000 0 0 22:49 05.07.2022
527 Haze 27 1001 89 3000 1.03 240 22:27 05.07.2022
528 Haze 27 1002 94 3000 1.03 200 20:42 05.07.2022
529 Haze 27 1002 94 3000 1.54 200 19:44 05.07.2022
530 Haze 28 1002 89 3000 1.03 180 19:26 05.07.2022
531 Haze 28 1000 89 3000 1.54 170 17:48 05.07.2022
532 Haze 28 999 83 3000 1.54 230 16:57 05.07.2022
533 Haze 29 999 79 5000 2.06 240 15:38 05.07.2022
534 Haze 30 999 74 5000 2.06 230 14:33 05.07.2022
535 Haze 30 998 79 5000 2.57 220 12:48 05.07.2022
536 Haze 30 999 79 5000 3.6 240 11:52 05.07.2022
537 Haze 29 999 84 5000 3.6 220 10:42 05.07.2022
538 Haze 29 1000 84 4000 3.6 210 09:24 05.07.2022
539 Haze 27 1000 94 4000 3.09 250 07:52 05.07.2022
540 Clouds 26 1000 94 4000 2.06 270 05:45 05.07.2022
541 Clouds 25 1000 94 3000 3.09 220 04:25 05.07.2022
542 Rain 25 999 100 2000 1.54 210 00:37 05.07.2022
543 Thunderstorm 25 999 100 2500 1.54 240 23:34 04.07.2022
544 Thunderstorm 25 999 100 2500 1.54 240 22:47 04.07.2022
545 Rain 26 1000 94 2500 2.57 220 21:46 04.07.2022
546 Clouds 26 1001 100 2500 2.57 230 20:53 04.07.2022
547 Clouds 26 1001 100 2500 2.57 230 20:34 04.07.2022
548 Rain 26 1001 100 2500 2.57 230 19:55 04.07.2022
549 Rain 26 1001 100 2500 2.57 230 19:35 04.07.2022
550 Thunderstorm 26 1001 94 2500 2.06 230 17:58 04.07.2022
551 Thunderstorm 26 1000 94 1500 1.54 210 15:58 04.07.2022
552 Thunderstorm 26 999 94 2000 2.06 190 15:33 04.07.2022
553 Rain 27 999 89 2000 2.06 240 13:29 04.07.2022
554 Thunderstorm 27 1000 94 2000 1.03 320 12:21 04.07.2022
555 Haze 29 1000 79 4000 4.12 280 10:34 04.07.2022
556 Haze 29 1002 79 4000 4.12 290 09:41 04.07.2022
557 Haze 27 1003 94 3000 3.09 250 07:33 04.07.2022
558 Mist 26 1002 94 3000 2.06 270 04:48 04.07.2022
559 Mist 26 1001 94 3000 2.06 280 00:36 04.07.2022
560 Rain 27 1002 94 3000 1.54 280 22:59 03.07.2022
561 Mist 27 1003 94 1500 1.54 230 20:58 03.07.2022
562 Mist 27 1003 94 2500 1.54 230 20:31 03.07.2022
563 Haze 27 1003 94 3000 1.03 200 19:27 03.07.2022
564 Haze 27 1002 94 3000 1.03 200 18:43 03.07.2022
565 Rain 27 1001 94 3000 1.03 220 17:43 03.07.2022
566 Haze 27 1001 94 3000 0 0 15:51 03.07.2022
567 Haze 27 1000 94 3000 1.03 260 14:59 03.07.2022
568 Haze 27 1000 94 3000 1.54 270 14:18 03.07.2022
569 Rain 27 1000 94 3000 1.54 170 13:48 03.07.2022
570 Rain 28 999 77 10000 4.02 255 12:33 03.07.2022
571 Clouds 25 1001 94 2500 2.57 330 11:28 03.07.2022
572 Thunderstorm 27 1003 89 1500 4.12 320 10:38 03.07.2022
573 Clouds 29 1003 89 2000 3.6 250 09:31 03.07.2022
574 Haze 28 1003 94 4000 3.09 220 07:35 03.07.2022
575 Drizzle 25 1001 100 2500 1.03 210 02:49 03.07.2022
576 Haze 25 1001 100 3000 1.54 150 00:20 03.07.2022
577 Haze 25 1002 100 3000 1.03 210 22:33 02.07.2022
578 Haze 26 1002 94 3000 1.03 200 20:50 02.07.2022
579 Haze 26 1002 94 2500 2.06 190 19:52 02.07.2022
580 Clouds 26 1002 94 2500 2.06 200 19:20 02.07.2022
581 Clouds 27 1002 89 2500 1.03 200 17:41 02.07.2022
582 Thunderstorm 27 1001 89 2500 1.03 140 16:48 02.07.2022
583 Rain 31 998 63 10000 2.7 286 13:51 02.07.2022
584 Haze 32 1000 66 4000 2.57 310 12:19 02.07.2022
585 Haze 32 1000 70 5000 4.63 270 10:54 02.07.2022
586 Haze 32 1001 70 5000 5.14 310 10:33 02.07.2022
587 Haze 32 1002 70 5000 5.14 290 08:54 02.07.2022
588 Haze 31 1002 74 5000 4.12 270 08:19 02.07.2022
589 Haze 29 1003 79 5000 3.6 300 06:51 02.07.2022
590 Haze 26 1001 94 3000 1.03 200 00:55 02.07.2022
591 Rain 27 1002 89 2500 0 0 23:31 01.07.2022
592 Rain 26 1002 94 2500 1.54 330 22:40 01.07.2022
593 Rain 27 1003 89 2500 0 0 21:40 01.07.2022
594 Clouds 27 1003 94 2000 0 0 20:59 01.07.2022
595 Rain 28 1004 89 2000 2.57 320 20:37 01.07.2022
596 Clouds 28 1004 89 3000 1.03 340 19:41 01.07.2022
597 Rain 29 1003 84 4000 0 0 17:52 01.07.2022
598 Haze 29 1001 79 5000 2.06 180 15:26 01.07.2022
599 Haze 30 1000 79 5000 1.54 210 13:54 01.07.2022
600 Haze 30 1000 79 5000 1.54 210 13:54 01.07.2022
601 Haze 29 1001 74 5000 4.12 300 11:49 01.07.2022
602 Haze 33 1002 66 5000 3.09 200 10:20 01.07.2022
603 Haze 31 1004 74 5000 1.03 190 08:46 01.07.2022
604 Haze 25 1003 94 4000 2.06 180 02:49 01.07.2022
605 Haze 26 1003 94 3000 1.03 180 00:25 01.07.2022
606 Rain 26 1003 94 3000 0 0 22:54 30.06.2022
607 Haze 26 1003 94 3000 0 0 22:33 30.06.2022
608 Haze 26 1003 94 3000 1.54 220 21:59 30.06.2022
609 Haze 26 1003 94 3000 1.54 220 21:34 30.06.2022
610 Haze 26 1004 94 3000 1.03 340 20:22 30.06.2022
611 Haze 26 1004 94 3000 1.54 210 19:53 30.06.2022
612 Haze 26 1004 94 3000 1.54 210 19:18 30.06.2022
613 Haze 26 1004 94 3000 1.03 160 18:34 30.06.2022
614 Haze 26 1004 94 3000 1.03 180 17:38 30.06.2022
615 Haze 27 1003 89 3000 1.03 170 16:48 30.06.2022
616 Rain 25 1001 94 3000 2.06 180 14:47 30.06.2022
617 Thunderstorm 25 1000 94 3000 2.57 150 13:30 30.06.2022
618 Thunderstorm 26 1001 94 2000 2.06 130 12:34 30.06.2022
619 Thunderstorm 26 1001 89 2000 4.12 220 11:28 30.06.2022
620 Haze 33 1002 66 4000 4.12 320 09:53 30.06.2022
621 Haze 33 1003 66 5000 2.06 340 09:31 30.06.2022
622 Haze 31 1003 74 5000 2.57 260 07:41 30.06.2022
623 Haze 29 1003 79 4000 2.06 220 05:47 30.06.2022
624 Clouds 27 999 80 10000 2.59 305 00:31 30.06.2022
625 Rain 27 1002 89 3000 1.54 230 23:19 29.06.2022
626 Haze 27 1002 89 3000 1.54 170 22:38 29.06.2022
627 Haze 27 1003 89 3000 1.03 230 21:34 29.06.2022
628 Haze 28 1004 78 3000 1.54 40 20:33 29.06.2022
629 Haze 28 1003 78 3000 1.54 190 19:36 29.06.2022
630 Haze 29 1003 79 3000 2.06 130 17:42 29.06.2022
631 Haze 30 1002 74 3000 1.54 110 16:36 29.06.2022
632 Haze 31 1000 74 3000 1.03 20 14:56 29.06.2022
633 Thunderstorm 30 1001 74 3000 2.06 290 12:39 29.06.2022
634 Clouds 30 1002 70 2500 5.14 230 10:37 29.06.2022
635 Haze 34 1002 62 5000 2.57 250 09:32 29.06.2022
636 Haze 33 1004 66 5000 3.6 290 07:39 29.06.2022
637 Haze 30 1003 79 4000 2.06 280 04:51 29.06.2022
638 Haze 28 1001 83 3000 1.03 170 00:57 29.06.2022
639 Haze 28 1001 83 3000 1.03 170 00:35 29.06.2022
640 Haze 28 1002 83 3000 1.54 120 22:53 28.06.2022
641 Haze 28 1003 83 3000 1.54 220 22:24 28.06.2022
642 Haze 29 1003 79 3000 1.54 220 21:54 28.06.2022
643 Haze 29 1003 79 3000 1.03 180 21:32 28.06.2022
644 Haze 30 1003 74 4000 1.54 320 20:34 28.06.2022
645 Haze 30 1004 74 4000 1.03 350 19:33 28.06.2022
646 Haze 30 1004 74 4000 1.03 350 19:33 28.06.2022
647 Haze 31 1004 70 4000 0 0 18:45 28.06.2022
648 Haze 31 1004 70 4000 0 0 18:45 28.06.2022
649 Haze 31 1004 70 4000 2.06 340 17:39 28.06.2022
650 Haze 33 1002 62 4000 1.54 200 15:57 28.06.2022
651 Haze 34 1001 59 4000 2.06 180 15:21 28.06.2022
652 Haze 34 1001 59 4000 2.06 230 14:20 28.06.2022
653 Haze 34 1001 59 4000 3.09 230 13:50 28.06.2022
654 Haze 34 1001 62 4000 2.57 210 12:54 28.06.2022
655 Haze 33 1004 66 5000 2.57 220 10:57 28.06.2022
656 Haze 32 1005 70 5000 2.57 250 09:25 28.06.2022
657 Haze 31 1005 74 5000 3.09 250 08:43 28.06.2022
658 Haze 30 1005 79 5000 2.06 240 07:26 28.06.2022
659 Haze 28 1005 83 5000 3.6 220 05:58 28.06.2022
660 Haze 27 1004 89 3000 0 0 23:59 27.06.2022
661 Haze 27 1004 89 3000 1.54 310 23:36 27.06.2022
662 Haze 27 1004 89 3000 1.54 280 22:51 27.06.2022
663 Haze 27 1005 89 3000 1.03 230 21:33 27.06.2022
664 Haze 27 1006 89 3000 1.54 130 20:44 27.06.2022
665 Haze 28 1006 89 4000 1.54 270 18:58 27.06.2022
666 Haze 28 1005 83 4000 1.03 210 18:19 27.06.2022
667 Haze 29 1004 79 4000 1.03 130 16:19 27.06.2022
668 Haze 30 1003 74 4000 2.06 200 14:44 27.06.2022
669 Haze 30 1003 79 4000 3.09 240 13:25 27.06.2022
670 Haze 29 1003 84 4000 4.12 230 12:52 27.06.2022
671 Clouds 30 1004 70 2000 4.63 120 10:22 27.06.2022
672 Haze 33 1005 62 4000 2.06 220 08:47 27.06.2022
673 Haze 32 1005 70 4000 2.57 300 07:59 27.06.2022
674 Haze 30 1006 79 4000 1.54 200 06:38 27.06.2022
675 Haze 28 1004 83 3000 0 0 02:23 27.06.2022
676 Haze 28 1004 78 3000 1.54 160 23:49 26.06.2022
677 Haze 29 1004 74 3000 1.03 210 21:58 26.06.2022
678 Haze 28 1004 78 3500 1.03 180 20:34 26.06.2022
679 Haze 29 1005 74 3500 1.03 150 19:23 26.06.2022
680 Haze 30 1004 70 3500 1.54 180 18:24 26.06.2022
681 Haze 31 1002 70 4000 2.57 150 15:53 26.06.2022
682 Haze 32 1001 66 4000 3.09 220 14:34 26.06.2022
683 Haze 32 1001 66 4000 3.09 200 13:30 26.06.2022
684 Haze 31 1001 70 4000 3.6 190 12:52 26.06.2022
685 Haze 31 1002 70 4000 3.6 180 11:21 26.06.2022
686 Haze 30 1003 74 4000 2.57 180 10:23 26.06.2022
687 Haze 29 1004 79 4000 3.09 200 08:45 26.06.2022
688 Haze 29 1004 74 4000 3.09 220 07:23 26.06.2022
689 Haze 27 1001 78 3000 1.54 210 00:48 26.06.2022
690 Haze 27 1001 78 3000 1.54 210 00:20 26.06.2022
691 Haze 28 1001 74 3000 0 0 23:33 25.06.2022
692 Haze 28 1001 74 3000 0 0 23:33 25.06.2022
693 Haze 28 1001 74 3000 0 0 22:51 25.06.2022
694 Haze 28 1001 74 3000 1.03 210 22:25 25.06.2022
695 Haze 28 1002 74 3000 1.03 180 21:22 25.06.2022
696 Haze 28 1001 74 3000 2.57 230 20:59 25.06.2022
697 Haze 29 1002 70 3000 3.09 220 20:25 25.06.2022
698 Haze 29 1002 74 3000 2.06 160 18:42 25.06.2022
699 Haze 31 1001 66 3000 1.54 180 17:28 25.06.2022
700 Haze 31 1001 66 3000 2.57 160 16:31 25.06.2022
701 Haze 32 1000 58 4000 2.06 180 14:47 25.06.2022
702 Haze 33 1000 58 4000 1.54 180 12:51 25.06.2022
703 Haze 33 999 58 4000 2.57 210 12:32 25.06.2022
704 Haze 30 1003 74 3500 2.57 190 09:40 25.06.2022
705 Rain 29 1004 70 3500 2.06 170 08:56 25.06.2022
706 Haze 28 1004 74 3000 2.57 150 08:28 25.06.2022
707 Haze 28 1004 78 3000 1.54 50 06:46 25.06.2022
708 Haze 24 1002 94 3000 1.03 40 01:53 25.06.2022
709 Haze 25 1000 88 3000 1.54 270 00:20 25.06.2022
710 Clouds 25 1003 88 3000 1.03 20 22:29 24.06.2022
711 Thunderstorm 25 1006 88 3000 2.57 50 21:28 24.06.2022
712 Thunderstorm 25 1006 88 3000 2.57 10 20:24 24.06.2022
713 Thunderstorm 25 1006 88 3000 5.14 290 19:43 24.06.2022
714 Thunderstorm 24 1006 83 3000 7.72 300 19:18 24.06.2022
715 Haze 25 1007 78 3000 7.72 330 18:46 24.06.2022
716 Haze 30 1005 70 3000 4.12 280 18:28 24.06.2022
717 Haze 32 1003 62 3000 3.09 200 16:48 24.06.2022
718 Haze 33 1002 62 3000 3.09 160 14:58 24.06.2022
719 Haze 33 1001 62 3000 3.09 150 14:24 24.06.2022
720 Haze 33 1001 62 3000 2.06 170 13:46 24.06.2022
721 Haze 32 1003 66 4000 2.06 220 11:42 24.06.2022
722 Haze 32 1003 66 4000 2.06 210 10:39 24.06.2022
723 Haze 33 1005 58 5000 2.06 240 09:42 24.06.2022
724 Haze 33 1005 58 5000 2.06 20 08:54 24.06.2022
725 Haze 32 1005 62 5000 2.57 340 08:19 24.06.2022
726 Haze 31 1007 66 5000 1.03 0 06:44 24.06.2022
727 Haze 30 1007 70 5000 1.54 340 06:25 24.06.2022
728 Haze 28 1007 89 4000 1.03 200 04:50 24.06.2022
729 Haze 27 1004 89 3000 2.06 220 23:43 23.06.2022
730 Haze 27 1005 89 3000 1.03 300 22:43 23.06.2022
731 Haze 27 1006 89 3000 1.03 300 21:22 23.06.2022
732 Haze 27 1006 89 3000 1.54 230 20:37 23.06.2022
733 Haze 27 1007 89 3000 1.54 230 19:53 23.06.2022
734 Haze 27 1007 83 3000 1.54 150 18:27 23.06.2022
735 Haze 27 1007 83 3000 1.03 10 17:34 23.06.2022
736 Haze 26 1006 78 3000 1.03 120 16:26 23.06.2022
737 Haze 28 1006 78 3000 1.54 90 15:26 23.06.2022
738 Haze 28 1006 78 3000 1.54 90 15:26 23.06.2022
739 Haze 28 1005 74 3000 1.03 50 14:34 23.06.2022
740 Haze 30 1006 66 3000 1.54 340 11:41 23.06.2022
741 Thunderstorm 29 1004 70 3000 4.12 20 10:40 23.06.2022
742 Haze 35 1005 46 5000 1.54 330 09:19 23.06.2022
743 Haze 31 1007 66 5000 1.03 10 04:43 23.06.2022
744 Haze 27 1005 78 3000 1.54 160 00:27 23.06.2022
745 Haze 27 1005 78 3000 0 0 23:49 22.06.2022
746 Haze 27 1005 74 3000 1.03 120 22:53 22.06.2022
747 Haze 28 1006 65 3000 1.03 330 21:28 22.06.2022
748 Haze 28 1007 65 3000 1.54 340 20:48 22.06.2022
749 Haze 29 1007 61 3000 1.03 340 20:18 22.06.2022
750 Haze 30 1006 62 3000 1.54 350 18:57 22.06.2022
751 Haze 30 1005 62 3000 2.06 140 17:31 22.06.2022
752 Haze 31 1005 58 3000 2.06 140 16:40 22.06.2022
753 Haze 33 1004 52 4000 3.6 120 15:28 22.06.2022
754 Haze 34 1002 52 4000 3.6 90 14:40 22.06.2022
755 Haze 34 1002 55 4000 3.6 150 13:45 22.06.2022
756 Haze 34 1002 55 4000 3.6 140 13:23 22.06.2022
757 Haze 34 1003 49 4000 1.03 310 11:50 22.06.2022
758 Haze 33 1003 58 3000 1.54 330 10:58 22.06.2022
759 Haze 33 1003 58 3000 1.54 330 10:58 22.06.2022
760 Haze 33 1004 55 3000 1.54 280 10:20 22.06.2022
761 Haze 32 1006 62 5000 0 0 08:48 22.06.2022
762 Haze 27 1006 83 4000 0 0 05:59 22.06.2022
763 Haze 24 1003 94 3000 1.54 100 01:50 22.06.2022
764 Haze 24 1003 94 3000 1.03 20 00:39 22.06.2022
765 Haze 24 1003 94 3000 0 0 22:37 21.06.2022
766 Haze 25 1005 88 3000 0 0 20:39 21.06.2022
767 Haze 25 1004 83 3000 1.54 210 18:53 21.06.2022
768 Haze 25 1003 83 3000 1.54 140 17:42 21.06.2022
769 Haze 23 1002 94 3000 2.06 110 15:21 21.06.2022
770 Thunderstorm 25 1001 88 2000 1.54 110 11:55 21.06.2022
771 Thunderstorm 27 1002 78 2000 3.6 110 10:20 21.06.2022
772 Haze 31 1003 70 4000 2.06 340 08:51 21.06.2022
773 Haze 30 1003 89 4000 2.06 180 07:35 21.06.2022
774 Haze 24 1003 94 2500 3.09 180 03:21 21.06.2022
775 Haze 24 1003 94 2500 1.54 140 23:27 20.06.2022
776 Haze 24 1003 94 2500 1.03 240 21:59 20.06.2022
777 Clouds 24 1004 94 2500 1.03 140 21:32 20.06.2022
778 Thunderstorm 24 1005 94 1800 3.6 100 19:57 20.06.2022
779 Thunderstorm 23 1004 94 1800 2.06 120 18:56 20.06.2022
780 Rain 24 1004 88 2000 5.14 140 18:24 20.06.2022
781 Thunderstorm 25 1004 94 1800 3.6 150 17:41 20.06.2022
782 Thunderstorm 30 1002 74 3000 3.09 120 16:21 20.06.2022
783 Haze 31 1001 70 4000 2.06 70 14:29 20.06.2022
784 Haze 32 1002 62 4000 2.06 100 11:47 20.06.2022
785 Haze 33 1004 62 5000 2.06 170 09:55 20.06.2022
786 Haze 32 1005 66 5000 2.06 210 08:45 20.06.2022
787 Haze 30 1006 74 5000 1.54 220 07:35 20.06.2022
788 Haze 27 1006 78 5000 2.57 210 04:30 20.06.2022
789 Haze 27 1004 78 3000 2.06 320 01:32 20.06.2022
790 Haze 27 1004 78 3000 2.57 300 23:48 19.06.2022
791 Haze 28 1004 74 3000 1.03 200 22:19 19.06.2022
792 Haze 28 1006 78 3000 1.54 260 21:42 19.06.2022
793 Haze 27 1005 78 3000 1.03 210 20:49 19.06.2022
794 Haze 27 1006 83 3000 1.54 230 19:49 19.06.2022
795 Haze 28 1006 78 3000 1.54 240 19:24 19.06.2022
796 Haze 28 1006 74 3000 1.03 270 18:32 19.06.2022
797 Thunderstorm 29 1005 70 3000 3.6 200 17:42 19.06.2022
798 Haze 32 1005 66 3000 1.54 130 16:47 19.06.2022
799 Haze 33 1004 62 4000 1.03 80 16:23 19.06.2022
800 Haze 33 1004 58 4000 2.57 160 15:29 19.06.2022
801 Haze 34 1003 55 4000 4.12 160 14:41 19.06.2022
802 Haze 34 1003 59 4000 2.06 120 13:52 19.06.2022
803 Haze 33 1004 62 4000 2.06 270 12:19 19.06.2022
804 Haze 32 1006 62 4000 1.03 90 10:52 19.06.2022
805 Haze 28 1008 74 4000 2.06 360 08:55 19.06.2022
806 Haze 27 1008 78 4000 2.06 10 08:31 19.06.2022
807 Haze 25 1008 94 3000 2.06 340 06:54 19.06.2022
808 Thunderstorm 24 1006 94 2000 4.12 320 03:38 19.06.2022
809 Clouds 25 1005 94 3000 0 0 00:28 19.06.2022
810 Haze 25 1006 94 3000 1.03 270 23:59 18.06.2022
811 Haze 25 1006 94 3000 1.03 270 23:34 18.06.2022
812 Haze 25 1006 94 3000 1.03 150 22:23 18.06.2022
813 Rain 26 1007 89 3000 1.03 120 20:51 18.06.2022
814 Rain 26 1007 89 3000 2.06 120 20:18 18.06.2022
815 Haze 26 1007 89 3000 2.06 100 18:57 18.06.2022
816 Haze 26 1007 89 3000 2.06 100 18:38 18.06.2022
817 Thunderstorm 28 1007 83 3000 3.6 150 17:29 18.06.2022
818 Haze 28 1005 78 4000 1.03 290 15:57 18.06.2022
819 Rain 29 1004 84 4000 1.54 10 14:54 18.06.2022
820 Haze 29 1004 84 4000 1.03 50 14:35 18.06.2022
821 Thunderstorm 29 1004 70 4000 6.17 330 12:30 18.06.2022
822 Haze 35 1004 55 4000 3.09 190 11:25 18.06.2022
823 Haze 35 1005 55 4000 3.6 190 09:46 18.06.2022
824 Haze 34 1007 59 4000 4.63 190 08:59 18.06.2022
825 Haze 31 1008 74 4000 4.63 210 07:34 18.06.2022
826 Haze 31 1008 74 4000 4.63 210 07:34 18.06.2022
827 Haze 29 1008 17 4000 2.57 190 05:58 18.06.2022
828 Haze 27 1006 83 3000 4.12 140 02:51 18.06.2022
829 Rain 27 1005 83 3000 0 0 01:21 18.06.2022
830 Haze 27 1005 83 3000 1.03 180 00:32 18.06.2022
831 Rain 27 1005 83 3000 0 0 23:40 17.06.2022
832 Haze 27 1005 83 3000 1.03 100 22:33 17.06.2022
833 Haze 28 1007 78 3000 1.03 160 20:29 17.06.2022
834 Haze 28 1007 78 3000 1.54 180 19:24 17.06.2022
835 Haze 28 1006 83 3000 1.03 120 18:19 17.06.2022
836 Clouds 27 1005 83 3000 1.54 130 16:50 17.06.2022
837 Clouds 28 1005 78 3000 0 0 16:25 17.06.2022
838 Haze 31 1005 62 3000 3.6 220 15:41 17.06.2022
839 Haze 35 1003 49 4000 2.06 280 14:24 17.06.2022
840 Haze 35 1003 49 4000 3.09 210 13:59 17.06.2022
841 Haze 35 1003 49 4000 3.09 210 13:39 17.06.2022
842 Haze 35 1003 55 4000 3.6 180 12:29 17.06.2022
843 Haze 35 1004 55 4000 2.06 200 11:55 17.06.2022
844 Haze 35 1004 55 4000 2.06 200 11:34 17.06.2022
845 Haze 33 1006 62 4000 3.09 200 09:46 17.06.2022
846 Haze 31 1007 70 4000 2.57 200 08:26 17.06.2022
847 Haze 30 1008 74 3500 2.57 230 06:50 17.06.2022
848 Haze 28 1007 83 3000 2.06 310 04:19 17.06.2022
849 Haze 27 1006 89 3000 2.06 220 01:56 17.06.2022
850 Haze 27 1005 89 3000 1.03 240 23:47 16.06.2022
851 Haze 27 1005 83 3000 2.06 180 22:42 16.06.2022
852 Haze 27 1006 89 3000 2.57 180 21:22 16.06.2022
853 Haze 27 1006 89 3000 1.54 180 20:55 16.06.2022
854 Haze 28 1007 83 3000 1.03 170 20:35 16.06.2022
855 Haze 28 1007 83 3000 2.06 210 19:41 16.06.2022
856 Haze 28 1007 83 3000 1.03 180 18:24 16.06.2022
857 Haze 28 1006 89 3000 1.03 140 17:43 16.06.2022
858 Haze 28 1006 83 3000 1.54 200 16:35 16.06.2022
859 Haze 29 1004 79 3000 0 0 15:22 16.06.2022
860 Haze 28 1004 83 3500 1.54 300 14:37 16.06.2022
861 Haze 27 1004 83 3500 1.03 260 13:20 16.06.2022
862 Thunderstorm 27 1005 83 3000 1.54 190 12:36 16.06.2022
863 Thunderstorm 27 1005 83 2500 2.06 190 11:49 16.06.2022
864 Clouds 37 1002 36 10000 4.13 279 10:54 16.06.2022
865 Clouds 27 1007 89 3000 4.12 270 09:43 16.06.2022
866 Thunderstorm 31 1007 70 5000 1.54 130 09:21 16.06.2022
867 Haze 32 1007 62 5000 2.06 270 08:28 16.06.2022
868 Haze 31 1007 70 5000 3.09 300 07:24 16.06.2022
869 Haze 27 1007 89 5000 2.57 290 04:42 16.06.2022
870 Haze 26 1006 89 3000 0 0 02:19 16.06.2022
871 Haze 26 1006 89 3000 1.54 70 01:34 16.06.2022
872 Haze 26 1006 89 3000 1.54 70 01:34 16.06.2022
873 Haze 26 1006 94 3000 1.54 130 00:39 16.06.2022
874 Haze 26 1006 89 3000 1.54 180 23:33 15.06.2022
875 Haze 27 1006 89 3000 2.57 150 22:35 15.06.2022
876 Haze 27 1007 89 3000 1.03 90 21:21 15.06.2022
877 Haze 27 1007 89 3000 0 0 20:38 15.06.2022
878 Haze 27 1007 89 3000 0 0 20:19 15.06.2022
879 Haze 27 1007 83 3000 1.03 220 19:19 15.06.2022
880 Haze 27 1006 83 3000 1.54 120 17:55 15.06.2022
881 Rain 27 1005 83 3000 1.54 120 16:55 15.06.2022
882 Haze 27 1004 89 4000 2.57 200 15:36 15.06.2022
883 Rain 27 1004 89 4000 1.03 110 13:44 15.06.2022
884 Clouds 27 1004 78 3000 2.06 330 12:54 15.06.2022
885 Clouds 31 1004 62 4000 7.72 330 11:52 15.06.2022
886 Haze 38 1004 44 4000 5.14 300 10:24 15.06.2022
887 Haze 37 1004 47 4000 3.6 140 09:39 15.06.2022
888 Haze 36 1007 49 5000 4.12 300 08:30 15.06.2022
889 Haze 34 1007 55 5000 4.63 330 06:33 15.06.2022
890 Haze 30 1006 70 4000 1.54 180 03:59 15.06.2022
891 Haze 29 1004 70 3000 2.3 228 01:54 15.06.2022
892 Haze 29 1004 70 3000 0 0 00:50 15.06.2022
893 Haze 30 1004 66 3000 2.57 300 23:39 14.06.2022
894 Rain 30 1004 66 3000 2.57 300 23:18 14.06.2022
895 Haze 30 1005 66 3000 2.06 270 22:18 14.06.2022
896 Haze 30 1005 66 3000 2.57 280 21:33 14.06.2022
897 Haze 30 1006 62 3000 2.57 270 20:48 14.06.2022
898 Haze 30 1006 62 3500 2.06 270 20:28 14.06.2022
899 Haze 30 1006 66 3500 2.57 270 18:56 14.06.2022
900 Thunderstorm 31 1006 62 3500 4.12 310 17:40 14.06.2022
901 Haze 31 1006 62 3500 4.63 300 16:43 14.06.2022
902 Haze 32 1005 58 4000 2.57 260 15:50 14.06.2022
903 Haze 31 1003 62 4000 4.12 210 15:22 14.06.2022
904 Haze 31 1003 62 4000 5.66 170 14:30 14.06.2022
905 Haze 38 1003 39 4000 4.12 230 13:40 14.06.2022
906 Haze 35 1003 49 4000 3.09 240 12:30 14.06.2022
907 Haze 34 1004 49 4000 7.2 240 11:31 14.06.2022
908 Haze 39 1004 39 4000 2.06 60 10:44 14.06.2022
909 Haze 38 1005 41 5000 3.6 290 09:48 14.06.2022
910 Haze 38 1007 41 5000 3.6 320 08:46 14.06.2022
911 Haze 36 1008 46 5000 4.12 280 07:31 14.06.2022
912 Haze 32 1008 55 5000 1.54 230 04:44 14.06.2022
913 Haze 30 1006 62 3000 1.03 290 02:49 14.06.2022
914 Haze 30 1005 62 3000 1.03 270 00:28 14.06.2022
915 Haze 31 1005 58 3000 1.54 290 23:21 13.06.2022
916 Haze 30 1005 66 3000 2.57 210 22:25 13.06.2022
917 Haze 31 1005 62 3000 1.03 310 21:48 13.06.2022
918 Haze 32 1006 62 3000 2.06 260 20:23 13.06.2022
919 Haze 32 1006 62 3000 1.03 170 19:34 13.06.2022
920 Haze 32 1005 66 3000 2.57 310 17:57 13.06.2022
921 Haze 31 1005 66 3000 1.03 280 17:36 13.06.2022
922 Haze 31 1005 66 3000 1.03 180 16:39 13.06.2022
923 Haze 36 1004 46 4000 2.06 320 15:20 13.06.2022
924 Haze 38 1003 39 5000 3.6 310 14:41 13.06.2022
925 Haze 39 1003 37 5000 2.06 250 13:41 13.06.2022
926 Haze 39 1004 39 5000 3.6 320 12:30 13.06.2022
927 Haze 37 1005 41 5000 1.54 250 11:25 13.06.2022
928 Haze 37 1006 44 5000 3.09 280 10:26 13.06.2022
929 Haze 36 1007 49 5000 3.09 330 09:23 13.06.2022
930 Haze 35 1009 49 5000 3.09 290 07:34 13.06.2022
931 Haze 33 1009 58 5000 3.09 320 05:39 13.06.2022
932 Haze 28 1007 69 3000 1.03 210 02:47 13.06.2022
933 Haze 29 1006 65 3000 1.54 220 01:37 13.06.2022
934 Haze 29 1006 65 3000 1.03 160 00:18 13.06.2022
935 Haze 30 1006 62 3000 1.54 310 23:24 12.06.2022
936 Clouds 31 1004 56 10000 2.31 203 22:22 12.06.2022
937 Haze 30 1006 62 3000 1.03 220 21:20 12.06.2022
938 Haze 29 1007 65 3000 1.03 220 20:27 12.06.2022
939 Haze 31 1007 62 3000 1.03 20 19:30 12.06.2022
940 Haze 31 1006 62 3000 1.54 330 17:51 12.06.2022
941 Haze 31 1005 58 3000 4.63 320 16:24 12.06.2022
942 Haze 32 1003 55 4000 2.57 310 14:57 12.06.2022
943 Haze 33 1003 52 4000 1.54 220 14:21 12.06.2022
944 Haze 33 1003 52 4000 2.06 300 13:51 12.06.2022
945 Thunderstorm 36 1003 46 4000 4.12 170 12:37 12.06.2022
946 Haze 36 1002 49 5000 4.12 180 11:39 12.06.2022
947 Haze 33 1005 58 5000 3.6 180 10:22 12.06.2022
948 Haze 33 1006 55 5000 1.54 210 08:55 12.06.2022
949 Haze 33 1006 55 5000 1.54 210 08:36 12.06.2022
950 Haze 31 1007 62 5000 1.54 300 07:32 12.06.2022
951 Haze 27 1007 74 4000 2.57 220 04:45 12.06.2022
952 Haze 27 1006 74 3000 3.09 180 02:53 12.06.2022
953 Haze 28 1006 69 3000 2.57 180 01:39 12.06.2022
954 Haze 29 1005 65 3000 2.06 300 00:58 12.06.2022
955 Rain 29 1005 65 3000 2.06 320 00:20 12.06.2022
956 Haze 29 1005 65 3000 2.06 320 00:20 12.06.2022
957 Haze 28 1005 61 3000 1.03 130 23:44 11.06.2022
958 Clouds 31 1002 51 10000 5.18 259 22:38 11.06.2022
959 Haze 29 1006 65 3000 2.57 280 21:52 11.06.2022
960 Haze 29 1006 65 3000 5.14 300 20:36 11.06.2022
961 Haze 29 1006 65 3000 4.12 310 19:46 11.06.2022
962 Haze 29 1006 65 3000 3.09 270 19:19 11.06.2022
963 Haze 30 1006 66 3000 5.14 240 18:33 11.06.2022
964 Haze 30 1006 62 3000 5.14 240 17:50 11.06.2022
965 Haze 31 1005 55 3000 2.57 240 17:26 11.06.2022
966 Haze 31 1004 58 3000 2.57 190 16:52 11.06.2022
967 Haze 31 1004 62 3000 2.06 140 16:26 11.06.2022
968 Haze 32 1004 55 3000 3.09 110 15:28 11.06.2022
969 Clouds 28 1002 69 3000 6.17 220 13:53 11.06.2022
970 Thunderstorm 40 1001 33 4000 2.06 290 12:37 11.06.2022
971 Haze 40 1003 35 5000 4.63 330 10:46 11.06.2022
972 Haze 38 1004 39 5000 3.6 300 09:48 11.06.2022
973 Haze 37 1005 41 5000 4.12 230 08:51 11.06.2022
974 Haze 35 1006 46 5000 4.12 230 06:47 11.06.2022
975 Haze 35 1006 46 5000 5.14 220 06:25 11.06.2022
976 Haze 31 1005 58 4000 3.6 210 04:23 11.06.2022
977 Haze 30 1004 58 3000 1.54 180 01:52 11.06.2022
978 Haze 30 1004 58 3000 1.54 180 01:27 11.06.2022
979 Haze 30 1004 58 3000 2.57 300 23:34 10.06.2022
980 Haze 30 1004 58 3000 2.57 230 22:31 10.06.2022
981 Haze 30 1004 58 3000 3.09 210 21:50 10.06.2022
982 Haze 31 1004 55 3000 4.12 210 20:40 10.06.2022
983 Haze 31 1005 55 3000 4.63 200 20:21 10.06.2022
984 Haze 31 1005 55 3000 4.63 200 20:21 10.06.2022
985 Haze 31 1005 55 3500 4.63 200 19:19 10.06.2022
986 Haze 32 1005 51 3500 5.66 190 18:55 10.06.2022
987 Haze 34 1004 43 3500 3.75 227 17:55 10.06.2022
988 Haze 34 1003 43 3500 1.54 240 17:32 10.06.2022
989 Haze 34 1003 43 3500 2.57 330 16:36 10.06.2022
990 Haze 35 1002 41 4000 4.12 330 15:40 10.06.2022
991 Haze 37 1002 36 4000 6.17 320 14:29 10.06.2022
992 Haze 38 1001 37 4000 7.72 320 13:20 10.06.2022
993 Haze 39 1001 32 5000 3.09 210 11:59 10.06.2022
994 Haze 41 1001 29 5000 4.63 350 10:59 10.06.2022
995 Haze 40 1002 33 5000 4.12 30 10:24 10.06.2022
996 Haze 39 1004 39 5000 2.06 350 08:58 10.06.2022
997 Haze 36 1005 44 5000 5.14 300 07:50 10.06.2022
998 Haze 36 1005 46 5000 5.14 300 06:47 10.06.2022
999 Haze 35 1005 46 5000 6.17 300 06:28 10.06.2022
1000 Haze 32 1005 55 5000 2.57 300 04:55 10.06.2022
1001 Haze 31 1003 55 3000 1.03 310 02:31 10.06.2022
1002 Haze 31 1003 51 3000 1.03 250 01:36 10.06.2022
1003 Haze 32 1002 48 3000 1.54 240 23:58 09.06.2022
1004 Haze 32 1002 51 3000 1.03 180 22:30 09.06.2022
1005 Haze 32 1003 51 3000 2.57 220 21:43 09.06.2022
1006 Haze 32 1003 51 3000 2.57 300 21:24 09.06.2022
1007 Haze 32 1003 51 3000 3.09 290 20:36 09.06.2022
1008 Haze 33 1004 49 3000 3.09 290 19:41 09.06.2022
1009 Haze 33 1004 49 3000 2.06 310 18:36 09.06.2022
1010 Haze 34 1003 46 3000 2.57 330 17:28 09.06.2022
1011 Haze 36 1002 41 3000 1.54 310 16:28 09.06.2022
1012 Haze 37 1001 36 4000 4.12 330 14:45 09.06.2022
1013 Haze 37 1000 34 4000 1.54 160 14:24 09.06.2022
1014 Clouds 36 1000 38 3000 5.14 330 13:30 09.06.2022
1015 Thunderstorm 41 1000 26 3000 5.14 330 12:50 09.06.2022
1016 Haze 41 1001 29 5000 2.06 280 11:20 09.06.2022
1017 Haze 41 1002 31 5000 5.14 300 09:55 09.06.2022
1018 Haze 41 1002 31 5000 5.14 300 09:55 09.06.2022
1019 Haze 41 1002 31 5000 5.14 300 09:36 09.06.2022
1020 Haze 39 1004 37 5000 3.09 280 08:27 09.06.2022
1021 Haze 38 1005 39 5000 7.72 310 07:23 09.06.2022
1022 Haze 34 1003 43 3000 4.12 270 03:28 09.06.2022
1023 Haze 33 1001 38 3000 1.54 230 23:55 08.06.2022
1024 Haze 34 1001 36 3000 2.06 220 22:59 08.06.2022
1025 Haze 35 1001 34 3000 2.06 210 22:27 08.06.2022
1026 Haze 36 1001 32 3000 3.09 310 21:59 08.06.2022
1027 Haze 35 1001 34 3000 3.09 310 21:31 08.06.2022
1028 Haze 36 1002 32 3000 3.6 300 20:24 08.06.2022
1029 Haze 36 1002 32 3500 3.09 300 19:39 08.06.2022
1030 Haze 37 1002 30 3500 3.09 300 18:48 08.06.2022
1031 Haze 37 1001 28 3500 3.09 270 17:35 08.06.2022
1032 Haze 39 1000 24 4000 1.54 220 15:52 08.06.2022
1033 Haze 40 1000 21 5000 2.57 330 14:18 08.06.2022
1034 Clouds 37 1000 34 4000 5.14 280 12:46 08.06.2022
1035 Haze 43 1000 20 4000 3.09 360 11:35 08.06.2022
1036 Haze 43 1001 19 5000 2.57 360 10:37 08.06.2022
1037 Haze 43 1002 22 5000 2.06 310 09:28 08.06.2022
1038 Haze 42 1003 24 5000 3.09 340 08:49 08.06.2022
1039 Haze 40 1004 29 5000 9.26 320 06:43 08.06.2022
1040 Haze 35 1004 38 5000 10.29 320 04:35 08.06.2022
1041 Haze 34 1001 31 3000 5.14 310 00:56 08.06.2022
1042 Haze 35 1001 26 3000 5.14 310 23:31 07.06.2022
1043 Haze 36 1002 24 3000 6.17 320 22:50 07.06.2022
1044 Haze 36 1002 24 3000 5.14 310 22:31 07.06.2022
1045 Haze 35 1002 24 3000 2.57 300 21:35 07.06.2022
1046 Haze 36 1002 23 3000 1.03 170 20:59 07.06.2022
1047 Haze 37 1002 22 3000 2.06 300 20:33 07.06.2022
1048 Haze 37 1002 23 3000 2.06 320 19:48 07.06.2022
1049 Haze 38 1002 22 3000 3.6 330 18:24 07.06.2022
1050 Haze 39 1001 21 4000 2.57 320 17:27 07.06.2022
1051 Haze 39 1001 21 4000 2.57 320 16:43 07.06.2022
1052 Haze 41 1001 20 4000 3.09 310 15:56 07.06.2022
1053 Haze 43 1000 18 5000 5.14 310 15:26 07.06.2022
1054 Haze 43 1000 17 5000 4.12 300 14:52 07.06.2022
1055 Haze 43 1000 18 5000 4.12 300 14:32 07.06.2022
1056 Haze 44 1000 17 5000 4.12 340 13:32 07.06.2022
1057 Haze 44 1000 17 5000 1.54 310 12:52 07.06.2022
1058 Haze 44 1001 17 5000 3.6 280 11:48 07.06.2022
1059 Haze 43 1001 18 5000 3.09 330 10:27 07.06.2022
1060 Haze 43 1002 17 5000 2.57 350 08:51 07.06.2022
1061 Haze 41 1003 20 5000 4.12 340 07:34 07.06.2022
1062 Haze 39 1004 22 5000 3.6 330 06:22 07.06.2022
1063 Haze 34 1003 29 4000 5.14 330 03:32 07.06.2022
1064 Haze 31 1001 35 3000 1.03 320 00:45 07.06.2022
1065 Haze 32 1002 33 3000 1.03 260 23:41 06.06.2022
1066 Haze 33 1002 31 3000 1.54 240 22:53 06.06.2022
1067 Haze 33 1002 31 3000 1.03 130 21:57 06.06.2022
1068 Haze 35 1002 28 3000 1.03 180 20:42 06.06.2022
1069 Haze 36 1002 26 3500 3.09 320 19:24 06.06.2022
1070 Haze 37 1002 25 3500 2.57 300 18:48 06.06.2022
1071 Haze 38 1002 23 3500 1.54 280 17:57 06.06.2022
1072 Haze 38 1001 23 3500 1.03 350 16:55 06.06.2022
1073 Haze 40 1001 20 4000 1.03 340 15:52 06.06.2022
1074 Haze 42 1000 16 5000 2.06 270 14:59 06.06.2022
1075 Haze 43 1000 17 5000 2.06 280 14:18 06.06.2022
1076 Haze 43 1000 15 5000 2.57 280 13:20 06.06.2022
1077 Haze 43 1001 17 5000 1.03 80 12:34 06.06.2022
1078 Haze 43 1001 17 5000 2.06 70 11:47 06.06.2022
1079 Haze 43 1003 17 5000 1.03 60 09:53 06.06.2022
1080 Haze 43 1003 17 5000 1.54 160 08:57 06.06.2022
1081 Haze 42 1003 17 5000 1.54 60 08:28 06.06.2022
1082 Haze 41 1004 20 5000 5.19 346 07:19 06.06.2022
1083 Haze 37 1004 23 4000 1.03 190 04:38 06.06.2022
1084 Haze 35 1001 28 3000 4.63 310 01:53 06.06.2022
1085 Haze 36 1001 26 3000 4.63 310 00:57 06.06.2022
1086 Haze 36 1001 26 3000 4.63 310 00:34 06.06.2022
1087 Haze 36 1001 28 3000 2.57 310 22:59 05.06.2022
1088 Haze 36 1001 30 3000 3.6 320 22:21 05.06.2022
1089 Haze 35 1002 29 3000 1.54 240 20:24 05.06.2022
1090 Haze 37 1002 26 3000 2.57 260 19:23 05.06.2022
1091 Haze 38 1002 25 3000 3.09 240 18:18 05.06.2022
1092 Haze 39 1001 24 3000 2.57 220 17:38 05.06.2022
1093 Haze 38 1001 28 3000 3.09 210 17:20 05.06.2022
1094 Haze 39 1001 27 3000 3.09 180 16:47 05.06.2022
1095 Haze 40 1000 20 5000 1.54 260 15:25 05.06.2022
1096 Haze 43 1000 14 5000 2.06 320 14:21 05.06.2022
1097 Haze 44 1000 16 5000 3.09 280 11:58 05.06.2022
1098 Haze 44 1001 17 5000 1.54 260 10:45 05.06.2022
1099 Haze 44 1002 17 5000 1.54 160 10:24 05.06.2022
1100 Haze 44 1002 16 5000 2.06 300 09:33 05.06.2022
1101 Haze 42 1004 17 5000 2.06 320 08:23 05.06.2022
1102 Haze 40 1004 21 5000 4.12 330 06:23 05.06.2022
1103 Haze 38 1004 23 4000 7.2 320 05:19 05.06.2022
1104 Haze 34 1003 36 3000 4.12 320 02:43 05.06.2022
1105 Haze 35 1002 34 3000 2.06 280 01:23 05.06.2022
1106 Haze 35 1002 34 3000 2.06 280 01:23 05.06.2022
1107 Haze 36 1002 32 3000 4.12 230 22:51 04.06.2022
1108 Haze 36 1002 30 3000 1.54 240 21:30 04.06.2022
1109 Haze 38 1003 27 3500 2.06 300 19:27 04.06.2022
1110 Haze 40 1001 22 3500 2.06 300 16:48 04.06.2022
1111 Haze 40 1001 22 4000 3.09 290 16:20 04.06.2022
1112 Haze 40 1001 22 4000 2.57 300 15:39 04.06.2022
1113 Haze 42 1000 19 4000 3.6 280 13:59 04.06.2022
1114 Haze 43 1001 18 5000 1.54 280 11:41 04.06.2022
1115 Haze 44 1001 18 5000 3.6 230 10:54 04.06.2022
1116 Haze 43 1002 19 5000 3.6 260 09:56 04.06.2022
1117 Haze 42 1003 20 5000 3.6 290 09:38 04.06.2022
1118 Haze 40 1004 25 5000 3.09 300 08:38 04.06.2022
1119 Haze 36 1004 30 5000 2.57 280 06:32 04.06.2022
1120 Haze 35 1003 29 4000 5.14 310 03:57 04.06.2022
1121 Haze 36 1001 23 3000 4.63 310 00:22 04.06.2022
1122 Haze 37 1001 25 3000 3.6 320 22:57 03.06.2022
1123 Haze 35 1002 29 3000 1.03 230 21:53 03.06.2022
1124 Haze 37 1002 26 3000 1.54 150 20:40 03.06.2022
1125 Haze 38 1002 25 3000 2.06 310 19:37 03.06.2022
1126 Haze 40 1001 21 3000 1.54 310 16:58 03.06.2022
1127 Haze 41 1000 20 5000 2.06 260 15:57 03.06.2022
1128 Haze 43 1000 18 5000 1.03 50 14:42 03.06.2022
1129 Haze 45 1000 16 5000 3.6 230 12:21 03.06.2022
1130 Haze 44 1002 17 5000 2.57 310 09:57 03.06.2022
1131 Haze 43 1002 18 5000 4.63 120 09:29 03.06.2022
1132 Haze 43 1002 18 5000 4.63 120 09:29 03.06.2022
1133 Haze 42 1003 20 5000 3.6 350 07:47 03.06.2022
1134 Haze 41 1003 20 5000 4.12 10 07:19 03.06.2022
1135 Haze 40 1004 22 5000 4.63 320 06:29 03.06.2022
1136 Haze 35 1003 26 4000 6.17 300 03:52 03.06.2022
1137 Haze 33 1001 29 3000 2.57 330 23:53 02.06.2022
1138 Haze 34 1001 29 3000 1.03 340 22:33 02.06.2022
1139 Haze 36 1002 26 3000 2.06 300 20:56 02.06.2022
1140 Haze 38 1002 23 3500 2.06 320 19:58 02.06.2022
1141 Haze 38 1002 23 3500 2.06 320 19:39 02.06.2022
1142 Haze 39 1002 22 3500 2.57 330 18:51 02.06.2022
1143 Haze 39 1001 25 4000 0 0 16:30 02.06.2022
1144 Haze 40 1000 24 4000 0 0 15:47 02.06.2022
1145 Haze 43 1000 18 5000 1.54 320 13:31 02.06.2022
1146 Haze 44 1000 18 5000 2.06 330 12:49 02.06.2022
1147 Haze 44 1001 17 5000 2.57 290 10:45 02.06.2022
1148 Haze 42 1003 20 5000 1.54 50 09:30 02.06.2022
1149 Haze 42 1003 20 5000 2.57 20 08:45 02.06.2022
1150 Haze 42 1003 20 5000 2.57 350 08:23 02.06.2022
1151 Haze 39 1004 24 5000 5.66 330 06:21 02.06.2022
1152 Haze 34 1004 36 4000 4.12 310 03:51 02.06.2022
1153 Haze 32 1003 40 3000 3.09 300 01:33 02.06.2022
1154 Haze 32 1003 35 3000 3.09 290 23:22 01.06.2022
1155 Haze 33 1003 33 3000 1.54 310 22:18 01.06.2022
1156 Haze 34 1003 31 3000 2.57 200 21:24 01.06.2022
1157 Haze 35 1003 29 3000 3.6 300 20:39 01.06.2022
1158 Haze 34 1003 29 3000 1.03 20 19:52 01.06.2022
1159 Haze 36 1003 26 3000 0 0 18:41 01.06.2022
1160 Haze 38 1002 22 3000 1.03 50 16:58 01.06.2022
1161 Haze 40 1001 21 3000 1.54 10 15:45 01.06.2022
1162 Haze 42 1000 17 4000 1.03 70 14:49 01.06.2022
1163 Haze 43 1000 17 4000 2.06 10 13:26 01.06.2022
1164 Haze 43 1001 18 5000 1.03 20 10:48 01.06.2022
1165 Haze 42 1003 20 5000 2.57 40 09:29 01.06.2022
1166 Haze 41 1004 20 5000 3.09 300 08:19 01.06.2022
1167 Haze 40 1004 27 5000 4.12 330 07:20 01.06.2022
1168 Haze 35 1004 38 5000 4.12 280 04:41 01.06.2022
1169 Haze 31 1002 48 3000 1.03 320 23:50 31.05.2022
1170 Haze 31 1003 48 3000 0 0 22:41 31.05.2022
1171 Haze 31 1003 45 3000 0 0 22:22 31.05.2022
1172 Haze 32 1003 43 3000 0 0 21:39 31.05.2022
1173 Haze 33 1003 40 3000 0 0 20:44 31.05.2022
1174 Haze 34 1003 40 3500 1.54 260 19:31 31.05.2022
1175 Haze 34 1003 40 3500 2.57 250 18:26 31.05.2022
1176 Haze 34 1003 40 3500 3.09 250 17:37 31.05.2022
1177 Haze 35 1002 38 4000 2.06 240 15:46 31.05.2022
1178 Haze 35 1002 38 4000 2.57 220 15:22 31.05.2022
1179 Haze 39 1001 27 4000 2.06 170 12:41 31.05.2022
1180 Haze 39 1001 27 4000 2.06 170 12:18 31.05.2022
1181 Haze 41 1001 27 5000 1.54 360 10:25 31.05.2022
1182 Haze 39 1004 35 5000 4.12 320 07:46 31.05.2022
1183 Haze 37 1005 39 5000 6.17 290 06:19 31.05.2022
1184 Haze 32 1004 45 4000 2.57 310 03:49 31.05.2022
1185 Haze 31 1003 48 3000 0 0 23:45 30.05.2022
1186 Haze 32 1003 45 3000 0.27 131 23:23 30.05.2022
1187 Haze 32 1003 45 3000 1.54 270 22:33 30.05.2022
1188 Haze 32 1003 45 3000 1.03 250 21:40 30.05.2022
1189 Haze 33 1004 43 3000 1.54 320 20:51 30.05.2022
1190 Haze 33 1004 43 3000 2.95 229 19:43 30.05.2022
1191 Haze 35 1004 38 3000 2.57 310 17:53 30.05.2022
1192 Haze 35 1003 38 3000 1.03 60 17:21 30.05.2022
1193 Haze 35 1002 41 3000 3.09 70 15:54 30.05.2022
1194 Haze 42 1000 21 5000 1.54 320 13:26 30.05.2022
1195 Haze 42 1002 23 5000 2.06 280 11:40 30.05.2022
1196 Haze 40 1003 29 5000 2.57 300 09:45 30.05.2022
1197 Haze 37 1005 36 5000 4.12 290 07:34 30.05.2022
1198 Haze 36 1006 44 5000 6.17 300 05:54 30.05.2022
1199 Haze 34 1006 46 5000 4.12 330 04:46 30.05.2022
1200 Haze 30 1003 51 3000 1.54 250 00:18 30.05.2022
1201 Haze 33 1003 43 3000 1.03 320 22:40 29.05.2022
1202 Haze 32 1004 45 3000 1.03 210 21:44 29.05.2022
1203 Haze 35 1004 41 3000 1.03 60 20:21 29.05.2022
1204 Haze 36 1004 38 3000 2.57 10 19:28 29.05.2022
1205 Haze 37 1003 34 3500 3.6 320 17:56 29.05.2022
1206 Haze 38 1002 37 4000 5.14 320 16:20 29.05.2022
1207 Haze 39 1002 32 5000 5.66 320 15:41 29.05.2022
1208 Haze 40 1001 29 5000 4.63 300 14:54 29.05.2022
1209 Haze 41 1001 27 5000 5.14 240 12:33 29.05.2022
1210 Haze 41 1002 27 5000 4.12 320 11:19 29.05.2022
1211 Haze 40 1004 29 5000 6.17 290 09:54 29.05.2022
1212 Haze 38 1005 37 5000 5.14 260 07:55 29.05.2022
1213 Haze 34 1005 46 4000 4.63 280 04:58 29.05.2022
1214 Haze 34 1005 46 4000 4.63 280 04:33 29.05.2022
1215 Haze 32 1003 43 4000 5.14 310 01:23 29.05.2022
1216 Haze 31 1003 42 4000 1.03 320 23:47 28.05.2022
1217 Haze 31 1003 42 4000 1.03 320 23:19 28.05.2022
1218 Haze 32 1003 40 4000 1.54 270 21:52 28.05.2022
1219 Haze 32 1003 40 4000 1.03 220 20:53 28.05.2022
1220 Haze 35 1004 34 4000 1.03 20 19:20 28.05.2022
1221 Haze 35 1003 29 4000 2.06 290 18:23 28.05.2022
1222 Haze 37 1002 26 4000 2.06 270 17:32 28.05.2022
1223 Haze 39 1001 22 4000 2.06 300 15:49 28.05.2022
1224 Haze 40 1001 22 4000 3.6 300 15:20 28.05.2022
1225 Haze 41 1001 26 5000 4.12 310 13:29 28.05.2022
1226 Haze 41 1001 27 5000 4.12 330 12:42 28.05.2022
1227 Haze 40 1002 27 5000 3.6 340 11:37 28.05.2022
1228 Haze 40 1003 25 5000 4.12 320 10:38 28.05.2022
1229 Haze 40 1004 25 5000 5.66 270 09:54 28.05.2022
1230 Haze 38 1005 32 5000 5.14 280 08:21 28.05.2022
1231 Haze 36 1006 41 5000 6.17 290 06:33 28.05.2022
1232 Haze 33 1006 49 4000 5.14 310 04:43 28.05.2022
1233 Haze 31 1003 42 3000 3.6 280 01:46 28.05.2022
1234 Haze 32 1003 35 3000 4.63 330 23:55 27.05.2022
1235 Haze 33 1003 33 3000 3.6 300 22:38 27.05.2022
1236 Haze 33 1003 29 3000 2.57 300 21:22 27.05.2022
1237 Haze 34 1004 26 3000 3.09 300 20:42 27.05.2022
1238 Haze 34 1004 26 3000 3.09 300 20:18 27.05.2022
1239 Haze 36 1004 21 3000 4.12 280 19:36 27.05.2022
1240 Haze 36 1004 21 3000 4.12 280 19:18 27.05.2022
1241 Haze 36 1002 24 4000 2.57 230 16:43 27.05.2022
1242 Haze 39 1001 21 4000 3.09 270 15:47 27.05.2022
1243 Haze 41 1001 18 5000 5.66 280 14:46 27.05.2022
1244 Haze 42 1001 16 5000 5.66 270 13:36 27.05.2022
1245 Haze 41 1003 22 5000 4.63 250 11:48 27.05.2022
1246 Haze 41 1003 24 5000 4.63 290 11:26 27.05.2022
1247 Haze 39 1005 30 5000 3.09 270 10:35 27.05.2022
1248 Haze 38 1005 34 5000 3.6 200 09:42 27.05.2022
1249 Haze 37 1006 36 5000 2.06 280 08:48 27.05.2022
1250 Haze 34 1008 46 5000 3.09 200 06:58 27.05.2022
1251 Haze 27 1006 65 3000 1.03 140 02:57 27.05.2022
1252 Haze 27 1005 65 3000 1.03 80 00:54 27.05.2022
1253 Haze 29 1006 61 3000 1.03 80 22:53 26.05.2022
1254 Haze 29 1005 61 3000 2.57 210 21:45 26.05.2022
1255 Haze 29 1005 61 3000 2.06 200 20:59 26.05.2022
1256 Haze 32 1006 45 3000 3.6 190 19:29 26.05.2022
1257 Haze 33 1005 46 3000 1.54 210 18:24 26.05.2022
1258 Haze 34 1004 40 3000 0 0 16:58 26.05.2022
1259 Haze 35 1003 41 4000 1.54 40 15:49 26.05.2022
1260 Haze 35 1003 38 4000 2.57 200 15:18 26.05.2022
1261 Haze 37 1002 36 4000 4.12 230 13:45 26.05.2022
1262 Haze 39 1004 35 4000 2.57 330 11:38 26.05.2022
1263 Haze 39 1005 35 4000 4.63 330 10:37 26.05.2022
1264 Haze 39 1006 32 5000 2.57 340 09:37 26.05.2022
1265 Haze 38 1007 37 5000 4.63 300 08:38 26.05.2022
1266 Haze 31 1009 55 5000 2.06 210 05:24 26.05.2022
1267 Haze 27 1007 69 3000 3.09 290 01:24 26.05.2022
1268 Haze 28 1007 65 3000 3.6 350 23:40 25.05.2022
1269 Haze 26 1007 83 3000 3.09 320 22:30 25.05.2022
1270 Haze 26 1007 83 3000 1.03 300 21:33 25.05.2022
1271 Haze 27 1008 74 3000 2.06 230 20:38 25.05.2022
1272 Clouds 37 1003 18 10000 2.52 22 19:31 25.05.2022
1273 Clouds 38 1003 17 10000 2.91 16 17:47 25.05.2022
1274 Clouds 39 1002 15 10000 3.24 345 16:40 25.05.2022
1275 Clouds 34 1006 38 3000 1.03 100 15:58 25.05.2022
1276 Haze 36 1004 32 4000 2.57 80 14:56 25.05.2022
1277 Haze 37 1004 34 4000 2.57 60 14:33 25.05.2022
1278 Haze 37 1003 34 4000 2.06 50 13:58 25.05.2022
1279 Haze 39 1004 29 5000 1.54 350 12:45 25.05.2022
1280 Haze 39 1005 27 5000 3.09 210 10:58 25.05.2022
1281 Haze 39 1006 29 5000 1.54 260 10:20 25.05.2022
1282 Clear 40 1004 19 10000 1.13 200 08:41 25.05.2022
1283 Clear 38 1006 23 10000 2.9 319 07:23 25.05.2022
1284 Clear 38 1006 23 10000 2.9 319 07:23 25.05.2022
1285 Haze 33 1009 49 5000 2.06 290 05:18 25.05.2022
1286 Haze 28 1006 65 3000 2.06 320 00:28 25.05.2022
1287 Haze 28 1006 65 3000 1.54 200 23:47 24.05.2022
1288 Haze 29 1006 65 3000 1.54 320 22:39 24.05.2022
1289 Haze 30 1007 58 3000 0 0 21:43 24.05.2022
1290 Haze 30 1007 58 3000 0 0 21:21 24.05.2022
1291 Haze 30 1007 58 4000 1.03 10 20:30 24.05.2022
1292 Haze 30 1007 58 4000 1.54 20 18:56 24.05.2022
1293 Haze 31 1005 55 4000 1.54 180 16:58 24.05.2022
1294 Haze 31 1005 55 4000 2.06 110 16:28 24.05.2022
1295 Haze 33 1004 49 4000 1.54 130 15:18 24.05.2022
1296 Haze 33 1004 46 4000 2.06 110 14:25 24.05.2022
1297 Clouds 40 999 19 10000 3.43 306 13:18 24.05.2022
1298 Haze 38 1003 39 5000 1.03 310 11:40 24.05.2022
1299 Haze 37 1005 41 5000 1.54 340 09:46 24.05.2022
1300 Haze 35 1006 46 5000 2.06 330 08:50 24.05.2022
1301 Haze 33 1007 49 5000 1.03 200 06:58 24.05.2022
1302 Haze 30 1007 54 5000 1.54 40 04:59 24.05.2022
1303 Haze 29 1004 58 3000 2.06 50 02:42 24.05.2022
1304 Haze 29 1003 58 3000 2.57 10 01:43 24.05.2022
1305 Haze 30 1001 54 3000 1.54 30 23:43 23.05.2022
1306 Haze 30 1002 58 3000 2.06 10 21:59 23.05.2022
1307 Haze 30 1002 58 3000 2.06 10 21:41 23.05.2022
1308 Haze 30 1002 58 3000 2.06 40 20:42 23.05.2022
1309 Haze 31 1002 55 3000 2.06 40 19:33 23.05.2022
1310 Haze 32 1002 48 3000 2.06 30 18:59 23.05.2022
1311 Haze 32 1002 48 3000 2.06 30 18:37 23.05.2022
1312 Haze 36 1000 32 3000 1.54 220 17:55 23.05.2022
1313 Haze 38 999 28 4000 3.09 240 15:47 23.05.2022
1314 Haze 40 998 27 5000 5.14 230 13:44 23.05.2022
1315 Haze 40 999 29 5000 4.63 240 11:36 23.05.2022
1316 Haze 40 1000 33 5000 5.66 280 10:43 23.05.2022
1317 Haze 39 1001 35 5000 4.12 240 09:40 23.05.2022
1318 Haze 37 1002 41 5000 4.12 280 08:38 23.05.2022
1319 Haze 35 1003 49 5000 6.17 310 06:47 23.05.2022
1320 Haze 35 1003 46 5000 6.69 290 06:23 23.05.2022
1321 Haze 32 1001 51 3000 3.6 300 02:35 23.05.2022
1322 Haze 31 1000 51 3000 2.57 310 01:46 23.05.2022
1323 Clouds 32 997 39 10000 6.4 296 00:44 23.05.2022
1324 Haze 32 999 33 3000 2.57 310 22:47 22.05.2022
1325 Haze 32 999 33 3000 2.57 310 22:18 22.05.2022
1326 Haze 32 999 31 3000 1.03 290 21:49 22.05.2022
1327 Haze 33 999 29 3000 2.06 320 20:40 22.05.2022
1328 Haze 33 999 29 3000 2.06 320 20:19 22.05.2022
1329 Haze 34 999 26 3000 2.06 300 18:58 22.05.2022
1330 Haze 36 999 23 3000 1.54 300 18:31 22.05.2022
1331 Haze 36 998 23 3000 2.06 300 17:51 22.05.2022
1332 Haze 37 998 22 3000 3.09 300 16:51 22.05.2022
1333 Haze 41 997 17 5000 5.14 310 14:56 22.05.2022
1334 Haze 41 997 17 5000 5.14 310 14:35 22.05.2022
1335 Haze 40 997 24 5000 7.2 320 12:54 22.05.2022
1336 Haze 41 998 26 5000 4.12 260 11:53 22.05.2022
1337 Haze 40 999 29 5000 4.12 290 10:29 22.05.2022
1338 Haze 39 1001 32 5000 4.12 310 09:19 22.05.2022
1339 Haze 37 1002 39 5000 2.57 300 07:34 22.05.2022
1340 Haze 35 1002 38 5000 6.17 290 06:41 22.05.2022
1341 Haze 32 1001 43 4000 4.12 280 03:25 22.05.2022
1342 Haze 33 1000 40 3000 3.09 300 00:48 22.05.2022
1343 Haze 33 1000 40 3000 4.12 280 23:56 21.05.2022
1344 Haze 33 1000 40 3000 5.14 300 23:22 21.05.2022
1345 Haze 35 1000 34 3000 4.12 290 21:59 21.05.2022
1346 Haze 35 1000 31 3000 2.57 290 21:30 21.05.2022
1347 Haze 36 1000 30 3000 2.57 270 20:29 21.05.2022
1348 Haze 36 1000 28 3500 2.06 280 19:43 21.05.2022
1349 Haze 37 1000 30 3500 2.57 300 18:45 21.05.2022
1350 Haze 39 999 30 3500 2.06 230 16:57 21.05.2022
1351 Haze 42 998 24 5000 5.14 280 14:39 21.05.2022
1352 Haze 42 998 26 5000 5.14 300 13:55 21.05.2022
1353 Haze 42 998 24 5000 3.09 300 13:19 21.05.2022
1354 Haze 43 999 23 5000 5.66 320 12:38 21.05.2022
1355 Haze 43 1000 23 5000 5.66 310 11:20 21.05.2022
1356 Haze 41 1001 29 5000 3.6 310 09:57 21.05.2022
1357 Haze 40 1002 31 5000 6.17 320 08:59 21.05.2022
1358 Haze 39 1003 32 5000 6.17 320 08:37 21.05.2022
1359 Clear 37 1003 25 10000 5.97 295 05:52 21.05.2022
1360 Haze 32 1002 51 4000 3.09 210 01:41 21.05.2022
1361 Haze 33 1002 49 4000 2.57 210 23:32 20.05.2022
1362 Haze 32 1002 48 4000 2.06 220 22:29 20.05.2022
1363 Haze 33 1003 49 4000 1.03 200 21:55 20.05.2022
1364 Haze 33 1003 49 4000 1.03 200 21:19 20.05.2022
1365 Haze 33 1003 49 4000 1.03 270 20:45 20.05.2022
1366 Haze 34 1003 46 4000 1.03 180 19:45 20.05.2022
1367 Haze 35 1003 46 4000 1.54 220 18:49 20.05.2022
1368 Haze 36 1002 44 4000 2.57 180 17:48 20.05.2022
1369 Haze 37 1002 41 4000 2.06 190 16:22 20.05.2022
1370 Haze 37 1001 41 4000 2.57 200 15:53 20.05.2022
1371 Haze 40 1001 37 4000 4.12 180 14:32 20.05.2022
1372 Haze 40 1001 35 4000 2.57 170 13:59 20.05.2022
1373 Haze 40 1002 37 5000 2.57 120 11:51 20.05.2022
1374 Haze 40 1003 39 5000 1.54 130 10:34 20.05.2022
1375 Haze 38 1005 47 5000 3.09 210 08:59 20.05.2022
1376 Haze 37 1006 49 5000 3.09 210 07:42 20.05.2022
1377 Haze 35 1007 55 5000 2.06 220 06:39 20.05.2022
1378 Haze 34 1007 59 5000 4.12 200 05:39 20.05.2022
1379 Haze 31 1005 62 3000 2.06 180 01:18 20.05.2022
1380 Haze 31 1004 58 3000 1.03 210 23:31 19.05.2022
1381 Haze 31 1004 62 3000 1.54 270 22:34 19.05.2022
1382 Haze 31 1005 62 3000 1.54 70 21:49 19.05.2022
1383 Haze 31 1005 62 3000 1.54 70 21:49 19.05.2022
1384 Haze 31 1005 62 3000 1.54 70 21:23 19.05.2022
1385 Haze 33 1005 55 3000 1.03 240 20:43 19.05.2022
1386 Haze 33 1005 55 3000 1.54 260 19:54 19.05.2022
1387 Haze 33 1004 55 3000 1.54 220 18:58 19.05.2022
1388 Haze 34 1004 52 3000 1.54 170 17:35 19.05.2022
1389 Haze 35 1002 49 4000 4.12 180 15:34 19.05.2022
1390 Haze 36 1002 46 4000 5.14 180 14:35 19.05.2022
1391 Haze 38 1002 39 4000 4.12 160 13:59 19.05.2022
1392 Haze 39 1003 37 4000 4.12 180 11:52 19.05.2022
1393 Haze 38 1005 39 4000 4.12 120 10:25 19.05.2022
1394 Haze 35 1008 43 4000 3.09 190 08:33 19.05.2022
1395 Haze 34 1008 43 5000 1.03 290 06:57 19.05.2022
1396 Haze 27 1007 74 3000 3.6 190 02:59 19.05.2022
1397 Thunderstorm 27 1006 65 3000 3.6 140 00:56 19.05.2022
1398 Thunderstorm 26 1008 73 3000 6.17 50 23:00 18.05.2022
1399 Thunderstorm 27 1007 65 3000 6.17 30 22:40 18.05.2022
1400 Haze 31 1007 55 3000 7.2 340 21:32 18.05.2022
1401 Haze 31 1006 55 3000 1.54 120 20:55 18.05.2022
1402 Haze 31 1006 55 3000 2.57 140 20:19 18.05.2022
1403 Haze 33 1006 46 3000 4.12 120 18:46 18.05.2022
1404 Haze 35 1004 34 3000 1.54 130 17:41 18.05.2022
1405 Haze 36 1003 32 3000 2.06 130 17:23 18.05.2022
1406 Haze 36 1003 30 3000 3.6 140 16:36 18.05.2022
1407 Haze 38 1003 32 4000 1.54 80 15:42 18.05.2022
1408 Haze 38 1003 32 4000 1.54 80 15:19 18.05.2022
1409 Haze 39 1001 35 4000 2.06 110 13:48 18.05.2022
1410 Haze 40 1001 33 4000 2.57 130 12:53 18.05.2022
1411 Haze 41 1002 31 4000 1.54 40 11:47 18.05.2022
1412 Haze 41 1003 31 4000 1.54 250 11:29 18.05.2022
1413 Haze 40 1004 35 4000 1.54 200 09:59 18.05.2022
1414 Haze 38 1006 39 4000 3.6 210 07:56 18.05.2022
1415 Haze 37 1006 44 4000 3.6 190 06:50 18.05.2022
1416 Haze 33 1004 55 3000 2.06 200 02:44 18.05.2022
1417 Haze 34 1003 52 3000 2.06 190 00:31 18.05.2022
1418 Haze 35 1003 49 3000 2.06 190 22:57 17.05.2022
1419 Haze 35 1004 49 3000 2.06 170 21:21 17.05.2022
1420 Haze 36 1004 46 3000 2.06 170 20:30 17.05.2022
1421 Haze 36 1004 44 3000 2.57 200 19:29 17.05.2022
1422 Haze 38 1002 28 3000 1.54 130 17:53 17.05.2022
1423 Haze 38 1002 27 3000 2.06 140 17:22 17.05.2022
1424 Haze 38 1001 22 4000 1.03 100 16:34 17.05.2022
1425 Haze 40 1000 21 5000 1.54 90 15:33 17.05.2022
1426 Haze 43 1000 17 5000 1.03 40 14:31 17.05.2022
1427 Haze 43 1000 17 5000 2.57 120 13:38 17.05.2022
1428 Haze 43 1001 17 5000 1.54 80 12:23 17.05.2022
1429 Haze 41 1003 21 5000 1.54 90 09:53 17.05.2022
1430 Haze 41 1004 21 5000 1.54 60 08:44 17.05.2022
1431 Haze 39 1005 27 5000 1.03 90 07:18 17.05.2022
1432 Haze 33 1005 52 5000 1.03 160 04:28 17.05.2022
1433 Haze 31 1003 55 3000 1.54 310 00:47 17.05.2022
1434 Haze 33 1004 52 3000 1.54 170 22:44 16.05.2022
1435 Haze 33 1004 52 3000 1.54 170 22:18 16.05.2022
1436 Haze 31 1004 42 3000 1.54 190 20:49 16.05.2022
1437 Haze 33 1004 33 3000 0 0 19:59 16.05.2022
1438 Haze 34 1003 33 3000 1.03 340 18:32 16.05.2022
1439 Haze 36 1002 34 3000 1.03 90 16:28 16.05.2022
1440 Haze 39 1001 29 4000 1.03 80 14:42 16.05.2022
1441 Haze 39 1002 29 4000 2.06 60 13:26 16.05.2022
1442 Haze 37 1004 34 4000 2.06 340 11:34 16.05.2022
1443 Haze 37 1005 36 5000 3.6 280 10:24 16.05.2022
1444 Haze 36 1008 44 5000 5.14 190 07:34 16.05.2022
1445 Haze 32 1008 55 4000 6.69 180 05:40 16.05.2022
1446 Haze 33 1005 46 3000 5.14 140 23:59 15.05.2022
1447 Haze 34 1004 46 3000 5.14 130 22:36 15.05.2022
1448 Haze 37 1005 32 3000 1.54 120 21:48 15.05.2022
1449 Haze 37 1005 32 3000 1.54 120 21:21 15.05.2022
1450 Haze 38 1005 30 3000 2.06 340 20:34 15.05.2022
1451 Haze 39 1003 27 3000 3.09 350 17:56 15.05.2022
1452 Haze 40 1003 25 3000 5.14 320 16:36 15.05.2022
1453 Haze 44 1000 19 5000 2.06 240 14:18 15.05.2022
1454 Haze 45 1000 19 5000 2.06 320 13:27 15.05.2022
1455 Haze 44 1002 20 5000 2.06 230 11:55 15.05.2022
1456 Haze 43 1003 23 5000 3.09 320 10:35 15.05.2022
1457 Haze 42 1005 26 5000 3.6 310 08:52 15.05.2022
1458 Haze 39 1005 30 5000 5.66 310 06:59 15.05.2022
1459 Haze 39 1005 30 5000 5.66 310 06:39 15.05.2022
1460 Haze 33 1003 33 3000 1.54 230 02:24 15.05.2022
1461 Haze 37 1002 39 3000 3.6 180 23:56 14.05.2022
1462 Haze 37 1002 39 3000 3.6 180 23:34 14.05.2022
1463 Haze 37 1002 39 3000 2.57 200 21:45 14.05.2022
1464 Haze 37 1003 39 3000 2.06 200 21:19 14.05.2022
1465 Haze 38 1003 39 3000 2.06 180 19:40 14.05.2022
1466 Haze 38 1003 39 3000 2.06 180 19:40 14.05.2022
1467 Haze 38 1003 39 3000 2.06 160 19:20 14.05.2022
1468 Haze 38 1003 34 3000 1.54 120 18:47 14.05.2022
1469 Haze 39 1002 30 3000 1.03 50 17:36 14.05.2022
1470 Haze 40 1000 24 5000 1.03 100 15:55 14.05.2022
1471 Haze 44 1000 19 5000 0 0 14:37 14.05.2022
1472 Haze 45 1000 16 5000 1.54 300 12:51 14.05.2022
1473 Haze 45 1000 17 5000 1.54 10 11:37 14.05.2022
1474 Haze 43 1002 22 5000 1.03 0 10:24 14.05.2022
1475 Haze 43 1002 22 5000 2.57 230 09:56 14.05.2022
1476 Haze 42 1003 24 5000 2.57 220 08:59 14.05.2022
1477 Haze 40 1004 27 5000 1.54 140 07:21 14.05.2022
1478 Haze 33 1003 52 4000 2.06 220 03:41 14.05.2022
1479 Haze 33 1001 46 3000 1.03 90 00:21 14.05.2022
1480 Haze 34 1000 43 3000 3.09 210 23:23 13.05.2022
1481 Haze 34 1000 46 3000 1.03 250 22:52 13.05.2022
1482 Haze 34 1000 49 3000 2.06 220 22:20 13.05.2022
1483 Haze 35 1001 49 3000 3.09 180 20:56 13.05.2022
1484 Haze 36 1001 44 3000 2.57 180 20:28 13.05.2022
1485 Haze 35 1001 41 3000 2.57 180 19:40 13.05.2022
1486 Haze 36 1001 36 3500 1.54 130 18:41 13.05.2022
1487 Haze 37 1000 34 3500 1.54 120 17:29 13.05.2022
1488 Haze 38 1000 32 4000 1.54 80 16:23 13.05.2022
1489 Haze 41 999 29 4000 1.54 50 15:43 13.05.2022
1490 Haze 43 998 26 5000 2.06 40 13:57 13.05.2022
1491 Haze 42 999 29 5000 3.09 190 12:33 13.05.2022
1492 Haze 42 1000 29 5000 2.06 220 11:29 13.05.2022
1493 Haze 39 1003 39 5000 2.57 300 09:43 13.05.2022
1494 Haze 39 1003 39 5000 2.57 300 09:43 13.05.2022
1495 Haze 39 1003 39 5000 5.14 270 08:50 13.05.2022
1496 Haze 37 1004 44 5000 3.09 210 07:49 13.05.2022
1497 Haze 36 1005 46 5000 4.12 200 06:35 13.05.2022
1498 Haze 32 1005 55 4000 2.06 190 04:22 13.05.2022
1499 Haze 30 1003 62 3000 0 0 00:40 13.05.2022
1500 Haze 31 1002 58 3000 0 0 22:46 12.05.2022
1501 Haze 31 1002 62 3000 1.54 290 21:59 12.05.2022
1502 Haze 32 1001 58 3000 0 0 20:38 12.05.2022
1503 Haze 32 1002 51 3000 1.03 360 19:23 12.05.2022
1504 Haze 33 1002 52 3000 1.54 100 17:59 12.05.2022
1505 Clouds 32 1003 51 2000 2.06 240 16:27 12.05.2022
1506 Haze 34 1001 46 2000 5.14 40 14:47 12.05.2022
1507 Haze 41 999 29 4000 1.54 100 13:47 12.05.2022
1508 Haze 41 1001 35 4000 1.03 80 11:23 12.05.2022
1509 Haze 39 1003 39 5000 3.09 180 09:37 12.05.2022
1510 Haze 38 1004 44 5000 1.03 230 08:51 12.05.2022
1511 Haze 36 1005 46 5000 1.54 280 07:41 12.05.2022
1512 Haze 36 1005 46 5000 2.06 160 06:39 12.05.2022
1513 Haze 32 1005 58 3000 3.09 170 02:59 12.05.2022
1514 Haze 32 1003 55 3000 1.54 190 00:39 12.05.2022
1515 Haze 33 1003 49 3000 2.06 140 22:39 11.05.2022
1516 Haze 33 1003 49 3000 2.06 120 21:52 11.05.2022
1517 Haze 33 1003 49 3000 1.03 140 21:24 11.05.2022
1518 Haze 35 1003 43 3000 1.03 110 19:36 11.05.2022
1519 Haze 37 1002 41 4000 4.12 120 16:59 11.05.2022
1520 Haze 39 1000 37 4000 2.57 130 15:50 11.05.2022
1521 Haze 40 1000 33 5000 1.54 100 14:39 11.05.2022
1522 Haze 41 999 31 5000 1.54 80 14:19 11.05.2022
1523 Haze 41 1000 29 5000 2.57 70 11:54 11.05.2022
1524 Haze 41 1001 31 5000 2.57 80 11:30 11.05.2022
1525 Haze 38 1004 39 5000 1.54 60 08:55 11.05.2022
1526 Haze 35 1005 49 5000 1.54 90 05:45 11.05.2022
1527 Haze 31 1002 55 3000 2.06 90 01:23 11.05.2022
1528 Haze 33 1002 46 3000 2.06 80 22:32 10.05.2022
1529 Haze 34 1002 43 3000 1.03 60 21:58 10.05.2022
1530 Haze 34 1002 43 3000 1.03 60 20:58 10.05.2022
1531 Haze 35 1002 41 3000 1.54 70 20:19 10.05.2022
1532 Haze 36 1003 36 3000 1.03 80 18:35 10.05.2022
1533 Haze 36 1002 38 3000 1.03 90 17:37 10.05.2022
1534 Haze 38 1001 34 4000 2.57 90 15:43 10.05.2022
1535 Haze 42 999 26 5000 2.06 50 12:48 10.05.2022
1536 Haze 43 999 20 5000 4.12 70 11:52 10.05.2022
1537 Haze 43 1000 20 5000 5.14 80 11:21 10.05.2022
1538 Haze 42 1000 21 5000 3.09 350 10:54 10.05.2022
1539 Haze 41 1002 24 5000 4.12 340 09:27 10.05.2022
1540 Haze 38 1004 37 5000 1.54 110 07:32 10.05.2022
1541 Haze 33 1004 40 4000 2.57 70 04:34 10.05.2022
1542 Haze 31 1003 33 3000 1.03 20 01:36 10.05.2022
1543 Haze 33 1002 29 3000 1.03 50 23:37 09.05.2022
1544 Haze 34 1002 27 3000 1.54 50 22:29 09.05.2022
1545 Haze 36 1002 24 3000 2.06 40 21:21 09.05.2022
1546 Haze 35 1003 29 3000 1.03 340 19:52 09.05.2022
1547 Haze 36 1002 28 3500 1.03 40 17:59 09.05.2022
1548 Haze 36 1001 24 3500 1.03 60 16:49 09.05.2022
1549 Haze 39 1000 21 4000 1.54 90 15:53 09.05.2022
1550 Haze 40 1000 20 4000 2.06 90 15:31 09.05.2022
1551 Haze 42 999 17 4000 2.06 100 14:33 09.05.2022
1552 Haze 42 999 17 4000 2.06 110 13:51 09.05.2022
1553 Haze 42 1000 17 5000 3.6 310 12:30 09.05.2022
1554 Haze 42 1001 19 5000 2.06 40 11:43 09.05.2022
1555 Haze 42 1001 20 5000 2.06 60 10:45 09.05.2022
1556 Haze 42 1003 20 5000 2.06 10 09:39 09.05.2022
1557 Haze 39 1005 30 5000 2.06 50 07:56 09.05.2022
1558 Haze 33 1005 33 3000 3.09 120 04:33 09.05.2022
1559 Haze 33 1005 33 3000 3.09 120 04:33 09.05.2022
1560 Haze 33 1005 33 3000 3.09 120 04:33 09.05.2022
1561 Haze 31 1002 33 3000 1.03 260 00:21 09.05.2022
1562 Haze 30 1002 37 3000 0 0 22:57 08.05.2022
1563 Haze 32 1002 29 3000 0 0 22:27 08.05.2022
1564 Haze 33 1003 29 3000 0 0 20:41 08.05.2022
1565 Haze 34 1003 27 3000 0 0 19:53 08.05.2022
1566 Haze 35 1003 26 3000 0 0 18:59 08.05.2022
1567 Haze 35 1003 26 3000 0 0 18:24 08.05.2022
1568 Haze 37 1003 23 3000 0 0 17:21 08.05.2022
1569 Haze 39 1001 21 4000 1.03 330 15:43 08.05.2022
1570 Haze 39 1001 19 4000 0 0 15:20 08.05.2022
1571 Haze 42 1001 17 4000 1.03 100 12:41 08.05.2022
1572 Haze 42 1004 19 5000 1.03 340 10:34 08.05.2022
1573 Haze 41 1005 16 5000 2.06 130 09:59 08.05.2022
1574 Haze 41 1005 18 5000 2.06 80 09:33 08.05.2022
1575 Haze 38 1007 28 5000 2.06 80 07:33 08.05.2022
1576 Haze 31 1007 42 4000 1.03 330 04:24 08.05.2022
1577 Haze 28 1007 54 3000 1.03 260 03:19 08.05.2022
1578 Haze 31 1005 45 3000 1.03 350 00:29 08.05.2022
1579 Haze 31 1005 42 3000 1.03 350 23:53 07.05.2022
1580 Haze 31 1005 48 3000 0 0 22:57 07.05.2022
1581 Haze 31 1005 48 3000 1.03 340 22:33 07.05.2022
1582 Haze 31 1005 45 3000 1.03 320 21:43 07.05.2022
1583 Haze 31 1006 48 3000 1.03 320 20:55 07.05.2022
1584 Haze 32 1006 45 3000 1.54 320 19:58 07.05.2022
1585 Haze 33 1006 43 3000 1.03 210 17:43 07.05.2022
1586 Haze 36 1005 32 4000 1.03 60 15:53 07.05.2022
1587 Haze 37 1004 30 4000 2.57 60 14:20 07.05.2022
1588 Haze 41 1005 24 5000 1.54 50 10:57 07.05.2022
1589 Haze 40 1007 27 5000 2.06 100 09:22 07.05.2022
1590 Haze 38 1008 37 5000 1.03 70 07:52 07.05.2022
1591 Haze 36 1009 41 5000 1.54 20 06:43 07.05.2022
1592 Haze 33 1009 43 5000 1.54 80 04:59 07.05.2022
1593 Haze 30 1007 45 3000 1.03 110 02:21 07.05.2022
1594 Haze 31 1006 42 3000 0 0 23:38 06.05.2022
1595 Haze 31 1006 45 3000 0 0 22:31 06.05.2022
1596 Haze 31 1006 37 3000 0 0 21:43 06.05.2022
1597 Haze 31 1007 37 3000 0 0 20:35 06.05.2022
1598 Haze 34 1007 31 3000 2.06 120 19:31 06.05.2022
1599 Haze 35 1006 29 3000 2.06 120 19:00 06.05.2022
1600 Haze 35 1006 26 3000 2.06 100 18:19 06.05.2022
1601 Haze 37 1004 19 3000 1.03 40 16:44 06.05.2022
1602 Haze 39 1003 18 4000 1.54 360 15:41 06.05.2022
1603 Haze 41 1003 16 5000 2.57 320 14:53 06.05.2022
1604 Haze 42 1003 14 5000 2.57 260 12:56 06.05.2022
1605 Haze 42 1003 14 5000 2.57 260 12:37 06.05.2022
1606 Haze 43 1004 14 5000 4.12 320 11:42 06.05.2022
1607 Haze 42 1006 15 5000 2.06 300 10:30 06.05.2022
1608 Haze 42 1006 14 5000 2.06 330 09:45 06.05.2022
1609 Haze 41 1007 17 5000 3.6 320 08:27 06.05.2022
1610 Haze 38 1008 22 5000 3.6 350 06:46 06.05.2022
1611 Haze 35 1008 26 4000 4.12 310 04:53 06.05.2022
1612 Haze 27 1007 34 3000 0 0 02:47 06.05.2022
1613 Haze 28 1005 32 3000 0 0 00:19 06.05.2022
1614 Haze 29 1006 28 3000 2.06 320 21:56 05.05.2022
1615 Haze 30 1006 26 3000 1.03 250 21:19 05.05.2022
1616 Haze 36 1006 21 3000 2.06 340 19:53 05.05.2022
1617 Haze 34 1006 24 3000 3.6 320 18:26 05.05.2022
1618 Haze 37 1004 20 4000 2.57 310 16:20 05.05.2022
1619 Haze 41 1003 16 5000 5.14 300 14:49 05.05.2022
1620 Haze 42 1004 15 5000 4.63 300 13:22 05.05.2022
1621 Haze 42 1004 16 5000 3.6 300 12:25 05.05.2022
1622 Haze 41 1005 20 5000 1.54 200 10:37 05.05.2022
1623 Haze 41 1007 22 5000 2.57 90 09:39 05.05.2022
1624 Haze 38 1009 23 5000 3.09 10 07:34 05.05.2022
1625 Haze 28 1008 61 3000 0 0 03:00 05.05.2022
1626 Haze 30 1007 54 3000 2.06 230 01:50 05.05.2022
1627 Haze 30 1007 54 3000 2.06 230 01:22 05.05.2022
1628 Haze 31 1007 55 4000 1.54 180 23:34 04.05.2022
1629 Haze 31 1007 51 4000 2.06 180 22:27 04.05.2022
1630 Haze 32 1008 51 4000 1.54 170 21:49 04.05.2022
1631 Haze 32 1008 51 4000 1.54 170 21:26 04.05.2022
1632 Haze 32 1008 51 4000 1.54 170 21:26 04.05.2022
1633 Haze 33 1008 49 4000 2.06 180 20:22 04.05.2022
1634 Haze 34 1008 46 4000 2.06 180 19:51 04.05.2022
1635 Haze 35 1007 43 4000 2.57 180 18:51 04.05.2022
1636 Haze 35 1007 43 4000 3.09 170 18:21 04.05.2022
1637 Haze 36 1006 38 4000 3.09 180 17:29 04.05.2022
1638 Haze 39 1005 24 4000 1.54 330 15:38 04.05.2022
1639 Haze 41 1004 21 4000 1.54 260 14:59 04.05.2022
1640 Haze 42 1004 20 4000 0 0 14:20 04.05.2022
1641 Haze 42 1005 20 5000 1.03 330 13:18 04.05.2022
1642 Haze 42 1006 23 5000 1.54 40 12:29 04.05.2022
1643 Haze 41 1007 24 5000 1.54 40 10:40 04.05.2022
1644 Haze 40 1008 24 5000 1.54 20 09:38 04.05.2022
1645 Haze 38 1010 32 5000 3.6 280 08:33 04.05.2022
1646 Haze 32 1010 51 5000 4.12 240 05:50 04.05.2022
1647 Haze 27 1009 65 3000 3.09 180 02:49 04.05.2022
1648 Haze 29 1006 51 3000 1.54 300 23:41 03.05.2022
1649 Haze 30 1006 48 3000 1.54 240 22:20 03.05.2022
1650 Haze 31 1006 42 3000 2.06 220 21:36 03.05.2022
1651 Haze 31 1006 42 3000 2.06 250 20:52 03.05.2022
1652 Haze 32 1007 40 3000 1.03 200 19:44 03.05.2022
1653 Haze 34 1006 36 3000 0 0 18:50 03.05.2022
1654 Thunderstorm 37 1005 26 3000 5.14 270 17:38 03.05.2022
1655 Clouds 36 1006 28 3000 3.6 270 16:35 03.05.2022
1656 Haze 39 1004 24 3000 6.17 330 14:51 03.05.2022
1657 Haze 43 1003 19 5000 1.03 30 12:47 03.05.2022
1658 Haze 43 1003 20 5000 2.06 10 12:25 03.05.2022
1659 Haze 43 1003 20 5000 2.06 10 12:25 03.05.2022
1660 Haze 43 1004 20 5000 3.09 80 10:52 03.05.2022
1661 Haze 41 1007 22 5000 2.2 333 08:58 03.05.2022
1662 Haze 39 1008 24 5000 2.57 20 06:46 03.05.2022
1663 Haze 35 1007 31 4000 1.54 330 04:58 03.05.2022
1664 Haze 29 1004 42 3000 0 0 23:44 02.05.2022
1665 Haze 30 1004 37 3000 0 0 22:34 02.05.2022
1666 Haze 30 1004 37 3000 0 0 21:49 02.05.2022
1667 Haze 32 1004 35 3000 0 0 20:50 02.05.2022
1668 Haze 36 1004 30 3000 0 0 18:35 02.05.2022
1669 Haze 36 1004 30 3000 1.03 350 17:44 02.05.2022
1670 Haze 36 1003 34 3000 1.54 340 16:50 02.05.2022
1671 Haze 37 1002 30 4000 0 0 15:56 02.05.2022
1672 Haze 39 1002 27 4000 0 0 15:19 02.05.2022
1673 Haze 39 1002 25 5000 5.14 250 13:48 02.05.2022
1674 Haze 43 1002 19 5000 4.63 330 12:18 02.05.2022
1675 Haze 41 1003 22 5000 3.09 360 10:20 02.05.2022
1676 Haze 40 1005 24 5000 4.63 290 08:46 02.05.2022
1677 Haze 39 1006 27 5000 2.06 170 07:39 02.05.2022
1678 Haze 33 1003 35 3000 5.14 310 01:58 02.05.2022
1679 Haze 32 1003 35 3000 4.12 320 00:23 02.05.2022
1680 Haze 32 1003 35 3000 2.57 320 23:46 01.05.2022
1681 Haze 34 1003 31 3000 1.54 280 21:56 01.05.2022
1682 Clouds 35 1000 20 10000 2.82 234 20:50 01.05.2022
1683 Haze 35 1003 29 3000 2.57 280 19:46 01.05.2022
1684 Haze 36 1003 28 3000 3.09 300 18:53 01.05.2022
1685 Haze 36 1003 30 3000 3.09 270 17:57 01.05.2022
1686 Haze 37 1002 26 3000 3.09 290 16:46 01.05.2022
1687 Haze 37 1002 26 3000 3.6 290 16:23 01.05.2022
1688 Haze 39 1001 22 4000 4.12 270 15:22 01.05.2022
1689 Haze 43 1000 14 5000 2.57 210 13:23 01.05.2022
1690 Haze 43 1002 14 5000 2.57 230 10:46 01.05.2022
1691 Haze 41 1005 18 5000 2.57 220 08:51 01.05.2022
1692 Haze 38 1006 28 5000 4.12 280 06:53 01.05.2022
1693 Haze 29 1004 28 4000 1.54 300 02:51 01.05.2022
1694 Haze 31 1003 27 4000 1.03 330 22:52 30.04.2022
1695 Haze 33 1003 24 4000 1.03 340 21:35 30.04.2022
1696 Haze 35 1004 21 4000 3.09 310 20:24 30.04.2022
1697 Haze 35 1004 23 4000 3.6 310 19:33 30.04.2022
1698 Haze 37 1004 20 4000 1.54 280 17:38 30.04.2022
1699 Haze 39 1003 16 4000 2.06 280 16:30 30.04.2022
1700 Haze 41 1002 14 4000 4.12 280 15:19 30.04.2022
1701 Haze 43 1002 14 5000 3.09 270 14:31 30.04.2022
1702 Haze 43 1003 14 5000 4.12 260 12:28 30.04.2022
1703 Haze 44 1004 12 5000 4.12 270 11:32 30.04.2022
1704 Haze 44 1005 13 5000 3.09 250 10:30 30.04.2022
1705 Haze 42 1007 16 5000 1.54 270 08:34 30.04.2022
1706 Haze 37 1008 22 4000 4.12 330 05:19 30.04.2022
1707 Haze 31 1004 23 3000 1.03 10 00:35 30.04.2022
1708 Haze 31 1005 22 3000 2.57 200 23:29 29.04.2022
1709 Haze 28 1005 30 3000 1.54 130 22:29 29.04.2022
1710 Haze 31 1005 23 3000 1.03 170 21:26 29.04.2022
1711 Haze 32 1005 22 3000 1.54 320 20:36 29.04.2022
1712 Haze 34 1006 18 3000 2.57 320 19:33 29.04.2022
1713 Haze 36 1006 17 3000 2.06 320 17:38 29.04.2022
1714 Haze 37 1005 18 4000 2.06 310 16:43 29.04.2022
1715 Haze 42 1004 12 5000 3.09 330 14:38 29.04.2022
1716 Haze 42 1004 12 5000 3.09 330 14:38 29.04.2022
1717 Haze 42 1004 12 5000 3.09 330 14:38 29.04.2022
1718 Haze 43 1004 12 5000 3.6 320 13:59 29.04.2022
1719 Haze 44 1004 10 5000 4.63 330 12:41 29.04.2022
1720 Haze 44 1006 11 5000 3.09 300 10:56 29.04.2022
1721 Haze 41 1009 16 5000 4.12 330 07:58 29.04.2022
1722 Haze 41 1010 16 5000 5.14 330 07:26 29.04.2022
1723 Haze 39 1010 19 5000 3.6 300 06:33 29.04.2022
1724 Haze 28 1009 39 3000 1.54 270 02:50 29.04.2022
1725 Haze 30 1008 32 3000 1.54 240 00:18 29.04.2022
1726 Haze 30 1008 35 3000 1.03 200 23:26 28.04.2022
1727 Haze 31 1008 33 3000 0 0 22:37 28.04.2022
1728 Haze 32 1008 29 3000 0 0 21:44 28.04.2022
1729 Haze 33 1009 29 3000 0 0 20:49 28.04.2022
1730 Haze 34 1009 27 3000 1.03 250 19:57 28.04.2022
1731 Haze 34 1009 27 3000 1.03 250 19:38 28.04.2022
1732 Haze 35 1009 26 3000 1.03 250 19:19 28.04.2022
1733 Haze 35 1007 21 3000 0 0 17:55 28.04.2022
1734 Haze 35 1007 20 3000 0 0 16:58 28.04.2022
1735 Haze 36 1006 19 4000 0 0 16:21 28.04.2022
1736 Haze 38 1006 19 4000 1.03 330 15:49 28.04.2022
1737 Haze 39 1006 16 4000 1.03 110 15:18 28.04.2022
1738 Haze 43 1005 11 5000 1.54 120 13:42 28.04.2022
1739 Haze 44 1005 11 5000 1.03 100 12:30 28.04.2022
1740 Haze 44 1005 11 5000 1.03 100 12:30 28.04.2022
1741 Haze 44 1006 10 5000 2.06 80 11:37 28.04.2022
1742 Haze 43 1007 12 5000 2.57 40 10:27 28.04.2022
1743 Haze 43 1008 13 5000 2.06 50 09:50 28.04.2022
1744 Haze 40 1010 17 5000 2.06 330 07:42 28.04.2022
1745 Haze 39 1010 17 5000 2.06 220 06:51 28.04.2022
1746 Haze 37 1010 22 5000 1.03 340 05:53 28.04.2022
1747 Haze 32 1009 33 4000 1.54 240 04:43 28.04.2022
1748 Haze 25 1008 38 3000 1.03 170 02:41 28.04.2022
1749 Haze 29 1006 28 3000 1.54 320 23:32 27.04.2022
1750 Haze 30 1007 26 3000 2.57 300 22:20 27.04.2022
1751 Haze 30 1007 26 3000 1.54 320 21:46 27.04.2022
1752 Haze 31 1008 23 3000 1.54 250 20:45 27.04.2022
1753 Haze 33 1008 22 3000 1.03 350 19:57 27.04.2022
1754 Haze 33 1008 21 3000 2.06 220 19:36 27.04.2022
1755 Haze 35 1008 18 3000 1.03 210 18:41 27.04.2022
1756 Haze 36 1007 19 3000 1.54 100 18:20 27.04.2022
1757 Haze 38 1005 18 4000 1.54 350 16:18 27.04.2022
1758 Haze 44 1004 10 5000 5.14 310 13:18 27.04.2022
1759 Haze 44 1005 10 5000 1.54 210 11:25 27.04.2022
1760 Haze 44 1006 11 5000 3.6 100 10:45 27.04.2022
1761 Haze 42 1009 14 5000 1.03 170 08:22 27.04.2022
1762 Haze 40 1010 16 5000 1.03 30 06:41 27.04.2022
1763 Haze 27 1008 36 3000 1.03 170 02:31 27.04.2022
1764 Haze 29 1007 32 3000 1.03 310 01:21 27.04.2022
1765 Haze 30 1007 30 3000 1.03 330 00:27 27.04.2022
1766 Haze 30 1007 28 3000 1.03 340 23:24 26.04.2022
1767 Haze 30 1007 28 3000 1.54 320 22:45 26.04.2022
1768 Haze 30 1007 28 3000 0 0 21:59 26.04.2022
1769 Haze 30 1007 28 3000 0 0 21:19 26.04.2022
1770 Haze 31 1008 27 3000 0 0 20:37 26.04.2022
1771 Haze 32 1008 25 3000 0 0 19:45 26.04.2022
1772 Haze 33 1008 25 3000 0 0 19:26 26.04.2022
1773 Haze 36 1008 20 3000 0 0 18:31 26.04.2022
1774 Haze 35 1007 21 3000 0 0 17:38 26.04.2022
1775 Haze 42 1005 14 4000 2.57 290 14:59 26.04.2022
1776 Haze 43 1005 14 5000 2.06 300 13:40 26.04.2022
1777 Haze 43 1005 14 5000 0 0 12:47 26.04.2022
1778 Haze 42 1006 14 5000 2.57 360 11:20 26.04.2022
1779 Haze 42 1007 14 5000 2.57 100 10:30 26.04.2022
1780 Haze 40 1009 17 5000 2.06 60 08:32 26.04.2022
1781 Haze 33 1009 29 4000 1.03 310 04:39 26.04.2022
1782 Haze 28 1008 39 3000 0 0 03:25 26.04.2022
1783 Haze 29 1007 32 4000 1.54 300 00:46 26.04.2022
1784 Haze 30 1006 30 4000 2.06 320 23:48 25.04.2022
1785 Haze 31 1007 29 4000 1.03 350 21:49 25.04.2022
1786 Haze 31 1008 27 4000 1.03 300 20:49 25.04.2022
1787 Haze 32 1008 25 4000 1.03 320 19:39 25.04.2022
1788 Haze 36 1008 20 4000 1.03 350 18:25 25.04.2022
1789 Haze 36 1007 20 4000 1.03 330 17:39 25.04.2022
1790 Haze 38 1005 17 4000 2.06 320 15:51 25.04.2022
1791 Haze 40 1005 14 4000 2.06 320 15:18 25.04.2022
1792 Haze 42 1004 12 5000 6.17 320 13:59 25.04.2022
1793 Haze 43 1005 12 5000 2.57 50 12:40 25.04.2022
1794 Clear 43 1007 13 6000 3.09 340 10:29 25.04.2022
1795 Clear 42 1008 13 6000 1.54 360 09:23 25.04.2022
1796 Haze 40 1009 15 5000 4.12 350 07:19 25.04.2022
1797 Haze 36 1009 20 5000 4.12 340 05:53 25.04.2022
1798 Haze 26 1006 41 3000 1.03 240 01:24 25.04.2022
1799 Haze 28 1006 39 3000 0 0 23:54 24.04.2022
1800 Haze 30 1007 35 3000 0 0 22:53 24.04.2022
1801 Haze 30 1007 35 3000 0 0 22:32 24.04.2022
1802 Haze 30 1007 35 3000 0 0 22:32 24.04.2022
1803 Haze 31 1007 33 3000 0 0 21:54 24.04.2022
1804 Haze 31 1007 33 3000 0 0 21:20 24.04.2022
1805 Haze 32 1008 31 3000 0 0 20:38 24.04.2022
1806 Haze 33 1008 29 3000 1.03 150 19:50 24.04.2022
1807 Haze 34 1008 27 3000 3.09 190 18:28 24.04.2022
1808 Haze 34 1007 26 3000 1.03 320 17:40 24.04.2022
1809 Haze 34 1007 26 3000 1.03 320 17:19 24.04.2022
1810 Haze 35 1007 24 3000 2.06 320 16:48 24.04.2022
1811 Haze 35 1006 24 3000 0 0 16:20 24.04.2022
1812 Haze 38 1005 20 4000 1.03 200 15:31 24.04.2022
1813 Haze 38 1005 20 4000 1.03 200 15:31 24.04.2022
1814 Haze 41 1005 17 5000 2.06 250 14:19 24.04.2022
1815 Haze 41 1006 16 5000 2.57 290 13:26 24.04.2022
1816 Haze 41 1006 16 5000 3.6 330 12:35 24.04.2022
1817 Haze 42 1007 16 5000 1.54 330 11:34 24.04.2022
1818 Haze 40 1008 18 5000 3.6 330 10:27 24.04.2022
1819 Haze 40 1010 22 5000 4.12 310 09:29 24.04.2022
1820 Haze 35 1011 34 5000 4.63 300 06:46 24.04.2022
1821 Haze 30 1010 42 3000 3.09 330 03:57 24.04.2022
1822 Haze 28 1009 47 3000 2.06 310 01:38 24.04.2022
1823 Haze 28 1009 47 3000 2.06 310 01:38 24.04.2022
1824 Haze 30 1008 42 3000 1.03 230 00:29 24.04.2022
1825 Haze 31 1008 45 3000 1.03 280 23:44 23.04.2022
1826 Haze 31 1008 45 3000 1.03 280 23:21 23.04.2022
1827 Haze 30 1009 51 3000 1.03 280 21:51 23.04.2022
1828 Haze 30 1009 51 3000 1.03 280 21:33 23.04.2022
1829 Haze 30 1010 48 3000 1.54 250 20:45 23.04.2022
1830 Haze 30 1010 48 3000 1.54 250 20:45 23.04.2022
1831 Haze 30 1010 48 3000 1.54 250 19:46 23.04.2022
1832 Haze 30 1010 48 3000 1.03 210 19:19 23.04.2022
1833 Haze 31 1010 48 3000 1.54 220 18:49 23.04.2022
1834 Haze 31 1009 48 3000 1.03 200 17:51 23.04.2022
1835 Haze 30 1009 51 3000 1.54 210 17:20 23.04.2022
1836 Haze 32 1008 45 3000 2.57 200 16:40 23.04.2022
1837 Haze 35 1007 36 4000 2.57 150 14:57 23.04.2022
1838 Haze 35 1007 38 3000 1.03 200 12:35 23.04.2022
1839 Haze 40 1009 29 5000 1.54 20 10:43 23.04.2022
1840 Haze 39 1010 35 5000 1.03 90 09:30 23.04.2022
1841 Haze 34 1012 49 5000 3.09 240 06:29 23.04.2022
1842 Haze 30 1011 62 3000 1.03 10 03:54 23.04.2022
1843 Haze 28 1009 61 3000 0 0 00:53 23.04.2022
1844 Haze 29 1009 58 3000 0 0 23:29 22.04.2022
1845 Haze 30 1009 58 3000 0 0 22:19 22.04.2022
1846 Haze 31 1010 55 3000 0 0 21:41 22.04.2022
1847 Haze 31 1010 55 3000 1.03 160 20:45 22.04.2022
1848 Haze 31 1010 55 3000 1.03 160 20:25 22.04.2022
1849 Haze 32 1010 51 3000 2.57 180 19:18 22.04.2022
1850 Haze 33 1010 49 3000 2.57 180 18:36 22.04.2022
1851 Haze 33 1010 43 3000 2.06 150 17:39 22.04.2022
1852 Haze 35 1008 36 3000 1.54 110 16:32 22.04.2022
1853 Haze 36 1008 34 4000 1.54 100 15:32 22.04.2022
1854 Haze 37 1008 32 5000 1.54 130 14:43 22.04.2022
1855 Haze 39 1008 29 5000 2.06 40 13:43 22.04.2022
1856 Haze 39 1008 27 5000 2.57 50 12:57 22.04.2022
1857 Haze 39 1008 27 5000 2.06 120 11:43 22.04.2022
1858 Haze 39 1008 29 5000 2.06 120 11:20 22.04.2022
1859 Haze 38 1009 30 5000 1.54 80 10:47 22.04.2022
1860 Haze 38 1010 30 5000 2.06 60 10:27 22.04.2022
1861 Haze 38 1010 32 5000 2.57 50 09:42 22.04.2022
1862 Haze 37 1011 36 5000 2.06 70 08:49 22.04.2022
1863 Haze 34 1013 43 5000 2.06 90 06:56 22.04.2022
1864 Haze 29 1009 42 3000 1.54 110 01:49 22.04.2022
1865 Haze 30 1009 35 3000 1.54 80 23:49 21.04.2022
1866 Haze 32 1009 31 3000 1.03 360 22:52 21.04.2022
1867 Haze 33 1008 29 3000 2.57 350 21:56 21.04.2022
1868 Haze 34 1008 27 3000 4.63 360 20:34 21.04.2022
1869 Haze 34 1008 27 3000 5.14 360 19:51 21.04.2022
1870 Haze 36 1008 24 3000 6.85 350 18:34 21.04.2022
1871 Haze 36 1008 24 3000 5.14 360 17:47 21.04.2022
1872 Haze 39 1005 21 4000 4.12 350 16:24 21.04.2022
1873 Haze 40 1004 22 4000 1.54 20 15:19 21.04.2022
1874 Haze 42 1003 16 4000 1.54 320 14:31 21.04.2022
1875 Haze 42 1003 16 4000 2.06 330 13:22 21.04.2022
1876 Haze 42 1004 16 4000 2.06 10 12:29 21.04.2022
1877 Haze 42 1005 16 5000 1.54 20 10:19 21.04.2022
1878 Haze 40 1007 18 5000 2.06 120 08:50 21.04.2022
1879 Haze 38 1008 22 5000 1.54 360 06:46 21.04.2022
1880 Haze 31 1007 29 4000 2.06 290 04:34 21.04.2022
1881 Haze 30 1007 30 3000 1.54 310 03:23 21.04.2022
1882 Haze 30 1007 28 3000 1.03 320 02:45 21.04.2022
1883 Haze 30 1007 28 3000 1.03 320 02:45 21.04.2022
1884 Haze 34 1006 26 3000 1.03 40 00:35 21.04.2022
1885 Haze 32 1006 27 3000 0 0 23:46 20.04.2022
1886 Haze 32 1006 27 3000 0 0 23:21 20.04.2022
1887 Haze 33 1006 27 3000 0 0 22:45 20.04.2022
1888 Haze 32 1006 31 3000 0 0 21:57 20.04.2022
1889 Haze 32 1006 31 3000 0 0 21:23 20.04.2022
1890 Haze 32 1007 31 3000 0 0 20:22 20.04.2022
1891 Haze 32 1007 31 3000 0 0 19:51 20.04.2022
1892 Haze 33 1007 29 3000 0 0 18:52 20.04.2022
1893 Haze 35 1006 26 3000 0 0 17:53 20.04.2022
1894 Haze 36 1006 24 3000 1.03 120 16:40 20.04.2022
1895 Haze 38 1005 22 4000 1.03 90 15:50 20.04.2022
1896 Haze 43 1004 15 5000 2.06 110 13:41 20.04.2022
1897 Haze 43 1005 15 5000 1.54 270 11:43 20.04.2022
1898 Haze 43 1006 15 5000 2.57 80 10:53 20.04.2022
1899 Haze 42 1007 17 5000 2.57 40 09:45 20.04.2022
1900 Haze 41 1009 17 5000 2.57 10 08:54 20.04.2022
1901 Haze 41 1009 17 5000 3.6 10 08:20 20.04.2022
1902 Haze 41 1009 17 5000 3.6 10 08:20 20.04.2022
1903 Haze 38 1010 20 5000 3.09 340 06:49 20.04.2022
1904 Haze 31 1009 29 4000 1.03 90 03:33 20.04.2022
1905 Haze 30 1007 28 3000 3.09 320 00:22 20.04.2022
1906 Clouds 32 1005 17 10000 0.63 290 23:31 19.04.2022
1907 Haze 31 1008 27 3000 1.54 310 22:24 19.04.2022
1908 Haze 31 1008 27 3000 2.57 300 21:55 19.04.2022
1909 Haze 33 1009 24 3000 2.06 320 21:19 19.04.2022
1910 Haze 33 1009 25 3000 2.06 330 20:37 19.04.2022
1911 Haze 33 1009 25 3000 2.06 330 20:37 19.04.2022
1912 Haze 34 1009 24 3000 2.06 330 19:43 19.04.2022
1913 Haze 34 1009 22 3000 1.54 300 18:46 19.04.2022
1914 Haze 34 1009 22 3000 1.54 300 18:46 19.04.2022
1915 Haze 36 1008 21 4000 2.57 320 17:27 19.04.2022
1916 Haze 37 1008 20 4000 2.57 320 16:43 19.04.2022
1917 Haze 36 1008 21 4000 2.06 320 16:21 19.04.2022
1918 Haze 41 1007 16 5000 1.54 50 14:48 19.04.2022
1919 Haze 42 1006 14 5000 1.03 100 13:34 19.04.2022
1920 Haze 43 1007 13 5000 1.03 40 12:50 19.04.2022
1921 Haze 43 1007 14 5000 2.06 50 11:39 19.04.2022
1922 Haze 42 1010 16 5000 2.06 340 09:57 19.04.2022
1923 Haze 41 1011 17 5000 1.54 30 08:43 19.04.2022
1924 Haze 30 1011 37 4000 2.06 220 04:41 19.04.2022
1925 Haze 28 1010 32 4000 1.03 230 03:19 19.04.2022
1926 Haze 31 1008 29 4000 2.06 320 00:27 19.04.2022
1927 Haze 30 1008 30 4000 0 0 23:25 18.04.2022
1928 Haze 29 1009 32 4000 0 0 21:29 18.04.2022
1929 Haze 32 1009 25 4000 0 0 20:53 18.04.2022
1930 Haze 32 1009 25 4000 0 0 20:27 18.04.2022
1931 Haze 33 1009 24 4000 0 0 19:42 18.04.2022
1932 Haze 33 1009 24 4000 1.03 100 18:53 18.04.2022
1933 Haze 34 1008 21 4000 1.03 220 17:53 18.04.2022
1934 Haze 35 1008 20 4000 0 0 17:28 18.04.2022
1935 Haze 35 1007 21 4000 0 0 16:44 18.04.2022
1936 Haze 36 1007 20 4000 0 0 15:54 18.04.2022
1937 Haze 42 1006 14 5000 2.06 230 14:42 18.04.2022
1938 Haze 42 1006 14 5000 2.06 230 14:42 18.04.2022
1939 Haze 43 1006 14 5000 3.6 300 13:31 18.04.2022
1940 Haze 42 1006 14 5000 1.54 320 12:28 18.04.2022
1941 Haze 42 1007 13 5000 1.54 280 11:27 18.04.2022
1942 Haze 42 1008 15 5000 3.09 220 10:29 18.04.2022
1943 Haze 40 1009 18 5000 1.54 60 09:30 18.04.2022
1944 Haze 39 1010 19 5000 1.54 320 07:35 18.04.2022
1945 Haze 31 1010 48 4000 2.57 210 04:40 18.04.2022
1946 Haze 29 1007 32 4000 1.03 160 23:42 17.04.2022
1947 Haze 29 1007 34 4000 2.06 230 22:40 17.04.2022
1948 Haze 30 1007 32 4000 1.03 250 21:42 17.04.2022
1949 Haze 30 1007 32 4000 1.03 250 21:21 17.04.2022
1950 Haze 32 1008 29 4000 1.03 310 20:32 17.04.2022
1951 Haze 30 1008 26 4000 1.54 140 19:21 17.04.2022
1952 Haze 35 1006 20 4000 1.03 290 17:43 17.04.2022
1953 Haze 37 1005 18 4000 2.06 220 15:39 17.04.2022
1954 Haze 40 1004 14 4000 2.06 200 14:54 17.04.2022
1955 Haze 41 1004 13 5000 3.09 210 13:47 17.04.2022
1956 Haze 42 1004 14 5000 2.57 250 12:58 17.04.2022
1957 Haze 42 1004 14 5000 1.54 350 11:53 17.04.2022
1958 Haze 42 1005 13 5000 1.54 100 10:46 17.04.2022
1959 Haze 41 1006 14 5000 2.06 340 10:27 17.04.2022
1960 Haze 40 1007 17 5000 2.57 160 09:28 17.04.2022
1961 Haze 39 1007 17 5000 2.06 120 08:42 17.04.2022
1962 Haze 37 1008 20 5000 2.57 90 07:00 17.04.2022
1963 Haze 27 1007 32 4000 1.54 250 03:53 17.04.2022
1964 Haze 25 1005 33 3000 0 0 00:55 17.04.2022
1965 Haze 26 1005 34 3000 0 0 23:50 16.04.2022
1966 Haze 28 1005 32 3000 0 0 22:27 16.04.2022
1967 Haze 28 1005 28 3000 0 0 21:29 16.04.2022
1968 Haze 31 1006 23 3000 1.54 280 19:57 16.04.2022
1969 Haze 32 1005 20 3000 2.06 310 18:55 16.04.2022
1970 Haze 32 1004 23 3000 0 0 17:40 16.04.2022
1971 Haze 34 1003 20 4000 0 0 16:34 16.04.2022
1972 Haze 39 1003 14 5000 2.57 320 15:40 16.04.2022
1973 Haze 40 1002 14 5000 2.57 310 14:51 16.04.2022
1974 Haze 41 1002 12 5000 5.14 320 13:57 16.04.2022
1975 Haze 42 1002 12 5000 4.12 280 13:26 16.04.2022
1976 Haze 42 1003 12 5000 5.14 270 12:18 16.04.2022
1977 Haze 42 1004 13 5000 3.09 300 10:49 16.04.2022
1978 Haze 42 1005 13 5000 2.06 280 09:43 16.04.2022
1979 Haze 40 1007 17 5000 3.09 80 08:57 16.04.2022
1980 Haze 38 1008 20 5000 2.06 150 07:32 16.04.2022
1981 Haze 37 1008 20 5000 2.57 320 06:46 16.04.2022
1982 Haze 23 1005 38 3000 1.54 150 01:59 16.04.2022
1983 Haze 27 1004 29 3000 0 0 00:23 16.04.2022
1984 Haze 27 1005 32 3000 0 0 22:57 15.04.2022
1985 Haze 27 1005 32 3000 0 0 22:31 15.04.2022
1986 Haze 28 1006 30 3000 1.54 160 21:47 15.04.2022
1987 Haze 30 1006 26 3000 1.54 330 20:56 15.04.2022
1988 Haze 29 1006 28 3000 1.03 320 19:59 15.04.2022
1989 Haze 31 1006 25 3000 1.03 320 19:39 15.04.2022
1990 Haze 31 1006 25 3000 0 0 18:46 15.04.2022
1991 Haze 32 1006 23 3000 1.03 270 18:24 15.04.2022
1992 Haze 33 1005 22 3000 1.03 230 17:32 15.04.2022
1993 Haze 34 1004 22 4000 1.54 330 16:26 15.04.2022
1994 Haze 35 1004 21 4000 1.03 310 15:59 15.04.2022
1995 Haze 38 1003 17 5000 1.54 240 14:44 15.04.2022
1996 Haze 41 1003 15 5000 4.12 200 13:34 15.04.2022
1997 Haze 41 1003 15 5000 2.06 230 12:40 15.04.2022
1998 Haze 41 1004 15 5000 4.63 260 11:55 15.04.2022
1999 Haze 41 1005 15 5000 4.12 290 10:58 15.04.2022
2000 Haze 41 1005 15 5000 4.12 290 10:40 15.04.2022
2001 Haze 40 1006 16 5000 2.57 250 09:41 15.04.2022
2002 Haze 40 1007 16 5000 2.06 270 09:19 15.04.2022
2003 Haze 38 1008 18 5000 3.09 320 07:24 15.04.2022
2004 Haze 34 1009 29 4000 1.03 340 05:58 15.04.2022
2005 Haze 25 1007 61 3000 0 0 02:34 15.04.2022
2006 Haze 30 1005 51 3000 2.57 210 23:30 14.04.2022
2007 Haze 30 1006 51 3000 2.57 220 22:47 14.04.2022
2008 Haze 28 1006 47 3000 1.03 230 22:29 14.04.2022
2009 Haze 29 1006 48 3000 1.03 250 21:57 14.04.2022
2010 Haze 29 1006 48 3000 0 0 20:35 14.04.2022
2011 Haze 32 1006 40 3000 1.03 340 19:22 14.04.2022
2012 Haze 32 1006 40 3000 0 0 18:18 14.04.2022
2013 Haze 33 1006 38 3000 1.03 180 17:28 14.04.2022
2014 Haze 35 1005 34 4000 1.03 130 16:33 14.04.2022
2015 Haze 38 1004 28 5000 3.09 180 14:28 14.04.2022
2016 Haze 38 1004 28 5000 2.57 180 13:39 14.04.2022
2017 Haze 39 1004 25 5000 2.57 210 12:51 14.04.2022
2018 Haze 40 1005 24 5000 1.54 90 12:30 14.04.2022
2019 Haze 39 1005 24 5000 2.06 110 11:24 14.04.2022
2020 Haze 39 1006 24 5000 1.03 80 10:41 14.04.2022
2021 Haze 39 1007 25 5000 1.03 80 09:57 14.04.2022
2022 Haze 37 1008 30 5000 1.54 270 08:44 14.04.2022
2023 Haze 34 1009 43 5000 2.57 220 06:51 14.04.2022
2024 Haze 27 1007 54 4000 1.03 140 02:53 14.04.2022
2025 Haze 31 1006 40 4000 2.06 220 22:56 13.04.2022
2026 Haze 31 1006 40 4000 2.06 220 22:19 13.04.2022
2027 Haze 31 1006 40 4000 1.54 260 21:34 13.04.2022
2028 Haze 31 1007 40 4000 1.54 280 20:22 13.04.2022
2029 Haze 31 1007 40 4000 1.54 270 19:32 13.04.2022
2030 Haze 32 1007 40 4000 3.09 190 18:20 13.04.2022
2031 Haze 34 1006 38 4000 4.12 180 17:24 13.04.2022
2032 Haze 34 1006 38 3000 5.14 200 16:34 13.04.2022
2033 Dust 37 1005 32 2500 5.14 200 15:38 13.04.2022
2034 Haze 40 1004 27 4000 1.03 30 14:50 13.04.2022
2035 Haze 41 1003 26 4000 1.54 50 14:19 13.04.2022
2036 Haze 41 1003 26 5000 1.54 150 13:19 13.04.2022
2037 Haze 41 1004 24 5000 2.06 210 12:25 13.04.2022
2038 Haze 41 1004 24 5000 2.06 210 12:25 13.04.2022
2039 Haze 41 1005 24 5000 2.57 200 10:49 13.04.2022
2040 Haze 40 1006 29 5000 2.57 200 09:41 13.04.2022
2041 Haze 39 1007 30 5000 3.6 170 08:42 13.04.2022
2042 Haze 36 1009 38 5000 4.12 200 06:51 13.04.2022
2043 Haze 35 1009 43 5000 3.09 220 06:25 13.04.2022
2044 Haze 33 1009 49 5000 2.57 170 05:20 13.04.2022
2045 Haze 30 1005 58 3000 1.54 130 00:21 13.04.2022
2046 Haze 31 1005 55 3000 0 0 23:29 12.04.2022
2047 Haze 31 1006 55 3000 0 0 22:18 12.04.2022
2048 Haze 32 1006 51 3000 0 0 21:18 12.04.2022
2049 Haze 32 1006 48 3000 0 0 20:41 12.04.2022
2050 Haze 33 1007 46 3000 0 0 19:48 12.04.2022
2051 Haze 33 1007 46 3000 0 0 19:30 12.04.2022
2052 Haze 35 1007 36 3000 2.06 130 18:26 12.04.2022
2053 Haze 34 1006 38 3000 0 0 17:23 12.04.2022
2054 Haze 35 1005 34 4000 0 0 16:22 12.04.2022
2055 Haze 37 1005 30 4000 0 0 15:29 12.04.2022
2056 Haze 41 1004 24 4000 1.03 250 14:21 12.04.2022
2057 Haze 41 1004 24 4000 1.54 300 13:29 12.04.2022
2058 Haze 41 1004 24 5000 1.54 170 12:52 12.04.2022
2059 Haze 40 1005 27 5000 2.57 190 11:46 12.04.2022
2060 Haze 40 1006 29 5000 3.09 230 10:35 12.04.2022
2061 Haze 39 1008 30 5000 2.57 150 09:18 12.04.2022
2062 Haze 36 1009 38 5000 3.6 250 07:55 12.04.2022
2063 Haze 33 1009 49 4000 2.57 210 05:50 12.04.2022
2064 Haze 31 1009 55 4000 2.57 160 04:55 12.04.2022
2065 Haze 30 1006 54 3000 1.03 220 23:53 11.04.2022
2066 Haze 31 1007 51 3000 1.54 230 22:44 11.04.2022
2067 Haze 31 1007 51 3000 1.03 240 21:37 11.04.2022
2068 Haze 33 1007 49 3000 1.03 210 20:55 11.04.2022
2069 Haze 33 1007 46 3000 1.54 200 20:28 11.04.2022
2070 Haze 33 1008 43 3000 1.54 250 19:42 11.04.2022
2071 Haze 34 1008 40 3000 1.54 150 19:18 11.04.2022
2072 Haze 34 1007 36 3000 1.54 140 18:41 11.04.2022
2073 Haze 35 1007 29 3000 2.06 130 17:56 11.04.2022
2074 Haze 35 1006 29 3000 1.54 130 16:54 11.04.2022
2075 Haze 38 1005 23 4000 1.54 100 15:45 11.04.2022
2076 Clouds 42 1001 9 10000 2.39 199 13:59 11.04.2022
2077 Haze 41 1005 22 5000 1.54 60 12:47 11.04.2022
2078 Haze 41 1005 24 5000 1.54 180 12:29 11.04.2022
2079 Haze 41 1006 22 5000 2.06 180 11:30 11.04.2022
2080 Haze 40 1007 27 5000 1.54 270 10:21 11.04.2022
2081 Haze 38 1009 32 5000 1.03 130 08:50 11.04.2022
2082 Haze 33 1010 49 4000 4.12 200 05:38 11.04.2022
2083 Haze 30 1007 51 4000 1.03 70 00:57 11.04.2022
2084 Haze 31 1007 45 4000 2.06 190 22:33 10.04.2022
2085 Haze 32 1007 45 4000 3.09 220 21:54 10.04.2022
2086 Haze 32 1007 45 4000 3.09 220 21:26 10.04.2022
2087 Haze 33 1008 43 4000 1.54 230 20:25 10.04.2022
2088 Haze 33 1008 40 4000 2.06 180 19:37 10.04.2022
2089 Haze 34 1008 38 4000 1.03 200 18:50 10.04.2022
2090 Haze 35 1008 38 4000 3.09 160 18:30 10.04.2022
2091 Haze 35 1007 36 4000 1.54 150 17:49 10.04.2022
2092 Haze 35 1006 34 4000 1.03 160 16:59 10.04.2022
2093 Haze 37 1006 32 4000 1.03 140 15:41 10.04.2022
2094 Haze 39 1005 29 4000 1.54 180 14:49 10.04.2022
2095 Haze 40 1005 27 5000 2.57 170 13:45 10.04.2022
2096 Haze 41 1006 29 5000 1.54 290 12:32 10.04.2022
2097 Haze 41 1006 29 5000 1.54 180 11:44 10.04.2022
2098 Haze 41 1006 27 5000 3.09 180 11:20 10.04.2022
2099 Haze 40 1007 29 5000 4.12 210 10:34 10.04.2022
2100 Haze 39 1008 32 5000 2.06 240 09:41 10.04.2022
2101 Haze 38 1010 34 5000 4.12 230 08:40 10.04.2022
2102 Haze 37 1010 36 5000 3.6 220 08:18 10.04.2022
2103 Haze 35 1011 43 5000 4.12 220 06:59 10.04.2022
2104 Haze 28 1009 65 4000 1.54 160 03:40 10.04.2022
2105 Haze 27 1008 61 3000 1.54 170 02:19 10.04.2022
2106 Haze 30 1007 54 4000 1.54 220 23:53 09.04.2022
2107 Haze 31 1007 51 4000 2.57 190 22:56 09.04.2022
2108 Haze 31 1007 51 4000 2.57 190 22:38 09.04.2022
2109 Haze 32 1008 48 4000 2.57 190 21:23 09.04.2022
2110 Haze 32 1008 45 4000 1.03 190 20:30 09.04.2022
2111 Haze 33 1008 43 4000 1.03 190 19:57 09.04.2022
2112 Haze 33 1008 43 4000 1.03 190 19:39 09.04.2022
2113 Haze 34 1008 38 4000 2.57 130 18:23 09.04.2022
2114 Haze 34 1008 38 4000 1.03 130 17:49 09.04.2022
2115 Haze 35 1007 34 4000 1.54 150 16:56 09.04.2022
2116 Haze 35 1007 34 4000 1.54 150 16:38 09.04.2022
2117 Haze 36 1007 32 5000 1.03 140 15:49 09.04.2022
2118 Haze 36 1007 32 5000 1.03 140 15:49 09.04.2022
2119 Haze 36 1007 32 5000 1.03 140 15:49 09.04.2022
2120 Haze 38 1006 28 5000 1.54 170 15:25 09.04.2022
2121 Haze 39 1006 27 5000 3.09 220 14:25 09.04.2022
2122 Haze 40 1006 25 5000 1.54 110 13:26 09.04.2022
2123 Haze 40 1006 25 5000 2.06 60 12:53 09.04.2022
2124 Haze 40 1007 29 5000 2.57 260 11:44 09.04.2022
2125 Haze 40 1008 33 5000 3.09 210 10:51 09.04.2022
2126 Haze 39 1008 35 5000 3.09 220 10:18 09.04.2022
2127 Haze 38 1009 37 5000 4.12 200 09:22 09.04.2022
2128 Haze 36 1011 41 5000 4.12 170 07:49 09.04.2022
2129 Haze 27 1010 61 3000 1.03 120 03:57 09.04.2022
2130 Haze 29 1009 58 3000 2.06 190 00:33 09.04.2022
2131 Haze 30 1008 51 3000 1.03 190 23:20 08.04.2022
2132 Haze 30 1009 45 3000 2.57 160 21:43 08.04.2022
2133 Haze 30 1009 45 3000 2.06 140 20:43 08.04.2022
2134 Haze 31 1010 45 3000 1.03 130 19:46 08.04.2022
2135 Haze 32 1010 43 3000 1.03 120 18:42 08.04.2022
2136 Haze 33 1010 40 3000 1.03 120 18:18 08.04.2022
2137 Haze 33 1009 40 3000 1.03 80 17:27 08.04.2022
2138 Haze 34 1009 40 4000 2.57 106 16:52 08.04.2022
2139 Haze 35 1009 36 4000 2.57 150 16:22 08.04.2022
2140 Haze 37 1008 32 4000 2.06 160 15:28 08.04.2022
2141 Haze 38 1007 32 4000 3.6 160 14:44 08.04.2022
2142 Haze 39 1007 30 5000 4.12 160 13:55 08.04.2022
2143 Haze 39 1007 30 5000 3.09 190 13:30 08.04.2022
2144 Haze 39 1007 32 5000 3.6 190 12:42 08.04.2022
2145 Haze 39 1009 32 5000 4.63 230 10:56 08.04.2022
2146 Haze 37 1011 36 5000 4.12 150 09:41 08.04.2022
2147 Haze 38 1011 34 5000 4.63 170 08:59 08.04.2022
2148 Haze 36 1012 38 5000 4.12 210 07:42 08.04.2022
2149 Haze 35 1013 38 4000 2.06 200 06:44 08.04.2022
2150 Haze 30 1011 51 3000 1.03 140 02:37 08.04.2022
2151 Haze 32 1009 45 3000 3.09 240 00:28 08.04.2022
2152 Haze 31 1009 45 3000 2.57 210 23:42 07.04.2022
2153 Clouds 33 1010 43 3000 1.54 320 22:41 07.04.2022
2154 Clouds 33 1010 43 3000 2.57 320 22:22 07.04.2022
2155 Haze 32 1010 45 3000 0 0 21:56 07.04.2022
2156 Haze 32 1010 43 3000 0 0 21:23 07.04.2022
2157 Haze 32 1011 45 3500 0 0 20:42 07.04.2022
2158 Haze 34 1011 43 3500 1.54 110 18:58 07.04.2022
2159 Haze 35 1010 41 4000 1.54 120 17:28 07.04.2022
2160 Haze 36 1010 38 4000 1.54 120 16:45 07.04.2022
2161 Haze 36 1010 36 4000 2.06 120 16:25 07.04.2022
2162 Haze 35 1009 36 4000 1.54 120 15:39 07.04.2022
2163 Haze 39 1008 27 4000 2.06 230 13:52 07.04.2022
2164 Haze 40 1008 27 4000 3.09 140 13:23 07.04.2022
2165 Haze 40 1009 27 4000 2.57 100 11:49 07.04.2022
2166 Haze 39 1011 30 4000 1.54 240 10:40 07.04.2022
2167 Haze 36 1013 38 4000 3.09 180 08:40 07.04.2022
2168 Haze 34 1014 46 3000 2.57 140 06:58 07.04.2022
2169 Haze 29 1013 61 3000 1.03 70 04:26 07.04.2022
2170 Haze 28 1012 57 3000 1.03 290 02:29 07.04.2022
2171 Haze 29 1010 54 3000 1.03 150 00:42 07.04.2022
2172 Haze 29 1011 54 3000 1.03 90 23:21 06.04.2022
2173 Haze 30 1011 48 3000 1.54 310 22:44 06.04.2022
2174 Haze 31 1011 45 3000 0 0 21:47 06.04.2022
2175 Haze 32 1011 43 3000 1.03 280 20:43 06.04.2022
2176 Haze 33 1011 38 3000 1.54 200 19:59 06.04.2022
2177 Haze 33 1011 38 3000 1.03 130 19:19 06.04.2022
2178 Haze 34 1011 36 3000 1.54 120 18:47 06.04.2022
2179 Haze 35 1011 36 3000 1.54 140 17:35 06.04.2022
2180 Haze 36 1010 36 3000 2.06 130 16:39 06.04.2022
2181 Haze 37 1009 30 4000 1.54 110 15:57 06.04.2022
2182 Haze 37 1009 30 4000 1.54 110 15:39 06.04.2022
2183 Haze 41 1009 21 5000 1.03 10 13:31 06.04.2022
2184 Haze 41 1009 24 5000 2.06 270 12:28 06.04.2022
2185 Haze 40 1011 29 5000 2.06 240 10:57 06.04.2022
2186 Haze 40 1011 27 5000 2.06 200 10:32 06.04.2022
2187 Haze 39 1012 35 5000 3.09 220 09:43 06.04.2022
2188 Haze 38 1013 37 5000 3.09 160 08:39 06.04.2022
2189 Haze 36 1014 44 5000 2.57 190 07:57 06.04.2022
2190 Haze 31 1015 62 4000 2.06 120 05:23 06.04.2022
2191 Haze 29 1012 54 4000 1.54 80 23:58 05.04.2022
2192 Haze 29 1012 54 4000 1.54 80 23:33 05.04.2022
2193 Haze 30 1012 51 4000 1.03 240 21:48 05.04.2022
2194 Haze 30 1012 51 4000 1.03 240 21:48 05.04.2022
2195 Haze 30 1012 48 4000 1.03 80 20:54 05.04.2022
2196 Haze 30 1012 51 4000 1.03 360 20:23 05.04.2022
2197 Haze 33 1011 43 4000 1.54 110 18:26 05.04.2022
2198 Haze 33 1011 40 4000 1.54 110 17:20 05.04.2022
2199 Haze 34 1011 38 4000 1.54 130 16:41 05.04.2022
2200 Haze 36 1010 24 4000 2.06 120 15:49 05.04.2022
2201 Haze 37 1010 22 4000 2.06 120 15:29 05.04.2022
2202 Haze 41 1009 17 4000 1.54 100 13:42 05.04.2022
2203 Haze 41 1010 17 5000 2.06 270 11:51 05.04.2022
2204 Haze 41 1011 20 5000 2.57 50 11:33 05.04.2022
2205 Haze 41 1011 20 5000 2.57 60 10:57 05.04.2022
2206 Haze 39 1013 24 5000 2.06 310 09:31 05.04.2022
2207 Haze 37 1014 39 5000 2.06 270 08:22 05.04.2022
2208 Haze 27 1012 61 3000 0 0 02:58 05.04.2022
2209 Haze 29 1010 54 3000 0 0 23:22 04.04.2022
2210 Haze 30 1011 51 3000 0 0 22:32 04.04.2022
2211 Haze 30 1011 51 3000 0 0 21:43 04.04.2022
2212 Haze 30 1011 51 3000 0 0 21:18 04.04.2022
2213 Haze 31 1011 48 3000 0 0 20:46 04.04.2022
2214 Haze 32 1011 43 3000 2.06 330 19:27 04.04.2022
2215 Haze 32 1011 43 3000 1.03 320 18:40 04.04.2022
2216 Haze 34 1010 36 3000 1.03 160 17:19 04.04.2022
2217 Haze 35 1009 34 3000 1.03 120 16:27 04.04.2022
2218 Haze 37 1009 28 4000 1.54 140 15:33 04.04.2022
2219 Haze 39 1008 22 4000 1.54 140 14:46 04.04.2022
2220 Haze 41 1008 16 4000 1.54 150 13:59 04.04.2022
2221 Haze 41 1008 16 4000 1.03 80 12:58 04.04.2022
2222 Haze 41 1009 17 5000 3.09 100 11:29 04.04.2022
2223 Haze 40 1010 17 5000 1.54 330 09:53 04.04.2022
2224 Haze 33 1012 46 3000 1.54 170 05:34 04.04.2022
2225 Haze 28 1010 57 3000 1.03 90 02:51 04.04.2022
2226 Haze 31 1008 48 3000 1.03 320 22:54 03.04.2022
2227 Haze 30 1009 51 3000 1.54 330 21:59 03.04.2022
2228 Haze 31 1009 48 3000 1.54 280 21:27 03.04.2022
2229 Haze 31 1009 51 3000 1.54 310 20:30 03.04.2022
2230 Haze 31 1009 48 3500 1.03 350 18:46 03.04.2022
2231 Haze 33 1009 43 3500 1.03 60 17:55 03.04.2022
2232 Haze 33 1009 43 3500 1.03 60 17:35 03.04.2022
2233 Haze 33 1009 43 4000 1.54 150 16:49 03.04.2022
2234 Haze 35 1008 38 4000 2.06 110 15:46 03.04.2022
2235 Haze 38 1007 32 4000 2.06 110 14:25 03.04.2022
2236 Haze 40 1007 27 4000 1.54 80 12:59 03.04.2022
2237 Haze 40 1008 24 5000 1.54 40 11:50 03.04.2022
2238 Haze 39 1010 37 5000 1.03 30 09:57 03.04.2022
2239 Haze 37 1011 41 5000 2.57 210 08:57 03.04.2022
2240 Clear 35 1011 16 10000 3.04 161 05:45 03.04.2022
2241 Clear 28 1009 21 10000 1.58 358 02:55 03.04.2022
2242 Haze 29 1009 58 3000 1.54 100 23:48 02.04.2022
2243 Haze 29 1010 54 3000 0 0 22:44 02.04.2022
2244 Haze 30 1010 54 3000 2.57 310 21:56 02.04.2022
2245 Haze 30 1010 54 3000 2.57 310 21:20 02.04.2022
2246 Haze 30 1010 54 3000 0 0 20:36 02.04.2022
2247 Haze 32 1010 35 3000 2.06 240 18:47 02.04.2022
2248 Haze 33 1010 33 3000 1.03 150 18:19 02.04.2022
2249 Haze 34 1009 31 3000 2.06 130 17:23 02.04.2022
2250 Haze 36 1009 28 4000 1.54 140 15:44 02.04.2022
2251 Haze 37 1008 26 4000 1.54 100 15:19 02.04.2022
2252 Haze 40 1008 20 4000 1.54 150 14:31 02.04.2022
2253 Haze 41 1008 18 5000 1.54 100 13:34 02.04.2022
2254 Haze 41 1008 18 5000 1.54 50 12:21 02.04.2022
2255 Haze 40 1010 25 5000 1.54 160 10:31 02.04.2022
2256 Haze 35 1013 36 5000 2.06 140 07:52 02.04.2022
2257 Haze 28 1012 57 3000 1.54 120 04:59 02.04.2022
2258 Haze 24 1010 60 3000 0 0 02:37 02.04.2022
2259 Haze 27 1008 50 4000 1.54 260 23:54 01.04.2022
2260 Haze 29 1009 45 4000 1.54 320 22:47 01.04.2022
2261 Haze 30 1009 42 4000 1.54 240 21:22 01.04.2022
2262 Haze 30 1010 39 4000 1.54 240 20:46 01.04.2022
2263 Haze 31 1010 33 4000 1.54 280 19:45 01.04.2022
2264 Haze 31 1010 33 4000 2.57 190 19:26 01.04.2022
2265 Haze 31 1009 29 4000 2.57 180 18:37 01.04.2022
2266 Haze 31 1009 23 4000 0 0 17:38 01.04.2022
2267 Haze 36 1007 17 4000 1.03 130 15:46 01.04.2022
2268 Haze 39 1006 15 5000 1.54 170 14:53 01.04.2022
2269 Haze 42 1006 12 5000 1.03 150 13:40 01.04.2022
2270 Haze 42 1006 12 5000 3.09 200 13:20 01.04.2022
2271 Haze 42 1006 12 5000 3.09 220 12:24 01.04.2022
2272 Haze 42 1008 13 5000 2.57 310 10:50 01.04.2022
2273 Haze 41 1009 14 5000 1.54 80 09:39 01.04.2022
2274 Haze 37 1011 16 5000 1.54 360 07:31 01.04.2022
2275 Haze 29 1010 28 4000 0 0 04:59 01.04.2022
2276 Haze 29 1010 28 4000 0 0 04:39 01.04.2022
2277 Haze 24 1008 35 3000 0 0 03:18 01.04.2022
2278 Haze 23 1007 35 3000 0 0 01:34 01.04.2022
2279 Haze 29 1007 24 3000 0 0 22:31 31.03.2022
2280 Haze 29 1008 24 3000 0 0 21:40 31.03.2022
2281 Haze 29 1009 24 3000 0 0 20:51 31.03.2022
2282 Haze 29 1009 24 3000 0 0 20:28 31.03.2022
2283 Haze 29 1009 32 3000 0 0 19:29 31.03.2022
2284 Haze 31 1009 23 3000 0 0 18:33 31.03.2022
2285 Haze 34 1007 18 3000 1.03 120 16:47 31.03.2022
2286 Haze 36 1007 19 3000 1.54 330 15:55 31.03.2022
2287 Haze 37 1007 16 4000 1.03 140 15:26 31.03.2022
2288 Haze 39 1006 15 4000 1.54 190 14:44 31.03.2022
2289 Haze 42 1006 12 4000 2.06 140 13:28 31.03.2022
2290 Haze 42 1007 13 4000 1.54 300 11:30 31.03.2022
2291 Haze 41 1008 13 4000 1.54 40 10:22 31.03.2022
2292 Haze 41 1009 14 4000 2.57 90 09:39 31.03.2022
2293 Haze 37 1011 19 4000 2.06 100 07:48 31.03.2022
2294 Haze 28 1007 26 3000 1.54 340 01:37 31.03.2022
2295 Haze 28 1007 28 3000 1.54 320 23:23 30.03.2022
2296 Haze 31 1008 22 3000 2.06 340 21:54 30.03.2022
2297 Haze 30 1008 25 3000 3.09 310 21:27 30.03.2022
2298 Haze 28 1008 30 3000 0 0 20:32 30.03.2022
2299 Haze 30 1009 28 3000 2.57 300 19:47 30.03.2022
2300 Haze 31 1009 27 3000 1.03 30 18:41 30.03.2022
2301 Haze 31 1009 27 3000 1.03 30 18:41 30.03.2022
2302 Haze 29 1008 26 3000 0 0 17:50 30.03.2022
2303 Haze 32 1007 23 3000 0 0 16:58 30.03.2022
2304 Haze 33 1007 21 3000 1.03 320 16:39 30.03.2022
2305 Haze 37 1006 16 4000 1.03 340 15:38 30.03.2022
2306 Haze 41 1006 12 4000 2.06 340 14:22 30.03.2022
2307 Haze 42 1006 12 5000 3.09 300 13:20 30.03.2022
2308 Haze 41 1006 12 5000 3.09 240 11:55 30.03.2022
2309 Haze 41 1007 13 5000 2.57 300 10:38 30.03.2022
2310 Haze 40 1009 13 5000 3.09 360 09:28 30.03.2022
2311 Haze 39 1010 16 5000 2.06 20 07:59 30.03.2022
2312 Haze 32 1010 23 4000 2.57 320 05:41 30.03.2022
2313 Haze 31 1010 23 4000 2.57 320 04:54 30.03.2022
2314 Haze 27 1007 24 3000 2.57 330 00:43 30.03.2022
2315 Haze 27 1007 24 3000 1.03 300 22:35 29.03.2022
2316 Haze 28 1008 23 4000 1.03 300 21:46 29.03.2022
2317 Haze 28 1008 24 4000 1.03 300 20:55 29.03.2022
2318 Haze 28 1008 24 4000 1.03 300 20:24 29.03.2022
2319 Haze 30 1009 23 4000 1.03 340 18:57 29.03.2022
2320 Haze 30 1009 23 4000 1.03 340 18:36 29.03.2022
2321 Haze 32 1008 20 4000 1.03 340 17:37 29.03.2022
2322 Haze 33 1008 21 4000 1.03 320 16:58 29.03.2022
2323 Haze 33 1008 21 4000 1.03 320 16:58 29.03.2022
2324 Haze 35 1007 18 3000 1.03 350 15:58 29.03.2022
2325 Haze 39 1006 15 5000 2.06 330 14:53 29.03.2022
2326 Haze 40 1006 13 5000 4.12 320 14:22 29.03.2022
2327 Haze 41 1006 13 5000 2.57 310 12:57 29.03.2022
2328 Haze 41 1007 13 5000 2.57 320 11:45 29.03.2022
2329 Haze 41 1007 13 5000 4.63 290 10:58 29.03.2022
2330 Haze 41 1008 14 5000 3.6 320 09:49 29.03.2022
2331 Haze 39 1010 14 5000 4.12 350 08:20 29.03.2022
2332 Haze 32 1011 23 4000 2.57 330 05:35 29.03.2022
2333 Haze 26 1008 34 3000 1.54 330 00:50 29.03.2022
2334 Haze 25 1009 33 3000 0 0 23:24 28.03.2022
2335 Haze 25 1009 33 3000 0 0 22:54 28.03.2022
2336 Haze 26 1009 31 3000 0 0 22:26 28.03.2022
2337 Haze 26 1010 34 3000 0 0 20:58 28.03.2022
2338 Haze 27 1010 29 3000 0 0 20:23 28.03.2022
2339 Haze 28 1010 28 3000 0 0 19:45 28.03.2022
2340 Haze 29 1010 28 3000 0 0 19:27 28.03.2022
2341 Haze 30 1010 25 3000 0 0 18:40 28.03.2022
2342 Haze 31 1010 25 3000 0 0 17:39 28.03.2022
2343 Haze 34 1009 18 3000 1.54 320 16:21 28.03.2022
2344 Haze 39 1008 15 4000 2.57 290 14:47 28.03.2022
2345 Haze 40 1007 12 4000 3.09 290 14:21 28.03.2022
2346 Haze 41 1008 11 5000 4.12 310 12:24 28.03.2022
2347 Haze 41 1008 12 5000 5.14 320 11:31 28.03.2022
2348 Haze 40 1010 13 5000 5.14 320 09:43 28.03.2022
2349 Haze 39 1012 14 5000 3.09 250 09:19 28.03.2022
2350 Haze 39 1012 16 5000 1.54 120 08:22 28.03.2022
2351 Haze 37 1013 19 5000 1.03 80 07:28 28.03.2022
2352 Haze 22 1012 40 3000 0 0 03:44 28.03.2022
2353 Haze 25 1011 38 3000 0 0 23:30 27.03.2022
2354 Haze 24 1011 38 3000 1.03 270 22:24 27.03.2022
2355 Haze 24 1012 41 3000 1.03 300 21:42 27.03.2022
2356 Haze 24 1012 38 3000 1.03 130 20:57 27.03.2022
2357 Haze 26 1012 34 3000 1.03 160 19:48 27.03.2022
2358 Haze 28 1012 30 3000 1.54 330 19:24 27.03.2022
2359 Haze 29 1012 28 3000 1.03 20 18:27 27.03.2022
2360 Haze 32 1011 22 3000 1.03 40 17:39 27.03.2022
2361 Haze 33 1010 19 3000 1.03 40 16:28 27.03.2022
2362 Haze 37 1009 15 4000 1.54 350 15:21 27.03.2022
2363 Haze 39 1009 14 4000 1.03 30 13:55 27.03.2022
2364 Haze 40 1009 11 5000 6.17 330 12:24 27.03.2022
2365 Haze 39 1011 16 5000 2.57 350 10:53 27.03.2022
2366 Haze 38 1013 17 4000 2.06 100 08:43 27.03.2022
2367 Haze 33 1014 27 4000 1.54 140 05:54 27.03.2022
2368 Haze 26 1010 38 3000 1.54 360 00:48 27.03.2022
2369 Haze 25 1010 41 3000 1.03 10 23:40 26.03.2022
2370 Haze 28 1010 36 3000 1.54 10 22:36 26.03.2022
2371 Haze 27 1011 39 3000 1.03 320 21:33 26.03.2022
2372 Haze 28 1012 34 3000 0 0 20:20 26.03.2022
2373 Haze 29 1012 34 3000 0 0 19:21 26.03.2022
2374 Haze 32 1012 27 3000 1.54 280 17:51 26.03.2022
2375 Haze 32 1011 27 3000 0 0 17:30 26.03.2022
2376 Haze 32 1011 27 3000 2.06 210 16:27 26.03.2022
2377 Haze 34 1009 24 3000 1.54 200 14:57 26.03.2022
2378 Haze 37 1009 22 3000 2.06 200 13:52 26.03.2022
2379 Haze 39 1008 18 4000 1.54 100 12:47 26.03.2022
2380 Haze 40 1008 17 4000 1.03 60 11:29 26.03.2022
2381 Haze 39 1009 17 4000 2.06 90 10:18 26.03.2022
2382 Haze 38 1012 18 4000 1.03 80 08:33 26.03.2022
2383 Haze 33 1013 43 3000 1.54 270 05:54 26.03.2022
2384 Haze 28 1012 44 3000 0 0 03:59 26.03.2022
2385 Haze 29 1008 37 3000 0 0 23:51 25.03.2022
2386 Haze 29 1009 37 3000 1.03 170 21:35 25.03.2022
2387 Haze 29 1009 37 3000 1.03 170 21:35 25.03.2022
2388 Haze 32 1009 29 3000 1.03 330 20:46 25.03.2022
2389 Haze 31 1010 33 3000 2.57 330 19:28 25.03.2022
2390 Haze 32 1010 31 3000 2.06 340 18:47 25.03.2022
2391 Haze 33 1010 35 3000 2.06 220 17:37 25.03.2022
2392 Haze 33 1008 43 3000 0 0 16:41 25.03.2022
2393 Haze 33 1008 46 3000 1.03 150 15:56 25.03.2022
2394 Haze 37 1007 36 4000 1.03 60 13:58 25.03.2022
2395 Haze 39 1006 32 4000 1.03 100 12:32 25.03.2022
2396 Haze 37 1007 39 4000 1.03 270 09:52 25.03.2022
2397 Haze 37 1008 39 3000 3.09 270 09:26 25.03.2022
2398 Haze 35 1010 46 3000 5.14 210 07:51 25.03.2022
2399 Haze 34 1010 49 3000 4.12 230 07:23 25.03.2022
2400 Haze 31 1010 62 3000 4.12 200 05:23 25.03.2022
2401 Haze 28 1007 51 2500 1.03 260 00:33 25.03.2022
2402 Haze 30 1007 45 2500 1.03 180 22:30 24.03.2022
2403 Haze 31 1008 42 2500 5.14 150 21:34 24.03.2022
2404 Haze 30 1008 45 2500 0 0 19:50 24.03.2022
2405 Haze 31 1008 37 2500 2.06 210 18:54 24.03.2022
2406 Haze 32 1008 35 2500 0 0 17:39 24.03.2022
2407 Haze 33 1008 35 2500 1.54 140 16:54 24.03.2022
2408 Haze 33 1007 33 2500 1.54 130 15:19 24.03.2022
2409 Haze 34 1006 31 2500 1.54 180 14:41 24.03.2022
2410 Haze 37 1006 26 3000 3.6 180 13:54 24.03.2022
2411 Haze 38 1005 25 3000 4.12 170 12:39 24.03.2022
2412 Haze 39 1005 25 3000 3.6 170 11:31 24.03.2022
2413 Haze 38 1007 30 3500 4.63 200 09:36 24.03.2022
2414 Haze 37 1008 30 3500 2.06 180 08:40 24.03.2022
2415 Haze 33 1010 35 3000 2.06 140 06:19 24.03.2022
2416 Haze 25 1008 47 3000 3.09 180 01:28 24.03.2022
2417 Haze 26 1007 41 3000 1.03 90 22:29 23.03.2022
2418 Haze 26 1008 41 3000 1.03 30 21:25 23.03.2022
2419 Haze 26 1008 41 3000 1.03 30 20:47 23.03.2022
2420 Haze 28 1008 39 3000 1.54 30 19:40 23.03.2022
2421 Haze 27 1008 36 3000 1.03 270 18:22 23.03.2022
2422 Haze 29 1008 32 3000 1.03 50 17:31 23.03.2022
2423 Haze 30 1007 28 3000 0 0 16:18 23.03.2022
2424 Haze 30 1007 28 3000 0 0 16:18 23.03.2022
2425 Haze 32 1006 25 4000 1.03 100 14:49 23.03.2022
2426 Haze 36 1006 23 4000 1.03 90 13:34 23.03.2022
2427 Haze 39 1006 18 4000 1.54 40 11:38 23.03.2022
2428 Haze 39 1009 19 4000 4.12 100 08:51 23.03.2022
2429 Haze 35 1011 26 4000 2.57 120 06:29 23.03.2022
2430 Haze 28 1011 34 3000 1.03 40 03:52 23.03.2022
2431 Haze 24 1008 38 3000 1.03 340 00:28 23.03.2022
2432 Haze 24 1008 38 3000 1.03 340 00:28 23.03.2022
2433 Haze 24 1008 35 3000 1.03 240 21:56 22.03.2022
2434 Haze 26 1009 36 3000 1.03 350 21:26 22.03.2022
2435 Haze 26 1009 31 3000 1.03 10 20:30 22.03.2022
2436 Haze 29 1009 30 3000 1.03 320 19:31 22.03.2022
2437 Haze 30 1009 30 3000 1.54 10 18:54 22.03.2022
2438 Haze 30 1009 30 3000 1.54 330 17:44 22.03.2022
2439 Haze 31 1009 29 3000 0 0 17:18 22.03.2022
2440 Haze 32 1008 23 3000 1.03 80 15:49 22.03.2022
2441 Haze 33 1007 21 3000 1.03 360 15:21 22.03.2022
2442 Haze 34 1007 21 3000 1.03 360 14:45 22.03.2022
2443 Haze 36 1006 19 4000 1.54 360 14:24 22.03.2022
2444 Haze 39 1006 15 5000 2.06 10 12:40 22.03.2022
2445 Haze 39 1006 16 5000 2.57 10 11:26 22.03.2022
2446 Haze 39 1008 16 5000 1.03 30 09:52 22.03.2022
2447 Haze 37 1011 20 4000 2.06 30 07:44 22.03.2022
2448 Haze 30 1011 37 3000 0 0 04:29 22.03.2022
2449 Haze 25 1010 47 3000 1.03 290 02:52 22.03.2022
2450 Haze 23 1008 53 3000 0 0 23:19 21.03.2022
2451 Haze 25 1008 47 3000 1.03 230 21:47 21.03.2022
2452 Haze 25 1008 47 3000 0 0 20:45 21.03.2022
2453 Haze 25 1008 47 3000 0 0 20:24 21.03.2022
2454 Haze 27 1009 41 3000 1.03 310 19:48 21.03.2022
2455 Haze 28 1009 42 3000 0 0 19:22 21.03.2022
2456 Haze 29 1009 39 3000 3.09 320 17:36 21.03.2022
2457 Haze 30 1008 37 3000 0 0 16:59 21.03.2022
2458 Haze 30 1008 37 3000 0 0 16:35 21.03.2022
2459 Haze 31 1007 33 3000 0 0 15:44 21.03.2022
2460 Haze 34 1006 27 3000 1.54 50 14:45 21.03.2022
2461 Haze 36 1006 26 3000 1.03 50 13:20 21.03.2022
2462 Haze 39 1006 24 3500 1.54 80 11:59 21.03.2022
2463 Haze 39 1006 19 3500 1.54 10 11:34 21.03.2022
2464 Haze 39 1007 25 3000 1.03 60 09:53 21.03.2022
2465 Haze 36 1010 32 3500 2.06 350 07:53 21.03.2022
2466 Haze 34 1010 31 4000 2.06 100 06:29 21.03.2022
2467 Haze 25 1008 57 3000 1.54 100 02:23 21.03.2022
2468 Haze 25 1007 57 3000 1.54 320 22:57 20.03.2022
2469 Haze 25 1007 57 3000 1.54 320 22:29 20.03.2022
2470 Haze 25 1007 53 3000 1.03 180 21:40 20.03.2022
2471 Haze 26 1007 53 3000 1.03 330 20:56 20.03.2022
2472 Haze 26 1007 53 3000 1.03 330 20:36 20.03.2022
2473 Haze 26 1007 53 3000 1.03 120 19:55 20.03.2022
2474 Haze 28 1008 47 3000 1.03 120 19:24 20.03.2022
2475 Haze 30 1007 42 3000 1.03 300 17:49 20.03.2022
2476 Haze 31 1007 40 3000 0 0 17:27 20.03.2022
2477 Haze 32 1007 40 3000 1.03 270 16:38 20.03.2022
2478 Haze 33 1005 33 3000 0 0 14:50 20.03.2022
2479 Haze 34 1005 36 4000 1.54 60 13:39 20.03.2022
2480 Haze 37 1005 32 4000 2.06 20 12:20 20.03.2022
2481 Haze 39 1005 27 5000 1.54 90 10:28 20.03.2022
2482 Haze 37 1007 36 5000 2.06 100 08:26 20.03.2022
2483 Haze 34 1008 49 5000 1.54 110 06:39 20.03.2022
2484 Haze 25 1008 69 3000 1.03 130 03:25 20.03.2022
2485 Haze 24 1006 64 3000 1.03 140 00:54 20.03.2022
2486 Haze 24 1006 64 3000 1.03 140 00:34 20.03.2022
2487 Haze 27 1006 61 3000 0 0 22:39 19.03.2022
2488 Haze 27 1006 57 3000 0 0 21:27 19.03.2022
2489 Haze 29 1006 51 3000 1.03 150 19:39 19.03.2022
2490 Haze 29 1006 51 3000 1.03 110 18:44 19.03.2022
2491 Haze 32 1007 45 3000 2.06 110 17:55 19.03.2022
2492 Haze 32 1006 45 3000 2.06 130 17:33 19.03.2022
2493 Haze 32 1005 45 3000 1.03 120 15:40 19.03.2022
2494 Haze 34 1004 31 4000 1.54 90 14:19 19.03.2022
2495 Haze 39 1003 16 5000 3.09 300 12:56 19.03.2022
2496 Haze 40 1003 18 5000 2.57 300 12:37 19.03.2022
2497 Haze 39 1003 25 5000 1.54 330 11:46 19.03.2022
2498 Haze 38 1006 28 5000 4.12 200 09:31 19.03.2022
2499 Haze 32 1010 51 5000 3.09 170 05:44 19.03.2022
2500 Haze 23 1008 56 3000 0 0 02:34 19.03.2022
2501 Haze 25 1006 50 3000 1.54 320 00:32 19.03.2022
2502 Haze 25 1006 50 3000 1.03 360 22:59 18.03.2022
2503 Haze 25 1006 50 3000 1.03 360 22:22 18.03.2022
2504 Haze 25 1006 50 3000 1.03 360 22:22 18.03.2022
2505 Haze 25 1007 50 3000 1.03 310 20:40 18.03.2022
2506 Haze 27 1007 47 3000 0 0 19:45 18.03.2022
2507 Haze 27 1007 47 3000 0 0 19:18 18.03.2022
2508 Haze 32 1007 35 3000 1.54 10 16:59 18.03.2022
2509 Haze 33 1006 33 4000 1.54 340 16:34 18.03.2022
2510 Haze 34 1005 31 4000 1.03 60 14:29 18.03.2022
2511 Haze 37 1004 26 4000 1.03 60 13:41 18.03.2022
2512 Haze 39 1004 22 5000 2.57 80 11:43 18.03.2022
2513 Haze 39 1005 22 5000 2.57 50 10:27 18.03.2022
2514 Haze 38 1007 22 5000 1.03 340 08:50 18.03.2022
2515 Haze 36 1009 28 5000 2.06 110 07:26 18.03.2022
2516 Haze 33 1010 33 4000 1.54 90 05:20 18.03.2022
2517 Haze 25 1007 41 3000 1.54 320 01:51 18.03.2022
2518 Haze 26 1007 38 3000 0 0 00:20 18.03.2022
2519 Haze 29 1006 34 3000 2.06 340 22:54 17.03.2022
2520 Haze 29 1006 34 3000 2.06 340 22:20 17.03.2022
2521 Haze 29 1007 37 3000 1.03 360 21:31 17.03.2022
2522 Haze 29 1007 34 3000 0 0 20:54 17.03.2022
2523 Haze 29 1007 34 3000 0 0 20:20 17.03.2022
2524 Haze 31 1008 29 3000 1.03 350 19:38 17.03.2022
2525 Haze 32 1008 27 3000 1.54 360 18:53 17.03.2022
2526 Haze 32 1008 27 3000 1.54 330 17:41 17.03.2022
2527 Haze 34 1007 24 3000 1.54 360 16:20 17.03.2022
2528 Haze 34 1007 24 4000 1.54 350 15:43 17.03.2022
2529 Haze 34 1006 24 4000 2.06 350 15:18 17.03.2022
2530 Haze 38 1005 19 4000 1.54 10 13:47 17.03.2022
2531 Haze 40 1004 16 5000 3.6 340 12:47 17.03.2022
2532 Haze 41 1005 15 5000 3.6 310 11:36 17.03.2022
2533 Haze 41 1005 15 5000 7.72 320 10:44 17.03.2022
2534 Haze 40 1007 17 5000 3.09 320 09:37 17.03.2022
2535 Haze 39 1008 18 5000 4.63 310 08:19 17.03.2022
2536 Haze 35 1011 26 5000 1.54 350 05:53 17.03.2022
2537 Haze 32 1010 31 4000 1.03 360 04:40 17.03.2022
2538 Haze 21 1007 46 3000 1.03 160 00:27 17.03.2022
2539 Haze 25 1007 36 3000 1.03 300 22:56 16.03.2022
2540 Haze 25 1007 36 3000 1.03 300 22:36 16.03.2022
2541 Haze 24 1007 38 3000 1.03 320 21:56 16.03.2022
2542 Haze 26 1008 34 3000 1.03 320 20:40 16.03.2022
2543 Haze 28 1008 30 3000 1.03 320 19:23 16.03.2022
2544 Haze 28 1008 30 3000 1.03 340 18:42 16.03.2022
2545 Haze 29 1008 28 3000 1.03 320 17:49 16.03.2022
2546 Haze 29 1008 28 3000 0 0 17:31 16.03.2022
2547 Haze 30 1008 26 3000 1.03 330 16:21 16.03.2022
2548 Haze 35 1006 23 4000 1.54 340 14:50 16.03.2022
2549 Haze 39 1006 17 5000 2.57 330 13:36 16.03.2022
2550 Haze 40 1005 15 5000 3.09 350 12:55 16.03.2022
2551 Haze 40 1006 16 5000 5.14 340 11:23 16.03.2022
2552 Haze 40 1006 17 5000 5.14 340 10:32 16.03.2022
2553 Haze 40 1007 17 5000 3.6 320 09:56 16.03.2022
2554 Haze 39 1009 19 5000 2.57 20 07:43 16.03.2022
2555 Haze 24 1009 43 3000 1.03 330 02:45 16.03.2022
2556 Haze 26 1008 38 3000 0 0 22:55 15.03.2022
2557 Haze 26 1008 38 3000 0 0 22:35 15.03.2022
2558 Haze 27 1009 36 3000 1.03 300 20:55 15.03.2022
2559 Haze 29 1009 32 3000 1.54 330 19:37 15.03.2022
2560 Haze 30 1010 30 3000 1.54 340 17:46 15.03.2022
2561 Haze 32 1009 29 3000 1.03 10 16:38 15.03.2022
2562 Haze 34 1008 26 4000 1.03 10 15:38 15.03.2022
2563 Haze 35 1008 24 4000 1.03 360 14:53 15.03.2022
2564 Haze 37 1007 22 5000 1.54 40 13:56 15.03.2022
2565 Haze 38 1007 20 5000 1.54 10 13:21 15.03.2022
2566 Haze 39 1006 19 5000 4.12 330 11:32 15.03.2022
2567 Haze 39 1007 21 5000 4.12 360 10:22 15.03.2022
2568 Haze 39 1009 21 5000 4.12 340 08:53 15.03.2022
2569 Haze 38 1010 20 5000 3.09 340 08:21 15.03.2022
2570 Haze 37 1011 23 5000 2.06 340 07:36 15.03.2022
2571 Haze 35 1013 26 5000 2.06 340 05:55 15.03.2022
2572 Haze 22 1010 49 3000 1.03 330 00:25 15.03.2022
2573 Haze 24 1010 46 3000 0 0 23:27 14.03.2022
2574 Haze 24 1011 46 3000 0 0 22:44 14.03.2022
2575 Haze 24 1011 46 3000 1.54 320 21:51 14.03.2022
2576 Haze 25 1012 44 3000 0 0 20:55 14.03.2022
2577 Haze 24 1012 46 3000 1.54 320 20:24 14.03.2022
2578 Haze 25 1013 44 3000 1.54 320 19:22 14.03.2022
2579 Haze 29 1013 37 3000 0 0 17:55 14.03.2022
2580 Haze 28 1013 36 3000 1.03 350 17:33 14.03.2022
2581 Haze 29 1012 32 3000 1.03 100 16:27 14.03.2022
2582 Haze 31 1010 29 4000 1.03 110 14:42 14.03.2022
2583 Haze 37 1010 19 5000 1.03 90 12:55 14.03.2022
2584 Haze 37 1010 18 5000 2.57 100 10:57 14.03.2022
2585 Haze 36 1011 17 5000 3.6 330 09:56 14.03.2022
2586 Haze 36 1012 19 5000 2.57 330 09:23 14.03.2022
2587 Haze 36 1013 19 5000 2.06 100 08:57 14.03.2022
2588 Haze 36 1013 19 5000 1.03 320 08:20 14.03.2022
2589 Haze 31 1016 30 5000 1.54 330 05:46 14.03.2022
2590 Haze 19 1014 48 3000 1.03 300 02:51 14.03.2022
2591 Haze 21 1013 43 3000 1.54 330 01:33 14.03.2022
2592 Haze 21 1012 46 3000 1.54 340 23:25 13.03.2022
2593 Haze 22 1013 49 3000 2.57 320 21:40 13.03.2022
2594 Haze 22 1013 49 3000 2.57 320 21:19 13.03.2022
2595 Haze 20 1013 49 3000 0 0 20:43 13.03.2022
2596 Haze 20 1013 49 3000 0 0 20:20 13.03.2022
2597 Haze 25 1013 41 3000 0 0 19:40 13.03.2022
2598 Haze 25 1013 38 3000 1.03 20 19:19 13.03.2022
2599 Haze 24 1013 38 3000 1.03 230 18:40 13.03.2022
2600 Haze 25 1013 38 3000 5.14 310 17:47 13.03.2022
2601 Haze 26 1013 36 3000 0 0 17:22 13.03.2022
2602 Haze 28 1013 32 4000 1.03 330 16:43 13.03.2022
2603 Haze 28 1013 30 4000 0 0 16:20 13.03.2022
2604 Haze 29 1012 28 4000 1.03 90 15:33 13.03.2022
2605 Haze 34 1011 22 5000 1.03 60 13:53 13.03.2022
2606 Haze 35 1011 20 5000 1.03 50 13:19 13.03.2022
2607 Haze 36 1011 19 5000 1.03 30 12:19 13.03.2022
2608 Haze 36 1011 17 5000 2.06 310 11:36 13.03.2022
2609 Haze 35 1011 17 5000 1.54 10 10:48 13.03.2022
2610 Haze 35 1011 17 5000 1.54 10 10:48 13.03.2022
2611 Haze 35 1012 17 5000 1.54 100 10:25 13.03.2022
2612 Haze 35 1012 18 5000 3.09 340 09:41 13.03.2022
2613 Haze 35 1012 18 5000 3.09 340 09:41 13.03.2022
2614 Haze 34 1013 22 5000 2.06 20 08:47 13.03.2022
2615 Haze 34 1015 22 5000 1.54 100 07:47 13.03.2022
2616 Haze 30 1016 32 5000 2.06 340 05:42 13.03.2022
2617 Haze 20 1014 49 3000 0 0 02:50 13.03.2022
2618 Haze 21 1012 46 3000 1.03 240 00:20 13.03.2022
2619 Haze 20 1012 45 3000 1.03 320 22:37 12.03.2022
2620 Haze 24 1013 41 3000 1.03 310 20:54 12.03.2022
2621 Haze 24 1013 38 3000 1.03 340 19:50 12.03.2022
2622 Haze 26 1013 34 3000 1.03 30 19:32 12.03.2022
2623 Haze 27 1013 36 3000 1.03 20 18:27 12.03.2022
2624 Haze 28 1012 32 3000 1.03 360 17:34 12.03.2022
2625 Haze 30 1012 30 3000 1.03 360 16:24 12.03.2022
2626 Haze 29 1011 32 4000 1.03 360 15:24 12.03.2022
2627 Haze 30 1011 30 4000 1.03 10 14:40 12.03.2022
2628 Haze 35 1010 21 5000 2.57 310 13:32 12.03.2022
2629 Haze 35 1010 24 5000 2.57 340 11:56 12.03.2022
2630 Haze 35 1010 24 5000 2.57 340 11:38 12.03.2022
2631 Haze 35 1011 24 5000 1.03 300 10:58 12.03.2022
2632 Haze 35 1011 24 5000 1.03 300 10:58 12.03.2022
2633 Haze 34 1011 27 5000 2.06 10 09:45 12.03.2022
2634 Haze 34 1013 27 5000 2.06 10 08:56 12.03.2022
2635 Haze 32 1015 31 5000 2.57 50 07:20 12.03.2022
2636 Haze 20 1014 60 3000 1.03 140 02:36 12.03.2022
2637 Haze 21 1012 56 3000 1.03 10 23:56 11.03.2022
2638 Haze 24 1012 50 3000 1.03 10 23:18 11.03.2022
2639 Haze 24 1012 53 3000 1.03 330 21:35 11.03.2022
2640 Haze 24 1012 53 3000 1.03 330 20:55 11.03.2022
2641 Haze 23 1012 53 3000 1.03 310 20:29 11.03.2022
2642 Haze 26 1013 47 3000 1.03 30 19:42 11.03.2022
2643 Haze 26 1013 47 3000 1.03 30 19:22 11.03.2022
2644 Haze 24 1013 53 3000 1.03 290 17:30 11.03.2022
2645 Haze 24 1012 53 3000 0 0 16:27 11.03.2022
2646 Haze 25 1012 50 3000 1.03 300 15:53 11.03.2022
2647 Haze 28 1011 39 3000 2.57 60 14:19 11.03.2022
2648 Haze 34 1010 29 3000 4.12 360 12:44 11.03.2022
2649 Haze 35 1010 28 4000 1.54 30 12:20 11.03.2022
2650 Haze 35 1010 26 4000 3.09 280 11:43 11.03.2022
2651 Haze 35 1012 28 5000 2.06 30 09:40 11.03.2022
2652 Haze 35 1013 28 5000 1.03 90 08:47 11.03.2022
2653 Haze 32 1014 33 5000 2.06 50 07:53 11.03.2022
2654 Haze 32 1015 37 5000 2.06 120 07:28 11.03.2022
2655 Haze 30 1015 42 5000 2.06 60 05:42 11.03.2022
2656 Haze 22 1013 56 3000 0 0 02:56 11.03.2022
2657 Haze 24 1012 57 3000 1.03 330 22:56 10.03.2022
2658 Haze 24 1012 57 3000 1.03 330 22:28 10.03.2022
2659 Haze 24 1013 53 3000 1.54 310 21:27 10.03.2022
2660 Haze 26 1013 50 3000 1.54 170 20:45 10.03.2022
2661 Haze 28 1013 44 3000 1.03 60 19:23 10.03.2022
2662 Haze 28 1013 44 3000 1.03 50 18:39 10.03.2022
2663 Haze 28 1013 39 3000 1.54 50 16:54 10.03.2022
2664 Haze 29 1012 37 3000 1.54 80 15:41 10.03.2022
2665 Haze 31 1011 33 4000 1.03 210 14:23 10.03.2022
2666 Haze 35 1010 26 5000 2.57 230 12:46 10.03.2022
2667 Haze 35 1010 26 5000 3.09 250 11:37 10.03.2022
2668 Haze 35 1012 28 5000 1.03 300 10:19 10.03.2022
2669 Haze 34 1013 31 5000 1.03 140 08:48 10.03.2022
2670 Haze 29 1015 42 5000 2.06 20 05:50 10.03.2022
2671 Haze 24 1014 57 4000 1.03 20 03:33 10.03.2022
2672 Haze 24 1012 53 3000 1.03 30 00:23 10.03.2022
2673 Haze 27 1012 44 3000 2.57 340 22:43 09.03.2022
2674 Haze 27 1012 44 3000 2.57 340 21:48 09.03.2022
2675 Haze 25 1012 47 3000 2.57 330 20:53 09.03.2022
2676 Haze 25 1013 44 3000 2.06 330 19:23 09.03.2022
2677 Haze 28 1014 36 3000 2.06 330 17:57 09.03.2022
2678 Haze 29 1014 34 3000 4.12 290 17:23 09.03.2022
2679 Haze 28 1012 39 4000 0 0 15:41 09.03.2022
2680 Haze 30 1012 32 4000 1.54 80 14:24 09.03.2022
2681 Haze 32 1012 29 4000 1.54 50 13:50 09.03.2022
2682 Haze 34 1011 26 5000 1.54 20 12:25 09.03.2022
2683 Haze 35 1011 24 5000 2.06 50 11:48 09.03.2022
2684 Haze 35 1012 26 5000 1.54 60 10:55 09.03.2022
2685 Haze 33 1014 27 5000 1.54 160 09:28 09.03.2022
2686 Haze 34 1014 26 5000 1.54 360 08:44 09.03.2022
2687 Haze 29 1017 37 4000 1.03 40 05:56 09.03.2022
2688 Haze 23 1013 46 3000 1.03 360 00:58 09.03.2022
2689 Haze 23 1013 46 3000 1.03 10 23:46 08.03.2022
2690 Haze 22 1013 49 3000 1.03 340 22:45 08.03.2022
2691 Haze 23 1013 46 3000 1.54 320 21:46 08.03.2022
2692 Haze 23 1013 46 3000 1.54 320 21:19 08.03.2022
2693 Haze 24 1013 46 3000 1.03 10 20:18 08.03.2022
2694 Haze 26 1014 41 3000 1.03 30 18:55 08.03.2022
2695 Haze 27 1014 41 3000 1.03 40 17:58 08.03.2022
2696 Haze 27 1014 39 3000 1.03 10 16:37 08.03.2022
2697 Haze 30 1013 32 4000 3.09 350 14:24 08.03.2022
2698 Haze 34 1012 27 4000 3.09 330 13:22 08.03.2022
2699 Haze 34 1012 24 5000 0 0 12:19 08.03.2022
2700 Haze 35 1012 23 5000 1.54 100 11:41 08.03.2022
2701 Haze 34 1013 26 5000 2.57 170 10:27 08.03.2022
2702 Haze 32 1015 33 5000 2.06 130 08:30 08.03.2022
2703 Haze 29 1016 32 5000 2.06 80 05:48 08.03.2022
2704 Haze 21 1014 60 2500 1.03 360 01:48 08.03.2022
2705 Haze 23 1013 53 3000 0 0 22:24 07.03.2022
2706 Haze 23 1014 56 3000 0 0 21:35 07.03.2022
2707 Haze 23 1014 53 3000 0 0 20:54 07.03.2022
2708 Haze 23 1014 53 3000 0 0 20:22 07.03.2022
2709 Haze 25 1014 47 3000 0 0 19:38 07.03.2022
2710 Haze 25 1014 44 3000 1.54 310 18:47 07.03.2022
2711 Haze 26 1014 41 3000 1.03 310 17:54 07.03.2022
2712 Haze 27 1014 39 3000 1.03 110 16:56 07.03.2022
2713 Haze 28 1014 36 3000 1.54 100 16:30 07.03.2022
2714 Haze 30 1013 35 4000 1.54 110 14:31 07.03.2022
2715 Haze 33 1012 19 5000 1.54 50 12:33 07.03.2022
2716 Haze 34 1012 18 5000 1.54 10 10:39 07.03.2022
2717 Haze 34 1013 18 5000 1.54 90 09:47 07.03.2022
2718 Haze 30 1016 35 5000 2.06 120 06:20 07.03.2022
2719 Haze 21 1013 49 3000 2.06 360 00:23 07.03.2022
2720 Haze 23 1013 43 3000 1.03 20 23:35 06.03.2022
2721 Haze 23 1013 46 3000 1.54 30 22:57 06.03.2022
2722 Haze 23 1013 46 3000 1.54 30 22:19 06.03.2022
2723 Haze 24 1014 43 3000 1.54 50 20:50 06.03.2022
2724 Haze 24 1014 43 3000 1.54 50 20:23 06.03.2022
2725 Haze 24 1014 43 3000 1.54 50 19:23 06.03.2022
2726 Haze 23 1015 49 3000 1.03 60 18:25 06.03.2022
2727 Haze 23 1015 49 3000 1.03 60 18:25 06.03.2022
2728 Haze 25 1014 41 3000 1.54 100 17:21 06.03.2022
2729 Haze 25 1014 44 3000 1.54 100 16:42 06.03.2022
2730 Haze 27 1014 39 3000 2.06 110 15:54 06.03.2022
2731 Haze 27 1013 39 3000 1.54 100 14:49 06.03.2022
2732 Haze 29 1013 34 4000 1.03 100 14:31 06.03.2022
2733 Haze 32 1012 27 4000 1.03 50 13:30 06.03.2022
2734 Haze 32 1012 25 5000 2.06 60 12:35 06.03.2022
2735 Haze 33 1012 22 5000 2.57 10 11:18 06.03.2022
2736 Haze 32 1013 23 5000 2.57 90 10:27 06.03.2022
2737 Haze 31 1015 25 5000 2.06 80 08:30 06.03.2022
2738 Haze 30 1015 26 5000 2.06 100 07:35 06.03.2022
2739 Haze 27 1017 32 5000 2.57 100 05:40 06.03.2022
2740 Haze 21 1013 49 3000 0 0 00:51 06.03.2022
2741 Haze 21 1013 49 3000 0 0 00:30 06.03.2022
2742 Haze 21 1012 49 3000 1.03 340 23:21 05.03.2022
2743 Haze 20 1013 60 3000 0 0 22:47 05.03.2022
2744 Haze 24 1013 46 3000 0 0 21:46 05.03.2022
2745 Haze 24 1013 46 3000 0 0 21:21 05.03.2022
2746 Haze 26 1014 44 3000 1.03 30 19:26 05.03.2022
2747 Haze 26 1014 47 3000 1.03 40 18:53 05.03.2022
2748 Haze 27 1014 47 3000 1.54 20 17:53 05.03.2022
2749 Haze 27 1013 44 3000 1.03 90 16:32 05.03.2022
2750 Haze 27 1013 47 3000 1.03 130 15:31 05.03.2022
2751 Haze 28 1012 42 3000 1.03 80 14:44 05.03.2022
2752 Haze 29 1012 37 3000 1.03 90 14:26 05.03.2022
2753 Haze 32 1012 31 3000 1.03 80 13:20 05.03.2022
2754 Haze 32 1012 31 4000 1.03 80 11:46 05.03.2022
2755 Haze 33 1012 29 4000 1.54 90 11:18 05.03.2022
2756 Haze 32 1014 29 5000 2.06 60 09:59 05.03.2022
2757 Haze 31 1015 33 5000 2.06 60 08:59 05.03.2022
2758 Haze 30 1016 35 5000 2.57 80 07:37 05.03.2022
2759 Haze 27 1017 44 4000 2.57 100 05:42 05.03.2022
2760 Haze 20 1015 77 2500 1.03 310 02:20 05.03.2022
2761 Haze 21 1013 73 2500 1.03 330 23:36 04.03.2022
2762 Haze 24 1013 53 2500 1.03 20 22:42 04.03.2022
2763 Thunderstorm 24 1014 57 2500 2.06 40 21:47 04.03.2022
2764 Thunderstorm 24 1014 57 2500 3.09 40 20:51 04.03.2022
2765 Thunderstorm 23 1015 64 2500 2.06 20 20:21 04.03.2022
2766 Thunderstorm 26 1015 44 2500 4.12 320 19:35 04.03.2022
2767 Haze 26 1015 44 2500 6.17 310 18:37 04.03.2022
2768 Haze 27 1015 41 2500 4.12 60 17:30 04.03.2022
2769 Thunderstorm 27 1015 41 2500 3.09 50 16:43 04.03.2022
2770 Thunderstorm 29 1013 39 2500 1.54 50 15:28 04.03.2022
2771 Haze 30 1013 37 3000 1.54 110 14:19 04.03.2022
2772 Haze 31 1012 33 4000 2.06 110 13:24 04.03.2022
2773 Haze 33 1012 29 4000 2.06 100 11:40 04.03.2022
2774 Haze 33 1013 27 4000 2.57 130 10:42 04.03.2022
2775 Haze 33 1015 27 5000 2.06 120 09:28 04.03.2022
2776 Haze 32 1016 31 5000 1.54 100 08:31 04.03.2022
2777 Haze 31 1017 33 5000 2.06 100 07:23 04.03.2022
2778 Haze 23 1016 60 3000 0 0 03:43 04.03.2022
2779 Haze 18 1014 77 3000 1.03 330 00:22 04.03.2022
2780 Haze 21 1015 60 3000 1.03 100 22:21 03.03.2022
2781 Haze 22 1015 56 3000 1.03 90 21:39 03.03.2022
2782 Haze 22 1015 56 3000 1.03 60 20:59 03.03.2022
2783 Haze 23 1016 56 3000 1.03 10 19:48 03.03.2022
2784 Haze 23 1017 56 3000 1.03 10 18:49 03.03.2022
2785 Haze 25 1017 50 3000 2.06 350 17:46 03.03.2022
2786 Haze 25 1016 50 3000 1.03 40 17:26 03.03.2022
2787 Haze 27 1015 44 3000 1.03 30 15:47 03.03.2022
2788 Haze 26 1014 50 3000 1.03 80 14:53 03.03.2022
2789 Haze 28 1014 42 3000 1.03 40 14:32 03.03.2022
2790 Haze 29 1014 37 3000 1.03 50 12:52 03.03.2022
2791 Haze 29 1013 39 3000 2.57 230 11:39 03.03.2022
2792 Haze 31 1014 30 5000 2.06 80 10:40 03.03.2022
2793 Haze 33 1015 27 5000 2.06 110 08:45 03.03.2022
2794 Haze 31 1017 33 5000 3.6 150 07:25 03.03.2022
2795 Haze 29 1018 34 5000 2.06 110 06:33 03.03.2022
2796 Haze 21 1014 60 3000 1.03 360 01:21 03.03.2022
2797 Haze 23 1014 49 3000 1.03 20 23:28 02.03.2022
2798 Clouds 22 1012 30 10000 2.84 39 22:49 02.03.2022
2799 Haze 23 1015 46 3000 1.03 20 21:25 02.03.2022
2800 Haze 23 1015 49 3000 1.03 20 20:40 02.03.2022
2801 Haze 25 1015 44 3000 1.54 20 19:56 02.03.2022
2802 Haze 25 1015 44 3000 1.54 20 19:56 02.03.2022
2803 Haze 25 1015 44 3000 1.54 40 19:33 02.03.2022
2804 Haze 26 1016 41 3000 2.06 30 18:44 02.03.2022
2805 Haze 26 1016 47 3000 2.57 10 17:57 02.03.2022
2806 Haze 25 1015 47 3000 1.03 70 17:21 02.03.2022
2807 Haze 25 1015 47 3000 1.03 180 16:42 02.03.2022
2808 Haze 29 1013 34 3000 1.03 40 14:43 02.03.2022
2809 Haze 31 1013 29 4000 1.03 90 13:24 02.03.2022
2810 Haze 32 1013 27 4000 1.03 90 12:42 02.03.2022
2811 Haze 33 1013 25 5000 1.03 50 11:40 02.03.2022
2812 Haze 33 1013 27 5000 1.03 20 11:21 02.03.2022
2813 Clear 34 1011 15 10000 1.33 354 09:41 02.03.2022
2814 Haze 32 1016 33 5000 1.54 20 08:54 02.03.2022
2815 Haze 30 1018 37 5000 1.54 160 07:28 02.03.2022
2816 Haze 29 1018 39 5000 2.06 60 06:40 02.03.2022
2817 Haze 20 1015 64 3000 1.54 330 01:32 02.03.2022
2818 Haze 21 1015 60 4000 1.03 320 23:47 01.03.2022
2819 Haze 22 1015 60 4000 1.03 330 22:45 01.03.2022
2820 Haze 23 1015 56 4000 1.54 330 21:58 01.03.2022
2821 Haze 23 1015 56 4000 1.54 330 21:24 01.03.2022
2822 Haze 25 1016 50 4000 1.54 30 20:30 01.03.2022
2823 Haze 25 1016 50 4000 1.54 30 20:30 01.03.2022
2824 Haze 25 1016 50 4000 1.54 30 20:30 01.03.2022
2825 Haze 25 1016 50 4000 1.54 30 20:30 01.03.2022
2826 Haze 25 1016 53 4000 1.54 30 19:38 01.03.2022
2827 Haze 25 1016 53 4000 1.54 30 18:49 01.03.2022
2828 Haze 26 1016 44 4000 1.03 30 18:20 01.03.2022
2829 Haze 26 1016 44 4000 1.03 40 17:22 01.03.2022
2830 Haze 26 1015 41 4000 1.03 110 16:33 01.03.2022
2831 Haze 27 1015 41 4000 1.54 90 15:38 01.03.2022
2832 Haze 39 1014 18 4000 1.54 100 14:35 01.03.2022
2833 Haze 30 1013 30 4000 1.03 90 13:52 01.03.2022
2834 Haze 32 1013 27 4000 1.03 80 13:24 01.03.2022
2835 Haze 33 1013 19 5000 1.03 170 12:32 01.03.2022
2836 Haze 33 1014 21 5000 1.54 50 10:34 01.03.2022
2837 Haze 32 1016 25 5000 1.54 160 08:42 01.03.2022
2838 Haze 30 1017 32 5000 1.54 150 07:52 01.03.2022
2839 Haze 27 1019 41 4000 1.54 100 05:54 01.03.2022
2840 Haze 21 1016 60 3000 1.03 50 02:33 01.03.2022
2841 Haze 21 1015 60 3000 1.03 350 00:34 01.03.2022
2842 Haze 21 1015 60 3000 0 0 23:30 28.02.2022
2843 Haze 22 1015 56 3000 1.03 340 22:18 28.02.2022
2844 Haze 22 1015 56 3000 1.03 50 21:25 28.02.2022
2845 Haze 25 1016 44 3000 1.54 50 19:55 28.02.2022
2846 Haze 25 1016 44 3000 1.54 50 19:33 28.02.2022
2847 Haze 25 1016 44 3000 1.54 60 18:40 28.02.2022
2848 Haze 25 1015 41 3000 1.03 50 17:30 28.02.2022
2849 Haze 26 1014 38 4000 1.03 120 16:33 28.02.2022
2850 Haze 27 1014 34 4000 1.54 120 15:23 28.02.2022
2851 Haze 29 1013 30 4000 1.03 130 14:31 28.02.2022
2852 Haze 30 1013 26 4000 1.54 180 13:47 28.02.2022
2853 Haze 32 1013 23 5000 2.06 170 12:41 28.02.2022
2854 Haze 33 1013 22 5000 2.06 240 11:57 28.02.2022
2855 Haze 33 1013 22 5000 3.09 170 10:48 28.02.2022
2856 Haze 32 1014 23 5000 2.06 200 10:20 28.02.2022
2857 Haze 32 1015 25 5000 2.06 200 09:32 28.02.2022
2858 Haze 31 1016 29 5000 2.57 220 08:29 28.02.2022
2859 Haze 30 1017 32 5000 2.57 200 07:28 28.02.2022
2860 Haze 25 1018 57 5000 2.06 120 04:55 28.02.2022
2861 Haze 24 1018 60 4000 0 0 04:26 28.02.2022
2862 Haze 20 1015 68 3000 1.03 70 23:42 27.02.2022
2863 Haze 22 1015 60 3000 0 0 22:34 27.02.2022
2864 Haze 22 1015 56 3000 0 0 21:51 27.02.2022
2865 Haze 25 1015 47 3000 0 0 20:59 27.02.2022
2866 Haze 25 1015 47 3000 0 0 20:28 27.02.2022
2867 Haze 25 1015 47 3000 0 0 19:57 27.02.2022
2868 Haze 25 1015 47 3000 0 0 19:27 27.02.2022
2869 Haze 24 1015 46 3000 1.03 220 18:47 27.02.2022
2870 Haze 24 1015 46 3000 1.03 240 17:56 27.02.2022
2871 Haze 26 1015 41 3000 1.54 130 16:54 27.02.2022
2872 Haze 26 1015 38 3000 1.54 120 16:21 27.02.2022
2873 Haze 32 1013 23 5000 2.57 170 13:34 27.02.2022
2874 Haze 33 1013 21 5000 3.09 210 12:33 27.02.2022
2875 Haze 32 1014 23 5000 2.57 160 10:59 27.02.2022
2876 Haze 33 1014 22 5000 4.63 220 10:20 27.02.2022
2877 Haze 32 1015 23 5000 3.09 200 09:50 27.02.2022
2878 Haze 32 1016 23 5000 3.6 200 09:20 27.02.2022
2879 Haze 31 1017 29 5000 2.57 200 08:20 27.02.2022
2880 Haze 31 1017 29 5000 2.57 200 08:20 27.02.2022
2881 Haze 28 1019 42 4000 1.54 120 05:38 27.02.2022
2882 Mist 18 1017 94 2500 1.03 40 02:35 27.02.2022
2883 Haze 20 1014 73 3000 0 0 23:30 26.02.2022
2884 Haze 20 1014 73 3000 0 0 23:30 26.02.2022
2885 Clouds 25 1012 31 10000 0.88 260 22:31 26.02.2022
2886 Haze 20 1015 68 3000 0 0 21:18 26.02.2022
2887 Haze 22 1015 64 3000 1.03 330 20:27 26.02.2022
2888 Haze 23 1016 60 3000 1.03 320 19:50 26.02.2022
2889 Haze 24 1016 53 3000 1.54 300 19:29 26.02.2022
2890 Haze 25 1016 50 3000 1.54 140 17:52 26.02.2022
2891 Haze 25 1016 50 3000 1.54 150 17:29 26.02.2022
2892 Haze 26 1016 44 3000 1.54 160 16:19 26.02.2022
2893 Haze 26 1015 44 3000 1.03 160 15:25 26.02.2022
2894 Haze 27 1015 41 3000 2.06 180 14:56 26.02.2022
2895 Haze 28 1014 36 4000 2.06 180 14:38 26.02.2022
2896 Haze 31 1014 29 4000 3.09 200 13:27 26.02.2022
2897 Haze 32 1014 27 5000 3.09 180 12:51 26.02.2022
2898 Haze 32 1014 29 5000 3.6 210 11:29 26.02.2022
2899 Haze 32 1014 29 5000 3.6 160 10:55 26.02.2022
2900 Haze 31 1016 35 5000 2.57 170 09:18 26.02.2022
2901 Haze 29 1018 37 5000 1.54 130 07:57 26.02.2022
2902 Haze 29 1018 37 5000 1.54 130 07:57 26.02.2022
2903 Haze 18 1017 68 3000 1.03 0 02:53 26.02.2022
2904 Haze 19 1014 55 4000 1.03 40 23:32 25.02.2022
2905 Haze 21 1015 56 4000 1.03 10 21:49 25.02.2022
2906 Haze 21 1015 56 4000 1.03 10 21:29 25.02.2022
2907 Haze 21 1015 52 4000 1.03 360 20:33 25.02.2022
2908 Haze 21 1015 52 4000 0 0 19:41 25.02.2022
2909 Haze 23 1015 46 4000 0 0 17:35 25.02.2022
2910 Haze 24 1015 43 4000 1.54 110 16:45 25.02.2022
2911 Haze 25 1015 38 4000 1.03 80 15:48 25.02.2022
2912 Haze 26 1014 36 4000 1.54 100 15:23 25.02.2022
2913 Haze 27 1014 34 4000 1.03 90 14:45 25.02.2022
2914 Haze 27 1014 34 4000 1.54 100 14:18 25.02.2022
2915 Haze 30 1014 26 5000 2.06 120 13:20 25.02.2022
2916 Haze 32 1014 22 5000 1.54 140 11:30 25.02.2022
2917 Haze 31 1014 22 5000 2.57 110 10:54 25.02.2022
2918 Haze 31 1015 22 5000 1.54 30 10:23 25.02.2022
2919 Haze 31 1015 20 5000 1.54 340 09:35 25.02.2022
2920 Haze 29 1018 30 5000 2.06 110 07:44 25.02.2022
2921 Haze 28 1019 32 5000 2.57 60 06:19 25.02.2022
2922 Haze 27 1019 34 4000 2.57 60 05:36 25.02.2022
2923 Haze 21 1015 52 3000 1.03 350 00:30 25.02.2022
2924 Haze 21 1015 60 3000 1.03 320 22:29 24.02.2022
2925 Haze 21 1015 64 3000 1.03 20 21:43 24.02.2022
2926 Haze 21 1015 64 3000 1.03 20 21:43 24.02.2022
2927 Haze 21 1015 64 3000 1.03 20 21:21 24.02.2022
2928 Haze 21 1015 60 3000 1.03 150 20:42 24.02.2022
2929 Haze 25 1016 47 3000 1.54 230 19:19 24.02.2022
2930 Haze 27 1016 41 3000 2.57 260 18:20 24.02.2022
2931 Haze 25 1016 47 3000 2.57 280 17:46 24.02.2022
2932 Haze 26 1015 47 3000 1.54 240 16:56 24.02.2022
2933 Haze 26 1015 44 3000 1.54 210 16:25 24.02.2022
2934 Haze 26 1015 44 3000 1.54 210 16:25 24.02.2022
2935 Haze 29 1014 39 4000 2.57 200 15:30 24.02.2022
2936 Haze 29 1014 39 4000 2.57 180 14:37 24.02.2022
2937 Haze 31 1013 35 4000 2.57 200 13:45 24.02.2022
2938 Haze 32 1013 31 4000 4.12 200 13:27 24.02.2022
2939 Haze 34 1014 27 5000 4.12 250 10:48 24.02.2022
2940 Haze 33 1015 31 5000 2.57 290 09:41 24.02.2022
2941 Haze 32 1016 33 5000 4.12 200 08:42 24.02.2022
2942 Haze 29 1018 42 5000 5.14 230 06:25 24.02.2022
2943 Haze 28 1019 47 5000 4.12 230 05:36 24.02.2022
2944 Haze 20 1015 73 3000 1.03 340 00:30 24.02.2022
2945 Haze 21 1015 68 3000 0 0 21:56 23.02.2022
2946 Haze 23 1016 60 3000 0 0 20:33 23.02.2022
2947 Haze 23 1016 60 3000 0 0 19:56 23.02.2022
2948 Haze 24 1016 57 3000 1.03 130 18:59 23.02.2022
2949 Haze 25 1016 53 3000 1.03 130 17:47 23.02.2022
2950 Haze 27 1015 47 3000 1.54 100 15:47 23.02.2022
2951 Haze 31 1014 30 4000 1.54 150 13:36 23.02.2022
2952 Haze 34 1013 21 5000 1.54 200 12:29 23.02.2022
2953 Haze 34 1014 26 5000 1.54 260 10:55 23.02.2022
2954 Haze 33 1014 25 5000 3.09 270 09:38 23.02.2022
2955 Haze 31 1016 29 5000 2.57 130 08:36 23.02.2022
2956 Haze 30 1017 30 5000 4.12 180 07:25 23.02.2022
2957 Haze 14 1015 72 3000 1.03 340 02:22 23.02.2022
2958 Haze 16 1014 63 3000 1.03 340 23:50 22.02.2022
2959 Haze 16 1014 63 3000 1.03 340 23:31 22.02.2022
2960 Haze 16 1014 63 3000 1.03 340 22:28 22.02.2022
2961 Haze 19 1015 52 3000 1.03 340 21:40 22.02.2022
2962 Haze 19 1015 52 3000 1.03 340 21:19 22.02.2022
2963 Haze 20 1015 40 3000 1.03 40 20:31 22.02.2022
2964 Haze 18 1015 52 3000 1.03 90 19:54 22.02.2022
2965 Haze 19 1015 48 3000 0 0 19:33 22.02.2022
2966 Haze 20 1015 45 3000 0 0 18:35 22.02.2022
2967 Haze 20 1015 42 3000 1.03 100 17:27 22.02.2022
2968 Haze 21 1014 37 3000 1.54 100 16:55 22.02.2022
2969 Haze 23 1014 35 3000 1.03 90 16:20 22.02.2022
2970 Haze 25 1013 27 3000 1.54 90 15:21 22.02.2022
2971 Haze 27 1013 24 3000 1.03 80 14:19 22.02.2022
2972 Haze 33 1012 17 5000 2.06 100 11:38 22.02.2022
2973 Haze 32 1013 18 5000 3.09 130 09:44 22.02.2022
2974 Haze 29 1016 26 5000 1.54 70 07:29 22.02.2022
2975 Haze 28 1016 28 5000 2.06 110 06:54 22.02.2022
2976 Haze 14 1014 54 3000 1.54 300 02:49 22.02.2022
2977 Haze 15 1012 51 3000 1.03 340 23:18 21.02.2022
2978 Haze 17 1012 48 3000 1.03 330 21:56 21.02.2022
2979 Haze 17 1013 48 3000 1.03 330 20:52 21.02.2022
2980 Haze 19 1013 42 4000 0 0 18:47 21.02.2022
2981 Haze 19 1013 42 4000 0 0 18:19 21.02.2022
2982 Haze 23 1012 53 4000 0 0 15:49 21.02.2022
2983 Haze 29 1010 37 5000 1.03 30 14:23 21.02.2022
2984 Haze 31 1010 33 5000 1.54 360 13:31 21.02.2022
2985 Haze 31 1009 30 5000 2.06 10 12:41 21.02.2022
2986 Haze 32 1009 29 5000 2.57 330 12:20 21.02.2022
2987 Haze 31 1010 29 5000 4.12 330 10:27 21.02.2022
2988 Haze 28 1013 26 5000 3.09 330 06:25 21.02.2022
2989 Haze 17 1010 45 3000 1.03 340 00:35 21.02.2022
2990 Haze 15 1010 55 3000 1.03 40 22:32 20.02.2022
2991 Haze 15 1011 63 3000 1.03 180 21:43 20.02.2022
2992 Haze 15 1011 63 3000 1.03 180 21:21 20.02.2022
2993 Haze 17 1011 45 3000 1.03 290 20:43 20.02.2022
2994 Haze 19 1011 42 3000 1.03 320 19:48 20.02.2022
2995 Haze 21 1012 37 3000 1.54 330 18:55 20.02.2022
2996 Haze 21 1012 37 3000 1.54 330 18:34 20.02.2022
2997 Haze 21 1012 37 3000 1.54 330 17:55 20.02.2022
2998 Haze 21 1011 37 3000 1.54 320 16:59 20.02.2022
2999 Haze 25 1010 29 4000 1.03 20 14:55 20.02.2022
3000 Haze 29 1009 18 5000 2.57 330 13:58 20.02.2022
3001 Haze 30 1009 21 5000 5.14 310 12:42 20.02.2022
3002 Haze 31 1009 19 5000 5.14 330 11:30 20.02.2022
3003 Haze 31 1009 22 5000 5.14 300 10:20 20.02.2022
3004 Haze 30 1010 32 5000 5.14 330 09:24 20.02.2022
3005 Mist 19 1011 100 2000 2.06 330 02:54 20.02.2022
3006 Mist 19 1010 100 2000 2.06 330 00:31 20.02.2022
3007 Mist 19 1010 100 2500 1.03 350 23:30 19.02.2022
3008 Haze 19 1011 100 2500 0 0 22:23 19.02.2022
3009 Haze 20 1011 100 2500 0 0 21:45 19.02.2022
3010 -273 0 0 0 0 0 20:24 19.02.2022
3011 Haze 20 1012 100 2500 0 0 20:24 19.02.2022
3012 Haze 21 1013 78 2500 1.03 180 19:34 19.02.2022
3013 Haze 22 1013 73 3000 1.03 40 18:38 19.02.2022
3014 Haze 22 1013 78 3000 1.03 40 17:37 19.02.2022
3015 Haze 23 1013 73 3000 1.03 40 16:44 19.02.2022
3016 Haze 25 1012 61 3000 1.54 20 15:20 19.02.2022
3017 Haze 26 1012 53 3000 1.03 70 14:52 19.02.2022
3018 Haze 28 1011 47 3000 1.54 140 13:47 19.02.2022
3019 Haze 29 1011 42 3500 1.54 200 11:40 19.02.2022
3020 Haze 30 1013 42 3500 2.06 220 10:30 19.02.2022
3021 Haze 28 1015 44 3500 3.6 220 08:31 19.02.2022
3022 Haze 25 1017 53 3000 1.54 100 06:30 19.02.2022
3023 Mist 18 1012 100 2000 0 0 23:45 18.02.2022
3024 Mist 19 1013 94 2000 1.03 40 21:54 18.02.2022
3025 Haze 19 1014 100 2500 0 0 20:57 18.02.2022
3026 Haze 20 1014 94 2500 0 0 19:54 18.02.2022
3027 Haze 21 1014 88 2500 0 0 18:50 18.02.2022
3028 Haze 20 1014 83 2500 0 0 18:22 18.02.2022
3029 Haze 20 1014 83 2500 1.03 50 17:55 18.02.2022
3030 Haze 21 1013 83 2500 1.03 80 15:22 18.02.2022
3031 Haze 24 1012 64 2500 1.54 90 13:55 18.02.2022
3032 Haze 25 1012 57 2500 1.54 80 12:55 18.02.2022
3033 Haze 25 1012 57 2500 1.54 80 12:36 18.02.2022
3034 Haze 26 1012 53 2500 1.54 110 11:29 18.02.2022
3035 Haze 25 1013 53 2500 2.06 70 10:23 18.02.2022
3036 Haze 23 1016 53 2500 1.03 50 06:57 18.02.2022
3037 Haze 21 1016 64 2500 1.54 30 05:40 18.02.2022
3038 Mist 18 1011 100 2000 1.03 20 23:34 17.02.2022
3039 Mist 18 1012 100 2000 1.54 10 21:46 17.02.2022
3040 Mist 18 1012 100 2000 1.54 10 21:20 17.02.2022
3041 Mist 18 1012 100 2500 0 0 20:38 17.02.2022
3042 Mist 18 1012 100 2500 0 0 19:49 17.02.2022
3043 Mist 18 1012 100 2500 0 0 18:44 17.02.2022
3044 Mist 19 1012 94 2500 0 0 17:50 17.02.2022
3045 Mist 19 1012 94 2500 0 0 16:29 17.02.2022
3046 Haze 19 1011 88 2500 0 0 15:32 17.02.2022
3047 Haze 20 1011 73 2500 1.03 60 14:26 17.02.2022
3048 Haze 23 1010 60 2500 2.06 60 12:38 17.02.2022
3049 Mist 23 1011 68 2500 1.54 60 11:23 17.02.2022
3050 Mist 23 1011 68 2500 1.54 60 11:23 17.02.2022
3051 Clouds 30 1008 27 10000 1.78 151 08:52 17.02.2022
3052 Mist 18 1010 94 2000 1.03 30 01:45 17.02.2022
3053 Clouds 18 1010 94 2500 1.54 10 23:21 16.02.2022
3054 Clouds 19 1011 100 2500 1.54 50 21:40 16.02.2022
3055 Haze 22 1010 68 3000 1.54 320 19:47 16.02.2022
3056 Haze 23 1010 64 3000 1.03 20 18:38 16.02.2022
3057 Haze 22 1010 68 3000 1.03 20 17:53 16.02.2022
3058 Haze 22 1009 73 3000 0 0 15:38 16.02.2022
3059 Haze 23 1008 64 3000 1.03 110 14:59 16.02.2022
3060 Haze 25 1007 57 3000 1.03 130 12:59 16.02.2022
3061 Haze 25 1007 61 3000 1.03 70 11:58 16.02.2022
3062 Haze 23 1008 88 3000 1.03 70 11:24 16.02.2022
3063 Clouds 23 1009 68 1500 6.17 320 10:33 16.02.2022
3064 Haze 27 1013 39 5000 2.06 90 07:21 16.02.2022
3065 Haze 24 1013 43 4000 2.06 90 05:20 16.02.2022
3066 Haze 18 1011 68 3000 0 0 23:44 15.02.2022
3067 Haze 19 1011 63 3000 1.03 20 22:28 15.02.2022
3068 Haze 20 1012 64 3000 1.03 10 21:46 15.02.2022
3069 Haze 20 1012 64 3000 1.03 10 21:27 15.02.2022
3070 Haze 20 1012 60 3000 1.03 310 20:55 15.02.2022
3071 Haze 19 1012 63 3000 1.03 250 19:57 15.02.2022
3072 Haze 20 1012 60 3000 1.03 90 18:52 15.02.2022
3073 Haze 20 1012 60 3000 1.03 90 18:20 15.02.2022
3074 Haze 21 1012 56 3000 1.54 110 17:48 15.02.2022
3075 Haze 23 1012 53 3000 1.03 100 16:32 15.02.2022
3076 Haze 24 1011 46 4000 2.06 100 15:22 15.02.2022
3077 Haze 29 1010 26 4000 3.09 160 13:26 15.02.2022
3078 Haze 29 1010 28 4000 3.09 150 11:57 15.02.2022
3079 Haze 29 1010 26 4000 1.54 100 10:58 15.02.2022
3080 Haze 29 1012 24 4000 3.09 130 09:28 15.02.2022
3081 Haze 25 1015 36 4000 2.57 150 06:50 15.02.2022
3082 Haze 16 1014 72 2500 0 0 02:36 15.02.2022
3083 Clear 19 1011 33 10000 2.46 79 22:25 14.02.2022
3084 Haze 19 1013 52 3000 1.54 40 21:27 14.02.2022
3085 Haze 20 1013 49 3000 1.03 30 20:24 14.02.2022
3086 Haze 20 1013 45 3000 1.54 100 19:30 14.02.2022
3087 Haze 18 1013 55 3000 1.03 140 18:27 14.02.2022
3088 Haze 19 1013 52 3000 1.03 240 17:58 14.02.2022
3089 Haze 20 1013 49 3000 2.06 100 17:24 14.02.2022
3090 Haze 23 1012 40 3000 1.03 100 15:59 14.02.2022
3091 Haze 26 1011 29 4000 1.03 70 13:44 14.02.2022
3092 Haze 28 1011 26 5000 1.03 50 13:23 14.02.2022
3093 Haze 30 1011 21 5000 1.54 50 12:32 14.02.2022
3094 Haze 30 1011 20 5000 1.54 150 11:54 14.02.2022
3095 Haze 30 1012 21 5000 2.57 340 10:31 14.02.2022
3096 Haze 28 1014 26 5000 1.03 210 08:37 14.02.2022
3097 Haze 26 1015 29 5000 2.57 150 07:27 14.02.2022
3098 Haze 15 1012 63 3000 1.03 300 23:41 13.02.2022
3099 Haze 16 1013 63 4000 1.54 20 22:42 13.02.2022
3100 Haze 16 1013 63 4000 1.54 20 22:23 13.02.2022
3101 Haze 16 1013 63 4000 0 0 21:28 13.02.2022
3102 Haze 19 1014 48 4000 1.03 10 20:32 13.02.2022
3103 Haze 17 1014 55 4000 2.06 350 19:24 13.02.2022
3104 Haze 17 1014 55 4000 0 0 18:42 13.02.2022
3105 Haze 18 1014 52 4000 1.54 110 17:54 13.02.2022
3106 Haze 22 1013 37 4000 1.54 70 15:54 13.02.2022
3107 Haze 22 1013 37 4000 1.54 70 15:54 13.02.2022
3108 Haze 23 1012 38 4000 1.54 80 14:58 13.02.2022
3109 Haze 26 1011 29 5000 1.54 110 13:59 13.02.2022
3110 Haze 29 1011 21 5000 1.03 70 12:50 13.02.2022
3111 Haze 29 1011 21 5000 1.54 30 11:26 13.02.2022
3112 Haze 28 1012 23 5000 2.06 0 10:30 13.02.2022
3113 Haze 28 1013 32 5000 3.09 90 09:41 13.02.2022
3114 Haze 25 1016 38 5000 4.12 150 07:19 13.02.2022
3115 Haze 12 1013 71 3000 1.54 320 00:35 13.02.2022
3116 Haze 13 1014 67 3000 1.03 340 23:39 12.02.2022
3117 Haze 16 1014 55 3000 1.54 20 22:33 12.02.2022
3118 Haze 16 1014 55 3000 1.54 20 21:20 12.02.2022
3119 Haze 14 1015 62 3000 0 0 20:32 12.02.2022
3120 Haze 16 1015 55 3000 1.03 30 19:21 12.02.2022
3121 Haze 17 1015 51 3000 1.03 330 18:52 12.02.2022
3122 Haze 17 1015 51 3000 1.03 330 18:34 12.02.2022
3123 Haze 18 1015 42 3000 1.03 130 16:56 12.02.2022
3124 Haze 18 1015 42 3000 1.03 120 16:25 12.02.2022
3125 Haze 19 1014 37 3000 1.03 120 15:50 12.02.2022
3126 Haze 23 1013 38 4000 1.54 120 14:31 12.02.2022
3127 Haze 28 1013 26 5000 1.54 30 12:55 12.02.2022
3128 Haze 28 1014 24 5000 1.03 20 10:40 12.02.2022
3129 Haze 27 1015 22 5000 2.06 160 09:39 12.02.2022
3130 Haze 26 1016 24 5000 1.54 330 08:50 12.02.2022
3131 Haze 25 1017 25 5000 2.57 40 07:53 12.02.2022
3132 Haze 21 1019 35 5000 3.09 60 05:33 12.02.2022
3133 Haze 13 1018 62 3000 1.03 10 03:32 12.02.2022
3134 Haze 13 1017 62 3000 1.03 10 02:18 12.02.2022
3135 Haze 12 1016 66 3000 0 0 22:28 11.02.2022
3136 Haze 14 1017 58 3000 1.03 320 21:47 11.02.2022
3137 Haze 14 1017 54 3000 1.03 320 20:40 11.02.2022
3138 Haze 14 1018 54 3000 1.03 320 19:40 11.02.2022
3139 Haze 14 1018 54 3000 1.03 320 19:20 11.02.2022
3140 Haze 16 1017 48 3000 1.03 80 17:48 11.02.2022
3141 Haze 17 1017 45 3000 1.03 150 17:22 11.02.2022
3142 Haze 20 1016 34 4000 1.03 60 15:56 11.02.2022
3143 Haze 21 1015 30 4000 1.54 50 14:43 11.02.2022
3144 Haze 22 1015 28 5000 2.06 50 14:20 11.02.2022
3145 Haze 24 1015 25 5000 1.54 40 13:52 11.02.2022
3146 Haze 24 1015 25 5000 1.54 40 13:34 11.02.2022
3147 Haze 26 1014 22 5000 2.06 340 11:32 11.02.2022
3148 Haze 25 1016 27 5000 3.6 340 09:45 11.02.2022
3149 Haze 24 1018 31 4000 1.54 40 08:40 11.02.2022
3150 Haze 24 1018 31 4000 1.54 40 08:22 11.02.2022
3151 Haze 21 1020 37 4000 1.54 10 06:33 11.02.2022
3152 Haze 15 1017 67 2500 1.54 60 02:26 11.02.2022
3153 Haze 16 1016 72 3000 1.54 320 00:47 11.02.2022
3154 Haze 17 1017 67 3000 2.57 20 22:45 10.02.2022
3155 Haze 18 1017 63 3000 2.57 10 21:45 10.02.2022
3156 Haze 18 1017 59 3000 2.06 40 20:54 10.02.2022
3157 Haze 19 1017 55 3000 1.54 20 20:29 10.02.2022
3158 Haze 19 1017 55 3000 1.54 30 19:25 10.02.2022
3159 Haze 20 1018 52 3000 1.54 30 18:43 10.02.2022
3160 Haze 21 1017 49 3500 2.06 60 17:26 10.02.2022
3161 Haze 21 1017 49 3500 2.06 50 16:50 10.02.2022
3162 Haze 23 1016 46 4000 3.09 60 15:47 10.02.2022
3163 Haze 23 1016 46 4000 2.06 60 15:28 10.02.2022
3164 Haze 23 1015 46 4000 1.54 80 14:46 10.02.2022
3165 Haze 24 1015 41 4000 1.54 60 14:23 10.02.2022
3166 Haze 26 1014 36 4000 1.03 60 13:21 10.02.2022
3167 Haze 27 1014 29 5000 1.03 20 12:23 10.02.2022
3168 Haze 28 1014 30 5000 1.54 350 11:33 10.02.2022
3169 Haze 28 1014 30 5000 1.54 30 10:35 10.02.2022
3170 Haze 27 1015 32 5000 1.54 80 09:49 10.02.2022
3171 Haze 27 1016 32 5000 3.09 100 08:53 10.02.2022
3172 Haze 25 1018 44 5000 2.57 80 06:42 10.02.2022
3173 Haze 19 1017 68 3000 1.54 10 03:39 10.02.2022
3174 Haze 19 1015 72 3000 2.57 350 01:18 10.02.2022
3175 Haze 19 1014 72 3000 4.12 20 00:42 10.02.2022
3176 Haze 19 1014 72 3000 4.12 20 00:23 10.02.2022
3177 Haze 20 1014 83 3000 2.57 20 22:57 09.02.2022
3178 Haze 20 1014 83 3000 2.57 20 22:33 09.02.2022
3179 Haze 21 1014 100 3000 0 0 21:48 09.02.2022
3180 Haze 21 1014 100 3000 0 0 21:28 09.02.2022
3181 Haze 22 1014 73 3000 1.03 40 20:45 09.02.2022
3182 Haze 22 1014 73 3000 1.03 40 20:23 09.02.2022
3183 Haze 23 1014 60 3000 1.03 20 19:42 09.02.2022
3184 Haze 24 1015 53 3000 2.06 310 18:55 09.02.2022
3185 Haze 24 1014 64 3000 3.6 310 17:24 09.02.2022
3186 Haze 24 1014 69 3000 1.54 140 16:25 09.02.2022
3187 Haze 25 1013 61 4000 1.54 130 15:26 09.02.2022
3188 Haze 28 1011 51 4000 3.09 170 13:32 09.02.2022
3189 Haze 29 1011 48 4000 4.63 160 11:52 09.02.2022
3190 Haze 29 1011 48 4000 4.63 180 10:35 09.02.2022
3191 Haze 28 1012 51 4000 4.63 170 09:53 09.02.2022
3192 Haze 28 1013 51 5000 4.12 190 09:22 09.02.2022
3193 Haze 27 1013 54 5000 3.09 180 08:46 09.02.2022
3194 Haze 25 1015 57 4000 2.06 160 06:52 09.02.2022
3195 Haze 22 1015 56 2500 1.03 30 04:36 09.02.2022
3196 Haze 19 1015 68 2500 1.03 310 03:49 09.02.2022
3197 Haze 19 1012 63 3000 2.06 320 23:45 08.02.2022
3198 Haze 19 1012 63 3000 2.06 320 23:19 08.02.2022
3199 Haze 19 1012 63 3000 2.06 320 23:19 08.02.2022
3200 Haze 19 1012 63 3000 1.03 320 22:38 08.02.2022
3201 Haze 19 1012 63 3000 1.03 320 22:38 08.02.2022
3202 Haze 19 1012 63 3000 1.03 320 22:20 08.02.2022
3203 Haze 20 1013 60 3000 0 0 21:22 08.02.2022
3204 Haze 21 1013 56 3000 0 0 20:58 08.02.2022
3205 Haze 21 1013 56 3000 0 0 20:37 08.02.2022
3206 Haze 21 1013 56 3000 0 0 20:37 08.02.2022
3207 Haze 22 1014 53 3000 2.06 130 19:28 08.02.2022
3208 Haze 22 1014 49 3500 1.54 130 18:24 08.02.2022
3209 Haze 23 1014 43 3500 2.06 110 17:30 08.02.2022
3210 Haze 23 1013 43 3500 1.54 110 15:47 08.02.2022
3211 Haze 24 1013 41 4000 2.06 90 14:58 08.02.2022
3212 Haze 26 1012 36 4000 1.54 100 13:48 08.02.2022
3213 Haze 29 1011 30 5000 2.06 70 12:24 08.02.2022
3214 Haze 30 1012 28 5000 2.06 110 10:49 08.02.2022
3215 Haze 29 1013 28 5000 1.03 90 09:48 08.02.2022
3216 Haze 28 1014 30 5000 3.6 110 08:38 08.02.2022
3217 Haze 25 1017 33 5000 1.54 110 06:24 08.02.2022
3218 Haze 21 1017 46 5000 1.03 20 04:40 08.02.2022
3219 Haze 19 1017 52 4000 1.54 360 04:22 08.02.2022
3220 Haze 16 1016 67 4000 0 0 03:36 08.02.2022
3221 Haze 14 1016 77 3000 1.03 310 03:18 08.02.2022
3222 Haze 15 1015 67 3000 0 0 02:59 08.02.2022
3223 Haze 15 1015 67 3000 0 0 02:36 08.02.2022
3224 Haze 15 1015 72 3000 1.03 10 02:18 08.02.2022
3225 Haze 15 1015 67 3000 1.54 340 01:44 08.02.2022
3226 Haze 14 1014 72 3000 0 0 01:25 08.02.2022
3227 Haze 15 1014 67 3000 1.03 340 00:55 08.02.2022
3228 Haze 14 1014 72 3000 0 0 00:19 08.02.2022
3229 Haze 16 1014 72 3000 1.03 10 23:43 07.02.2022
3230 Haze 16 1014 72 3000 1.03 10 23:18 07.02.2022
3231 Haze 17 1015 67 3000 0 0 22:59 07.02.2022
3232 Haze 17 1015 67 3000 0 0 22:18 07.02.2022
3233 Haze 17 1015 67 3000 0 0 21:49 07.02.2022
3234 Haze 17 1015 67 3000 0 0 21:27 07.02.2022
3235 Haze 19 1016 55 3000 0 0 20:41 07.02.2022
3236 Haze 19 1016 55 3000 0 0 20:18 07.02.2022
3237 Haze 19 1016 55 3000 0 0 19:46 07.02.2022
3238 Haze 19 1016 52 3000 0 0 18:24 07.02.2022
3239 Haze 21 1015 46 3000 1.03 120 16:53 07.02.2022
3240 Haze 22 1015 43 3000 1.54 130 16:21 07.02.2022
3241 Haze 23 1015 40 4000 2.06 130 15:48 07.02.2022
3242 Haze 28 1013 30 5000 0 0 13:39 07.02.2022
3243 Haze 28 1013 30 5000 0 0 13:21 07.02.2022
3244 Haze 30 1013 21 5000 4.12 320 11:58 07.02.2022
3245 Haze 30 1013 21 5000 4.12 320 11:37 07.02.2022
3246 Haze 30 1014 21 5000 1.54 110 10:53 07.02.2022
3247 Haze 29 1014 23 5000 1.54 340 10:32 07.02.2022
3248 Haze 29 1015 21 5000 1.54 280 09:53 07.02.2022
3249 Haze 29 1015 23 5000 3.6 320 09:18 07.02.2022
3250 Haze 28 1016 28 5000 2.06 110 08:43 07.02.2022
3251 Haze 25 1018 31 5000 2.06 350 07:26 07.02.2022
3252 Haze 25 1018 31 5000 2.06 350 06:34 07.02.2022
3253 Haze 15 1018 77 3000 1.03 290 03:49 07.02.2022
3254 Mist 13 1015 82 3000 0 0 00:47 07.02.2022
3255 Mist 13 1015 88 3000 0 0 23:49 06.02.2022
3256 Mist 13 1015 82 3000 1.03 350 22:55 06.02.2022
3257 Haze 13 1015 76 3000 1.03 320 22:34 06.02.2022
3258 Haze 13 1016 76 3000 0 0 21:36 06.02.2022
3259 Haze 15 1017 72 3000 0 0 20:56 06.02.2022
3260 Haze 15 1017 72 3000 0 0 20:36 06.02.2022
3261 Haze 16 1017 72 3000 1.03 340 19:45 06.02.2022
3262 Haze 16 1017 77 3500 1.03 340 18:48 06.02.2022
3263 Haze 17 1017 77 3500 1.54 130 17:58 06.02.2022
3264 Haze 17 1017 77 3500 1.03 40 17:26 06.02.2022
3265 Haze 18 1017 72 3500 1.03 350 16:48 06.02.2022
3266 Haze 18 1016 45 3500 0 0 15:50 06.02.2022
3267 Haze 21 1016 64 4000 1.03 80 15:27 06.02.2022
3268 Haze 22 1015 60 4000 1.03 110 14:50 06.02.2022
3269 Haze 24 1015 50 4000 1.54 100 13:51 06.02.2022
3270 Haze 27 1014 41 4000 1.03 90 13:20 06.02.2022
3271 Haze 28 1014 39 5000 1.54 100 11:39 06.02.2022
3272 Haze 28 1015 42 5000 1.54 120 10:31 06.02.2022
3273 Haze 28 1015 42 5000 1.54 120 10:31 06.02.2022
3274 Haze 27 1016 41 5000 2.06 90 09:25 06.02.2022
3275 Haze 26 1017 41 5000 1.54 80 08:40 06.02.2022
3276 Haze 22 1019 35 5000 1.54 50 05:36 06.02.2022
3277 Haze 12 1017 58 3000 1.03 350 03:31 06.02.2022
3278 Haze 13 1016 58 3000 1.03 10 02:24 06.02.2022
3279 Haze 11 1015 66 3000 0 0 00:30 06.02.2022
3280 Haze 11 1014 62 4000 0 0 23:18 05.02.2022
3281 Haze 13 1015 54 4000 0 0 21:33 05.02.2022
3282 Haze 16 1016 48 4000 1.03 20 20:25 05.02.2022
3283 Haze 13 1015 54 4000 1.03 320 19:49 05.02.2022
3284 Haze 13 1015 54 4000 1.03 320 19:18 05.02.2022
3285 Haze 16 1015 41 4000 0 0 17:45 05.02.2022
3286 Haze 15 1015 41 4000 1.54 150 17:27 05.02.2022
3287 Haze 19 1014 32 4000 1.54 120 15:42 05.02.2022
3288 Haze 20 1014 30 4000 1.54 100 15:24 05.02.2022
3289 Haze 27 1012 34 5000 1.03 90 12:54 05.02.2022
3290 Haze 27 1012 34 5000 1.03 90 12:33 05.02.2022
3291 Haze 27 1012 32 5000 2.06 140 10:53 05.02.2022
3292 Haze 27 1013 32 5000 1.03 80 10:25 05.02.2022
3293 Haze 27 1013 28 5000 2.06 170 09:46 05.02.2022
3294 Haze 25 1015 29 5000 1.03 160 07:54 05.02.2022
3295 Haze 23 1016 27 5000 2.06 40 06:57 05.02.2022
3296 Haze 16 1015 41 4000 1.03 360 04:30 05.02.2022
3297 Haze 12 1013 54 3000 0 0 01:19 05.02.2022
3298 Haze 12 1013 50 3000 2.06 330 00:53 05.02.2022
3299 Haze 10 1012 62 3000 1.03 320 23:46 04.02.2022
3300 Haze 10 1012 62 3000 1.03 320 23:28 04.02.2022
3301 Haze 13 1013 50 3000 1.03 340 21:54 04.02.2022
3302 Haze 13 1013 50 3000 1.03 340 21:36 04.02.2022
3303 Haze 13 1013 50 3000 1.03 340 21:18 04.02.2022
3304 Haze 15 1013 44 3000 1.03 320 19:59 04.02.2022
3305 Haze 17 1013 39 3500 1.54 340 17:43 04.02.2022
3306 Haze 20 1012 30 3500 1.54 340 15:42 04.02.2022
3307 Haze 22 1011 24 4000 2.57 330 14:55 04.02.2022
3308 Haze 23 1010 25 4000 2.57 320 13:33 04.02.2022
3309 Haze 25 1010 20 5000 4.12 320 12:43 04.02.2022
3310 Haze 26 1010 19 5000 4.12 280 11:42 04.02.2022
3311 Haze 25 1010 20 5000 1.54 340 10:36 04.02.2022
3312 Haze 25 1010 20 5000 1.54 340 10:36 04.02.2022
3313 Haze 25 1012 22 5000 2.57 350 08:42 04.02.2022
3314 Haze 23 1014 28 5000 2.57 350 06:57 04.02.2022
3315 Haze 15 1011 67 3000 1.54 310 02:46 04.02.2022
3316 Haze 15 1010 67 3000 2.06 330 01:52 04.02.2022
3317 Haze 16 1009 63 3000 0 0 23:29 03.02.2022
3318 Haze 20 1009 49 3000 0 0 22:33 03.02.2022
3319 Haze 21 1009 46 3000 0 0 21:49 03.02.2022
3320 Haze 19 1009 100 3000 0 0 20:39 03.02.2022
3321 Haze 19 1009 100 3000 0 0 20:18 03.02.2022
3322 Haze 21 1009 73 3000 1.54 290 19:30 03.02.2022
3323 Haze 22 1009 73 3000 1.54 210 18:35 03.02.2022
3324 Haze 22 1009 60 3000 0 0 17:32 03.02.2022
3325 Haze 23 1008 53 3000 0 0 16:26 03.02.2022
3326 Haze 24 1007 46 4000 1.54 130 14:45 03.02.2022
3327 Haze 30 1006 28 5000 3.09 200 12:52 03.02.2022
3328 Haze 30 1007 35 5000 4.12 220 10:58 03.02.2022
3329 Haze 29 1010 39 5000 4.12 180 08:36 03.02.2022
3330 Haze 19 1013 77 3000 0 0 04:28 03.02.2022
3331 Haze 15 1010 88 3000 1.03 360 00:31 03.02.2022
3332 Haze 15 1010 100 3000 1.03 350 23:39 02.02.2022
3333 Haze 16 1012 67 3000 1.03 340 21:55 02.02.2022
3334 Haze 16 1012 67 3000 1.03 340 21:31 02.02.2022
3335 Haze 16 1013 72 3000 0 0 20:40 02.02.2022
3336 Haze 17 1013 63 3000 0 0 19:58 02.02.2022
3337 Haze 18 1013 59 3000 1.03 320 19:27 02.02.2022
3338 Haze 18 1013 59 3000 1.03 320 18:39 02.02.2022
3339 Haze 19 1013 55 3000 1.54 100 17:44 02.02.2022
3340 Haze 21 1013 49 3000 1.54 100 17:19 02.02.2022
3341 Haze 21 1013 52 3000 1.54 110 16:31 02.02.2022
3342 Haze 29 1011 26 5000 2.06 110 12:57 02.02.2022
3343 Haze 30 1011 21 5000 2.57 130 12:20 02.02.2022
3344 Haze 31 1011 20 5000 1.03 160 11:32 02.02.2022
3345 Haze 29 1013 24 5000 1.54 60 09:46 02.02.2022
3346 Haze 27 1015 32 5000 1.54 100 07:33 02.02.2022
3347 Haze 14 1012 72 3000 0 0 22:51 01.02.2022
3348 Haze 15 1013 67 3000 0 0 21:40 01.02.2022
3349 Haze 16 1013 59 4000 1.03 330 19:58 01.02.2022
3350 Haze 19 1013 52 4000 2.06 330 17:41 01.02.2022
3351 Haze 19 1012 45 4000 0 0 16:39 01.02.2022
3352 Haze 25 1011 31 4000 1.54 110 13:56 01.02.2022
3353 Haze 29 1010 20 5000 1.03 100 12:42 01.02.2022
3354 Haze 29 1010 20 5000 1.03 50 11:20 01.02.2022
3355 Haze 11 1013 66 3000 0 0 02:34 01.02.2022
3356 Haze 13 1012 58 3000 0 0 23:41 31.01.2022
3357 Haze 13 1013 58 3000 2.06 180 22:57 31.01.2022
3358 Haze 16 1013 51 3000 1.03 360 21:39 31.01.2022
3359 Haze 14 1013 62 3000 1.03 0 20:50 31.01.2022
3360 Haze 14 1013 62 3000 1.03 0 20:27 31.01.2022
3361 Haze 15 1014 63 4000 1.03 0 19:29 31.01.2022
3362 Haze 18 1014 52 4000 2.06 340 18:25 31.01.2022
3363 Haze 17 1013 55 4000 0 0 17:26 31.01.2022
3364 Haze 20 1013 45 4000 0 0 16:29 31.01.2022
3365 Haze 23 1011 33 4000 1.03 140 14:54 31.01.2022
3366 Haze 26 1011 27 4000 1.03 150 13:52 31.01.2022
3367 Haze 29 1011 21 5000 2.57 160 12:38 31.01.2022
3368 Haze 31 1011 18 5000 1.54 210 11:47 31.01.2022
3369 Haze 31 1011 16 5000 1.54 290 10:50 31.01.2022
3370 Haze 30 1012 16 5000 2.57 260 09:59 31.01.2022
3371 Haze 28 1013 21 5000 1.54 10 08:59 31.01.2022
3372 Haze 27 1014 22 5000 1.03 10 08:39 31.01.2022
3373 Haze 27 1014 22 5000 1.03 10 08:20 31.01.2022
3374 Haze 23 1016 35 5000 0 0 06:18 31.01.2022
3375 Haze 11 1012 71 2500 0 0 00:46 31.01.2022
3376 Haze 13 1013 62 2500 0 0 22:40 30.01.2022
3377 Haze 13 1013 62 2500 0 0 22:22 30.01.2022
3378 Haze 14 1013 62 2500 0 0 21:38 30.01.2022
3379 Haze 14 1013 62 2500 0 0 21:18 30.01.2022
3380 Haze 15 1014 58 2500 0 0 20:45 30.01.2022
3381 Haze 15 1014 58 2500 0 0 20:27 30.01.2022
3382 Haze 15 1014 55 2500 0 0 19:24 30.01.2022
3383 Haze 14 1014 58 2500 0 0 18:36 30.01.2022
3384 Haze 16 1014 55 3000 0 0 17:54 30.01.2022
3385 Haze 16 1014 51 3000 0 0 17:21 30.01.2022
3386 Haze 17 1014 45 3000 0 0 16:39 30.01.2022
3387 Haze 19 1013 42 3000 0 0 16:21 30.01.2022
3388 Haze 19 1013 42 4000 0 0 15:50 30.01.2022
3389 Haze 20 1013 34 4000 0 0 15:31 30.01.2022
3390 Haze 22 1013 33 4000 0 0 14:46 30.01.2022
3391 Haze 29 1012 17 5000 1.54 250 12:47 30.01.2022
3392 Haze 30 1012 15 5000 1.54 250 11:53 30.01.2022
3393 Haze 29 1013 18 5000 1.03 230 10:29 30.01.2022
3394 Haze 28 1013 20 5000 1.54 250 09:50 30.01.2022
3395 Haze 26 1015 22 5000 2.57 250 08:52 30.01.2022
3396 Haze 23 1017 31 5000 3.09 180 06:55 30.01.2022
3397 Mist 8 1015 100 2500 0 0 01:56 30.01.2022
3398 Haze 9 1015 93 3000 0 0 00:22 30.01.2022
3399 Haze 11 1016 66 3000 1.03 330 22:58 29.01.2022
3400 Haze 12 1017 76 3000 1.03 320 21:47 29.01.2022
3401 Haze 12 1017 76 3000 1.03 320 21:23 29.01.2022
3402 Haze 12 1017 71 3000 1.03 350 20:22 29.01.2022
3403 Haze 12 1017 66 3000 0 0 19:33 29.01.2022
3404 Haze 13 1017 62 3500 1.03 320 18:51 29.01.2022
3405 Haze 14 1018 54 3500 1.03 320 18:18 29.01.2022
3406 Haze 14 1018 51 3500 1.03 260 17:27 29.01.2022
3407 Haze 16 1017 44 4000 0 0 15:44 29.01.2022
3408 Haze 23 1016 25 4000 1.03 50 13:59 29.01.2022
3409 Haze 23 1016 25 4000 1.03 50 13:41 29.01.2022
3410 Haze 25 1015 22 4000 1.03 50 13:22 29.01.2022
3411 Haze 27 1016 18 5000 1.54 350 11:40 29.01.2022
3412 Haze 26 1016 19 5000 2.57 340 10:46 29.01.2022
3413 Haze 24 1018 23 5000 2.57 80 08:42 29.01.2022
3414 Haze 13 1020 62 3000 1.54 340 03:53 29.01.2022
3415 Haze 9 1017 100 3000 1.03 360 00:34 29.01.2022
3416 Haze 9 1017 93 3000 0 0 23:44 28.01.2022
3417 Haze 12 1018 66 3000 0 0 22:48 28.01.2022
3418 Haze 12 1018 66 3000 0 0 22:20 28.01.2022
3419 Clear 14 1017 39 10000 2.46 17 20:42 28.01.2022
3420 Clear 14 1017 37 10000 2.38 20 20:23 28.01.2022
3421 Haze 12 1019 66 4000 1.54 330 19:28 28.01.2022
3422 Haze 13 1019 62 4000 1.03 350 18:38 28.01.2022
3423 Haze 14 1018 51 4000 0 0 16:39 28.01.2022
3424 Haze 17 1017 42 4000 1.54 90 14:59 28.01.2022
3425 Haze 23 1016 25 5000 1.03 60 13:23 28.01.2022
3426 Haze 24 1016 23 5000 1.03 300 11:52 28.01.2022
3427 Haze 23 1017 27 5000 1.54 300 10:32 28.01.2022
3428 Haze 22 1017 28 5000 1.03 220 09:47 28.01.2022
3429 Haze 20 1020 34 5000 2.57 80 07:43 28.01.2022
3430 Haze 17 1021 45 5000 2.57 60 06:30 28.01.2022
3431 Haze 13 1020 62 2500 1.03 40 03:51 28.01.2022
3432 Haze 9 1018 81 2500 1.03 340 02:29 28.01.2022
3433 Haze 11 1017 71 2500 1.03 20 01:57 28.01.2022
3434 Haze 11 1017 71 2500 1.03 20 01:57 28.01.2022
3435 Haze 10 1017 81 3000 1.03 20 01:29 28.01.2022
3436 Haze 11 1017 66 3000 0 0 22:39 27.01.2022
3437 Haze 12 1017 62 3000 1.03 40 21:40 27.01.2022
3438 Haze 14 1017 54 3000 0 0 20:59 27.01.2022
3439 Haze 15 1018 51 4000 0 0 19:45 27.01.2022
3440 Haze 14 1017 58 4000 1.03 40 18:22 27.01.2022
3441 Haze 16 1017 51 4000 1.54 150 16:59 27.01.2022
3442 Haze 20 1015 30 4000 1.54 40 14:23 27.01.2022
3443 Haze 24 1015 22 5000 1.54 30 12:49 27.01.2022
3444 Haze 24 1015 22 5000 1.54 30 12:49 27.01.2022
3445 Haze 24 1015 22 5000 2.57 340 12:18 27.01.2022
3446 Haze 22 1016 33 5000 2.06 130 09:48 27.01.2022
3447 Haze 21 1017 35 5000 2.06 200 08:40 27.01.2022
3448 Haze 20 1018 40 5000 1.54 100 07:52 27.01.2022
3449 Haze 13 1018 58 4000 2.06 360 03:34 27.01.2022
3450 Mist 9 1016 100 2500 0 0 00:24 27.01.2022
3451 Haze 13 1016 62 2500 1.03 10 22:28 26.01.2022
3452 Haze 14 1016 58 2500 1.03 10 21:44 26.01.2022
3453 Haze 14 1016 58 3000 1.03 10 20:50 26.01.2022
3454 Haze 14 1016 58 3000 1.03 10 20:31 26.01.2022
3455 Haze 13 1016 62 3000 1.03 320 19:49 26.01.2022
3456 Haze 14 1017 62 3000 1.03 90 18:47 26.01.2022
3457 Haze 14 1017 62 3000 1.03 90 18:24 26.01.2022
3458 Haze 17 1016 48 4000 1.03 20 17:33 26.01.2022
3459 Haze 17 1016 48 4000 1.03 10 16:49 26.01.2022
3460 Haze 17 1015 45 4000 1.03 10 16:22 26.01.2022
3461 Haze 19 1014 39 4000 1.03 360 14:40 26.01.2022
3462 Haze 24 1013 27 5000 1.54 320 12:20 26.01.2022
3463 Haze 23 1014 28 5000 4.12 270 10:52 26.01.2022
3464 Haze 23 1014 28 5000 2.57 260 09:52 26.01.2022
3465 Haze 21 1016 35 5000 2.06 310 08:49 26.01.2022
3466 Haze 19 1018 39 5000 1.54 50 06:36 26.01.2022
3467 Haze 13 1014 62 3000 1.54 350 00:21 26.01.2022
3468 Haze 14 1014 62 3000 1.54 20 23:41 25.01.2022
3469 Haze 15 1014 58 3000 2.06 350 22:48 25.01.2022
3470 Haze 15 1014 58 3000 2.06 350 22:18 25.01.2022
3471 Haze 16 1014 55 3000 1.54 20 21:27 25.01.2022
3472 Haze 16 1014 55 3000 1.03 30 20:45 25.01.2022
3473 Haze 15 1014 63 3000 1.54 30 19:54 25.01.2022
3474 Haze 15 1014 63 3000 1.54 10 19:23 25.01.2022
3475 Haze 15 1015 63 3000 1.03 330 17:56 25.01.2022
3476 Haze 16 1015 59 3000 1.03 320 17:18 25.01.2022
3477 Haze 15 1014 63 3000 0 0 16:34 25.01.2022
3478 Haze 16 1014 59 3000 1.03 120 15:39 25.01.2022
3479 Haze 17 1013 51 3000 1.03 40 15:18 25.01.2022
3480 Haze 17 1013 55 3000 1.03 120 14:43 25.01.2022
3481 Haze 23 1012 31 4000 2.06 300 12:20 25.01.2022
3482 Haze 22 1013 35 5000 2.06 290 09:24 25.01.2022
3483 Haze 21 1015 40 5000 1.54 80 07:52 25.01.2022
3484 Haze 19 1016 45 5000 2.06 10 06:55 25.01.2022
3485 Haze 17 1017 51 4000 2.06 40 05:23 25.01.2022
3486 Haze 14 1013 62 3000 1.03 360 00:31 25.01.2022
3487 Haze 14 1013 62 3000 2.06 340 23:36 24.01.2022
3488 Haze 14 1013 62 3000 2.06 340 23:18 24.01.2022
3489 Haze 15 1014 58 3000 1.54 340 22:42 24.01.2022
3490 Haze 16 1014 55 3000 1.54 10 21:58 24.01.2022
3491 Haze 16 1014 55 3000 1.54 10 21:32 24.01.2022
3492 Haze 17 1014 51 3000 2.06 10 20:38 24.01.2022
3493 Haze 17 1014 51 3000 2.06 10 20:20 24.01.2022
3494 Haze 17 1014 59 3000 1.54 340 19:38 24.01.2022
3495 Haze 18 1014 55 3000 2.06 40 18:47 24.01.2022
3496 Haze 17 1014 63 3000 0 0 17:24 24.01.2022
3497 Haze 17 1014 63 3000 0 0 16:58 24.01.2022
3498 Haze 17 1014 63 3000 0 0 16:58 24.01.2022
3499 Haze 17 1014 63 3000 0 0 16:58 24.01.2022
3500 Haze 18 1013 59 3000 0 0 16:30 24.01.2022
3501 Haze 21 1012 43 3000 1.03 30 14:54 24.01.2022
3502 Haze 22 1011 37 3000 1.03 10 13:38 24.01.2022
3503 Haze 24 1011 35 3000 1.03 340 12:32 24.01.2022
3504 Haze 24 1011 35 3000 1.03 20 11:21 24.01.2022
3505 Haze 23 1011 38 2500 1.03 360 09:49 24.01.2022
3506 Haze 23 1012 38 2500 1.54 10 09:20 24.01.2022
3507 Haze 21 1015 46 2500 2.57 350 07:28 24.01.2022
3508 Haze 14 1012 67 2500 2.57 320 01:34 24.01.2022
3509 Haze 15 1011 58 3000 1.54 300 00:46 24.01.2022
3510 Haze 15 1011 58 3000 1.54 300 00:27 24.01.2022
3511 Haze 16 1011 55 3000 3.6 310 22:46 23.01.2022
3512 Haze 17 1011 51 3000 3.09 330 21:51 23.01.2022
3513 Haze 17 1011 51 3000 3.09 330 21:27 23.01.2022
3514 Haze 18 1012 48 3000 5.14 330 20:54 23.01.2022
3515 Haze 19 1012 48 3000 5.14 330 19:55 23.01.2022
3516 Haze 19 1012 52 3000 7.2 340 18:52 23.01.2022
3517 Haze 19 1012 48 4000 5.14 320 17:54 23.01.2022
3518 Haze 20 1012 45 4000 4.12 300 16:52 23.01.2022
3519 Haze 20 1011 42 4000 2.57 310 15:18 23.01.2022
3520 Haze 22 1011 37 4000 2.06 280 14:33 23.01.2022
3521 Haze 24 1009 31 5000 4.12 270 13:27 23.01.2022
3522 Haze 25 1009 29 5000 4.12 250 12:36 23.01.2022
3523 Haze 26 1009 25 5000 4.12 230 12:18 23.01.2022
3524 Haze 26 1009 27 5000 4.63 240 11:24 23.01.2022
3525 Haze 26 1009 25 5000 5.14 240 10:57 23.01.2022
3526 Haze 26 1009 27 5000 6.17 240 10:21 23.01.2022
3527 Haze 26 1010 27 5000 4.63 210 09:22 23.01.2022
3528 Haze 22 1012 56 5000 2.06 310 05:59 23.01.2022
3529 Mist 16 1009 100 2500 0 0 02:25 23.01.2022
3530 Mist 17 1009 100 2500 0 0 01:35 23.01.2022
3531 Mist 17 1008 100 2500 1.03 300 00:41 23.01.2022
3532 Haze 18 1008 94 3000 1.03 340 23:57 22.01.2022
3533 Haze 19 1008 77 3000 2.57 330 22:48 22.01.2022
3534 Haze 18 1008 77 3000 0 0 21:58 22.01.2022
3535 Haze 19 1008 72 3000 1.03 280 20:26 22.01.2022
3536 Haze 20 1009 68 3000 2.06 280 19:34 22.01.2022
3537 Haze 20 1009 64 3000 0 0 18:36 22.01.2022
3538 Haze 20 1009 60 4000 1.03 260 17:42 22.01.2022
3539 Haze 22 1009 53 4000 0 0 16:57 22.01.2022
3540 Haze 21 1008 56 4000 1.03 240 16:20 22.01.2022
3541 Haze 22 1008 53 4000 1.03 220 15:42 22.01.2022
3542 Haze 25 1007 41 5000 2.06 240 13:59 22.01.2022
3543 Haze 28 1007 34 5000 3.6 270 12:58 22.01.2022
3544 Haze 28 1007 34 5000 5.66 250 12:30 22.01.2022
3545 Haze 29 1007 30 5000 5.14 250 11:57 22.01.2022
3546 Haze 28 1008 32 5000 5.66 230 10:38 22.01.2022
3547 Haze 28 1008 34 5000 4.63 230 10:19 22.01.2022
3548 Haze 28 1009 30 5000 5.14 230 08:54 22.01.2022
3549 Haze 28 1010 30 5000 3.6 240 08:27 22.01.2022
3550 Haze 20 1012 64 4000 1.03 70 05:20 22.01.2022
3551 Mist 13 1010 100 2500 0 0 01:58 22.01.2022
3552 Haze 15 1010 88 3000 0 0 23:49 21.01.2022
3553 Haze 15 1011 82 3000 1.03 320 22:44 21.01.2022
3554 Haze 15 1011 72 3000 1.03 220 20:45 21.01.2022
3555 Haze 16 1013 67 3500 0 0 18:41 21.01.2022
3556 Haze 18 1013 59 3500 0 0 17:45 21.01.2022
3557 Haze 21 1012 46 4000 1.03 320 15:48 21.01.2022
3558 Haze 21 1011 43 4000 1.03 310 14:37 21.01.2022
3559 Haze 28 1010 28 5000 5.14 320 12:42 21.01.2022
3560 Haze 28 1010 26 5000 3.6 300 11:29 21.01.2022
3561 Haze 28 1010 24 5000 3.09 340 10:27 21.01.2022
3562 Haze 27 1012 29 5000 3.09 320 08:50 21.01.2022
3563 Haze 25 1013 47 5000 2.06 350 07:37 21.01.2022
3564 Haze 13 1011 100 2500 1.03 340 01:48 21.01.2022
3565 Haze 15 1010 72 3000 1.54 320 22:46 20.01.2022
3566 Haze 16 1011 67 4000 0 0 21:48 20.01.2022
3567 Haze 17 1010 63 4000 2.06 310 20:57 20.01.2022
3568 Haze 18 1011 59 4000 1.03 220 19:40 20.01.2022
3569 Haze 18 1011 59 4000 1.03 220 19:18 20.01.2022
3570 Haze 18 1011 55 4000 0 0 17:36 20.01.2022
3571 Haze 20 1010 49 4000 1.03 200 15:46 20.01.2022
3572 Haze 20 1010 49 4000 0 0 15:26 20.01.2022
3573 Haze 24 1009 38 5000 1.03 140 13:54 20.01.2022
3574 Haze 28 1009 28 5000 2.57 180 12:44 20.01.2022
3575 Haze 28 1009 26 5000 2.57 180 12:26 20.01.2022
3576 Haze 28 1010 24 5000 1.03 210 10:58 20.01.2022
3577 Haze 28 1011 23 5000 2.06 260 09:43 20.01.2022
3578 Haze 27 1012 26 5000 2.06 310 08:36 20.01.2022
3579 Haze 23 1015 35 5000 1.54 130 06:18 20.01.2022
3580 Mist 13 1012 100 2500 1.03 350 23:52 19.01.2022
3581 Haze 13 1013 76 3000 1.03 320 22:37 19.01.2022
3582 Haze 14 1014 77 3000 1.03 320 21:24 19.01.2022
3583 Haze 14 1014 77 3000 1.03 320 20:53 19.01.2022
3584 Haze 15 1014 72 3000 0 0 20:22 19.01.2022
3585 Haze 15 1014 63 3000 0 0 18:48 19.01.2022
3586 Haze 16 1015 55 3000 0 0 17:50 19.01.2022
3587 Haze 16 1014 59 3000 1.03 320 16:59 19.01.2022
3588 Haze 19 1013 45 4000 1.54 80 14:43 19.01.2022
3589 Haze 25 1013 27 5000 1.54 120 12:53 19.01.2022
3590 Haze 27 1013 21 5000 1.54 50 11:43 19.01.2022
3591 Haze 26 1014 22 5000 1.54 40 10:38 19.01.2022
3592 Haze 26 1015 25 5000 2.06 80 09:34 19.01.2022
3593 Haze 22 1018 37 5000 2.06 330 07:34 19.01.2022
3594 Haze 19 1019 45 4000 1.54 360 05:19 19.01.2022
3595 Mist 16 1016 100 2500 1.03 30 23:41 18.01.2022
3596 Mist 16 1016 100 2500 1.03 30 23:18 18.01.2022
3597 Haze 17 1017 72 3000 1.03 20 21:43 18.01.2022
3598 Haze 19 1017 94 3000 1.03 50 19:57 18.01.2022
3599 Haze 19 1017 94 3000 1.03 50 19:38 18.01.2022
3600 Haze 19 1017 94 3000 1.03 50 19:18 18.01.2022
3601 Haze 19 1017 72 3000 1.03 350 17:59 18.01.2022
3602 Haze 19 1017 72 3000 1.03 300 17:27 18.01.2022
3603 Haze 20 1016 68 3000 1.03 100 15:50 18.01.2022
3604 Haze 21 1016 64 3000 0 0 15:23 18.01.2022
3605 Haze 25 1014 47 4000 1.54 190 13:32 18.01.2022
3606 Haze 27 1015 36 5000 2.57 260 10:49 18.01.2022
3607 Haze 26 1016 38 5000 1.54 230 09:39 18.01.2022
3608 Haze 24 1018 43 5000 1.03 320 07:58 18.01.2022
3609 Haze 23 1019 46 5000 1.03 0 07:21 18.01.2022
3610 Mist 15 1018 100 3000 1.03 320 00:21 18.01.2022
3611 Haze 17 1019 72 3000 0 0 22:30 17.01.2022
3612 Haze 17 1019 72 3000 1.03 300 21:36 17.01.2022
3613 Haze 18 1020 72 3000 1.03 30 20:29 17.01.2022
3614 Haze 20 1021 68 3000 1.54 30 18:31 17.01.2022
3615 Haze 19 1020 72 3000 1.03 300 17:51 17.01.2022
3616 Haze 19 1020 77 3000 1.03 100 16:45 17.01.2022
3617 Haze 21 1019 68 3000 1.03 60 15:24 17.01.2022
3618 Haze 21 1019 64 3000 1.03 90 14:57 17.01.2022
3619 Haze 24 1018 53 4000 1.03 70 13:30 17.01.2022
3620 Haze 25 1017 47 4000 1.03 60 12:57 17.01.2022
3621 Haze 26 1017 44 4000 1.03 90 11:49 17.01.2022
3622 Haze 26 1018 44 5000 1.54 50 10:38 17.01.2022
3623 Haze 26 1018 44 5000 2.06 100 09:35 17.01.2022
3624 Haze 23 1021 56 5000 1.03 150 07:43 17.01.2022
3625 Haze 22 1021 60 5000 2.57 140 07:18 17.01.2022
3626 Mist 14 1019 100 2500 1.03 360 00:56 17.01.2022
3627 Mist 16 1019 94 2500 0 0 22:30 16.01.2022
3628 Haze 16 1019 88 2500 0 0 20:38 16.01.2022
3629 Haze 18 1020 68 2500 1.03 50 18:53 16.01.2022
3630 Haze 18 1020 68 2500 0 0 17:59 16.01.2022
3631 Haze 19 1020 59 2500 1.03 60 17:23 16.01.2022
3632 Haze 19 1019 68 2500 1.03 90 16:38 16.01.2022
3633 Haze 20 1018 68 2500 1.03 120 14:31 16.01.2022
3634 Haze 21 1017 64 3000 1.54 110 13:49 16.01.2022
3635 Haze 24 1017 50 3000 1.03 100 12:48 16.01.2022
3636 Haze 25 1017 47 3000 1.03 150 11:43 16.01.2022
3637 Haze 25 1017 50 3000 1.03 20 10:55 16.01.2022
3638 Haze 25 1018 50 3000 2.57 110 10:19 16.01.2022
3639 Haze 24 1018 57 2500 3.6 120 09:51 16.01.2022
3640 Haze 24 1018 57 2500 3.6 120 09:22 16.01.2022
3641 Haze 24 1018 57 2500 3.6 120 09:22 16.01.2022
3642 Haze 22 1021 68 2500 2.06 90 07:33 16.01.2022
3643 Mist 15 1017 94 2000 1.03 50 00:42 16.01.2022
3644 Mist 15 1017 94 2000 2.06 30 23:49 15.01.2022
3645 Mist 15 1018 100 2500 1.54 50 21:37 15.01.2022
3646 Mist 15 1018 100 2500 1.54 30 21:19 15.01.2022
3647 Mist 15 1018 100 2500 1.54 30 20:39 15.01.2022
3648 Mist 17 1018 100 2500 1.54 30 19:29 15.01.2022
3649 Mist 17 1018 100 2500 1.03 20 18:37 15.01.2022
3650 Mist 18 1018 100 2500 1.03 350 16:57 15.01.2022
3651 Mist 18 1017 100 2500 1.03 110 15:39 15.01.2022
3652 Haze 21 1016 83 2500 1.54 100 13:39 15.01.2022
3653 Haze 22 1015 73 2500 2.06 100 11:46 15.01.2022
3654 Haze 23 1016 68 2500 2.06 120 10:24 15.01.2022
3655 Fog 17 1019 100 1000 1.54 20 05:27 15.01.2022
3656 Mist 17 1016 100 1500 1.03 330 23:44 14.01.2022
3657 Mist 16 1016 100 2000 1.03 10 21:37 14.01.2022
3658 Mist 16 1016 100 2000 1.03 10 20:37 14.01.2022
3659 Mist 16 1016 100 2000 1.03 20 19:57 14.01.2022
3660 Mist 16 1016 100 2000 1.03 20 18:44 14.01.2022
3661 Mist 17 1016 94 2000 1.03 20 17:53 14.01.2022
3662 Mist 17 1015 100 1500 1.03 10 16:47 14.01.2022
3663 Mist 18 1014 100 1500 1.03 20 15:33 14.01.2022
3664 Mist 19 1014 94 1500 1.03 10 14:29 14.01.2022
3665 Mist 19 1013 100 1500 2.06 360 12:59 14.01.2022
3666 Mist 20 1014 100 1500 2.57 330 11:59 14.01.2022
3667 Mist 20 1014 100 1500 1.03 90 10:40 14.01.2022
3668 Mist 18 1015 100 2000 1.03 50 08:53 14.01.2022
3669 Clouds 17 1017 100 1800 1.03 360 07:35 14.01.2022
3670 Mist 18 1015 94 2000 1.03 50 03:19 14.01.2022
3671 Mist 18 1014 100 2500 1.54 40 00:35 14.01.2022
3672 Mist 18 1015 100 2500 1.54 30 21:55 13.01.2022
3673 Mist 18 1015 100 2500 1.03 60 21:30 13.01.2022
3674 Mist 18 1015 100 2500 1.54 60 20:27 13.01.2022
3675 Mist 18 1015 100 2500 2.06 90 19:30 13.01.2022
3676 Haze 19 1015 94 2500 2.06 80 18:50 13.01.2022
3677 Haze 20 1015 83 2500 1.54 100 16:58 13.01.2022
3678 Haze 20 1015 77 2500 1.03 70 15:49 13.01.2022
3679 Haze 21 1014 73 2500 1.54 90 15:26 13.01.2022
3680 Haze 22 1014 68 2500 0 0 13:36 13.01.2022
3681 Haze 24 1013 57 4000 2.06 60 11:43 13.01.2022
3682 Haze 23 1014 64 5000 3.09 110 09:37 13.01.2022
3683 Haze 23 1015 64 5000 1.54 110 08:52 13.01.2022
3684 Haze 22 1016 68 5000 1.03 70 08:18 13.01.2022
3685 Haze 21 1017 78 5000 2.06 100 07:20 13.01.2022
3686 Haze 18 1018 77 4000 1.03 50 05:21 13.01.2022
3687 Haze 17 1018 82 4000 1.54 30 04:55 13.01.2022
3688 Mist 15 1016 100 2500 1.54 20 01:41 13.01.2022
3689 Mist 15 1015 100 2500 1.03 360 23:54 12.01.2022
3690 Mist 15 1015 100 2500 1.03 360 23:34 12.01.2022
3691 Mist 16 1015 94 2500 1.03 50 22:35 12.01.2022
3692 Mist 16 1016 100 2500 0 0 21:49 12.01.2022
3693 Mist 16 1016 100 2500 0 0 21:20 12.01.2022
3694 Mist 17 1016 100 3000 1.03 30 20:49 12.01.2022
3695 Haze 17 1016 100 3000 0 0 19:22 12.01.2022
3696 Haze 18 1017 100 3000 1.03 360 18:25 12.01.2022
3697 Haze 19 1017 100 3000 1.03 30 16:57 12.01.2022
3698 Haze 19 1016 100 3000 1.03 60 15:38 12.01.2022
3699 Haze 20 1015 83 3000 1.03 90 14:39 12.01.2022
3700 Haze 22 1014 68 4000 2.06 100 12:57 12.01.2022
3701 Haze 22 1015 73 3000 1.03 130 09:57 12.01.2022
3702 Mist 21 1017 83 2500 1.54 70 07:58 12.01.2022
3703 Mist 20 1018 94 2500 1.03 90 07:33 12.01.2022
3704 Mist 16 1016 100 2000 1.54 10 02:38 12.01.2022
3705 Mist 17 1014 100 2500 1.03 20 23:27 11.01.2022
3706 Mist 18 1015 94 2500 1.03 50 22:40 11.01.2022
3707 Mist 18 1015 94 2500 1.03 50 22:18 11.01.2022
3708 Mist 18 1015 100 2500 1.54 40 20:40 11.01.2022
3709 Mist 18 1016 100 2500 1.03 50 19:40 11.01.2022
3710 Mist 18 1016 100 2500 1.54 90 17:55 11.01.2022
3711 Mist 18 1016 100 2500 1.54 50 16:47 11.01.2022
3712 Mist 18 1016 100 2500 1.54 50 16:28 11.01.2022
3713 Mist 19 1015 94 2500 1.54 40 14:57 11.01.2022
3714 Mist 18 1014 100 2500 1.54 80 14:38 11.01.2022
3715 Mist 19 1014 100 2500 1.03 80 13:53 11.01.2022
3716 Mist 20 1014 94 2500 1.54 90 13:28 11.01.2022
3717 Mist 20 1014 100 2500 1.03 80 12:36 11.01.2022
3718 Mist 20 1014 94 2500 2.06 80 10:40 11.01.2022
3719 Haze 21 1015 100 2500 1.54 60 08:27 11.01.2022
3720 Clouds 18 1016 100 2000 2.06 50 04:30 11.01.2022
3721 Clouds 18 1016 100 2000 2.06 50 04:30 11.01.2022
3722 Clouds 19 1016 94 1500 1.03 10 00:28 11.01.2022
3723 Clouds 19 1016 94 1500 1.03 60 23:40 10.01.2022
3724 Mist 19 1016 100 2000 1.03 40 22:42 10.01.2022
3725 Mist 19 1016 100 2000 1.03 40 22:18 10.01.2022
3726 Mist 19 1016 100 2000 1.54 50 21:36 10.01.2022
3727 Mist 19 1016 100 2000 1.54 50 21:18 10.01.2022
3728 Mist 19 1017 100 2000 1.54 90 20:54 10.01.2022
3729 Mist 19 1017 100 2000 1.54 90 20:19 10.01.2022
3730 Mist 19 1017 100 2000 1.03 100 19:39 10.01.2022
3731 Mist 19 1017 100 2000 1.03 100 19:19 10.01.2022
3732 Mist 20 1017 100 2000 1.03 90 18:46 10.01.2022
3733 Mist 21 1017 100 2000 1.54 90 16:49 10.01.2022
3734 Mist 21 1017 94 2000 1.54 90 16:27 10.01.2022
3735 Mist 21 1015 100 1800 1.54 110 14:44 10.01.2022
3736 Mist 21 1015 100 1800 1.03 110 13:35 10.01.2022
3737 Mist 23 1014 78 1800 2.06 100 11:56 10.01.2022
3738 Mist 23 1014 78 1800 2.57 120 10:49 10.01.2022
3739 Mist 23 1015 78 1800 2.06 120 09:37 10.01.2022
3740 Mist 20 1018 100 1500 1.54 30 05:52 10.01.2022
3741 Mist 19 1015 94 1200 1.54 350 02:32 10.01.2022
3742 Mist 19 1015 100 1000 0 0 01:21 10.01.2022
3743 Mist 19 1014 100 1000 0 0 00:21 10.01.2022
3744 Mist 19 1014 100 1500 2.57 330 22:47 09.01.2022
3745 Mist 19 1014 100 1500 2.57 330 22:18 09.01.2022
3746 Mist 19 1014 100 1500 1.03 330 21:41 09.01.2022
3747 Mist 19 1014 100 1500 1.03 330 21:41 09.01.2022
3748 Mist 19 1014 100 1500 1.03 10 21:22 09.01.2022
3749 Mist 19 1014 100 1500 1.03 10 21:22 09.01.2022
3750 Mist 19 1015 100 1500 1.03 10 20:46 09.01.2022
3751 Mist 19 1015 94 1500 0 0 20:28 09.01.2022
3752 Mist 19 1015 100 1800 1.03 130 19:39 09.01.2022
3753 Mist 19 1015 100 1800 1.03 130 19:20 09.01.2022
3754 Mist 20 1015 100 1800 1.54 10 18:38 09.01.2022
3755 Mist 20 1015 100 1800 1.03 20 18:18 09.01.2022
3756 Mist 21 1015 94 1800 1.03 30 17:30 09.01.2022
3757 Mist 21 1015 100 1800 1.03 50 16:49 09.01.2022
3758 Mist 21 1014 100 1800 1.54 20 15:46 09.01.2022
3759 Mist 22 1014 100 1800 1.54 50 15:25 09.01.2022
3760 Mist 22 1014 100 1800 1.03 50 14:39 09.01.2022
3761 Mist 22 1013 100 1800 2.06 20 13:48 09.01.2022
3762 Mist 24 1012 78 1800 1.54 10 11:58 09.01.2022
3763 Mist 24 1012 78 1800 1.54 10 11:38 09.01.2022
3764 Mist 23 1013 94 2000 1.03 190 09:55 09.01.2022
3765 Mist 22 1014 100 2000 1.03 190 09:24 09.01.2022
3766 Mist 21 1015 100 2000 2.06 110 07:54 09.01.2022
3767 Mist 19 1014 100 2500 0 0 01:30 09.01.2022
3768 Mist 19 1013 100 2500 1.54 100 00:50 09.01.2022
3769 Mist 19 1013 94 2500 1.54 100 23:36 08.01.2022
3770 Mist 19 1013 100 2500 1.03 100 22:48 08.01.2022
3771 Mist 19 1014 100 3000 1.03 90 21:28 08.01.2022
3772 Haze 21 1015 73 3000 1.03 100 20:44 08.01.2022
3773 Haze 21 1015 73 3000 1.03 100 20:44 08.01.2022
3774 Haze 21 1015 73 3000 1.03 100 20:22 08.01.2022
3775 Haze 21 1015 73 3000 1.54 130 19:22 08.01.2022
3776 Haze 21 1016 73 3000 1.03 150 17:43 08.01.2022
3777 Haze 22 1016 68 3000 1.03 120 16:57 08.01.2022
3778 Thunderstorm 24 1016 60 3000 2.06 360 15:34 08.01.2022
3779 Haze 25 1015 57 3000 2.06 130 14:25 08.01.2022
3780 Haze 27 1014 50 4000 2.06 190 11:43 08.01.2022
3781 Haze 27 1014 50 4000 3.09 230 10:40 08.01.2022
3782 Haze 27 1015 50 5000 2.57 160 10:22 08.01.2022
3783 Haze 27 1016 50 5000 3.09 180 09:34 08.01.2022
3784 Haze 23 1019 73 3000 2.57 160 06:22 08.01.2022
3785 Mist 16 1016 100 2500 1.03 110 01:46 08.01.2022
3786 Mist 18 1015 100 3000 1.03 110 23:36 07.01.2022
3787 Mist 18 1015 100 3000 1.54 90 21:49 07.01.2022
3788 Haze 19 1016 77 3000 1.03 110 20:34 07.01.2022
3789 Haze 20 1016 73 3000 1.54 140 19:27 07.01.2022
3790 Haze 19 1017 77 3000 1.54 120 18:49 07.01.2022
3791 Haze 20 1017 73 3000 1.03 140 18:21 07.01.2022
3792 Haze 21 1017 68 3000 1.03 120 17:24 07.01.2022
3793 Haze 23 1016 60 3000 1.03 90 14:56 07.01.2022
3794 Haze 26 1015 44 3000 1.54 160 13:52 07.01.2022
3795 Haze 28 1014 34 4000 4.12 180 12:51 07.01.2022
3796 Haze 29 1014 32 5000 4.12 190 11:28 07.01.2022
3797 Mist 21 1018 83 2000 1.54 90 04:54 07.01.2022
3798 Mist 16 1017 100 1800 1.03 30 02:53 07.01.2022
3799 Mist 16 1016 100 2000 0 0 01:49 07.01.2022
3800 Mist 17 1015 100 2000 0 0 01:26 07.01.2022
3801 Mist 17 1015 94 2500 1.03 360 00:30 07.01.2022
3802 Mist 17 1015 94 2500 1.03 360 00:30 07.01.2022
3803 Haze 18 1015 100 3000 0 0 22:33 06.01.2022
3804 Haze 19 1015 77 3000 1.03 110 20:51 06.01.2022
3805 Haze 19 1015 77 3000 1.03 110 20:18 06.01.2022
3806 Haze 20 1016 77 3000 1.03 100 19:38 06.01.2022
3807 Haze 21 1016 73 3000 1.03 100 17:51 06.01.2022
3808 Haze 21 1016 73 3000 1.03 100 17:23 06.01.2022
3809 Haze 22 1016 68 3000 1.03 90 16:32 06.01.2022
3810 Haze 22 1016 68 3000 1.03 90 15:44 06.01.2022
3811 Haze 22 1016 64 3000 1.03 90 15:21 06.01.2022
3812 Haze 23 1014 56 3000 1.03 100 14:20 06.01.2022
3813 Haze 25 1014 50 4000 0 0 13:33 06.01.2022
3814 Haze 28 1013 39 4000 1.03 180 12:20 06.01.2022
3815 Haze 28 1013 36 4000 2.57 180 11:30 06.01.2022
3816 Haze 28 1013 39 4000 2.06 150 10:50 06.01.2022
3817 Haze 24 1018 57 3000 2.06 120 06:38 06.01.2022
3818 Haze 15 1016 100 3000 1.03 320 00:34 06.01.2022
3819 Haze 15 1015 77 3000 0 0 23:22 05.01.2022
3820 Haze 16 1016 82 3000 1.03 330 22:48 05.01.2022
3821 Haze 16 1016 82 3000 1.03 330 22:26 05.01.2022
3822 Haze 16 1016 77 3000 0 0 21:28 05.01.2022
3823 Haze 16 1017 77 3000 1.03 330 20:30 05.01.2022
3824 Haze 17 1017 67 3000 1.03 310 19:29 05.01.2022
3825 Haze 18 1017 68 3000 1.03 60 18:21 05.01.2022
3826 Haze 20 1017 56 3000 0 0 16:56 05.01.2022
3827 Haze 20 1017 56 3000 1.03 90 16:19 05.01.2022
3828 Haze 22 1016 49 3000 1.03 100 15:19 05.01.2022
3829 Haze 25 1015 36 5000 1.03 140 13:34 05.01.2022
3830 Haze 28 1015 26 5000 2.06 120 12:20 05.01.2022
3831 Haze 27 1017 34 5000 1.03 180 08:35 05.01.2022
3832 Haze 23 1020 46 4000 2.06 170 06:46 05.01.2022
3833 Mist 14 1017 94 2000 0 0 01:46 05.01.2022
3834 Mist 14 1016 100 3000 1.03 330 23:43 04.01.2022
3835 Mist 14 1016 100 3000 1.03 330 23:21 04.01.2022
3836 Mist 17 1017 77 3000 1.03 10 21:41 04.01.2022
3837 Mist 16 1017 100 3000 1.03 10 20:42 04.01.2022
3838 Haze 16 1017 72 3000 0 0 18:39 04.01.2022
3839 Haze 18 1018 68 3000 0 0 17:30 04.01.2022
3840 Haze 19 1018 59 3000 0 0 16:34 04.01.2022
3841 Haze 21 1017 56 3000 1.54 100 15:20 04.01.2022
3842 Haze 22 1016 49 3000 1.03 100 14:37 04.01.2022
3843 Haze 23 1016 46 3000 1.03 90 13:55 04.01.2022
3844 Haze 28 1015 32 5000 1.03 80 12:20 04.01.2022
3845 Haze 28 1016 28 5000 2.06 300 10:21 04.01.2022
3846 Haze 26 1017 34 5000 1.03 90 08:57 04.01.2022
3847 Haze 23 1020 40 5000 1.03 40 06:28 04.01.2022
3848 Mist 14 1018 100 2500 0 0 00:42 04.01.2022
3849 Mist 15 1018 94 2500 0 0 23:54 03.01.2022
3850 Mist 16 1018 100 2500 0 0 22:22 03.01.2022
3851 Haze 16 1018 100 3000 1.03 330 21:39 03.01.2022
3852 Haze 18 1018 94 3000 1.03 360 20:41 03.01.2022
3853 Haze 18 1019 72 3000 1.03 320 18:55 03.01.2022
3854 Haze 18 1019 77 3000 0 0 18:30 03.01.2022
3855 Haze 19 1019 68 3000 0 0 17:20 03.01.2022
3856 Haze 19 1018 68 3000 0 0 16:53 03.01.2022
3857 Haze 22 1017 53 3000 0 0 14:31 03.01.2022
3858 Haze 26 1016 41 4000 1.03 350 12:52 03.01.2022
3859 Haze 27 1016 36 5000 1.03 40 11:50 03.01.2022
3860 Haze 27 1016 39 5000 2.06 350 10:38 03.01.2022
3861 Haze 26 1017 41 5000 1.54 40 09:28 03.01.2022
3862 Haze 24 1019 43 5000 2.06 320 07:53 03.01.2022
3863 Mist 15 1018 100 2000 1.03 30 02:56 03.01.2022
3864 Haze 17 1018 82 2000 1.03 20 23:24 02.01.2022
3865 Haze 18 1018 77 3000 1.03 30 22:56 02.01.2022
3866 Haze 18 1018 77 3000 1.03 30 21:58 02.01.2022
3867 Haze 20 1019 68 3000 1.54 20 20:50 02.01.2022
3868 Haze 20 1019 68 3000 1.54 20 20:29 02.01.2022
3869 Haze 19 1018 72 3000 1.03 40 19:31 02.01.2022
3870 Haze 19 1018 72 3000 1.03 50 18:56 02.01.2022
3871 Haze 19 1018 77 3000 1.03 100 17:57 02.01.2022
3872 Haze 19 1018 77 3000 1.03 100 17:38 02.01.2022
3873 Haze 19 1018 72 3000 1.03 100 17:20 02.01.2022
3874 Haze 20 1018 73 3000 1.03 80 16:27 02.01.2022
3875 Haze 21 1018 64 3000 1.03 90 14:41 02.01.2022
3876 Haze 24 1017 53 3000 1.03 60 13:25 02.01.2022
3877 Haze 26 1017 44 4000 1.54 50 12:31 02.01.2022
3878 Haze 26 1017 47 4000 1.03 50 11:41 02.01.2022
3879 Haze 27 1017 44 4000 1.03 110 10:53 02.01.2022
3880 Haze 26 1018 47 4000 1.54 330 09:56 02.01.2022
3881 Haze 23 1020 56 3000 2.57 130 07:34 02.01.2022
3882 Mist 15 1020 100 2000 1.03 40 02:51 02.01.2022
3883 Mist 17 1019 77 2000 1.03 10 23:42 01.01.2022
3884 Mist 17 1019 77 2000 1.03 10 23:23 01.01.2022
3885 Mist 17 1019 77 2000 1.03 10 22:25 01.01.2022
3886 Mist 18 1019 72 2000 1.03 10 21:44 01.01.2022
3887 Mist 19 1020 72 2000 1.54 60 20:56 01.01.2022
3888 Mist 19 1020 72 2000 1.54 40 20:20 01.01.2022
3889 Mist 20 1020 73 2000 1.54 50 19:33 01.01.2022
3890 Mist 20 1020 73 2000 1.03 30 18:29 01.01.2022
3891 Mist 20 1020 73 2500 1.03 170 16:55 01.01.2022
3892 Haze 21 1020 68 2500 1.54 60 16:34 01.01.2022
3893 Haze 21 1020 68 2500 1.03 90 15:33 01.01.2022
3894 Haze 22 1019 64 2000 1.03 70 14:22 01.01.2022
3895 Haze 23 1018 60 2000 1.03 90 13:28 01.01.2022
3896 Haze 25 1018 53 3000 1.03 0 11:59 01.01.2022
3897 Haze 26 1018 47 3000 1.03 0 11:24 01.01.2022
3898 Haze 26 1018 47 3000 1.03 0 10:43 01.01.2022
3899 Haze 25 1019 50 4000 1.54 360 09:47 01.01.2022
3900 Haze 24 1021 53 4000 2.57 140 08:27 01.01.2022
3901 Haze 24 1021 53 4000 2.06 100 07:56 01.01.2022
3902 Haze 24 1021 53 4000 2.06 100 07:37 01.01.2022
3903 Haze 22 1022 56 4000 1.03 30 06:42 01.01.2022
3904 Haze 17 1023 67 2000 1.03 40 04:38 01.01.2022
3905 Mist 16 1022 72 2000 0 0 03:48 01.01.2022
3906 Mist 15 1021 72 2500 0 0 23:53 31.12.2021
3907 Mist 17 1021 77 2500 0 0 21:55 31.12.2021
3908 Mist 17 1021 77 2500 0 0 21:32 31.12.2021
3909 Mist 18 1022 88 2500 1.03 40 19:43 31.12.2021
3910 Mist 19 1022 77 2500 1.03 40 18:47 31.12.2021
3911 Mist 18 1022 82 2500 0 0 17:49 31.12.2021
3912 Mist 19 1022 82 2500 0 0 17:22 31.12.2021
3913 Mist 19 1022 77 2500 0 0 16:46 31.12.2021
3914 Haze 19 1021 82 2500 1.03 50 15:59 31.12.2021
3915 Haze 19 1021 82 2500 1.03 50 15:41 31.12.2021
3916 Haze 20 1021 77 2500 1.03 90 15:19 31.12.2021
3917 Haze 20 1021 77 2500 1.03 80 14:37 31.12.2021
3918 Haze 21 1020 73 3000 1.54 110 13:44 31.12.2021
3919 Haze 23 1019 60 3000 1.03 120 12:49 31.12.2021
3920 Haze 23 1019 60 3000 1.03 80 12:19 31.12.2021
3921 Haze 24 1019 57 3000 1.03 70 11:33 31.12.2021
3922 Haze 24 1020 53 3000 1.03 100 10:41 31.12.2021
3923 Haze 23 1020 60 3000 1.03 90 10:23 31.12.2021
3924 Haze 23 1020 56 3000 1.03 60 09:33 31.12.2021
3925 Mist 22 1021 60 3000 2.57 60 08:50 31.12.2021
3926 Mist 21 1022 68 3000 2.57 120 07:49 31.12.2021
3927 Mist 14 1021 88 2000 1.03 20 01:38 31.12.2021
3928 Mist 15 1021 88 2000 2.06 360 22:54 30.12.2021
3929 Mist 15 1021 88 2000 2.06 360 22:27 30.12.2021
3930 Mist 16 1022 82 2000 2.06 40 21:38 30.12.2021
3931 Clear 14 1020 66 10000 2.64 18 20:58 30.12.2021
3932 Clear 14 1020 66 10000 2.64 18 20:35 30.12.2021
3933 Mist 17 1023 94 2000 1.03 30 19:50 30.12.2021
3934 Mist 17 1023 94 2000 1.03 30 19:28 30.12.2021
3935 Mist 18 1022 100 2000 2.06 40 18:26 30.12.2021
3936 Mist 18 1022 100 2000 1.03 60 16:39 30.12.2021
3937 Mist 19 1021 82 2000 1.03 70 15:53 30.12.2021
3938 Mist 19 1021 82 2000 1.03 70 15:53 30.12.2021
3939 Mist 18 1021 82 2000 1.03 70 14:51 30.12.2021
3940 Mist 19 1020 77 2000 1.54 130 14:31 30.12.2021
3941 Mist 20 1019 68 2000 2.57 100 13:24 30.12.2021
3942 Haze 22 1019 64 2500 2.57 70 11:45 30.12.2021
3943 Haze 22 1019 60 2500 1.54 70 10:28 30.12.2021
3944 Haze 22 1020 60 2500 3.09 80 09:27 30.12.2021
3945 Mist 20 1023 68 2000 2.06 70 06:56 30.12.2021
3946 Mist 16 1023 88 1500 1.54 40 04:56 30.12.2021
3947 Mist 15 1022 100 1500 1.03 30 03:40 30.12.2021
3948 Mist 15 1020 100 1500 1.03 40 02:19 30.12.2021
3949 Haze 16 1019 88 2000 1.03 20 23:37 29.12.2021
3950 Haze 16 1019 82 2000 1.03 30 22:33 29.12.2021
3951 Haze 16 1020 88 2000 1.54 30 21:55 29.12.2021
3952 Haze 17 1020 82 2000 1.54 30 20:56 29.12.2021
3953 Haze 17 1020 82 2000 1.54 30 20:26 29.12.2021
3954 Haze 18 1020 77 2000 2.06 40 19:31 29.12.2021
3955 Mist 18 1020 72 2000 1.54 30 18:35 29.12.2021
3956 Mist 18 1020 77 2000 1.54 40 17:41 29.12.2021
3957 Mist 18 1020 77 2000 1.54 30 17:20 29.12.2021
3958 Mist 19 1019 77 2000 1.54 40 16:19 29.12.2021
3959 Mist 19 1018 88 2000 2.06 90 14:59 29.12.2021
3960 Haze 21 1016 73 2000 1.03 120 12:57 29.12.2021
3961 Haze 22 1015 68 2000 1.54 50 12:30 29.12.2021
3962 Haze 23 1016 60 2000 1.03 340 10:53 29.12.2021
3963 Mist 22 1017 64 1500 1.54 130 09:24 29.12.2021
3964 Mist 19 1019 100 1500 1.03 340 06:59 29.12.2021
3965 Mist 19 1019 100 1500 1.03 340 06:30 29.12.2021
3966 Mist 19 1019 100 1500 1.03 360 05:52 29.12.2021
3967 Mist 17 1018 100 1500 2.06 320 03:48 29.12.2021
3968 Mist 17 1015 100 2000 1.54 280 00:32 29.12.2021
3969 Mist 18 1015 94 2000 1.03 40 23:57 28.12.2021
3970 Mist 18 1015 94 2000 1.03 100 22:56 28.12.2021
3971 Mist 18 1015 94 2000 1.03 100 22:24 28.12.2021
3972 Mist 18 1016 94 2000 1.54 60 21:54 28.12.2021
3973 Mist 18 1016 94 2000 1.54 80 21:28 28.12.2021
3974 Mist 18 1016 100 2000 2.57 60 19:52 28.12.2021
3975 Mist 18 1017 100 2000 1.54 50 18:53 28.12.2021
3976 Mist 18 1017 100 2000 1.54 50 18:25 28.12.2021
3977 Mist 18 1017 100 2000 1.03 20 17:29 28.12.2021
3978 Mist 18 1016 100 2000 2.06 20 15:53 28.12.2021
3979 Clouds 18 1016 100 2000 1.03 120 15:29 28.12.2021
3980 Clouds 18 1016 100 1800 2.57 310 14:55 28.12.2021
3981 Clouds 18 1014 100 1800 5.14 310 14:22 28.12.2021
3982 Clouds 20 1014 100 1800 5.14 310 13:58 28.12.2021
3983 Clouds 20 1014 100 1800 5.14 310 13:37 28.12.2021
3984 Clouds 25 1012 65 1800 3.09 170 12:55 28.12.2021
3985 Haze 26 1012 57 2000 4.12 200 12:20 28.12.2021
3986 Haze 27 1013 54 2000 6.17 200 10:19 28.12.2021
3987 Fog 24 1017 78 1500 2.06 130 07:33 28.12.2021
3988 Fog 18 1018 100 25 1.03 70 03:35 28.12.2021
3989 Mist 18 1016 100 2000 1.54 340 23:39 27.12.2021
3990 Haze 19 1017 94 2000 0 0 22:21 27.12.2021
3991 Haze 19 1017 94 2000 0 0 21:30 27.12.2021
3992 Haze 18 1017 100 2000 0 0 20:39 27.12.2021
3993 Haze 19 1017 100 2000 0 0 19:48 27.12.2021
3994 Haze 19 1017 100 2000 0 0 19:27 27.12.2021
3995 Haze 20 1018 100 2500 0 0 17:51 27.12.2021
3996 Haze 21 1018 88 2500 1.03 90 17:28 27.12.2021
3997 Haze 21 1017 68 2500 0 0 15:56 27.12.2021
3998 Haze 21 1017 68 2500 1.03 90 15:19 27.12.2021
3999 Haze 23 1016 56 2500 1.03 130 14:22 27.12.2021
4000 Haze 26 1016 50 2500 1.03 110 12:56 27.12.2021
4001 Haze 27 1015 44 2500 3.6 180 10:56 27.12.2021
4002 Haze 27 1016 47 2500 1.54 40 10:27 27.12.2021
4003 Haze 27 1017 50 2500 1.03 320 09:19 27.12.2021
4004 Haze 25 1019 61 2500 1.54 80 07:34 27.12.2021
4005 Haze 23 1019 60 2500 2.57 120 06:29 27.12.2021
4006 Mist 15 1017 82 2000 1.03 360 01:52 27.12.2021
4007 Mist 17 1016 77 2500 1.03 360 23:49 26.12.2021
4008 Mist 17 1016 77 2500 1.03 360 23:19 26.12.2021
4009 Mist 18 1017 77 2500 1.54 320 21:37 26.12.2021
4010 Mist 17 1018 100 2500 0 0 19:55 26.12.2021
4011 Haze 18 1018 88 3000 0 0 18:46 26.12.2021
4012 Haze 18 1018 94 3000 0 0 18:22 26.12.2021
4013 Haze 20 1017 68 3000 0 0 15:53 26.12.2021
4014 Haze 23 1016 53 3000 1.03 110 13:51 26.12.2021
4015 Haze 24 1016 50 3500 1.54 120 13:32 26.12.2021
4016 Haze 26 1015 47 3500 1.03 100 12:37 26.12.2021
4017 Haze 26 1015 47 3500 1.03 100 12:37 26.12.2021
4018 Haze 27 1015 39 3500 1.54 50 11:24 26.12.2021
4019 Haze 27 1015 39 4000 1.54 220 09:35 26.12.2021
4020 Haze 27 1016 41 5000 1.54 70 08:50 26.12.2021
4021 Haze 26 1017 44 5000 1.03 130 08:27 26.12.2021
4022 Haze 22 1019 43 5000 2.06 50 05:59 26.12.2021
4023 Haze 16 1015 82 3000 0 0 00:43 26.12.2021
4024 Haze 15 1015 100 3000 0 0 23:48 25.12.2021
4025 Haze 15 1015 100 3000 0 0 22:39 25.12.2021
4026 Haze 15 1015 100 3000 0 0 22:20 25.12.2021
4027 Haze 17 1016 72 3000 0 0 20:27 25.12.2021
4028 Haze 19 1016 68 3000 1.03 20 19:19 25.12.2021
4029 Haze 20 1016 60 3000 1.03 300 18:39 25.12.2021
4030 Haze 19 1016 68 3000 1.03 320 16:50 25.12.2021
4031 Haze 21 1015 60 3000 1.03 50 15:38 25.12.2021
4032 Haze 22 1014 53 3000 0 0 14:23 25.12.2021
4033 Haze 26 1013 41 4000 1.54 120 12:40 25.12.2021
4034 Haze 28 1013 34 4000 0 0 10:49 25.12.2021
4035 Haze 28 1014 34 4000 1.54 360 09:49 25.12.2021
4036 Haze 26 1016 38 3500 2.57 70 07:28 25.12.2021
4037 Mist 15 1014 82 2500 0 0 01:45 25.12.2021
4038 Mist 15 1013 82 2500 0 0 00:23 25.12.2021
4039 Mist 16 1013 72 2500 1.03 330 22:26 24.12.2021
4040 Haze 18 1014 68 3000 1.03 340 19:29 24.12.2021
4041 Haze 19 1015 63 3000 1.03 340 18:57 24.12.2021
4042 Haze 21 1015 56 3000 1.03 320 16:49 24.12.2021
4043 Haze 20 1014 60 3000 1.03 140 15:52 24.12.2021
4044 Haze 21 1014 56 3000 1.03 120 15:32 24.12.2021
4045 Haze 23 1013 49 3000 1.03 110 14:35 24.12.2021
4046 Haze 24 1013 43 3000 1.03 120 13:59 24.12.2021
4047 Haze 25 1013 41 4000 2.57 150 13:32 24.12.2021
4048 Haze 27 1013 34 4000 2.57 150 12:47 24.12.2021
4049 Haze 29 1012 28 4000 3.09 180 11:46 24.12.2021
4050 Haze 29 1012 26 4000 3.09 180 11:24 24.12.2021
4051 Haze 29 1012 26 5000 2.57 200 10:45 24.12.2021
4052 Haze 29 1013 28 5000 2.57 220 09:25 24.12.2021
4053 Haze 27 1014 29 5000 1.54 150 08:19 24.12.2021
4054 Haze 26 1015 34 5000 1.03 210 07:44 24.12.2021
4055 Clear 16 1013 46 10000 1.05 12 00:48 24.12.2021
4056 Mist 14 1013 77 3000 1.03 360 23:54 23.12.2021
4057 Mist 14 1013 72 3000 0 0 22:54 23.12.2021
4058 Mist 14 1013 72 3000 0 0 22:27 23.12.2021
4059 Mist 14 1014 72 3000 0 0 21:59 23.12.2021
4060 Mist 15 1014 67 3000 1.03 320 20:54 23.12.2021
4061 Haze 15 1015 67 3000 1.03 330 19:39 23.12.2021
4062 Haze 17 1015 55 3000 0 0 18:32 23.12.2021
4063 Haze 17 1015 59 3000 0 0 17:47 23.12.2021
4064 Haze 17 1015 51 3000 0 0 16:40 23.12.2021
4065 Haze 18 1015 55 3000 0 0 16:20 23.12.2021
4066 Haze 19 1015 48 3000 1.03 90 15:31 23.12.2021
4067 Haze 20 1014 42 3000 1.54 90 14:42 23.12.2021
4068 Haze 20 1014 42 3000 1.54 90 14:42 23.12.2021
4069 Haze 21 1014 43 3000 1.03 160 14:19 23.12.2021
4070 Haze 27 1013 28 4000 1.03 130 12:39 23.12.2021
4071 Haze 28 1013 21 4000 1.54 40 10:41 23.12.2021
4072 Haze 28 1013 21 4000 1.03 120 09:34 23.12.2021
4073 Haze 27 1014 24 4000 1.54 90 08:58 23.12.2021
4074 Haze 22 1018 35 3000 1.03 90 06:23 23.12.2021
4075 Haze 10 1016 76 3000 0 0 03:28 23.12.2021
4076 Haze 12 1014 71 3000 1.03 20 22:54 22.12.2021
4077 Haze 12 1014 71 3000 1.03 20 22:23 22.12.2021
4078 Haze 14 1015 67 3000 1.03 340 21:53 22.12.2021
4079 Haze 14 1015 67 3000 1.03 340 21:27 22.12.2021
4080 Haze 14 1015 67 3000 0 0 20:41 22.12.2021
4081 Haze 14 1015 62 3000 1.03 340 19:59 22.12.2021
4082 Haze 14 1016 58 3000 1.03 320 18:57 22.12.2021
4083 Haze 16 1016 51 3000 1.03 340 17:39 22.12.2021
4084 Haze 18 1015 45 3000 1.03 130 16:34 22.12.2021
4085 Haze 17 1015 48 3000 1.03 100 15:24 22.12.2021
4086 Haze 26 1013 25 3000 1.03 90 12:59 22.12.2021
4087 Haze 26 1013 25 4000 1.03 90 12:19 22.12.2021
4088 Haze 26 1014 24 5000 1.03 70 09:53 22.12.2021
4089 Haze 26 1014 22 5000 1.03 120 09:31 22.12.2021
4090 Haze 24 1017 23 5000 1.03 200 07:22 22.12.2021
4091 Haze 20 1019 37 4000 2.06 140 05:40 22.12.2021
4092 Haze 19 1018 42 4000 0 0 05:21 22.12.2021
4093 Haze 18 1018 45 4000 1.03 60 04:43 22.12.2021
4094 Haze 14 1018 62 4000 0 0 03:56 22.12.2021
4095 Haze 10 1017 76 3000 0 0 03:31 22.12.2021
4096 Haze 9 1015 76 2500 1.03 330 23:57 21.12.2021
4097 Haze 10 1016 66 2500 0 0 22:49 21.12.2021
4098 Haze 10 1016 66 2500 0 0 22:27 21.12.2021
4099 Haze 12 1017 58 2500 0 0 21:43 21.12.2021
4100 Haze 12 1018 62 2500 0 0 20:53 21.12.2021
4101 Haze 12 1018 62 2500 0 0 20:20 21.12.2021
4102 Haze 13 1018 62 2500 0 0 19:41 21.12.2021
4103 Haze 15 1018 47 2500 0 0 18:36 21.12.2021
4104 Haze 15 1018 47 3000 0 0 17:59 21.12.2021
4105 Haze 15 1018 47 3000 0 0 17:40 21.12.2021
4106 Haze 16 1018 44 3000 0 0 15:46 21.12.2021
4107 Haze 17 1017 34 4000 0 0 14:59 21.12.2021
4108 Haze 19 1016 32 4000 1.03 110 13:44 21.12.2021
4109 Haze 24 1016 23 5000 0 0 12:58 21.12.2021
4110 Haze 26 1016 17 5000 0 0 10:53 21.12.2021
4111 Haze 25 1017 19 5000 1.03 110 09:57 21.12.2021
4112 Haze 25 1017 18 5000 1.03 300 09:18 21.12.2021
4113 Haze 23 1019 21 5000 2.06 70 07:45 21.12.2021
4114 Haze 22 1020 23 5000 2.57 70 07:24 21.12.2021
4115 Haze 17 1020 36 4000 1.54 50 04:48 21.12.2021
4116 Haze 8 1018 66 2500 0 0 02:39 21.12.2021
4117 Haze 10 1017 53 3000 0 0 23:57 20.12.2021
4118 Haze 11 1017 58 3000 1.54 330 22:48 20.12.2021
4119 Haze 11 1017 54 3000 2.57 330 22:27 20.12.2021
4120 Haze 11 1018 54 3000 1.54 330 21:28 20.12.2021
4121 Haze 12 1018 58 3000 1.03 340 20:57 20.12.2021
4122 Haze 12 1018 58 3000 1.03 350 20:32 20.12.2021
4123 Haze 12 1018 54 3000 1.54 350 19:38 20.12.2021
4124 Haze 13 1018 50 3000 2.06 320 19:20 20.12.2021
4125 Haze 12 1019 47 3000 2.06 330 18:33 20.12.2021
4126 Haze 12 1019 50 3500 1.03 330 17:51 20.12.2021
4127 Haze 13 1019 44 4000 1.03 80 16:47 20.12.2021
4128 Haze 13 1019 47 4000 1.03 70 16:25 20.12.2021
4129 Haze 13 1018 38 4000 1.03 50 15:40 20.12.2021
4130 Haze 17 1018 27 4000 0 0 14:26 20.12.2021
4131 Haze 24 1017 15 5000 0 0 12:40 20.12.2021
4132 Haze 24 1017 15 5000 2.06 100 10:50 20.12.2021
4133 Haze 24 1018 14 5000 2.06 100 09:40 20.12.2021
4134 Haze 23 1019 18 5000 2.06 150 08:50 20.12.2021
4135 Haze 22 1020 18 5000 1.03 320 08:32 20.12.2021
4136 Haze 21 1021 21 5000 2.57 100 07:38 20.12.2021
4137 Haze 20 1022 26 5000 1.54 80 06:39 20.12.2021
4138 Haze 10 1019 53 3000 0 0 00:26 20.12.2021
4139 Haze 10 1019 57 3000 1.03 330 22:58 19.12.2021
4140 Haze 10 1019 57 3000 1.03 330 22:40 19.12.2021
4141 Haze 10 1020 57 3000 0 0 21:32 19.12.2021
4142 Haze 10 1020 57 3000 0 0 20:44 19.12.2021
4143 Haze 10 1020 57 3000 0 0 20:23 19.12.2021
4144 Haze 14 1020 41 3000 0 0 19:42 19.12.2021
4145 Haze 15 1020 38 3000 1.03 20 18:46 19.12.2021
4146 Haze 17 1020 34 3000 0 0 17:54 19.12.2021
4147 Haze 17 1020 34 3000 0 0 17:34 19.12.2021
4148 Haze 17 1020 39 3000 0 0 16:41 19.12.2021
4149 Haze 16 1020 55 3000 0 0 15:56 19.12.2021
4150 Haze 18 1019 45 3000 0 0 15:24 19.12.2021
4151 Haze 18 1019 45 3000 1.03 80 14:45 19.12.2021
4152 Haze 21 1018 40 3000 1.03 60 13:32 19.12.2021
4153 Haze 23 1017 35 3000 1.03 70 12:59 19.12.2021
4154 Haze 24 1017 33 4000 1.03 100 12:31 19.12.2021
4155 Haze 24 1018 29 4000 1.03 50 11:38 19.12.2021
4156 Clear 24 1015 14 10000 2.35 11 10:50 19.12.2021
4157 Clear 24 1016 14 10000 2.65 16 10:22 19.12.2021
4158 Haze 22 1020 26 5000 3.09 350 08:50 19.12.2021
4159 Haze 19 1022 30 5000 2.06 50 06:51 19.12.2021
4160 Haze 14 1020 47 2000 1.03 40 01:52 19.12.2021
4161 Haze 15 1019 51 2000 2.06 40 00:54 19.12.2021
4162 Haze 15 1019 55 2000 1.03 10 23:18 18.12.2021
4163 Haze 16 1019 51 2000 1.03 10 22:24 18.12.2021
4164 Haze 17 1019 48 2500 1.03 10 21:44 18.12.2021
4165 Haze 17 1019 48 2500 1.03 10 21:25 18.12.2021
4166 Haze 17 1019 48 2500 1.03 10 20:26 18.12.2021
4167 Haze 18 1019 45 2500 1.54 10 19:38 18.12.2021
4168 Haze 19 1020 42 2500 1.54 20 18:25 18.12.2021
4169 Haze 19 1020 45 2500 1.54 20 17:49 18.12.2021
4170 Haze 20 1019 45 2500 2.06 20 16:48 18.12.2021
4171 Haze 21 1019 52 2500 2.06 30 16:20 18.12.2021
4172 Haze 21 1017 56 2500 1.03 50 14:54 18.12.2021
4173 Haze 22 1017 53 2500 1.03 70 13:45 18.12.2021
4174 Haze 26 1016 38 2500 1.54 50 11:57 18.12.2021
4175 Haze 26 1016 38 2500 1.54 50 11:57 18.12.2021
4176 Haze 26 1017 38 3000 2.06 80 09:54 18.12.2021
4177 Haze 25 1017 41 3000 1.54 20 09:31 18.12.2021
4178 Haze 25 1019 41 3000 2.57 50 08:36 18.12.2021
4179 Haze 21 1021 52 3000 1.54 50 06:28 18.12.2021
4180 Haze 17 1017 77 2000 0 0 01:45 18.12.2021
4181 Haze 17 1017 72 2000 0 0 23:49 17.12.2021
4182 Haze 17 1017 72 2000 0 0 22:39 17.12.2021
4183 Haze 17 1018 72 2000 0 0 21:31 17.12.2021
4184 Haze 17 1018 72 2000 0 0 20:43 17.12.2021
4185 Haze 18 1018 68 2000 0 0 19:56 17.12.2021
4186 Haze 18 1019 68 2000 1.54 310 18:39 17.12.2021
4187 Haze 18 1019 63 2500 0 0 17:50 17.12.2021
4188 Haze 19 1018 59 2500 0 0 16:51 17.12.2021
4189 Haze 19 1018 59 2500 0 0 16:27 17.12.2021
4190 Haze 19 1018 59 2500 1.03 90 15:38 17.12.2021
4191 Haze 20 1017 56 2500 0 0 14:42 17.12.2021
4192 Haze 22 1017 49 2500 0 0 13:45 17.12.2021
4193 Haze 25 1016 38 3000 1.03 40 12:36 17.12.2021
4194 Haze 27 1016 32 3000 1.54 30 10:42 17.12.2021
4195 Haze 27 1017 34 3000 2.06 110 09:47 17.12.2021
4196 Haze 25 1019 38 3000 1.03 120 08:32 17.12.2021
4197 Haze 25 1020 41 3000 1.54 140 07:30 17.12.2021
4198 Mist 18 1021 68 2500 0 0 04:40 17.12.2021
4199 Haze 14 1018 94 2500 0 0 00:22 17.12.2021
4200 Haze 16 1018 77 2500 1.54 10 22:25 16.12.2021
4201 Haze 17 1018 67 2500 1.03 350 21:51 16.12.2021
4202 Haze 17 1018 67 2500 1.03 350 21:33 16.12.2021
4203 Haze 17 1018 63 3000 1.54 340 20:39 16.12.2021
4204 Haze 16 1018 67 3000 1.03 320 19:51 16.12.2021
4205 Haze 17 1019 63 3000 1.03 110 18:42 16.12.2021
4206 Haze 17 1019 67 3000 1.03 100 18:22 16.12.2021
4207 Haze 18 1019 63 3000 0 0 17:35 16.12.2021
4208 Haze 18 1018 63 3000 1.54 90 16:23 16.12.2021
4209 Haze 20 1018 52 3000 1.03 110 15:22 16.12.2021
4210 Haze 22 1017 46 2500 1.03 110 13:44 16.12.2021
4211 Haze 26 1015 34 4000 1.54 40 11:48 16.12.2021
4212 Haze 27 1015 32 4000 1.54 110 11:18 16.12.2021
4213 Haze 27 1016 29 4000 1.54 100 10:32 16.12.2021
4214 Haze 26 1017 34 4000 2.57 140 09:39 16.12.2021
4215 Haze 24 1021 43 2000 2.06 110 06:23 16.12.2021
4216 Mist 13 1019 100 1800 0 0 03:19 16.12.2021
4217 Mist 15 1017 100 2000 0 0 23:36 15.12.2021
4218 Mist 15 1017 94 2000 0 0 22:49 15.12.2021
4219 Mist 15 1017 94 2000 0 0 22:19 15.12.2021
4220 Mist 15 1017 82 2000 0 0 21:31 15.12.2021
4221 Mist 16 1017 72 2000 0 0 20:32 15.12.2021
4222 Mist 17 1017 67 2000 0 0 19:53 15.12.2021
4223 Haze 17 1018 67 2500 1.03 340 18:40 15.12.2021
4224 Haze 17 1018 67 2500 0 0 17:57 15.12.2021
4225 Haze 18 1018 63 3000 0 0 17:39 15.12.2021
4226 Haze 18 1017 63 3000 0 0 16:35 15.12.2021
4227 Haze 20 1017 56 3000 1.03 100 15:47 15.12.2021
4228 Haze 20 1017 56 3000 1.03 100 15:47 15.12.2021
4229 Haze 19 1017 59 3000 2.06 100 15:29 15.12.2021
4230 Haze 21 1016 52 2500 1.03 120 14:43 15.12.2021
4231 Haze 24 1016 43 3000 1.54 100 12:52 15.12.2021
4232 Haze 27 1015 34 3000 1.54 130 10:49 15.12.2021
4233 Haze 26 1017 38 3000 1.54 90 09:28 15.12.2021
4234 Haze 25 1018 41 3000 1.54 140 07:44 15.12.2021
4235 Mist 15 1017 100 2000 1.03 330 01:39 15.12.2021
4236 Mist 16 1017 88 2000 1.03 340 23:42 14.12.2021
4237 Mist 15 1016 77 2000 1.03 280 22:49 14.12.2021
4238 Mist 15 1016 77 2000 1.03 280 22:49 14.12.2021
4239 Mist 15 1016 77 2000 1.03 280 22:25 14.12.2021
4240 Mist 16 1017 77 2000 1.03 320 20:57 14.12.2021
4241 Mist 17 1017 72 2000 1.03 320 19:44 14.12.2021
4242 Mist 18 1018 68 2000 1.03 40 19:44 14.12.2021
4243 Mist 18 1018 68 2000 1.03 40 19:20 14.12.2021
4244 Haze 17 1018 67 3000 1.03 300 18:29 14.12.2021
4245 Haze 17 1018 67 3000 0 0 17:33 14.12.2021
4246 Haze 19 1017 59 3000 0 0 16:42 14.12.2021
4247 Haze 21 1017 49 3000 0 0 15:36 14.12.2021
4248 Haze 24 1015 41 3000 1.03 60 13:31 14.12.2021
4249 Haze 26 1015 36 4000 1.54 70 12:21 14.12.2021
4250 Haze 27 1015 34 4000 1.54 50 11:24 14.12.2021
4251 Haze 27 1015 32 4000 1.03 310 10:24 14.12.2021
4252 Haze 27 1015 32 4000 1.54 350 09:51 14.12.2021
4253 Haze 26 1017 36 3500 2.06 60 08:28 14.12.2021
4254 Haze 26 1018 38 3500 1.03 80 07:43 14.12.2021
4255 Haze 23 1019 49 3000 2.06 90 05:35 14.12.2021
4256 Haze 16 1016 77 2500 0 0 22:59 13.12.2021
4257 Haze 16 1017 77 2500 0 0 21:53 13.12.2021
4258 Haze 16 1017 77 2500 0 0 21:33 13.12.2021
4259 Haze 15 1017 72 2500 0 0 20:43 13.12.2021
4260 Haze 16 1017 67 2500 1.03 320 19:53 13.12.2021
4261 Haze 18 1017 59 2500 1.03 320 19:19 13.12.2021
4262 Haze 18 1018 55 3000 1.03 90 17:26 13.12.2021
4263 Haze 18 1017 59 3000 0 0 15:56 13.12.2021
4264 Haze 18 1017 59 3000 0 0 15:38 13.12.2021
4265 Haze 22 1016 43 3000 1.03 100 13:47 13.12.2021
4266 Haze 26 1016 34 4000 1.03 60 12:59 13.12.2021
4267 Haze 27 1015 32 4000 1.03 30 11:59 13.12.2021
4268 Haze 27 1015 32 4000 1.03 30 11:35 13.12.2021
4269 Haze 27 1015 32 4000 1.03 50 10:47 13.12.2021
4270 Haze 27 1017 32 4000 2.06 90 09:41 13.12.2021
4271 Haze 26 1019 38 3500 1.03 150 07:53 13.12.2021
4272 Mist 21 1020 56 2500 1.54 20 05:36 13.12.2021
4273 Mist 15 1019 88 2500 0 0 03:28 13.12.2021
4274 Haze 16 1017 77 3000 1.03 10 23:26 12.12.2021
4275 Haze 17 1018 72 3000 1.54 330 21:41 12.12.2021
4276 Haze 19 1018 63 3000 1.03 30 20:18 12.12.2021
4277 Haze 17 1019 72 3000 0 0 18:43 12.12.2021
4278 Haze 19 1019 59 3000 1.54 90 17:38 12.12.2021
4279 Haze 19 1019 63 3000 1.03 100 16:28 12.12.2021
4280 Haze 19 1018 63 3000 1.03 120 15:46 12.12.2021
4281 Haze 21 1018 56 3000 1.03 80 15:25 12.12.2021
4282 Haze 21 1018 52 3000 1.03 10 14:34 12.12.2021
4283 Haze 24 1017 43 3000 1.03 50 13:26 12.12.2021
4284 Haze 27 1016 34 3000 1.03 50 12:30 12.12.2021
4285 Haze 27 1016 34 4000 1.03 60 11:44 12.12.2021
4286 Haze 28 1016 34 4000 1.03 350 11:22 12.12.2021
4287 Haze 27 1017 34 4000 1.03 50 10:22 12.12.2021
4288 Haze 28 1017 32 4000 1.03 20 09:38 12.12.2021
4289 Haze 26 1020 38 4000 2.57 110 07:57 12.12.2021
4290 Haze 23 1021 43 3000 2.06 40 05:57 12.12.2021
4291 Haze 21 1021 52 2500 1.03 90 04:56 12.12.2021
4292 Mist 16 1020 77 2000 0 0 03:27 12.12.2021
4293 Mist 17 1018 72 2500 0 0 23:44 11.12.2021
4294 Mist 18 1019 68 2500 0 0 22:22 11.12.2021
4295 Mist 18 1019 68 2500 0 0 21:51 11.12.2021
4296 Mist 19 1019 68 2500 0 0 20:51 11.12.2021
4297 Mist 20 1019 68 2500 0 0 19:23 11.12.2021
4298 Haze 20 1020 68 2500 0 0 18:52 11.12.2021
4299 Haze 20 1020 68 2500 1.03 360 18:21 11.12.2021
4300 Haze 19 1020 68 2500 0 0 17:20 11.12.2021
4301 Haze 19 1019 68 2500 0 0 15:53 11.12.2021
4302 Haze 20 1019 64 2500 1.03 90 15:27 11.12.2021
4303 Haze 25 1017 47 3000 1.03 70 12:50 11.12.2021
4304 Haze 27 1016 41 3500 1.54 60 11:25 11.12.2021
4305 Haze 28 1017 39 3500 1.03 60 09:45 11.12.2021
4306 Haze 27 1019 39 4000 2.06 90 08:23 11.12.2021
4307 Haze 18 1019 68 2000 0 0 02:23 11.12.2021
4308 Haze 20 1017 64 2000 1.03 360 23:58 10.12.2021
4309 Haze 20 1017 64 2000 1.03 360 23:20 10.12.2021
4310 Haze 20 1018 68 2000 1.54 70 21:56 10.12.2021
4311 Haze 21 1019 68 2000 1.03 10 20:57 10.12.2021
4312 Mist 21 1019 68 2000 2.06 360 19:21 10.12.2021
4313 Haze 19 1019 72 2500 0 0 18:19 10.12.2021
4314 Haze 20 1019 68 2500 0 0 16:56 10.12.2021
4315 Haze 21 1019 68 2500 0 0 16:28 10.12.2021
4316 Haze 21 1019 64 2500 1.07 7 15:40 10.12.2021
4317 Haze 22 1018 60 2500 0.36 158 15:21 10.12.2021
4318 Haze 24 1017 50 2500 1.03 40 13:51 10.12.2021
4319 Haze 25 1017 47 2500 0 0 13:26 10.12.2021
4320 Haze 26 1017 44 2500 0 0 12:36 10.12.2021
4321 Haze 28 1016 39 3000 0 0 11:28 10.12.2021
4322 Haze 28 1017 42 3000 1.54 50 10:26 10.12.2021
4323 Haze 28 1018 51 3000 1.54 110 08:52 10.12.2021
4324 Haze 25 1020 61 2500 1.03 80 06:50 10.12.2021
4325 Mist 18 1019 100 1500 1.03 20 02:48 10.12.2021
4326 Haze 18 1018 77 2500 1.03 330 00:32 10.12.2021
4327 Haze 19 1018 77 2500 1.03 50 23:20 09.12.2021
4328 Haze 20 1018 73 2500 1.54 10 22:24 09.12.2021
4329 Haze 21 1018 68 2500 1.54 10 21:59 09.12.2021
4330 Haze 21 1018 68 2500 1.03 20 20:44 09.12.2021
4331 Haze 21 1019 64 2500 1.54 40 20:21 09.12.2021
4332 Haze 20 1019 68 2500 1.03 50 19:21 09.12.2021
4333 Haze 19 1019 72 2500 1.03 40 18:46 09.12.2021
4334 Haze 19 1019 72 2500 1.03 310 17:51 09.12.2021
4335 Haze 19 1019 68 2500 0 0 17:25 09.12.2021
4336 Haze 20 1019 68 2500 1.03 70 16:53 09.12.2021
4337 Haze 23 1018 56 2500 1.03 40 15:32 09.12.2021
4338 Haze 22 1018 60 2500 0 0 14:46 09.12.2021
4339 Haze 26 1017 41 2500 0 0 13:20 09.12.2021
4340 Haze 27 1017 39 2500 1.03 30 12:37 09.12.2021
4341 Haze 29 1016 34 3000 1.54 10 11:21 09.12.2021
4342 Haze 29 1018 37 3000 1.03 80 08:54 09.12.2021
4343 Haze 26 1020 53 2500 1.54 100 06:21 09.12.2021
4344 Haze 20 1018 73 2000 0 0 02:58 09.12.2021
4345 Haze 20 1016 73 2000 1.03 70 23:43 08.12.2021
4346 Haze 20 1016 73 2000 1.03 70 23:21 08.12.2021
4347 Haze 21 1016 68 2000 1.03 10 22:46 08.12.2021
4348 Haze 20 1017 73 2000 1.03 10 21:40 08.12.2021
4349 Haze 20 1017 73 2000 1.54 340 20:59 08.12.2021
4350 Haze 19 1017 72 2000 1.03 170 19:58 08.12.2021
4351 Haze 19 1017 72 2000 1.03 170 19:58 08.12.2021
4352 Haze 19 1017 72 2000 1.03 170 19:58 08.12.2021
4353 Haze 19 1017 72 2000 1.03 170 19:33 08.12.2021
4354 Haze 20 1017 73 2000 0 0 18:40 08.12.2021
4355 Haze 20 1018 73 2000 0 0 17:34 08.12.2021
4356 Haze 21 1017 64 2500 0 0 15:47 08.12.2021
4357 Haze 22 1017 60 2500 1.03 70 15:26 08.12.2021
4358 Haze 23 1016 56 2500 1.03 60 14:28 08.12.2021
4359 Haze 29 1015 39 3000 1.54 110 10:54 08.12.2021
4360 Haze 29 1015 39 3000 1.54 100 10:28 08.12.2021
4361 Haze 28 1016 47 2500 2.06 100 08:54 08.12.2021
4362 Haze 26 1018 53 2500 2.57 90 07:21 08.12.2021
4363 Mist 19 1017 77 2000 3.06 31 01:40 08.12.2021
4364 Mist 19 1015 77 2000 1.03 20 23:33 07.12.2021
4365 Mist 20 1016 73 2000 0 0 21:40 07.12.2021
4366 Mist 20 1016 73 2000 0 0 21:18 07.12.2021
4367 Mist 20 1016 73 2000 0 0 20:19 07.12.2021
4368 Haze 22 1017 68 2500 1.03 360 18:42 07.12.2021
4369 Haze 22 1017 64 2500 1.03 50 17:27 07.12.2021
4370 Haze 22 1017 64 2500 0 0 16:58 07.12.2021
4371 Haze 22 1017 68 2500 0 0 16:28 07.12.2021
4372 Haze 24 1016 57 2500 0 0 14:57 07.12.2021
4373 Haze 25 1015 53 2500 0 0 13:49 07.12.2021
4374 Haze 27 1014 47 2500 1.03 40 12:49 07.12.2021
4375 Haze 29 1014 39 3000 1.03 60 11:25 07.12.2021
4376 Haze 29 1015 42 2500 1.03 310 09:55 07.12.2021
4377 Haze 27 1017 47 2500 2.06 90 07:55 07.12.2021
4378 Haze 24 1019 60 2000 2.06 10 05:55 07.12.2021
4379 Haze 23 1019 64 2000 1.03 10 05:30 07.12.2021
4380 Haze 20 1015 73 2500 2.57 10 23:45 06.12.2021
4381 Haze 21 1015 68 2500 1.03 20 22:44 06.12.2021
4382 Haze 21 1015 68 2500 1.03 20 22:22 06.12.2021
4383 Haze 21 1015 68 2500 1.03 350 21:42 06.12.2021
4384 Haze 22 1016 64 2500 2.06 340 20:33 06.12.2021
4385 Haze 22 1016 60 2500 1.03 360 19:27 06.12.2021
4386 Haze 23 1016 56 2500 1.03 10 18:57 06.12.2021
4387 Haze 23 1016 56 2500 1.03 350 17:56 06.12.2021
4388 Haze 22 1016 64 2500 1.03 350 17:36 06.12.2021
4389 Haze 23 1015 60 2500 1.03 320 16:21 06.12.2021
4390 Haze 23 1014 56 2500 0 0 14:54 06.12.2021
4391 Haze 26 1013 47 2500 1.03 40 13:45 06.12.2021
4392 Haze 26 1013 47 2500 1.03 40 13:45 06.12.2021
4393 Haze 28 1013 42 2500 1.03 30 12:39 06.12.2021
4394 Haze 30 1013 37 3000 1.54 40 10:31 06.12.2021
4395 Haze 28 1015 44 2500 1.03 40 07:59 06.12.2021
4396 Mist 20 1016 77 2000 0 0 03:52 06.12.2021
4397 Haze 18 1014 82 2500 0 0 22:28 05.12.2021
4398 Haze 19 1014 77 2500 0 0 21:26 05.12.2021
4399 Haze 20 1014 73 2500 0 0 20:59 05.12.2021
4400 Haze 20 1014 73 2500 0 0 20:18 05.12.2021
4401 Haze 21 1015 73 2500 0 0 19:33 05.12.2021
4402 Haze 20 1015 73 2500 0 0 18:39 05.12.2021
4403 Haze 20 1015 73 2500 0 0 18:18 05.12.2021
4404 Haze 20 1015 73 2500 0 0 17:45 05.12.2021
4405 Haze 21 1015 68 2500 0 0 16:41 05.12.2021
4406 Haze 21 1015 64 2500 0 0 16:22 05.12.2021
4407 Haze 22 1014 64 2500 0 0 14:48 05.12.2021
4408 Haze 23 1013 56 2500 0 0 14:30 05.12.2021
4409 Haze 26 1013 44 2500 0 0 13:38 05.12.2021
4410 Haze 27 1013 44 2500 0 0 12:47 05.12.2021
4411 Haze 29 1012 39 2500 0 0 12:29 05.12.2021
4412 Haze 29 1012 39 2500 1.03 40 11:47 05.12.2021
4413 Haze 28 1013 42 2500 2.57 350 10:44 05.12.2021
4414 Haze 29 1013 39 2500 2.06 10 09:52 05.12.2021
4415 Haze 26 1016 50 2500 3.09 100 07:33 05.12.2021
4416 Mist 17 1016 82 1500 1.03 320 02:25 05.12.2021
4417 Haze 19 1015 68 2500 0 0 23:25 04.12.2021
4418 Haze 20 1015 68 2500 1.03 10 21:53 04.12.2021
4419 Haze 20 1016 73 2500 0 0 20:47 04.12.2021
4420 Haze 20 1016 68 2500 1.03 10 19:54 04.12.2021
4421 Haze 21 1016 64 2500 1.03 10 19:31 04.12.2021
4422 Haze 20 1016 73 2500 1.03 340 17:58 04.12.2021
4423 Haze 20 1016 73 2500 1.03 340 17:36 04.12.2021
4424 Haze 21 1015 64 2500 1.03 10 16:48 04.12.2021
4425 Haze 21 1015 64 2500 1.03 10 16:29 04.12.2021
4426 Haze 24 1014 50 2000 1.03 50 14:23 04.12.2021
4427 Haze 28 1013 36 2500 2.57 10 11:45 04.12.2021
4428 Haze 29 1013 34 2500 1.03 60 11:25 04.12.2021
4429 Haze 28 1013 36 2500 1.03 70 10:42 04.12.2021
4430 Haze 28 1014 42 2000 2.06 360 08:42 04.12.2021
4431 Mist 24 1017 53 2000 2.06 50 05:47 04.12.2021
4432 Mist 22 1017 60 1800 0 0 04:41 04.12.2021
4433 Haze 19 1014 72 2000 1.03 20 23:49 03.12.2021
4434 Haze 20 1014 64 2000 1.54 10 22:56 03.12.2021
4435 Haze 20 1015 64 2000 2.57 10 22:00 03.12.2021
4436 Haze 20 1015 64 2000 2.57 10 21:25 03.12.2021
4437 Haze 21 1015 60 2000 1.03 30 20:43 03.12.2021
4438 Haze 21 1016 64 2500 2.57 20 19:36 03.12.2021
4439 Haze 21 1017 64 2500 0 0 18:26 03.12.2021
4440 Haze 22 1017 60 2500 0 0 17:44 03.12.2021
4441 Haze 23 1016 56 2500 1.03 10 14:20 03.12.2021
4442 Haze 25 1015 47 2500 1.03 10 12:52 03.12.2021
4443 Haze 26 1015 44 2500 1.03 20 11:24 03.12.2021
4444 Haze 25 1015 47 2500 1.03 10 09:55 03.12.2021
4445 Haze 24 1016 50 2500 1.03 40 08:23 03.12.2021
4446 Haze 23 1018 53 2000 2.06 50 07:29 03.12.2021
4447 Haze 19 1015 59 3000 1.03 100 01:51 03.12.2021
4448 Haze 19 1014 63 3000 1.03 10 00:43 03.12.2021
4449 Haze 20 1014 60 3000 1.03 50 23:42 02.12.2021
4450 Haze 20 1015 64 3000 2.06 10 21:42 02.12.2021
4451 Haze 19 1015 68 3000 0 0 20:56 02.12.2021
4452 Haze 19 1015 68 3000 0 0 20:35 02.12.2021
4453 Haze 19 1015 68 3000 0 0 20:35 02.12.2021
4454 Haze 19 1015 68 3000 1.03 320 19:24 02.12.2021
4455 Haze 20 1016 60 3000 0 0 17:36 02.12.2021
4456 Haze 21 1015 56 3000 0 0 15:42 02.12.2021
4457 Haze 23 1014 46 3000 1.03 50 14:58 02.12.2021
4458 Haze 24 1013 43 3000 1.03 100 13:56 02.12.2021
4459 Haze 26 1013 38 3000 1.54 100 12:52 02.12.2021
4460 Haze 27 1013 36 4000 2.57 70 11:56 02.12.2021
4461 Haze 27 1014 36 4000 2.06 110 09:34 02.12.2021
4462 Haze 27 1015 34 4000 3.09 130 08:35 02.12.2021
4463 Haze 18 1017 68 2000 1.03 360 03:39 02.12.2021
4464 Haze 18 1014 63 2500 1.03 10 00:51 02.12.2021
4465 Haze 18 1014 68 2500 0 0 22:52 01.12.2021
4466 Haze 18 1014 68 2500 0 0 22:23 01.12.2021
4467 Haze 19 1016 68 2500 0 0 20:36 01.12.2021
4468 Haze 19 1016 68 2500 1.54 340 19:53 01.12.2021
4469 Haze 19 1016 68 2500 1.54 340 19:25 01.12.2021
4470 Haze 18 1016 63 3000 0 0 17:45 01.12.2021
4471 Haze 18 1016 63 3000 0 0 17:45 01.12.2021
4472 Haze 19 1016 63 3000 0 0 16:40 01.12.2021
4473 Haze 22 1015 49 3000 0 0 14:50 01.12.2021
4474 Haze 23 1013 43 3000 1.03 70 13:44 01.12.2021
4475 Haze 27 1013 34 3000 1.03 50 12:30 01.12.2021
4476 Haze 28 1013 32 3000 2.06 70 10:42 01.12.2021
4477 Haze 27 1015 34 3000 2.57 40 08:58 01.12.2021
4478 Haze 27 1015 34 3000 3.09 80 08:26 01.12.2021
4479 Haze 26 1017 41 3000 1.54 70 07:33 01.12.2021
4480 Haze 23 1018 46 3000 2.06 90 05:51 01.12.2021
4481 Haze 17 1018 72 2500 1.03 10 03:41 01.12.2021
4482 Haze 17 1016 67 3000 1.03 360 00:52 01.12.2021
4483 Haze 17 1016 67 3000 1.03 360 23:45 30.11.2021
4484 Haze 17 1016 72 3000 1.03 320 22:49 30.11.2021
4485 Haze 19 1016 59 3000 1.03 340 21:28 30.11.2021
4486 Haze 19 1017 59 3000 1.03 10 20:37 30.11.2021
4487 Haze 19 1017 63 3000 1.03 40 19:53 30.11.2021
4488 Haze 19 1017 63 3000 1.03 330 19:30 30.11.2021
4489 Haze 19 1017 68 3000 1.03 320 18:35 30.11.2021
4490 Haze 21 1017 56 3000 0 0 16:35 30.11.2021
4491 Haze 22 1016 49 3000 0 0 14:58 30.11.2021
4492 Haze 23 1016 43 3000 0 0 14:19 30.11.2021
4493 Haze 24 1015 41 3000 1.03 130 13:25 30.11.2021
4494 Haze 25 1015 38 3000 1.03 120 12:45 30.11.2021
4495 Haze 26 1015 31 3000 1.54 220 11:27 30.11.2021
4496 Haze 26 1015 34 3000 1.54 90 10:53 30.11.2021
4497 Haze 26 1015 34 3000 1.54 100 10:30 30.11.2021
4498 Haze 27 1017 29 3500 2.06 70 08:51 30.11.2021
4499 Haze 26 1017 31 3500 1.54 100 08:20 30.11.2021
4500 Haze 25 1018 36 3500 2.06 90 07:47 30.11.2021
4501 Haze 12 1017 82 2000 1.03 160 02:29 30.11.2021
4502 Haze 14 1017 72 2500 1.03 50 01:40 30.11.2021
4503 Haze 17 1016 59 2500 1.03 20 23:57 29.11.2021
4504 Haze 17 1016 59 2500 1.03 20 23:23 29.11.2021
4505 Haze 17 1016 59 3000 1.03 20 22:52 29.11.2021
4506 Haze 17 1016 59 3000 1.03 20 22:32 29.11.2021
4507 Haze 17 1017 59 3000 1.03 20 21:23 29.11.2021
4508 Haze 18 1017 55 3000 1.03 340 20:57 29.11.2021
4509 Haze 18 1017 55 3000 1.03 340 20:29 29.11.2021
4510 Haze 16 1018 67 3000 0 0 19:54 29.11.2021
4511 Haze 16 1018 67 3000 0 0 19:33 29.11.2021
4512 Clouds 17 1017 45 10000 2.22 24 18:48 29.11.2021
4513 Clouds 19 1016 44 10000 2.2 20 17:22 29.11.2021
4514 Clouds 19 1016 44 10000 2.2 20 16:59 29.11.2021
4515 Clouds 20 1016 43 10000 1.56 46 16:29 29.11.2021
4516 Clouds 20 1016 43 10000 1.56 46 15:32 29.11.2021
4517 Clouds 20 1016 42 10000 1.65 87 14:42 29.11.2021
4518 Clouds 21 1015 40 10000 1.76 100 13:32 29.11.2021
4519 Clouds 26 1013 33 10000 1.72 100 12:28 29.11.2021
4520 Clouds 26 1013 33 10000 1.72 100 11:34 29.11.2021
4521 Clouds 28 1013 25 10000 2.05 71 10:32 29.11.2021
4522 Haze 28 1016 24 5000 1.54 60 09:24 29.11.2021
4523 Haze 24 1019 38 4000 2.06 60 06:19 29.11.2021
4524 Haze 15 1017 67 3000 1.03 350 01:38 29.11.2021
4525 Haze 14 1017 72 3000 1.03 340 00:38 29.11.2021
4526 Haze 15 1017 72 4000 1.03 350 23:43 28.11.2021
4527 Haze 15 1017 67 4000 1.03 310 22:42 28.11.2021
4528 Haze 16 1017 67 4000 1.03 360 21:41 28.11.2021
4529 Haze 16 1017 67 4000 1.03 360 21:19 28.11.2021
4530 Haze 18 1018 55 4000 0 0 19:58 28.11.2021
4531 Haze 18 1018 59 4000 1.03 320 18:45 28.11.2021
4532 Haze 17 1018 59 4000 1.03 320 18:27 28.11.2021
4533 Haze 17 1018 59 4000 1.03 320 17:49 28.11.2021
4534 Haze 18 1018 55 4000 1.03 320 17:30 28.11.2021
4535 Haze 18 1018 52 4000 1.03 180 16:28 28.11.2021
4536 Haze 18 1017 52 4000 0 0 15:53 28.11.2021
4537 Haze 22 1017 37 4000 1.03 60 14:57 28.11.2021
4538 Haze 22 1017 37 4000 1.03 60 14:35 28.11.2021
4539 Haze 26 1015 27 4000 1.03 60 12:58 28.11.2021
4540 Haze 27 1015 26 5000 2.06 80 12:29 28.11.2021
4541 Haze 28 1016 23 5000 1.54 60 10:53 28.11.2021
4542 Haze 29 1016 20 5000 1.54 50 10:20 28.11.2021
4543 Haze 29 1016 21 5000 2.06 50 09:36 28.11.2021
4544 Haze 25 1019 31 5000 2.57 80 06:29 28.11.2021
4545 Haze 16 1016 67 2500 0 0 23:33 27.11.2021
4546 Haze 17 1016 63 3000 1.03 330 20:33 27.11.2021
4547 Haze 19 1017 52 3000 1.03 330 18:49 27.11.2021
4548 Haze 20 1016 45 3000 0 0 16:31 27.11.2021
4549 Haze 20 1016 42 3000 0 0 15:32 27.11.2021
4550 Haze 23 1015 28 4000 1.03 90 13:47 27.11.2021
4551 Haze 27 1014 22 5000 1.03 90 12:29 27.11.2021
4552 Haze 29 1014 21 5000 1.03 70 10:32 27.11.2021
4553 Haze 29 1015 21 5000 2.06 110 09:43 27.11.2021
4554 Haze 28 1017 30 5000 2.06 60 07:44 27.11.2021
4555 Haze 22 1018 46 4000 1.54 50 04:57 27.11.2021
4556 Haze 15 1016 67 3000 1.03 320 01:53 27.11.2021
4557 Haze 17 1015 63 3000 0 0 23:35 26.11.2021
4558 Haze 18 1015 72 3000 1.03 10 22:25 26.11.2021
4559 Haze 18 1015 72 3000 1.03 10 22:25 26.11.2021
4560 Haze 17 1015 77 3000 1.03 320 21:35 26.11.2021
4561 Haze 17 1015 77 3000 1.54 330 20:46 26.11.2021
4562 Haze 17 1015 72 3000 1.03 280 20:18 26.11.2021
4563 Haze 18 1015 68 3000 1.03 320 19:47 26.11.2021
4564 Haze 20 1016 60 3000 0 0 17:57 26.11.2021
4565 Haze 20 1016 60 3000 0 0 17:22 26.11.2021
4566 Haze 21 1015 52 3000 0 0 15:56 26.11.2021
4567 Haze 27 1013 28 3000 1.03 360 13:35 26.11.2021
4568 Haze 29 1013 21 4000 1.03 20 12:30 26.11.2021
4569 Haze 30 1013 26 4000 1.54 320 10:38 26.11.2021
4570 Haze 30 1015 35 4000 1.03 300 08:58 26.11.2021
4571 Haze 30 1015 35 4000 1.03 60 08:21 26.11.2021
4572 Haze 29 1016 37 4000 1.03 70 07:29 26.11.2021
4573 Haze 28 1017 42 4000 1.54 70 06:27 26.11.2021
4574 Haze 24 1017 60 3000 1.03 20 04:51 26.11.2021
4575 Mist 19 1016 100 2000 1.03 360 02:52 26.11.2021
4576 Mist 19 1014 100 2000 0 0 23:27 25.11.2021
4577 Mist 20 1014 83 2500 0 0 21:48 25.11.2021
4578 Mist 21 1014 78 2500 1.03 300 20:29 25.11.2021
4579 Haze 21 1015 78 2500 0 0 18:48 25.11.2021
4580 Haze 22 1015 73 2500 0 0 17:48 25.11.2021
4581 Haze 23 1015 68 2500 0 0 17:25 25.11.2021
4582 Haze 23 1015 64 3000 1.03 320 16:33 25.11.2021
4583 Haze 23 1014 64 3000 0 0 15:33 25.11.2021
4584 Haze 26 1013 50 3000 1.03 90 13:50 25.11.2021
4585 Haze 30 1012 39 4000 1.54 50 12:27 25.11.2021
4586 Haze 30 1012 42 4000 1.54 10 11:51 25.11.2021
4587 Haze 30 1013 39 4000 2.57 330 09:41 25.11.2021
4588 Haze 28 1017 51 3000 1.54 40 06:22 25.11.2021
4589 Mist 20 1015 94 2000 1.54 340 02:50 25.11.2021
4590 Haze 21 1013 100 2500 1.03 320 23:28 24.11.2021
4591 Haze 21 1014 83 2500 1.03 30 22:26 24.11.2021
4592 Haze 21 1014 83 2500 1.03 30 21:38 24.11.2021
4593 Haze 22 1014 78 2500 1.03 50 20:53 24.11.2021
4594 Haze 22 1014 78 2500 1.03 50 20:26 24.11.2021
4595 Haze 22 1015 73 2500 1.03 250 18:31 24.11.2021
4596 Haze 23 1015 68 2500 1.03 250 17:59 24.11.2021
4597 Haze 24 1014 64 3000 1.03 120 15:47 24.11.2021
4598 Haze 25 1013 57 3000 1.03 100 14:54 24.11.2021
4599 Haze 25 1013 57 3000 0 0 14:20 24.11.2021
4600 Haze 29 1012 42 3000 1.03 30 12:50 24.11.2021
4601 Haze 31 1012 40 4000 1.03 10 11:22 24.11.2021
4602 Haze 31 1012 40 4000 1.54 10 10:49 24.11.2021
4603 Haze 31 1012 40 4000 1.03 310 10:26 24.11.2021
4604 Haze 30 1015 42 4000 1.03 100 07:55 24.11.2021
4605 Haze 28 1016 47 4000 2.06 100 06:56 24.11.2021
4606 Mist 22 1015 100 2500 0 0 03:57 24.11.2021
4607 Clouds 20 1012 66 10000 2.32 35 00:58 24.11.2021
4608 Clouds 21 1011 66 10000 2.35 49 22:58 23.11.2021
4609 Clouds 21 1011 66 10000 2.35 49 22:34 23.11.2021
4610 Clouds 21 1011 64 10000 2.47 51 21:44 23.11.2021
4611 Clouds 22 1012 62 10000 2.64 31 20:19 23.11.2021
4612 Haze 24 1014 78 2500 1.03 10 18:43 23.11.2021
4613 Haze 24 1014 78 2500 1.03 10 18:22 23.11.2021
4614 Haze 24 1014 73 2500 1.03 300 17:19 23.11.2021
4615 Haze 25 1013 69 2500 1.03 300 16:34 23.11.2021
4616 Haze 26 1013 65 2500 1.03 100 15:23 23.11.2021
4617 Haze 27 1012 61 2000 1.03 100 14:26 23.11.2021
4618 Haze 31 1011 48 2500 0 0 11:48 23.11.2021
4619 Haze 30 1011 54 2500 0 0 10:22 23.11.2021
4620 Haze 31 1012 48 2500 1.54 30 09:22 23.11.2021
4621 Haze 30 1014 58 2500 1.03 90 07:28 23.11.2021
4622 Fog 25 1015 100 1200 1.03 100 03:56 23.11.2021
4623 Fog 22 1014 100 800 0 0 02:58 23.11.2021
4624 Mist 24 1013 100 2000 0 0 23:21 22.11.2021
4625 Mist 25 1013 94 2000 1.03 20 22:53 22.11.2021
4626 Mist 25 1013 94 2000 1.03 20 22:27 22.11.2021
4627 Mist 25 1013 100 2000 1.03 60 21:42 22.11.2021
4628 Mist 25 1013 100 2000 0 0 20:52 22.11.2021
4629 Mist 25 1013 100 2000 1.03 60 19:57 22.11.2021
4630 Mist 25 1013 100 2000 1.03 60 19:19 22.11.2021
4631 Mist 25 1013 100 2500 1.03 90 18:39 22.11.2021
4632 Mist 25 1014 100 2500 1.03 120 17:43 22.11.2021
4633 Mist 25 1013 83 2500 1.03 150 16:19 22.11.2021
4634 Haze 27 1012 74 2000 1.03 90 14:18 22.11.2021
4635 Haze 29 1011 61 2000 1.54 70 12:18 22.11.2021
4636 Haze 30 1011 62 2000 2.06 100 10:43 22.11.2021
4637 Haze 30 1012 62 2000 1.54 80 09:43 22.11.2021
4638 Haze 29 1014 65 2000 1.03 70 08:40 22.11.2021
4639 Mist 27 1016 78 1500 1.03 50 06:22 22.11.2021
4640 Haze 25 1013 100 3000 1.03 40 23:28 21.11.2021
4641 Clouds 24 1011 76 10000 2.45 39 22:49 21.11.2021
4642 Haze 25 1013 100 3000 1.03 340 21:53 21.11.2021
4643 Haze 25 1014 100 3000 1.03 350 20:42 21.11.2021
4644 Haze 25 1014 100 3000 1.03 350 19:48 21.11.2021
4645 Haze 26 1014 83 3000 0 0 18:25 21.11.2021
4646 Haze 26 1014 83 3000 0 0 17:38 21.11.2021
4647 Haze 26 1013 78 3000 1.03 20 15:53 21.11.2021
4648 Haze 27 1012 74 3000 1.03 160 14:45 21.11.2021
4649 Haze 27 1011 69 3000 1.03 50 13:47 21.11.2021
4650 Clouds 28 1009 58 10000 1.62 57 12:37 21.11.2021
4651 Haze 30 1010 62 4000 2.06 200 11:43 21.11.2021
4652 Haze 30 1010 62 4000 2.06 200 11:24 21.11.2021
4653 Haze 30 1011 58 4000 1.03 200 10:18 21.11.2021
4654 Haze 31 1012 58 4000 1.54 60 08:42 21.11.2021
4655 Haze 30 1012 62 4000 1.54 30 08:23 21.11.2021
4656 Haze 30 1013 62 4000 1.03 310 07:47 21.11.2021
4657 Haze 29 1015 61 3000 1.54 100 05:53 21.11.2021
4658 Haze 27 1015 65 3000 1.54 60 05:25 21.11.2021
4659 Mist 23 1013 100 2000 1.03 340 03:19 21.11.2021
4660 Mist 23 1013 100 2000 1.03 50 02:51 21.11.2021
4661 Mist 23 1011 100 2500 1.03 0 00:59 21.11.2021
4662 Mist 23 1011 100 2500 1.03 50 23:47 20.11.2021
4663 Mist 24 1011 100 2500 1.03 50 21:41 20.11.2021
4664 Mist 24 1011 100 2500 1.03 50 21:23 20.11.2021
4665 Clouds 24 1012 100 2000 0 0 18:46 20.11.2021
4666 Clouds 24 1012 100 2000 0 0 18:26 20.11.2021
4667 Clouds 24 1012 100 2000 0 0 17:26 20.11.2021
4668 Clouds 25 1012 94 2000 1.03 30 16:46 20.11.2021
4669 Haze 28 1010 61 3000 2.06 50 14:46 20.11.2021
4670 Haze 28 1010 65 3000 1.54 50 14:24 20.11.2021
4671 Haze 29 1008 61 3000 2.06 50 12:22 20.11.2021
4672 Haze 30 1008 54 4000 2.06 70 10:35 20.11.2021
4673 Haze 31 1009 51 3000 2.06 50 09:39 20.11.2021
4674 Haze 28 1011 57 2500 2.06 70 07:28 20.11.2021
4675 Haze 25 1012 61 2000 2.06 90 05:28 20.11.2021
4676 Haze 25 1012 61 2000 2.57 90 04:50 20.11.2021
4677 Haze 25 1012 61 2000 2.57 90 04:50 20.11.2021
4678 Mist 22 1010 64 2500 0 0 01:55 20.11.2021
4679 Haze 22 1009 64 2500 0 0 00:40 20.11.2021
4680 Haze 22 1009 64 2500 0 0 23:41 19.11.2021
4681 Haze 23 1009 64 3000 1.03 30 22:21 19.11.2021
4682 Haze 24 1010 60 3000 1.03 30 20:58 19.11.2021
4683 Haze 24 1010 60 3000 1.03 30 20:36 19.11.2021
4684 Haze 24 1010 60 3000 1.03 50 19:55 19.11.2021
4685 Haze 24 1010 60 3000 1.03 40 18:54 19.11.2021
4686 Haze 24 1010 60 3000 1.03 40 18:23 19.11.2021
4687 Haze 25 1010 61 3000 1.03 10 17:31 19.11.2021
4688 Haze 26 1009 57 3000 1.03 30 15:51 19.11.2021
4689 Haze 28 1008 44 3000 1.54 50 13:28 19.11.2021
4690 Haze 31 1008 42 4000 4.12 80 10:27 19.11.2021
4691 Haze 31 1008 42 4000 4.12 80 10:27 19.11.2021
4692 Haze 31 1008 42 4000 3.09 100 09:37 19.11.2021
4693 Haze 30 1010 45 4000 3.09 120 08:20 19.11.2021
4694 Haze 26 1013 57 3000 3.09 50 04:51 19.11.2021
4695 Haze 23 1011 68 2500 1.03 20 02:27 19.11.2021
4696 Haze 24 1010 69 2500 1.03 20 23:51 18.11.2021
4697 Haze 25 1011 65 2500 1.03 100 21:55 18.11.2021
4698 Haze 25 1012 65 2500 1.03 70 20:49 18.11.2021
4699 Haze 25 1012 65 2500 1.03 70 20:30 18.11.2021
4700 Haze 25 1012 69 2500 1.03 100 19:49 18.11.2021
4701 Haze 25 1012 69 2500 1.03 100 19:29 18.11.2021
4702 Haze 25 1012 69 2500 1.03 100 18:28 18.11.2021
4703 Haze 26 1012 65 3000 1.03 130 17:51 18.11.2021
4704 Haze 26 1012 65 3000 1.03 130 17:51 18.11.2021
4705 Haze 26 1011 65 3000 1.03 50 16:44 18.11.2021
4706 Haze 27 1010 61 3000 1.03 20 15:32 18.11.2021
4707 Haze 28 1010 57 4000 1.54 40 13:31 18.11.2021
4708 Haze 30 1010 51 5000 1.54 70 12:33 18.11.2021
4709 Haze 31 1010 48 5000 2.06 70 11:42 18.11.2021
4710 Haze 31 1010 48 5000 2.06 70 11:24 18.11.2021
4711 Haze 31 1011 48 5000 2.06 120 09:37 18.11.2021
4712 Haze 30 1014 54 4000 2.57 90 07:35 18.11.2021
4713 Haze 27 1015 65 3000 2.06 120 05:55 18.11.2021
4714 Haze 27 1015 65 3000 2.06 120 05:36 18.11.2021
4715 Mist 22 1012 83 2500 1.03 40 01:23 18.11.2021
4716 Mist 23 1013 83 2500 0 0 22:49 17.11.2021
4717 Mist 23 1013 83 2500 0 0 22:21 17.11.2021
4718 Haze 24 1013 78 2500 1.03 40 21:38 17.11.2021
4719 Haze 24 1013 78 2500 1.03 50 20:56 17.11.2021
4720 Haze 25 1014 73 2500 1.54 90 18:34 17.11.2021
4721 Haze 26 1014 69 2500 1.03 90 17:27 17.11.2021
4722 Haze 27 1013 61 3000 1.03 40 14:51 17.11.2021
4723 Haze 29 1011 58 3000 1.03 80 12:41 17.11.2021
4724 Haze 30 1011 54 3000 1.03 60 11:49 17.11.2021
4725 Haze 31 1011 48 4000 1.54 80 10:29 17.11.2021
4726 Clouds 29 1010 53 10000 3.41 90 09:24 17.11.2021
4727 Haze 29 1015 51 3000 2.57 90 07:44 17.11.2021
4728 Haze 25 1015 61 2500 2.57 60 04:47 17.11.2021
4729 Haze 22 1014 64 2500 1.03 40 01:45 17.11.2021
4730 Haze 21 1013 68 2500 1.54 10 23:26 16.11.2021
4731 Haze 22 1012 68 2500 1.03 30 21:27 16.11.2021
4732 Haze 23 1013 68 2500 1.03 40 20:18 16.11.2021
4733 Haze 24 1013 64 2500 1.03 70 18:54 16.11.2021
4734 Haze 24 1013 64 2500 1.03 70 18:35 16.11.2021
4735 Haze 25 1013 61 2500 1.54 50 17:40 16.11.2021
4736 Haze 24 1013 64 2500 1.54 50 16:49 16.11.2021
4737 Haze 25 1012 61 2500 1.03 40 15:56 16.11.2021
4738 Haze 26 1012 57 2500 1.03 40 15:29 16.11.2021
4739 Haze 28 1010 51 2500 1.54 40 12:29 16.11.2021
4740 Haze 30 1010 45 3000 1.54 50 09:49 16.11.2021
4741 Haze 29 1011 51 3000 1.03 30 08:46 16.11.2021
4742 Haze 29 1012 51 3000 1.54 30 07:34 16.11.2021
4743 Haze 21 1012 60 2500 1.03 10 02:47 16.11.2021
4744 Haze 21 1011 60 2500 1.54 30 23:23 15.11.2021
4745 Haze 22 1010 56 2500 1.03 10 22:37 15.11.2021
4746 Haze 22 1011 60 2500 1.03 10 21:53 15.11.2021
4747 Haze 22 1011 60 2500 1.03 10 21:29 15.11.2021
4748 Haze 25 1011 50 2500 1.03 30 19:49 15.11.2021
4749 Haze 25 1011 65 2500 1.03 30 18:47 15.11.2021
4750 Haze 24 1011 69 2500 1.03 60 16:54 15.11.2021
4751 Haze 25 1010 65 2500 1.03 90 15:42 15.11.2021
4752 Haze 25 1010 65 2500 1.03 90 15:24 15.11.2021
4753 Haze 29 1009 48 2500 1.03 40 13:32 15.11.2021
4754 Haze 30 1008 45 3000 1.03 60 11:53 15.11.2021
4755 Haze 31 1010 42 3000 2.06 50 09:28 15.11.2021
4756 Haze 30 1011 48 3000 2.57 50 07:55 15.11.2021
4757 Haze 25 1014 50 3000 1.03 340 05:23 15.11.2021
4758 Haze 23 1011 56 2500 1.03 40 23:57 14.11.2021
4759 Haze 23 1011 56 2500 1.03 40 22:37 14.11.2021
4760 Haze 24 1012 64 2500 1.03 30 19:59 14.11.2021
4761 Haze 24 1012 64 2500 1.03 30 19:18 14.11.2021
4762 Haze 24 1013 73 2500 1.03 60 18:54 14.11.2021
4763 Haze 24 1013 73 2500 1.03 60 18:36 14.11.2021
4764 Haze 24 1013 73 2500 1.03 60 18:18 14.11.2021
4765 Haze 23 1012 78 2500 0 0 17:57 14.11.2021
4766 Haze 24 1012 78 2500 0 0 17:39 14.11.2021
4767 Haze 24 1012 78 2500 0 0 17:21 14.11.2021
4768 Haze 24 1012 78 2500 0 0 16:49 14.11.2021
4769 Haze 25 1012 73 2500 0 0 16:20 14.11.2021
4770 Haze 25 1011 73 2500 1.03 100 15:23 14.11.2021
4771 Haze 27 1011 65 2500 1.03 90 14:49 14.11.2021
4772 Haze 27 1011 61 2500 1.03 90 14:29 14.11.2021
4773 Haze 28 1010 57 2500 1.03 50 13:57 14.11.2021
4774 Haze 28 1010 57 2500 1.03 50 13:39 14.11.2021
4775 Haze 30 1010 51 4000 1.03 50 12:28 14.11.2021
4776 Haze 31 1010 48 4000 1.03 50 11:58 14.11.2021
4777 Haze 30 1010 54 4000 1.03 50 10:45 14.11.2021
4778 Haze 31 1010 51 4000 1.03 50 10:26 14.11.2021
4779 Haze 30 1011 54 4000 1.54 60 08:56 14.11.2021
4780 Haze 29 1013 58 4000 1.54 50 07:24 14.11.2021
4781 Clouds 22 1011 75 10000 2.48 34 01:24 14.11.2021
4782 Haze 23 1011 73 3000 1.03 30 22:26 13.11.2021
4783 Haze 24 1012 73 3000 1.03 50 21:57 13.11.2021
4784 Haze 24 1012 73 3000 1.03 50 21:25 13.11.2021
4785 Haze 25 1013 73 3000 2.06 60 19:47 13.11.2021
4786 Haze 26 1013 73 3000 2.57 60 18:33 13.11.2021
4787 Haze 26 1013 73 3000 2.06 60 17:56 13.11.2021
4788 Haze 26 1013 73 3000 1.54 50 16:38 13.11.2021
4789 Haze 26 1012 73 3000 1.03 70 15:34 13.11.2021
4790 Haze 27 1011 69 3000 1.03 70 14:33 13.11.2021
4791 Haze 27 1011 65 3000 1.03 60 13:38 13.11.2021
4792 Haze 30 1010 54 4000 1.54 20 12:28 13.11.2021
4793 Haze 30 1010 54 4000 1.54 40 11:38 13.11.2021
4794 Haze 29 1010 58 4000 1.54 30 10:45 13.11.2021
4795 Haze 30 1010 54 4000 1.54 30 10:22 13.11.2021
4796 Haze 30 1011 54 4000 1.54 20 09:38 13.11.2021
4797 Haze 30 1011 54 4000 3.09 90 08:56 13.11.2021
4798 Haze 31 1012 51 4000 2.06 20 08:30 13.11.2021
4799 Haze 26 1014 61 2500 1.54 50 04:48 13.11.2021
4800 Haze 25 1014 65 2000 1.03 10 04:30 13.11.2021
4801 Haze 23 1012 68 2500 1.03 340 01:38 13.11.2021
4802 Haze 24 1012 60 2500 1.03 20 22:58 12.11.2021
4803 Haze 25 1012 57 2500 2.57 30 21:46 12.11.2021
4804 Haze 25 1013 73 2500 2.57 30 19:55 12.11.2021
4805 Haze 25 1013 73 2500 2.57 30 19:28 12.11.2021
4806 Haze 25 1013 73 2500 2.06 70 18:46 12.11.2021
4807 Haze 26 1013 69 2500 2.57 90 16:35 12.11.2021
4808 Haze 26 1012 69 2500 1.03 70 15:33 12.11.2021
4809 Haze 29 1010 54 3000 2.06 90 11:57 12.11.2021
4810 Haze 28 1010 57 3000 2.57 90 10:51 12.11.2021
4811 Haze 29 1011 51 3000 2.06 120 09:44 12.11.2021
4812 Haze 29 1012 51 3000 3.09 70 08:38 12.11.2021
4813 Haze 19 1013 63 2000 1.03 360 02:32 12.11.2021
4814 Haze 18 1012 68 2500 0 0 23:42 11.11.2021
4815 Clouds 18 1011 48 10000 3.35 1 22:36 11.11.2021
4816 Haze 20 1012 60 2500 1.03 360 21:27 11.11.2021
4817 Haze 20 1012 64 2500 1.03 360 20:42 11.11.2021
4818 Haze 20 1013 64 2500 1.03 360 19:20 11.11.2021
4819 Haze 21 1013 60 2500 0 0 17:43 11.11.2021
4820 Haze 21 1013 56 2500 0 0 16:58 11.11.2021
4821 Haze 22 1012 40 2500 0 0 14:58 11.11.2021
4822 Haze 23 1012 38 2500 1.03 30 14:29 11.11.2021
4823 Haze 24 1011 33 2500 1.54 40 13:39 11.11.2021
4824 Haze 25 1011 36 2500 1.54 50 12:50 11.11.2021
4825 Haze 28 1010 30 2500 1.54 60 10:44 11.11.2021
4826 Haze 28 1011 32 2500 3.09 50 09:36 11.11.2021
4827 Haze 27 1013 34 2500 3.09 90 07:59 11.11.2021
4828 Haze 23 1015 46 2500 2.06 40 05:55 11.11.2021
4829 Haze 18 1012 55 2500 1.03 20 23:45 10.11.2021
4830 Haze 18 1013 55 2500 1.03 350 22:24 10.11.2021
4831 Haze 16 1013 67 2500 1.03 340 21:31 10.11.2021
4832 Haze 17 1013 63 2500 0 0 20:47 10.11.2021
4833 Haze 18 1014 63 2500 0 0 19:47 10.11.2021
4834 Haze 18 1014 63 2500 0 0 19:24 10.11.2021
4835 Haze 22 1014 56 2500 1.03 20 16:38 10.11.2021
4836 Haze 20 1014 64 2500 1.03 340 15:40 10.11.2021
4837 Haze 24 1012 43 2000 1.03 90 13:51 10.11.2021
4838 Haze 26 1012 41 2000 1.03 90 12:59 10.11.2021
4839 Haze 29 1012 28 2500 2.57 50 10:56 10.11.2021
4840 Haze 27 1013 34 3000 1.54 20 08:47 10.11.2021
4841 Haze 26 1015 36 3000 1.54 50 07:48 10.11.2021
4842 Haze 24 1017 41 3000 1.03 40 06:40 10.11.2021
4843 Haze 24 1017 41 3000 1.54 360 05:51 10.11.2021
4844 Haze 16 1014 67 2000 1.03 360 00:27 10.11.2021
4845 Haze 17 1015 67 2000 1.03 330 21:51 09.11.2021
4846 Clouds 17 1013 50 10000 2.59 6 20:32 09.11.2021
4847 Smoke 18 1015 72 2000 1.03 330 19:26 09.11.2021
4848 Smoke 19 1016 68 2000 1.03 330 17:57 09.11.2021
4849 Smoke 19 1015 63 2000 0 0 16:24 09.11.2021
4850 Haze 22 1015 53 2500 0 0 14:44 09.11.2021
4851 Haze 26 1013 41 2500 1.54 100 12:53 09.11.2021
4852 Haze 28 1013 34 3000 1.03 90 11:58 09.11.2021
4853 Haze 29 1013 28 3000 1.54 30 10:45 09.11.2021
4854 Haze 29 1014 28 3000 1.54 90 09:35 09.11.2021
4855 Haze 28 1015 28 3000 3.09 80 08:27 09.11.2021
4856 Haze 26 1017 36 3000 0 0 05:57 09.11.2021
4857 Haze 17 1015 67 3000 1.03 360 02:25 09.11.2021
4858 Haze 17 1015 67 3000 1.03 360 01:46 09.11.2021
4859 Haze 19 1014 59 3000 1.54 330 23:59 08.11.2021
4860 Haze 18 1014 72 3000 2.06 350 22:51 08.11.2021
4861 Haze 18 1014 72 3000 2.06 350 22:27 08.11.2021
4862 Haze 18 1015 72 3000 1.54 310 20:56 08.11.2021
4863 Haze 18 1015 72 3000 1.54 310 20:56 08.11.2021
4864 Haze 18 1015 68 3000 1.54 310 19:53 08.11.2021
4865 Haze 18 1015 68 3000 0 0 18:57 08.11.2021
4866 Haze 22 1015 53 3000 1.03 320 16:34 08.11.2021
4867 Haze 22 1015 53 3000 1.03 340 15:26 08.11.2021
4868 Haze 23 1014 46 3000 1.03 320 14:42 08.11.2021
4869 Haze 24 1013 38 3000 0 0 13:49 08.11.2021
4870 Haze 29 1012 26 4000 1.54 60 12:20 08.11.2021
4871 Haze 30 1012 23 4000 2.57 40 11:20 08.11.2021
4872 Haze 30 1013 26 4000 2.57 40 09:47 08.11.2021
4873 Haze 29 1014 24 4000 2.57 90 08:54 08.11.2021
4874 Haze 28 1015 32 4000 1.54 30 07:36 08.11.2021
4875 Haze 23 1016 46 4000 1.03 20 04:42 08.11.2021
4876 Haze 18 1015 63 4000 1.03 20 03:28 08.11.2021
4877 Haze 18 1014 63 3000 1.03 350 23:46 07.11.2021
4878 Haze 16 1014 72 3000 0 0 22:20 07.11.2021
4879 Haze 18 1014 68 3000 1.03 350 21:20 07.11.2021
4880 Haze 20 1015 56 3000 1.54 330 19:54 07.11.2021
4881 Haze 20 1015 60 3000 1.54 330 18:22 07.11.2021
4882 Haze 19 1014 59 3000 0 0 16:54 07.11.2021
4883 Haze 21 1014 52 3000 0 0 15:54 07.11.2021
4884 Haze 22 1013 46 3000 0 0 14:29 07.11.2021
4885 Haze 24 1012 38 3000 0 0 13:54 07.11.2021
4886 Haze 29 1012 28 5000 1.03 50 11:44 07.11.2021
4887 Haze 29 1012 28 5000 1.54 40 09:57 07.11.2021
4888 Haze 29 1013 28 5000 2.06 90 08:31 07.11.2021
4889 Haze 16 1014 88 2500 1.03 320 02:41 07.11.2021
4890 Haze 18 1012 94 3000 0 0 23:38 06.11.2021
4891 Haze 19 1012 77 3000 0 0 22:48 06.11.2021
4892 Haze 19 1012 77 3000 1.03 320 21:33 06.11.2021
4893 Haze 19 1013 77 3000 1.03 100 20:50 06.11.2021
4894 Haze 20 1013 73 3000 1.03 320 18:56 06.11.2021
4895 Haze 22 1013 60 3000 1.03 300 16:47 06.11.2021
4896 Haze 22 1013 60 3000 1.03 300 16:47 06.11.2021
4897 Haze 22 1013 60 3000 1.03 300 16:47 06.11.2021
4898 Haze 22 1013 60 3000 1.03 300 16:47 06.11.2021
4899 Haze 22 1013 60 3000 1.03 300 16:47 06.11.2021
4900 Haze 23 1012 56 3000 0 0 15:20 06.11.2021
4901 Haze 25 1011 47 3000 1.03 40 13:38 06.11.2021
4902 Haze 30 1011 32 4000 1.03 310 11:53 06.11.2021
4903 Haze 30 1012 35 5000 2.06 340 09:25 06.11.2021
4904 Haze 25 1016 50 5000 1.03 90 04:59 06.11.2021
4905 Smoke 19 1014 88 1500 1.03 330 01:47 06.11.2021
4906 Smoke 20 1013 100 1500 1.03 330 23:35 05.11.2021
4907 Smoke 20 1013 100 2500 0 0 22:34 05.11.2021
4908 Smoke 22 1013 73 2500 0 0 21:26 05.11.2021
4909 Smoke 22 1013 73 2000 0 0 20:20 05.11.2021
4910 Smoke 22 1014 73 2000 2.06 330 19:40 05.11.2021
4911 Smoke 21 1014 78 2000 0 0 18:39 05.11.2021
4912 Smoke 22 1014 73 2000 0 0 17:26 05.11.2021
4913 Smoke 24 1013 60 3000 0 0 15:38 05.11.2021
4914 Haze 27 1012 50 4000 1.03 40 13:37 05.11.2021
4915 Haze 30 1012 42 5000 1.54 110 11:22 05.11.2021
4916 Haze 30 1014 48 5000 1.54 30 08:40 05.11.2021
4917 Haze 29 1015 48 5000 1.54 80 07:26 05.11.2021
4918 Haze 26 1017 50 4000 1.54 70 05:32 05.11.2021
4919 Haze 20 1015 64 2500 1.03 20 02:26 05.11.2021
4920 Haze 20 1013 60 2500 0 0 00:51 05.11.2021
4921 Haze 22 1013 60 2500 0 0 23:18 04.11.2021
4922 Haze 22 1013 60 2500 1.03 10 22:19 04.11.2021
4923 Haze 23 1014 64 2500 1.03 20 21:35 04.11.2021
4924 Haze 23 1014 64 2500 1.03 30 20:41 04.11.2021
4925 Haze 23 1014 64 2500 1.03 30 20:21 04.11.2021
4926 Smoke 24 1014 69 2000 1.03 10 19:44 04.11.2021
4927 Smoke 24 1014 73 2000 1.03 20 18:44 04.11.2021
4928 Smoke 25 1014 69 2000 1.03 40 17:48 04.11.2021
4929 Haze 25 1014 69 3000 0 0 16:41 04.11.2021
4930 Haze 26 1013 65 3000 1.03 60 14:38 04.11.2021
4931 Haze 30 1012 51 3000 1.54 50 12:32 04.11.2021
4932 Haze 29 1013 54 3000 1.03 50 09:31 04.11.2021
4933 Haze 30 1014 51 3000 1.54 60 08:30 04.11.2021
4934 Haze 30 1015 54 3000 1.03 100 07:34 04.11.2021
4935 Smoke 22 1013 100 2500 0 0 23:59 03.11.2021
4936 Smoke 22 1013 100 2500 0 0 22:50 03.11.2021
4937 Smoke 23 1014 100 2500 0 0 21:48 03.11.2021
4938 Smoke 23 1014 100 2500 0 0 21:28 03.11.2021
4939 Smoke 23 1014 100 2500 0 0 20:35 03.11.2021
4940 Smoke 23 1015 100 2500 0 0 19:47 03.11.2021
4941 Smoke 23 1015 100 2500 0 0 18:55 03.11.2021
4942 Smoke 23 1015 100 2500 0 0 18:19 03.11.2021
4943 Smoke 23 1015 100 2500 0 0 17:34 03.11.2021
4944 Haze 25 1014 73 2500 0 0 16:18 03.11.2021
4945 Haze 25 1014 73 2500 0 0 15:42 03.11.2021
4946 Haze 27 1013 61 2500 0 0 13:49 03.11.2021
4947 Haze 30 1012 51 2500 1.54 20 11:39 03.11.2021
4948 Haze 30 1012 54 2500 1.03 50 10:53 03.11.2021
4949 Haze 30 1013 51 2500 1.54 10 10:28 03.11.2021
4950 Haze 30 1013 54 2500 2.06 50 09:29 03.11.2021
4951 Haze 30 1015 51 2500 2.06 50 08:22 03.11.2021
4952 Haze 29 1016 54 2500 1.03 50 07:38 03.11.2021
4953 Haze 24 1017 64 3000 1.03 20 04:26 03.11.2021
4954 Mist 20 1015 88 2000 1.03 10 01:49 03.11.2021
4955 Mist 20 1015 88 2000 1.03 10 01:49 03.11.2021
4956 Haze 21 1014 78 3000 1.03 340 23:33 02.11.2021
4957 Haze 22 1014 73 3000 1.03 10 22:29 02.11.2021
4958 Haze 22 1015 73 3000 1.03 10 20:54 02.11.2021
4959 Haze 22 1015 73 3000 1.03 10 20:30 02.11.2021
4960 Haze 22 1015 73 3000 1.03 20 19:47 02.11.2021
4961 Haze 22 1016 73 3000 0 0 18:51 02.11.2021
4962 Haze 24 1016 64 3000 0 0 17:58 02.11.2021
4963 Haze 24 1016 64 3000 1.03 30 17:32 02.11.2021
4964 Haze 24 1016 64 3000 1.03 20 16:29 02.11.2021
4965 Haze 25 1014 73 3000 0 0 14:59 02.11.2021
4966 Haze 26 1014 73 3000 0 0 13:50 02.11.2021
4967 Haze 27 1013 69 3000 1.03 30 13:26 02.11.2021
4968 Haze 28 1013 57 3000 0 0 12:33 02.11.2021
4969 Haze 30 1013 48 4000 0 0 11:31 02.11.2021
4970 Haze 30 1013 51 4000 2.57 50 10:51 02.11.2021
4971 Haze 30 1013 51 4000 2.06 90 10:23 02.11.2021
4972 Haze 29 1014 45 4000 2.06 70 08:42 02.11.2021
4973 Haze 26 1017 47 5000 1.54 60 06:42 02.11.2021
4974 Haze 20 1017 64 3000 0 0 03:33 02.11.2021
4975 Mist 16 1014 77 2500 0 0 00:58 02.11.2021
4976 Mist 17 1014 72 2500 0 0 22:28 01.11.2021
4977 Mist 19 1015 72 2500 1.03 330 20:50 01.11.2021
4978 Mist 19 1015 72 2500 1.03 330 20:32 01.11.2021
4979 Mist 18 1015 72 2500 0 0 19:44 01.11.2021
4980 Haze 18 1015 72 3000 1.03 330 18:55 01.11.2021
4981 Haze 19 1016 68 3000 0 0 17:59 01.11.2021
4982 Haze 19 1016 68 3000 0 0 17:18 01.11.2021
4983 Haze 20 1015 64 3000 0 0 16:33 01.11.2021
4984 Haze 21 1015 60 3000 0 0 15:44 01.11.2021
4985 Haze 22 1015 49 3000 0 0 15:19 01.11.2021
4986 Haze 22 1014 49 3000 0 0 14:40 01.11.2021
4987 Haze 24 1014 41 3000 0 0 14:19 01.11.2021
4988 Haze 24 1014 41 3000 0 0 14:19 01.11.2021
4989 Haze 29 1013 37 5000 1.54 10 12:53 01.11.2021
4990 Haze 30 1013 35 5000 0 0 11:39 01.11.2021
4991 Haze 30 1013 37 5000 0 0 10:21 01.11.2021
4992 Haze 30 1015 37 5000 1.54 90 08:23 01.11.2021
4993 Haze 29 1016 39 5000 3.09 70 07:47 01.11.2021
4994 Haze 20 1017 68 3000 1.03 20 03:55 01.11.2021
4995 Haze 20 1017 68 3000 1.03 20 03:33 01.11.2021
4996 Clear 16 1014 54 10000 2.59 358 23:58 31.10.2021
4997 Haze 19 1016 68 3000 0 0 20:59 31.10.2021
4998 Haze 19 1016 68 3000 1.54 320 19:54 31.10.2021
4999 Haze 18 1016 68 3000 0 0 18:43 31.10.2021
5000 Haze 18 1016 68 3000 0 0 18:21 31.10.2021
5001 Haze 20 1016 56 3000 0 0 16:48 31.10.2021
5002 Haze 23 1015 49 3000 0 0 14:53 31.10.2021
5003 Haze 29 1014 28 4000 0 0 12:57 31.10.2021
5004 Haze 30 1014 26 4000 1.03 10 11:56 31.10.2021
5005 Haze 30 1014 26 5000 1.54 10 10:48 31.10.2021
5006 Haze 29 1015 30 5000 1.03 110 09:26 31.10.2021
5007 Haze 29 1015 28 5000 1.54 110 08:46 31.10.2021
5008 Haze 18 1016 63 3000 1.54 330 02:54 31.10.2021
5009 Haze 18 1017 68 3000 0 0 23:42 30.10.2021
5010 Haze 19 1017 63 3000 0 0 21:36 30.10.2021
5011 Haze 19 1017 63 3000 0 0 21:18 30.10.2021
5012 Haze 20 1017 60 3000 1.03 340 19:23 30.10.2021
5013 Haze 21 1017 60 3000 0 0 17:42 30.10.2021
5014 Haze 23 1015 43 3000 0 0 15:30 30.10.2021
5015 Haze 29 1014 28 4000 1.03 10 13:56 30.10.2021
5016 Haze 30 1014 25 5000 1.54 330 13:21 30.10.2021
5017 Haze 30 1014 26 5000 1.03 20 12:57 30.10.2021
5018 Haze 31 1015 27 5000 1.54 50 11:46 30.10.2021
5019 Haze 30 1016 23 5000 3.09 320 10:32 30.10.2021
5020 Haze 29 1017 26 5000 2.06 50 08:54 30.10.2021
5021 Haze 27 1019 34 5000 2.57 50 07:42 30.10.2021
5022 Haze 24 1019 41 4000 1.54 0 05:44 30.10.2021
5023 Clouds 18 1016 52 10000 3.19 1 01:37 30.10.2021
5024 Haze 19 1017 59 3000 1.03 330 22:54 29.10.2021
5025 Haze 19 1017 59 3000 1.03 330 22:32 29.10.2021
5026 Haze 22 1018 60 3000 1.03 360 20:46 29.10.2021
5027 Haze 22 1018 60 3000 1.03 360 20:24 29.10.2021
5028 Haze 20 1018 73 3000 0 0 18:36 29.10.2021
5029 Haze 22 1017 56 3000 0 0 16:54 29.10.2021
5030 Haze 25 1016 44 3000 1.03 70 15:21 29.10.2021
5031 Haze 29 1015 32 5000 2.06 110 12:26 29.10.2021
5032 Haze 30 1015 30 5000 2.06 110 10:46 29.10.2021
5033 Haze 29 1017 28 5000 2.06 10 08:47 29.10.2021
5034 Haze 17 1015 63 3000 1.54 320 00:37 29.10.2021
5035 Haze 19 1015 52 3000 0 0 23:40 28.10.2021
5036 Haze 19 1015 52 3000 2.81 7 22:19 28.10.2021
5037 Haze 21 1016 49 3000 1.54 330 20:54 28.10.2021
5038 Haze 22 1016 49 3000 1.54 350 19:51 28.10.2021
5039 Haze 23 1016 56 3000 1.03 10 18:27 28.10.2021
5040 Haze 21 1016 60 3000 0 0 17:19 28.10.2021
5041 Haze 23 1015 49 3000 0 0 16:19 28.10.2021
5042 Haze 25 1014 44 3000 1.03 80 14:39 28.10.2021
5043 Haze 30 1014 30 5000 1.03 50 13:29 28.10.2021
5044 Haze 30 1014 32 5000 1.03 10 12:44 28.10.2021
5045 Haze 30 1014 32 5000 1.03 10 10:58 28.10.2021
5046 Haze 30 1015 32 5000 1.54 10 09:40 28.10.2021
5047 Haze 29 1015 34 5000 2.06 50 09:22 28.10.2021
5048 Haze 29 1016 32 5000 3.09 340 08:35 28.10.2021
5049 Haze 28 1017 34 5000 2.57 10 07:40 28.10.2021
5050 Clear 18 1013 65 10000 3.19 5 00:33 28.10.2021
5051 Haze 23 1014 60 3000 1.03 350 22:31 27.10.2021
5052 Haze 22 1015 64 3000 1.03 360 21:34 27.10.2021
5053 Haze 22 1015 73 4000 1.03 140 20:54 27.10.2021
5054 Haze 22 1015 73 4000 1.03 140 20:34 27.10.2021
5055 Haze 24 1015 64 4000 1.03 30 19:42 27.10.2021
5056 Haze 24 1015 60 4000 1.03 20 18:53 27.10.2021
5057 Haze 23 1014 68 4000 0 0 16:38 27.10.2021
5058 Haze 23 1014 64 4000 0 0 16:18 27.10.2021
5059 Haze 25 1013 53 4000 0 0 15:21 27.10.2021
5060 Haze 30 1013 37 5000 1.54 90 12:51 27.10.2021
5061 Haze 31 1013 35 5000 1.03 20 10:58 27.10.2021
5062 Haze 30 1014 39 5000 1.03 70 09:59 27.10.2021
5063 Haze 30 1015 39 5000 2.57 50 08:58 27.10.2021
5064 Haze 29 1017 45 5000 1.54 70 07:32 27.10.2021
5065 Haze 26 1017 61 4000 1.54 30 05:34 27.10.2021
5066 Haze 21 1014 83 3000 0 0 00:58 27.10.2021
5067 Haze 21 1014 83 3000 0 0 00:33 27.10.2021
5068 Haze 22 1014 78 3000 0 0 23:50 26.10.2021
5069 Haze 23 1014 68 3000 0 0 22:39 26.10.2021
5070 Haze 22 1014 73 3000 0 0 21:59 26.10.2021
5071 Haze 22 1015 73 3000 0 0 20:51 26.10.2021
5072 Haze 22 1015 73 3000 0 0 19:32 26.10.2021
5073 Haze 22 1015 73 3000 0 0 18:52 26.10.2021
5074 Haze 23 1014 64 3000 0 0 16:57 26.10.2021
5075 Haze 25 1012 53 3000 0 0 14:56 26.10.2021
5076 Haze 30 1012 35 5000 1.54 10 11:47 26.10.2021
5077 Haze 32 1012 40 5000 0 0 10:33 26.10.2021
5078 Haze 30 1015 51 4000 1.54 350 07:47 26.10.2021
5079 Haze 29 1015 54 4000 1.03 80 07:20 26.10.2021
5080 Mist 21 1012 83 3000 0 0 23:51 25.10.2021
5081 Mist 21 1013 88 3000 0 0 22:55 25.10.2021
5082 Mist 21 1013 88 3000 0 0 22:20 25.10.2021
5083 Mist 21 1013 88 3000 0 0 21:39 25.10.2021
5084 Mist 21 1014 88 3000 0 0 19:54 25.10.2021
5085 Mist 21 1014 83 3000 1.03 310 19:26 25.10.2021
5086 Haze 21 1014 83 4000 0 0 18:59 25.10.2021
5087 Haze 21 1014 83 4000 0 0 18:20 25.10.2021
5088 Haze 25 1013 65 4000 0 0 16:20 25.10.2021
5089 Haze 26 1012 65 4000 0 0 14:28 25.10.2021
5090 Haze 31 1012 42 4000 0 0 12:30 25.10.2021
5091 Haze 32 1013 40 5000 1.54 350 10:23 25.10.2021
5092 Haze 30 1015 48 5000 1.54 60 08:35 25.10.2021
5093 Haze 26 1017 69 4000 0 0 06:25 25.10.2021
5094 Mist 19 1015 88 2500 2.06 330 02:31 25.10.2021
5095 Mist 20 1014 83 2500 1.54 340 00:46 25.10.2021
5096 Haze 21 1014 78 2500 0 0 23:47 24.10.2021
5097 Haze 20 1015 88 2500 0 0 22:56 24.10.2021
5098 Haze 20 1015 88 2500 0 0 22:31 24.10.2021
5099 Haze 20 1015 88 2500 0 0 21:57 24.10.2021
5100 Haze 20 1015 88 2500 0 0 20:45 24.10.2021
5101 Haze 20 1015 88 2500 0 0 20:26 24.10.2021
5102 Haze 20 1016 88 3000 0 0 18:52 24.10.2021
5103 Haze 21 1015 94 3000 0 0 17:57 24.10.2021
5104 Haze 24 1015 73 3000 0 0 16:52 24.10.2021
5105 Haze 24 1015 78 3000 0 0 15:37 24.10.2021
5106 Haze 30 1013 39 4000 1.03 70 13:49 24.10.2021
5107 Haze 32 1013 37 5000 1.03 30 12:41 24.10.2021
5108 Haze 32 1013 40 5000 1.03 310 11:40 24.10.2021
5109 Haze 33 1014 43 5000 1.54 80 10:45 24.10.2021
5110 Haze 32 1015 43 5000 0 0 09:38 24.10.2021
5111 Haze 27 1017 54 3000 1.54 80 05:35 24.10.2021
5112 Clouds 19 1013 65 10000 1.79 19 00:40 24.10.2021
5113 Mist 19 1014 94 2000 0 0 23:24 23.10.2021
5114 Haze 19 1015 88 4000 0 0 21:45 23.10.2021
5115 Haze 20 1015 73 4000 0 0 19:39 23.10.2021
5116 Haze 19 1015 88 4000 0 0 18:46 23.10.2021
5117 Haze 20 1016 100 4000 0 0 18:21 23.10.2021
5118 Haze 21 1015 88 4000 0 0 17:42 23.10.2021
5119 Haze 22 1015 83 4000 0 0 16:18 23.10.2021
5120 Haze 30 1013 35 5000 1.54 20 13:51 23.10.2021
5121 Haze 19 1015 82 3000 0 0 02:36 23.10.2021
5122 Haze 19 1015 77 3000 0 0 23:41 22.10.2021
5123 Haze 19 1015 77 3000 0 0 21:39 22.10.2021
5124 Haze 20 1015 68 3000 0 0 19:49 22.10.2021
5125 Haze 21 1015 60 3000 1.03 260 18:33 22.10.2021
5126 Haze 22 1015 56 3000 1.03 280 17:19 22.10.2021
5127 Haze 26 1013 44 4000 0 0 14:58 22.10.2021
5128 Haze 32 1012 25 4000 1.54 330 12:45 22.10.2021
5129 Haze 32 1013 25 5000 1.54 70 10:58 22.10.2021
5130 Haze 32 1013 25 5000 1.54 70 10:36 22.10.2021
5131 Haze 32 1015 22 5000 2.06 130 09:35 22.10.2021
5132 Haze 30 1016 28 5000 1.54 330 07:46 22.10.2021
5133 Haze 30 1017 35 5000 1.03 50 07:21 22.10.2021
5134 Haze 17 1014 77 3000 0 0 01:41 22.10.2021
5135 Haze 19 1013 68 3000 1.03 320 23:51 21.10.2021
5136 Haze 20 1013 64 3000 1.03 330 22:44 21.10.2021
5137 Haze 21 1014 60 3000 1.03 320 21:38 21.10.2021
5138 Haze 22 1014 56 3000 1.03 310 20:24 21.10.2021
5139 Haze 22 1014 56 3000 1.03 320 19:55 21.10.2021
5140 Haze 21 1014 60 3000 1.54 320 19:25 21.10.2021
5141 Haze 22 1014 60 4000 1.54 320 18:33 21.10.2021
5142 Haze 22 1014 64 4000 1.03 330 17:51 21.10.2021
5143 Haze 23 1014 56 4000 1.03 330 16:50 21.10.2021
5144 Haze 24 1013 50 4000 1.03 170 15:33 21.10.2021
5145 Haze 26 1012 44 4000 1.03 220 14:56 21.10.2021
5146 Haze 26 1012 44 4000 1.03 220 14:37 21.10.2021
5147 Haze 32 1012 23 5000 1.54 350 11:59 21.10.2021
5148 Haze 32 1014 23 5000 1.54 330 09:42 21.10.2021
5149 Haze 30 1016 30 5000 3.09 340 07:54 21.10.2021
5150 Haze 29 1017 42 5000 1.03 50 06:46 21.10.2021
5151 Mist 20 1013 94 2500 0 0 00:39 21.10.2021
5152 Haze 21 1014 94 3000 0 0 22:35 20.10.2021
5153 Haze 22 1014 78 3000 0 0 21:48 20.10.2021
5154 Haze 22 1014 83 3000 0 0 20:59 20.10.2021
5155 Haze 22 1014 83 3000 0 0 20:39 20.10.2021
5156 Haze 22 1014 83 3000 0 0 20:19 20.10.2021
5157 Haze 24 1014 73 3000 1.03 330 19:23 20.10.2021
5158 Haze 23 1014 78 3000 0 0 18:45 20.10.2021
5159 Haze 25 1014 73 3000 0 0 17:33 20.10.2021
5160 Haze 30 1012 51 5000 1.03 60 14:33 20.10.2021
5161 Haze 32 1013 43 5000 1.54 320 09:57 20.10.2021
5162 Haze 30 1016 58 4000 2.57 240 06:57 20.10.2021
5163 Haze 22 1013 100 2500 0 0 02:37 20.10.2021
5164 Haze 23 1012 94 2500 1.03 300 00:33 20.10.2021
5165 Haze 23 1012 100 3000 1.03 330 22:53 19.10.2021
5166 Haze 24 1012 78 3000 1.03 310 21:37 19.10.2021
5167 Haze 24 1013 78 3000 1.03 320 20:27 19.10.2021
5168 Haze 24 1013 78 3000 1.54 310 19:59 19.10.2021
5169 Haze 24 1013 78 3000 1.54 310 19:36 19.10.2021
5170 Haze 24 1012 78 3000 1.03 310 18:40 19.10.2021
5171 Haze 26 1012 69 3000 0 0 17:47 19.10.2021
5172 Haze 29 1010 54 3000 2.06 290 15:29 19.10.2021
5173 Haze 31 1009 48 3000 2.06 260 14:40 19.10.2021
5174 Haze 31 1008 48 4000 1.54 270 13:52 19.10.2021
5175 Haze 33 1008 46 4000 3.09 270 12:23 19.10.2021
5176 Haze 33 1008 49 4000 3.6 300 11:24 19.10.2021
5177 Haze 32 1009 48 4000 3.09 320 09:55 19.10.2021
5178 Haze 32 1010 48 4000 5.66 300 08:56 19.10.2021
5179 Mist 24 1008 100 3000 1.54 280 02:18 19.10.2021
5180 Haze 25 1007 94 3000 0 0 23:58 18.10.2021
5181 Haze 25 1007 94 3000 0 0 23:39 18.10.2021
5182 Haze 25 1007 94 3000 0 0 22:56 18.10.2021
5183 Clouds 23 1006 92 10000 3.26 283 22:18 18.10.2021
5184 Haze 25 1008 100 3000 0 0 20:48 18.10.2021
5185 Haze 25 1008 100 3000 0 0 20:24 18.10.2021
5186 Haze 26 1008 100 3000 1.03 260 19:32 18.10.2021
5187 Haze 26 1008 94 3000 1.03 260 18:59 18.10.2021
5188 Haze 27 1006 100 3000 1.03 220 16:38 18.10.2021
5189 Haze 28 1005 74 4000 1.54 220 14:44 18.10.2021
5190 Haze 30 1003 66 4000 3.6 220 12:19 18.10.2021
5191 Haze 29 1004 70 4000 4.12 240 10:22 18.10.2021
5192 Clouds 26 1006 100 2000 2.06 250 08:21 18.10.2021
5193 Mist 25 1004 94 2500 0 0 00:30 18.10.2021
5194 Mist 25 1005 94 2500 1.03 120 22:48 17.10.2021
5195 Mist 25 1005 100 2500 2.06 160 21:44 17.10.2021
5196 Mist 26 1006 100 2500 3.09 150 20:57 17.10.2021
5197 Mist 26 1006 100 2500 3.09 150 20:21 17.10.2021
5198 Mist 26 1006 100 2500 1.03 160 19:38 17.10.2021
5199 Clouds 24 1005 91 10000 2.38 143 18:34 17.10.2021
5200 Mist 26 1005 100 2500 1.54 130 16:47 17.10.2021
5201 Mist 28 1003 83 2000 1.54 140 14:40 17.10.2021
5202 Mist 28 1003 83 2000 1.54 140 14:21 17.10.2021
5203 Mist 28 1003 89 2000 2.06 150 13:33 17.10.2021
5204 Haze 29 1003 74 2500 1.54 110 11:49 17.10.2021
5205 Haze 30 1004 70 2500 2.06 90 10:19 17.10.2021
5206 Haze 30 1005 70 2500 1.03 120 09:21 17.10.2021
5207 Haze 27 1007 94 2500 2.06 90 06:52 17.10.2021
5208 Mist 26 1004 100 3000 1.03 70 00:35 17.10.2021
5209 Mist 26 1004 100 3000 0 0 23:22 16.10.2021
5210 Mist 27 1005 89 3000 2.06 110 21:28 16.10.2021
5211 Mist 27 1005 89 3000 1.54 80 20:30 16.10.2021
5212 Mist 27 1005 83 3000 1.03 70 19:42 16.10.2021
5213 Clouds 27 1006 100 3000 0 0 19:20 16.10.2021
5214 Mist 27 1006 100 3000 0 0 18:45 16.10.2021
5215 Mist 27 1006 100 3000 1.03 320 18:24 16.10.2021
5216 Mist 27 1005 100 3000 1.03 320 17:49 16.10.2021
5217 Mist 27 1005 100 3000 0 0 17:20 16.10.2021
5218 Haze 31 1002 58 4000 2.06 80 13:45 16.10.2021
5219 Haze 33 1003 55 4000 2.06 70 11:25 16.10.2021
5220 Haze 33 1004 55 4000 2.57 70 09:38 16.10.2021
5221 Haze 28 1006 74 3000 1.03 50 04:47 16.10.2021
5222 Haze 26 1004 78 3000 0 0 01:24 16.10.2021
5223 Haze 27 1004 74 3000 0 0 23:27 15.10.2021
5224 Haze 27 1004 74 3000 1.54 350 22:22 15.10.2021
5225 Haze 28 1005 69 3000 1.54 50 21:45 15.10.2021
5226 Haze 28 1005 69 3000 1.54 50 21:19 15.10.2021
5227 Haze 28 1005 69 3000 1.54 330 20:41 15.10.2021
5228 Haze 28 1005 74 3000 1.03 330 19:20 15.10.2021
5229 Haze 28 1005 74 3000 1.54 330 18:25 15.10.2021
5230 Haze 28 1005 69 3000 0 0 16:19 15.10.2021
5231 Haze 28 1005 69 3000 0 0 16:19 15.10.2021
5232 Haze 30 1004 58 3000 2.75 64 14:37 15.10.2021
5233 Haze 32 1003 51 4000 2.06 60 12:27 15.10.2021
5234 Haze 32 1003 51 4000 2.57 60 11:20 15.10.2021
5235 Haze 32 1004 51 4000 2.57 110 10:32 15.10.2021
5236 Haze 31 1006 40 5000 2.57 30 08:21 15.10.2021
5237 Haze 26 1007 50 5000 2.06 10 05:30 15.10.2021
5238 Haze 24 1005 60 3000 1.54 350 00:25 15.10.2021
5239 Haze 25 1005 57 3000 1.03 310 23:34 14.10.2021
5240 Haze 25 1005 57 3000 1.03 310 23:34 14.10.2021
5241 Haze 25 1006 57 3000 1.54 330 22:40 14.10.2021
5242 Haze 25 1006 57 3000 0 0 21:40 14.10.2021
5243 Haze 25 1007 57 3000 0 0 20:22 14.10.2021
5244 Haze 25 1007 61 3000 0 0 19:49 14.10.2021
5245 Haze 26 1008 57 3000 0 0 18:45 14.10.2021
5246 Haze 27 1007 57 3000 0 0 17:24 14.10.2021
5247 Haze 28 1007 51 3000 0 0 16:33 14.10.2021
5248 Haze 29 1006 45 3000 0 0 15:20 14.10.2021
5249 Haze 31 1006 37 3000 1.03 30 14:30 14.10.2021
5250 Haze 31 1006 37 3000 1.03 30 14:30 14.10.2021
5251 Haze 33 1006 31 3000 2.06 30 13:35 14.10.2021
5252 Haze 33 1005 31 5000 2.57 30 11:35 14.10.2021
5253 Clouds 33 1008 33 6000 4.12 60 09:28 14.10.2021
5254 Clouds 27 1008 58 10000 2.49 17 06:27 14.10.2021
5255 Clouds 22 1007 72 10000 1.92 352 00:49 14.10.2021
5256 Mist 26 1007 73 3000 1.54 310 22:46 13.10.2021
5257 Mist 26 1008 73 3000 1.03 330 21:37 13.10.2021
5258 Haze 25 1008 78 3000 1.03 320 20:45 13.10.2021
5259 Haze 26 1008 73 3000 0 0 19:41 13.10.2021
5260 Haze 26 1008 73 3000 0 0 18:48 13.10.2021
5261 Haze 27 1008 65 4000 0 0 17:28 13.10.2021
5262 Haze 29 1006 58 4000 1.03 120 14:55 13.10.2021
5263 Haze 30 1006 51 5000 1.03 90 14:34 13.10.2021
5264 Clouds 34 1005 38 6000 1.54 140 12:48 13.10.2021
5265 Clouds 35 1006 36 6000 1.03 340 11:37 13.10.2021
5266 Clouds 34 1007 36 6000 1.03 340 10:21 13.10.2021
5267 Clouds 33 1009 38 6000 1.03 60 07:54 13.10.2021
5268 Haze 27 1009 61 3000 1.54 310 04:50 13.10.2021
5269 Clouds 21 1007 69 10000 2.44 339 02:22 13.10.2021
5270 Haze 24 1007 83 3000 2.06 330 23:38 12.10.2021
5271 Haze 23 1008 100 3000 1.03 320 22:53 12.10.2021
5272 Haze 23 1008 100 3000 1.03 320 22:34 12.10.2021
5273 Haze 25 1009 78 3000 0 0 20:54 12.10.2021
5274 Haze 25 1009 78 3000 0 0 20:31 12.10.2021
5275 Haze 25 1009 73 3000 0 0 19:45 12.10.2021
5276 Haze 26 1009 69 3000 1.03 160 18:26 12.10.2021
5277 Haze 26 1009 65 3000 0 0 17:29 12.10.2021
5278 Haze 27 1008 61 3000 0 0 16:24 12.10.2021
5279 Haze 27 1007 61 3000 1.03 120 15:35 12.10.2021
5280 Haze 32 1006 45 4000 1.03 80 13:46 12.10.2021
5281 Haze 33 1006 40 5000 1.54 110 13:18 12.10.2021
5282 -273 0 0 0 0 0 11:31 12.10.2021
5283 Haze 33 1006 38 5000 1.54 70 11:30 12.10.2021
5284 Haze 33 1007 35 5000 2.06 50 09:41 12.10.2021
5285 Haze 32 1009 43 5000 2.06 50 08:26 12.10.2021
5286 Haze 31 1010 51 4000 1.03 30 06:45 12.10.2021
5287 Haze 26 1010 78 4000 1.03 300 04:39 12.10.2021
5288 Mist 23 1008 100 3000 0 0 02:55 12.10.2021
5289 Haze 22 1007 100 3000 0 0 23:49 11.10.2021
5290 Haze 22 1007 100 3000 0 0 23:28 11.10.2021
5291 Haze 22 1007 100 3000 0 0 23:28 11.10.2021
5292 Haze 23 1007 88 3000 0 0 22:47 11.10.2021
5293 Haze 24 1008 83 3000 1.03 320 21:25 11.10.2021
5294 Haze 24 1008 78 3000 0 0 19:53 11.10.2021
5295 Haze 24 1008 78 3000 0 0 19:34 11.10.2021
5296 Haze 25 1008 78 3000 1.03 260 18:23 11.10.2021
5297 Haze 27 1007 65 3000 1.03 110 16:40 11.10.2021
5298 Haze 27 1007 65 3000 1.03 110 16:19 11.10.2021
5299 Haze 28 1007 61 4000 1.03 110 15:42 11.10.2021
5300 Haze 29 1006 58 4000 1.03 120 14:53 11.10.2021
5301 Haze 32 1006 45 4000 1.03 60 13:55 11.10.2021
5302 Haze 33 1006 43 5000 1.03 50 13:32 11.10.2021
5303 Haze 34 1007 36 5000 1.54 70 10:49 11.10.2021
5304 Haze 33 1008 35 5000 1.54 10 09:45 11.10.2021
5305 Haze 32 1010 45 5000 1.03 360 07:56 11.10.2021
5306 Mist 23 1008 100 3000 0 0 01:43 11.10.2021
5307 Haze 23 1008 100 4000 1.54 350 00:55 11.10.2021
5308 Haze 23 1008 100 4000 1.54 350 00:33 11.10.2021
5309 Haze 24 1008 83 4000 0 0 22:25 10.10.2021
5310 Haze 24 1008 78 4000 0 0 21:36 10.10.2021
5311 Haze 25 1009 78 4000 0 0 20:56 10.10.2021
5312 Haze 25 1009 78 4000 0 0 20:36 10.10.2021
5313 Haze 25 1009 78 4000 0 0 20:18 10.10.2021
5314 Haze 26 1009 73 4000 0 0 19:40 10.10.2021
5315 Haze 26 1009 73 4000 0 0 18:41 10.10.2021
5316 Haze 26 1009 73 4000 0 0 17:58 10.10.2021
5317 Haze 27 1008 69 4000 1.03 80 15:48 10.10.2021
5318 Haze 29 1007 58 4000 1.03 180 14:45 10.10.2021
5319 Haze 33 1007 40 5000 1.54 80 13:39 10.10.2021
5320 Haze 34 1007 33 5000 1.03 30 12:43 10.10.2021
5321 Haze 34 1008 26 5000 2.06 330 11:29 10.10.2021
5322 Haze 34 1008 26 5000 2.06 330 11:29 10.10.2021
5323 Haze 34 1009 36 5000 2.06 330 09:51 10.10.2021
5324 Haze 34 1009 36 5000 3.09 320 08:54 10.10.2021
5325 Haze 32 1011 51 5000 3.09 290 07:57 10.10.2021
5326 Haze 24 1010 83 3000 1.03 350 03:47 10.10.2021
5327 Haze 24 1010 83 3000 1.03 350 03:47 10.10.2021
5328 Mist 23 1008 100 2500 1.03 240 01:39 10.10.2021
5329 Mist 25 1008 94 2500 0 0 00:37 10.10.2021
5330 Mist 25 1008 100 2500 0 0 23:22 09.10.2021
5331 Haze 26 1009 94 3000 0 0 21:52 09.10.2021
5332 Haze 26 1009 94 3000 0 0 21:29 09.10.2021
5333 Haze 26 1010 100 3000 0 0 19:50 09.10.2021
5334 Haze 26 1010 100 3000 0 0 19:31 09.10.2021
5335 Haze 27 1010 78 3000 0 0 18:34 09.10.2021
5336 Haze 27 1009 78 3000 1.03 280 17:43 09.10.2021
5337 Haze 28 1008 74 3000 1.03 120 16:19 09.10.2021
5338 Haze 33 1007 52 4000 1.03 50 13:47 09.10.2021
5339 Haze 34 1007 43 4000 3.09 340 13:24 09.10.2021
5340 Haze 34 1007 52 4000 1.03 120 11:56 09.10.2021
5341 Haze 33 1007 55 4000 0 0 10:42 09.10.2021
5342 Haze 33 1008 55 4000 1.54 230 09:53 09.10.2021
5343 Haze 33 1010 52 5000 1.03 130 08:32 09.10.2021
5344 Haze 33 1010 55 5000 1.03 120 07:49 09.10.2021
5345 Haze 29 1011 74 4000 1.03 100 05:39 09.10.2021
5346 Haze 25 1010 100 2000 1.54 310 03:44 09.10.2021
5347 Haze 25 1009 100 2000 0 0 02:41 09.10.2021
5348 Haze 25 1007 100 3000 0 0 23:55 08.10.2021
5349 Haze 25 1007 100 3000 0 0 23:31 08.10.2021
5350 Haze 26 1008 94 3000 0 0 22:25 08.10.2021
5351 Haze 27 1008 100 3000 0 0 21:35 08.10.2021
5352 Haze 27 1008 94 3000 0 0 19:39 08.10.2021
5353 Haze 28 1008 74 3000 1.03 50 17:36 08.10.2021
5354 Haze 28 1008 74 3000 0 0 16:53 08.10.2021
5355 Haze 29 1008 70 3000 0 0 16:24 08.10.2021
5356 Haze 32 1006 51 3000 3.6 320 13:58 08.10.2021
5357 Haze 32 1006 55 3000 2.06 290 13:35 08.10.2021
5358 Haze 31 1006 62 3000 1.03 340 11:33 08.10.2021
5359 Haze 30 1007 70 4000 3.09 300 10:41 08.10.2021
5360 Haze 33 1008 55 5000 1.54 270 09:25 08.10.2021
5361 Haze 26 1007 83 3000 0 0 23:59 07.10.2021
5362 Haze 26 1007 83 3000 0 0 23:21 07.10.2021
5363 Haze 26 1008 94 3000 1.03 330 21:46 07.10.2021
5364 Haze 26 1008 94 3000 1.03 330 21:26 07.10.2021
5365 Haze 27 1008 89 3000 1.03 300 20:22 07.10.2021
5366 Haze 27 1008 89 3000 1.54 330 19:29 07.10.2021
5367 Haze 27 1008 100 3000 0 0 18:24 07.10.2021
5368 Haze 28 1008 78 2500 0 0 17:24 07.10.2021
5369 Haze 28 1007 78 2500 1.03 110 15:50 07.10.2021
5370 Haze 31 1006 66 3000 1.03 110 14:21 07.10.2021
5371 Clouds 29 1005 73 10000 1.65 34 13:38 07.10.2021
5372 Haze 33 1006 55 3000 1.03 110 12:40 07.10.2021
5373 Haze 33 1007 55 3000 2.57 60 10:52 07.10.2021
5374 Haze 33 1007 55 3000 2.57 60 10:52 07.10.2021
5375 Haze 33 1008 58 3000 1.03 70 10:19 07.10.2021
5376 Haze 33 1008 58 3000 1.03 70 09:33 07.10.2021
5377 Haze 33 1009 55 3000 1.03 90 08:41 07.10.2021
5378 Haze 32 1011 62 4000 1.54 130 07:43 07.10.2021
5379 Haze 32 1011 62 4000 2.06 130 07:19 07.10.2021
5380 Mist 25 1009 100 3000 1.54 320 02:26 07.10.2021
5381 Haze 26 1008 100 3000 0 0 23:55 06.10.2021
5382 Haze 26 1008 100 3000 0 0 22:50 06.10.2021
5383 Haze 26 1009 100 3000 0 0 21:53 06.10.2021
5384 Haze 26 1009 100 3000 0 0 20:35 06.10.2021
5385 Haze 27 1009 89 3000 0 0 19:48 06.10.2021
5386 Haze 27 1009 78 3000 0 0 18:40 06.10.2021
5387 Haze 29 1008 70 3000 0 0 16:56 06.10.2021
5388 Haze 29 1008 70 4000 0 0 15:27 06.10.2021
5389 Haze 32 1007 62 4000 0 0 13:55 06.10.2021
5390 Haze 33 1006 55 5000 1.03 50 12:59 06.10.2021
5391 Haze 33 1006 55 5000 2.06 120 12:40 06.10.2021
5392 Haze 33 1006 55 5000 2.06 120 12:21 06.10.2021
5393 Haze 33 1008 55 5000 1.54 50 10:18 06.10.2021
5394 Haze 33 1009 55 5000 2.06 90 09:39 06.10.2021
5395 Haze 32 1010 62 5000 1.54 60 08:42 06.10.2021
5396 Haze 31 1011 62 5000 2.06 50 07:44 06.10.2021
5397 Haze 28 1011 74 4000 1.54 70 05:26 06.10.2021
5398 Haze 25 1008 100 3000 1.03 180 00:28 06.10.2021
5399 Haze 26 1009 100 3000 1.03 40 23:57 05.10.2021
5400 Haze 26 1009 100 3000 1.03 40 23:38 05.10.2021
5401 Haze 26 1009 100 3000 1.03 40 23:20 05.10.2021
5402 Haze 26 1010 100 3000 0 0 22:27 05.10.2021
5403 Haze 26 1010 100 3000 0 0 21:47 05.10.2021
5404 Haze 26 1011 100 3000 0 0 20:41 05.10.2021
5405 Haze 26 1011 100 3000 0 0 20:23 05.10.2021
5406 Haze 26 1011 100 3000 0 0 19:42 05.10.2021
5407 Haze 27 1011 89 3000 0 0 18:49 05.10.2021
5408 Haze 27 1010 78 3000 1.03 330 16:36 05.10.2021
5409 Thunderstorm 28 1008 69 3000 2.06 320 14:34 05.10.2021
5410 Thunderstorm 31 1008 58 3000 2.06 20 13:34 05.10.2021
5411 Haze 31 1007 62 4000 1.03 50 12:46 05.10.2021
5412 Haze 33 1007 58 4000 3.09 190 11:59 05.10.2021
5413 Haze 33 1008 55 5000 1.03 140 10:44 05.10.2021
5414 Haze 33 1009 58 5000 1.54 100 09:25 05.10.2021
5415 Haze 26 1010 100 3000 2.06 320 03:57 05.10.2021
5416 Haze 26 1009 100 3000 0 0 23:53 04.10.2021
5417 Haze 26 1009 100 3000 0 0 22:35 04.10.2021
5418 Haze 27 1010 100 3000 0 0 19:38 04.10.2021
5419 Haze 27 1010 100 3000 1.03 200 18:34 04.10.2021
5420 Haze 29 1008 74 3000 1.54 270 16:24 04.10.2021
5421 Haze 29 1007 74 3000 1.03 340 15:31 04.10.2021
5422 Haze 31 1007 66 4000 1.54 250 14:42 04.10.2021
5423 Haze 32 1006 66 4000 2.06 210 13:50 04.10.2021
5424 Haze 33 1006 58 4000 2.06 250 13:24 04.10.2021
5425 Haze 34 1006 49 4000 1.54 50 11:35 04.10.2021
5426 Haze 34 1007 52 5000 1.03 50 10:48 04.10.2021
5427 Haze 33 1008 55 5000 2.06 30 09:58 04.10.2021
5428 Haze 33 1009 58 5000 2.06 10 08:39 04.10.2021
5429 Haze 31 1010 66 5000 2.06 330 07:19 04.10.2021
5430 Clouds 24 1007 88 10000 1.27 297 00:29 04.10.2021
5431 Mist 26 1009 100 3000 0 0 22:34 03.10.2021
5432 Clouds 25 1007 87 10000 1.41 264 21:38 03.10.2021
5433 Mist 26 1010 100 3000 0 0 20:59 03.10.2021
5434 Mist 27 1011 100 3000 0 0 19:57 03.10.2021
5435 Mist 27 1011 100 3000 0 0 18:34 03.10.2021
5436 Clouds 27 1010 100 3000 0 0 17:48 03.10.2021
5437 Haze 28 1008 89 3000 1.54 60 15:57 03.10.2021
5438 Haze 29 1008 79 3000 1.03 320 14:45 03.10.2021
5439 Haze 31 1008 66 3000 2.57 310 13:58 03.10.2021
5440 Haze 32 1008 62 4000 3.6 290 13:21 03.10.2021
5441 Haze 31 1007 62 4000 4.63 260 12:28 03.10.2021
5442 Haze 31 1008 70 4000 5.14 280 10:36 03.10.2021
5443 Haze 31 1011 66 3000 1.54 230 08:36 03.10.2021
5444 Mist 24 1009 100 1000 1.03 230 01:30 03.10.2021
5445 Haze 25 1010 94 3000 1.03 250 22:34 02.10.2021
5446 Clouds 25 1009 84 10000 1.19 210 20:55 02.10.2021
5447 Haze 25 1011 100 3000 1.03 120 19:32 02.10.2021
5448 Haze 25 1011 100 3000 1.03 100 18:50 02.10.2021
5449 Haze 25 1011 100 3000 1.03 140 17:39 02.10.2021
5450 Haze 25 1010 100 3000 1.03 130 16:54 02.10.2021
5451 Haze 26 1009 100 4000 1.03 180 14:42 02.10.2021
5452 Haze 27 1009 83 3000 1.03 290 15:41 30.09.2021
5453 Haze 28 1008 78 3000 1.54 280 14:46 30.09.2021
5454 Haze 31 1007 62 4000 2.57 160 12:27 30.09.2021
5455 Haze 32 1008 58 5000 1.03 160 11:31 30.09.2021
5456 Haze 32 1008 58 5000 1.54 200 10:36 30.09.2021
5457 Haze 33 1010 55 5000 2.06 230 08:54 30.09.2021
5458 Haze 32 1011 58 5000 1.54 0 08:22 30.09.2021
5459 Haze 31 1012 70 4000 1.03 120 05:50 30.09.2021
5460 Haze 25 1009 100 2000 0 0 02:33 30.09.2021
5461 Haze 25 1008 100 3000 0 0 00:40 30.09.2021
5462 Haze 25 1008 100 3000 0 0 23:21 29.09.2021
5463 Haze 25 1009 100 3000 0 0 21:54 29.09.2021
5464 Haze 26 1009 100 3000 0 0 20:42 29.09.2021
5465 Haze 26 1009 100 3000 0 0 20:20 29.09.2021
5466 Haze 26 1009 100 3000 0 0 19:28 29.09.2021
5467 Haze 26 1009 89 3000 1.03 100 18:18 29.09.2021
5468 Haze 27 1009 83 3000 1.03 60 16:56 29.09.2021
5469 Haze 27 1008 78 3000 1.03 150 16:29 29.09.2021
5470 Haze 28 1008 74 4000 1.03 130 15:35 29.09.2021
5471 Haze 30 1007 66 5000 1.03 190 14:38 29.09.2021
5472 Haze 32 1006 58 5000 2.57 170 13:34 29.09.2021
5473 Haze 32 1006 58 5000 1.54 140 12:40 29.09.2021
5474 Haze 31 1007 62 5000 2.06 160 11:23 29.09.2021
5475 Haze 32 1007 55 5000 2.06 220 10:32 29.09.2021
5476 Haze 31 1008 62 5000 2.57 190 09:43 29.09.2021
5477 Haze 30 1010 70 5000 2.57 170 07:55 29.09.2021
5478 Haze 27 1010 89 5000 1.54 180 06:49 29.09.2021
5479 Mist 25 1007 100 3000 2.06 130 00:28 29.09.2021
5480 Mist 24 1007 100 3000 1.03 80 22:45 28.09.2021
5481 Clouds 23 1005 97 10000 2.45 162 22:22 28.09.2021
5482 Mist 24 1007 100 3000 1.54 120 21:21 28.09.2021
5483 Mist 24 1008 100 3000 1.03 130 19:49 28.09.2021
5484 Mist 24 1008 100 3000 1.03 130 19:29 28.09.2021
5485 Mist 24 1007 100 3000 2.06 150 18:41 28.09.2021
5486 Mist 25 1006 94 3000 2.06 140 16:57 28.09.2021
5487 Haze 25 1004 100 3000 1.03 120 15:21 28.09.2021
5488 Haze 29 1002 70 4000 3.09 120 13:27 28.09.2021
5489 Haze 29 1002 70 4000 5.14 120 12:25 28.09.2021
5490 Haze 29 1002 70 4000 5.14 120 11:51 28.09.2021
5491 Haze 29 1002 70 4000 4.63 120 11:32 28.09.2021
5492 Haze 29 1003 70 4000 4.12 120 10:30 28.09.2021
5493 Haze 28 1004 74 4000 4.12 110 09:29 28.09.2021
5494 Haze 28 1004 78 4000 5.14 110 08:44 28.09.2021
5495 Haze 27 1004 83 4000 4.12 120 08:44 28.09.2021
5496 Haze 27 1004 83 4000 4.12 120 08:24 28.09.2021
5497 Mist 25 1005 100 3000 5.14 120 06:46 28.09.2021
5498 Clouds 25 1004 100 3000 6.17 60 06:46 28.09.2021
5499 Haze 26 1002 83 3000 4.12 70 02:56 28.09.2021
5500 Haze 26 1001 83 4000 5.14 60 00:34 28.09.2021
5501 Haze 27 1001 78 4000 2.57 50 23:52 27.09.2021
5502 Haze 27 1001 78 4000 2.57 50 23:25 27.09.2021
5503 Haze 27 1001 78 4000 2.57 60 22:31 27.09.2021
5504 Haze 27 1002 78 4000 2.57 50 21:38 27.09.2021
5505 Haze 28 1002 74 4000 2.57 50 20:29 27.09.2021
5506 Haze 28 1002 69 4000 2.57 50 19:40 27.09.2021
5507 Haze 28 1002 74 4000 3.09 30 18:54 27.09.2021
5508 Haze 28 1002 69 4000 3.09 30 17:41 27.09.2021
5509 Haze 28 1002 69 4000 3.09 30 17:41 27.09.2021
5510 Haze 28 1002 74 4000 3.09 30 17:21 27.09.2021
5511 Haze 28 1002 74 4000 2.06 40 16:35 27.09.2021
5512 Haze 28 1001 74 4000 2.06 350 15:39 27.09.2021
5513 Haze 29 1000 65 5000 2.57 50 13:50 27.09.2021
5514 Haze 30 1001 66 5000 1.03 70 12:25 27.09.2021
5515 Haze 29 1002 70 5000 2.57 60 10:51 27.09.2021
5516 Haze 29 1003 65 5000 2.57 60 09:42 27.09.2021
5517 Haze 30 1005 66 5000 2.57 50 07:57 27.09.2021
5518 Mist 26 1004 100 3000 1.54 30 03:40 27.09.2021
5519 Haze 27 1003 100 3000 0 0 23:53 26.09.2021
5520 Haze 27 1004 78 3000 0 0 21:59 26.09.2021
5521 Haze 27 1004 78 3000 0 0 21:27 26.09.2021
5522 Haze 28 1005 83 3000 0 0 20:30 26.09.2021
5523 Haze 28 1005 100 3000 0 0 19:54 26.09.2021
5524 Haze 28 1005 94 3000 0 0 19:26 26.09.2021
5525 Haze 28 1005 94 3000 0 0 19:26 26.09.2021
5526 Haze 28 1005 94 3000 0 0 19:26 26.09.2021
5527 Haze 28 1005 94 3000 0 0 19:26 26.09.2021
5528 Haze 28 1005 94 3000 0 0 19:26 26.09.2021
5529 Haze 28 1006 94 3000 0 0 18:41 26.09.2021
5530 Haze 28 1005 100 3000 0 0 17:48 26.09.2021
5531 Haze 28 1005 100 3000 0 0 17:20 26.09.2021
5532 Haze 28 1004 83 3000 0 0 16:23 26.09.2021
5533 Haze 29 1003 74 3000 1.54 60 15:47 26.09.2021
5534 Haze 30 1002 70 4000 1.03 80 14:23 26.09.2021
5535 Haze 31 1002 66 4000 1.54 50 13:43 26.09.2021
5536 Haze 32 1002 66 3000 1.03 50 12:31 26.09.2021
5537 Haze 32 1003 62 3000 1.54 40 11:56 26.09.2021
5538 Haze 32 1003 62 3000 1.54 50 11:26 26.09.2021
5539 Haze 31 1005 70 3000 1.03 20 09:51 26.09.2021
5540 Haze 29 1007 79 4000 1.03 20 08:41 26.09.2021
5541 Clouds 24 1004 91 10000 2.06 328 01:18 26.09.2021
5542 Clouds 24 1004 91 10000 2.06 328 01:18 26.09.2021
5543 Mist 24 1006 100 2000 1.03 280 00:18 26.09.2021
5544 Mist 24 1005 100 2000 0 0 22:39 25.09.2021
5545 Mist 24 1005 100 2000 0 0 22:19 25.09.2021
5546 Rain 24 1006 100 2000 2.06 320 21:46 25.09.2021
5547 Clouds 24 1007 100 2000 2.06 320 20:52 25.09.2021
5548 Clouds 26 1008 94 2000 4.12 220 19:41 25.09.2021
5549 Thunderstorm 27 1007 89 3000 1.03 290 18:28 25.09.2021
5550 Thunderstorm 27 1007 89 3000 5.14 310 17:45 25.09.2021
5551 Mist 29 1005 79 3000 0 0 14:39 25.09.2021
5552 Mist 31 1004 74 3000 0 0 13:55 25.09.2021
5553 Mist 31 1004 70 3000 1.03 200 12:46 25.09.2021
5554 Mist 30 1005 84 2500 1.03 60 11:27 25.09.2021
5555 Haze 31 1006 70 3000 1.54 120 10:20 25.09.2021
5556 Haze 31 1007 66 3000 2.57 210 09:21 25.09.2021
5557 Haze 30 1008 74 2500 0 0 07:48 25.09.2021
5558 Haze 25 1007 100 3000 0 0 00:52 25.09.2021
5559 Rain 26 1007 100 3000 0 0 22:18 24.09.2021
5560 Rain 25 1006 86 10000 0.47 185 21:34 24.09.2021
5561 Haze 27 1008 100 3000 0 0 20:32 24.09.2021
5562 Haze 27 1008 100 3000 0 0 19:31 24.09.2021
5563 Thunderstorm 27 1008 100 3000 2.57 270 18:20 24.09.2021
5564 Thunderstorm 27 1008 100 3000 2.06 270 17:50 24.09.2021
5565 Thunderstorm 28 1008 100 3000 1.03 320 17:31 24.09.2021
5566 Haze 28 1006 78 3000 0 0 15:39 24.09.2021
5567 Haze 30 1004 74 3000 0 0 13:21 24.09.2021
5568 Haze 30 1005 70 3000 0 0 12:43 24.09.2021
5569 Haze 32 1005 62 3000 1.03 220 12:25 24.09.2021
5570 Clouds 29 1006 94 3000 2.06 210 10:53 24.09.2021
5571 Haze 31 1006 66 4000 2.06 130 09:37 24.09.2021
5572 Haze 30 1008 70 4000 0 0 07:57 24.09.2021
5573 Haze 28 1009 83 4000 0 0 06:59 24.09.2021
5574 Haze 27 1009 94 3000 1.03 320 05:57 24.09.2021
5575 Mist 25 1007 94 2500 0 0 02:29 24.09.2021
5576 Mist 25 1007 100 3000 0 0 22:37 23.09.2021
5577 Mist 25 1007 100 3000 1.54 320 21:58 23.09.2021
5578 Mist 26 1007 94 3000 1.03 300 20:52 23.09.2021
5579 Mist 26 1007 94 3000 1.03 300 20:27 23.09.2021
5580 Mist 26 1007 94 2500 0 0 18:27 23.09.2021
5581 Mist 26 1005 100 3000 1.03 330 15:53 23.09.2021
5582 Mist 27 1005 94 1800 2.06 320 15:19 23.09.2021
5583 Mist 27 1004 100 1800 2.06 300 14:24 23.09.2021
5584 Mist 27 1004 100 2000 1.64 257 13:26 23.09.2021
5585 Mist 27 1003 100 2000 1.03 340 12:54 23.09.2021
5586 Mist 26 1003 100 2000 2.06 340 12:24 23.09.2021
5587 Clouds 25 1003 100 2000 2.06 360 11:56 23.09.2021
5588 Haze 31 1004 66 2500 5.14 180 10:29 23.09.2021
5589 Haze 31 1005 70 3000 3.6 160 09:53 23.09.2021
5590 Haze 31 1006 66 5000 1.03 160 08:55 23.09.2021
5591 Haze 27 1006 94 3000 1.54 330 05:29 23.09.2021
5592 Haze 25 1005 100 4000 1.54 280 23:48 22.09.2021
5593 Haze 25 1005 100 4000 0 0 22:49 22.09.2021
5594 Haze 25 1005 100 4000 0 0 22:18 22.09.2021
5595 Haze 26 1005 100 4000 1.03 310 21:41 22.09.2021
5596 Haze 26 1006 100 4000 0 0 20:57 22.09.2021
5597 Haze 26 1006 100 4000 2.06 330 19:34 22.09.2021
5598 Haze 26 1006 100 4000 0 0 18:47 22.09.2021
5599 Haze 27 1006 100 4000 0 0 18:23 22.09.2021
5600 Rain 26 1004 85 10000 1.23 59 16:41 22.09.2021
5601 Clouds 26 1003 83 10000 1.4 71 15:38 22.09.2021
5602 Haze 29 1002 70 4000 1.03 300 14:25 22.09.2021
5603 Haze 31 1002 62 5000 5.14 330 12:22 22.09.2021
5604 Haze 32 1003 62 5000 1.54 160 10:57 22.09.2021
5605 Haze 31 1005 66 5000 1.03 340 09:29 22.09.2021
5606 Haze 31 1006 66 5000 2.06 320 08:35 22.09.2021
5607 Haze 29 1006 74 4000 2.06 20 07:30 22.09.2021
5608 Haze 28 1007 83 4000 2.06 350 06:19 22.09.2021
5609 Haze 27 1006 100 3000 2.57 340 05:42 22.09.2021
5610 Mist 24 1005 100 1500 1.54 250 03:53 22.09.2021
5611 Mist 23 1005 100 1500 0 0 02:43 22.09.2021
5612 Mist 24 1005 100 2000 1.03 120 23:31 21.09.2021
5613 Mist 24 1006 100 2000 1.03 240 21:47 21.09.2021
5614 Clouds 25 1005 85 10000 1.88 289 20:27 21.09.2021
5615 Mist 25 1007 94 3000 1.03 180 19:24 21.09.2021
5616 Clouds 25 1006 87 10000 1.83 270 17:59 21.09.2021
5617 Mist 25 1006 100 3000 1.03 320 16:40 21.09.2021
5618 Mist 25 1005 100 3000 1.54 320 15:56 21.09.2021
5619 Mist 26 1005 100 3000 2.06 280 14:58 21.09.2021
5620 Mist 27 1004 89 3000 1.03 260 13:57 21.09.2021
5621 Mist 27 1004 94 3000 1.54 300 13:39 21.09.2021
5622 Mist 27 1004 100 3000 2.06 270 12:44 21.09.2021
5623 Mist 26 1006 94 3000 1.54 310 10:39 21.09.2021
5624 Rain 25 1008 100 2000 2.06 310 08:41 21.09.2021
5625 Thunderstorm 25 1010 94 1500 0 0 07:37 21.09.2021
5626 Mist 25 1007 100 2000 0 0 01:53 21.09.2021
5627 Mist 25 1008 100 2000 0 0 22:50 20.09.2021
5628 Mist 25 1009 100 2000 0 0 21:42 20.09.2021
5629 Mist 25 1009 100 2000 0 0 21:20 20.09.2021
5630 Mist 26 1009 94 2000 0 0 19:46 20.09.2021
5631 Mist 26 1009 94 2000 0 0 17:54 20.09.2021
5632 Mist 26 1008 94 2000 1.03 140 16:57 20.09.2021
5633 Mist 26 1007 94 2000 1.03 180 15:57 20.09.2021
5634 Mist 26 1006 100 2000 0 0 15:34 20.09.2021
5635 Mist 26 1007 100 2000 1.03 140 14:26 20.09.2021
5636 Mist 26 1007 100 2000 0 0 12:44 20.09.2021
5637 Mist 26 1007 100 2000 0 0 12:21 20.09.2021
5638 Mist 26 1007 100 2000 0 0 12:21 20.09.2021
5639 Rain 25 1008 100 2000 0 0 10:36 20.09.2021
5640 Rain 25 1009 100 2000 0 0 09:44 20.09.2021
5641 Rain 25 1009 100 2000 0 0 09:25 20.09.2021
5642 Thunderstorm 25 1011 100 2000 1.54 70 08:34 20.09.2021
5643 Haze 25 1009 100 3000 0 0 02:29 20.09.2021
5644 Haze 26 1009 100 3000 1.54 190 22:47 19.09.2021
5645 Haze 26 1009 100 3000 1.54 190 21:47 19.09.2021
5646 Haze 27 1010 94 3000 0 0 20:58 19.09.2021
5647 Haze 27 1010 100 3000 0 0 19:41 19.09.2021
5648 Haze 28 1011 94 3000 0 0 18:42 19.09.2021
5649 Haze 29 1010 74 3000 1.03 300 17:23 19.09.2021
5650 Haze 29 1009 79 3000 0 0 16:32 19.09.2021
5651 Haze 29 1008 84 4000 1.03 160 15:31 19.09.2021
5652 Haze 30 1008 74 4000 1.03 230 14:48 19.09.2021
5653 Haze 31 1008 62 4000 1.03 270 13:46 19.09.2021
5654 Haze 31 1007 66 4000 1.03 220 12:52 19.09.2021
5655 Haze 30 1008 66 4000 2.06 270 11:39 19.09.2021
5656 Haze 30 1008 66 4000 2.06 270 11:20 19.09.2021
5657 Haze 31 1010 66 5000 2.06 330 09:50 19.09.2021
5658 Haze 31 1011 62 5000 1.54 280 08:49 19.09.2021
5659 Haze 30 1012 70 5000 1.54 190 06:43 19.09.2021
5660 Mist 25 1009 94 3000 1.03 210 23:57 18.09.2021
5661 Mist 25 1009 100 3000 0 0 22:54 18.09.2021
5662 Haze 25 1010 100 3000 0 0 21:26 18.09.2021
5663 Haze 26 1010 94 4000 0 0 20:45 18.09.2021
5664 Haze 26 1010 94 4000 0 0 19:41 18.09.2021
5665 Haze 26 1010 94 4000 0 0 19:21 18.09.2021
5666 Haze 26 1010 100 4000 0 0 18:37 18.09.2021
5667 Haze 26 1009 100 4000 1.03 210 17:46 18.09.2021
5668 Haze 27 1008 83 4000 1.03 180 16:34 18.09.2021
5669 Haze 31 1006 62 4000 3.09 220 13:50 18.09.2021
5670 Haze 31 1006 62 4000 3.6 240 13:30 18.09.2021
5671 Haze 31 1006 62 4000 2.57 220 12:50 18.09.2021
5672 Haze 30 1006 66 4000 1.54 290 11:42 18.09.2021
5673 Haze 31 1007 62 5000 1.54 270 10:33 18.09.2021
5674 Haze 31 1008 62 5000 1.54 240 09:48 18.09.2021
5675 Haze 31 1008 62 5000 1.54 250 09:19 18.09.2021
5676 Haze 27 1009 94 4000 1.03 240 05:51 18.09.2021
5677 Clouds 23 1005 95 10000 1.71 257 00:42 18.09.2021
5678 Clouds 23 1004 95 10000 1.93 252 23:50 17.09.2021
5679 Clouds 23 1005 95 10000 2.11 251 22:40 17.09.2021
5680 Clouds 23 1005 95 10000 2.08 246 22:20 17.09.2021
5681 Mist 25 1007 94 2000 1.54 220 21:23 17.09.2021
5682 Mist 25 1007 100 2000 1.03 210 19:23 17.09.2021
5683 Clouds 25 1007 100 2000 1.03 210 17:29 17.09.2021
5684 Thunderstorm 25 1006 100 2000 2.57 210 16:27 17.09.2021
5685 Clouds 26 1004 100 3000 3.6 310 14:23 17.09.2021
5686 Haze 30 1005 66 4000 3.09 230 10:53 17.09.2021
5687 Haze 28 1006 78 4000 3.09 210 08:52 17.09.2021
5688 Haze 27 1007 100 4000 1.54 240 07:19 17.09.2021
5689 Mist 24 1005 100 2000 2.06 200 03:54 17.09.2021
5690 Rain 24 1004 100 2000 2.06 220 23:35 16.09.2021
5691 Clouds 24 1005 100 2000 3.09 220 22:28 16.09.2021
5692 Clouds 24 1005 100 2000 3.6 240 21:51 16.09.2021
5693 Clouds 24 1005 100 2000 3.6 240 21:24 16.09.2021
5694 Clouds 24 1005 100 2000 3.09 230 20:18 16.09.2021
5695 Rain 25 1006 94 1500 2.06 260 18:20 16.09.2021
5696 Mist 25 1006 100 3000 2.57 210 17:33 16.09.2021
5697 Haze 27 1004 83 4000 2.06 230 14:58 16.09.2021
5698 Haze 27 1004 83 4000 1.03 220 14:24 16.09.2021
5699 Haze 27 1004 78 4000 5.14 260 12:51 16.09.2021
5700 Haze 27 1004 78 4000 4.12 250 12:29 16.09.2021
5701 Haze 28 1004 74 4000 4.12 250 11:26 16.09.2021
5702 Haze 28 1005 74 4000 3.6 230 10:33 16.09.2021
5703 Haze 28 1005 74 3000 3.09 260 09:57 16.09.2021
5704 Haze 27 1006 83 3000 3.6 240 08:42 16.09.2021
5705 Haze 27 1007 83 3000 3.6 230 07:36 16.09.2021
5706 Haze 26 1007 100 3000 4.12 220 06:46 16.09.2021
5707 Mist 25 1007 100 3000 3.09 250 05:26 16.09.2021
5708 Rain 24 1004 94 3000 2.57 240 01:40 16.09.2021
5709 Haze 25 1004 100 3000 3.09 230 23:45 15.09.2021
5710 Haze 25 1004 100 3000 3.09 230 22:47 15.09.2021
5711 Haze 25 1005 100 3000 3.09 230 21:44 15.09.2021
5712 Haze 25 1005 100 3000 3.09 230 21:25 15.09.2021
5713 Haze 26 1006 100 3000 2.57 210 19:52 15.09.2021
5714 Haze 26 1006 100 3000 2.57 210 19:52 15.09.2021
5715 Haze 26 1006 100 3000 2.57 210 19:19 15.09.2021
5716 Haze 26 1006 100 3000 1.54 220 17:57 15.09.2021
5717 Haze 26 1005 94 3000 2.06 210 16:55 15.09.2021
5718 Haze 27 1004 83 3000 1.54 230 15:34 15.09.2021
5719 Haze 27 1003 83 3000 3.09 260 14:44 15.09.2021
5720 Haze 28 1002 74 3000 4.12 260 13:51 15.09.2021
5721 Haze 29 1002 70 3000 5.14 250 13:30 15.09.2021
5722 Haze 28 1002 78 3000 6.17 250 12:44 15.09.2021
5723 Haze 28 1002 74 3000 4.12 270 11:52 15.09.2021
5724 Haze 29 1003 70 3000 3.6 260 11:21 15.09.2021
5725 Haze 29 1003 70 3000 5.14 240 10:55 15.09.2021
5726 Haze 28 1004 74 4000 4.63 250 09:28 15.09.2021
5727 Haze 28 1005 74 4000 5.14 240 07:43 15.09.2021
5728 Mist 26 1004 100 2500 4.12 240 04:24 15.09.2021
5729 Mist 25 1002 100 2000 3.09 260 22:56 14.09.2021
5730 Mist 25 1002 100 2000 2.57 260 21:40 14.09.2021
5731 Mist 25 1003 100 2000 2.57 280 20:38 14.09.2021
5732 Mist 26 1003 100 2000 3.09 250 19:41 14.09.2021
5733 Mist 26 1003 100 2000 3.09 260 17:34 14.09.2021
5734 Mist 26 1002 100 2000 1.54 260 16:56 14.09.2021
5735 Clouds 27 1001 100 2000 2.57 270 15:30 14.09.2021
5736 Clouds 27 1000 100 2000 2.06 240 14:31 14.09.2021
5737 Thunderstorm 25 1000 100 3000 1.54 280 11:52 14.09.2021
5738 Thunderstorm 26 1000 100 3000 1.54 260 10:54 14.09.2021
5739 Haze 29 1001 79 3000 3.6 250 09:50 14.09.2021
5740 Haze 30 1001 74 4000 3.6 290 08:39 14.09.2021
5741 Haze 27 1002 100 3000 2.57 280 06:23 14.09.2021
5742 Rain 26 1000 100 2000 0 0 23:54 13.09.2021
5743 Rain 26 1000 100 3000 0 0 22:30 13.09.2021
5744 Mist 26 1001 100 3000 0 0 21:59 13.09.2021
5745 Mist 26 1001 100 3000 0 0 21:40 13.09.2021
5746 Rain 26 1002 100 3000 1.03 220 20:48 13.09.2021
5747 Haze 27 1002 100 3000 0 0 18:45 13.09.2021
5748 Haze 27 1002 100 3000 0 0 18:45 13.09.2021
5749 Haze 27 1002 100 3000 1.03 240 17:41 13.09.2021
5750 Haze 27 1001 100 3000 2.06 290 16:50 13.09.2021
5751 Haze 27 1001 100 3000 2.06 290 16:50 13.09.2021
5752 Haze 28 999 94 3000 1.54 260 14:57 13.09.2021
5753 Haze 28 999 94 3000 1.54 260 14:57 13.09.2021
5754 Haze 29 999 79 3000 3.09 240 11:55 13.09.2021
5755 Haze 29 1001 79 3000 3.6 240 10:58 13.09.2021
5756 Haze 30 1002 74 2000 2.57 270 09:31 13.09.2021
5757 Mist 25 1001 100 3000 0 0 01:24 13.09.2021
5758 Clouds 26 1002 94 3000 0 0 22:55 12.09.2021
5759 Clouds 26 1002 94 3000 0 0 22:24 12.09.2021
5760 Clouds 25 1002 100 3000 0 0 21:23 12.09.2021
5761 Rain 26 1003 100 3000 0 0 20:21 12.09.2021
5762 Mist 26 1003 94 3000 0 0 19:49 12.09.2021
5763 Mist 26 1003 94 3000 0 0 19:18 12.09.2021
5764 Rain 25 1003 100 3000 0 0 18:18 12.09.2021
5765 Clouds 26 1001 100 3000 0 0 15:59 12.09.2021
5766 Thunderstorm 26 1001 100 3000 0 0 14:48 12.09.2021
5767 Thunderstorm 28 1000 100 3000 2.06 150 12:45 12.09.2021
5768 Haze 29 1001 79 5000 2.57 210 10:33 12.09.2021
5769 Haze 30 1004 74 5000 2.57 270 08:39 12.09.2021
5770 Haze 30 1004 70 5000 3.09 240 07:39 12.09.2021
5771 Mist 25 1002 94 2500 1.54 300 00:48 12.09.2021
5772 Haze 27 1003 100 3000 1.03 260 22:59 11.09.2021
5773 Haze 27 1004 100 3000 0 0 21:39 11.09.2021
5774 Haze 27 1004 100 3000 1.03 200 19:55 11.09.2021
5775 Haze 28 1005 94 3000 1.03 130 18:30 11.09.2021
5776 Haze 28 1004 94 4000 1.03 160 17:29 11.09.2021
5777 Haze 28 1003 83 5000 1.03 210 15:37 11.09.2021
5778 Haze 30 1002 74 5000 1.03 130 13:25 11.09.2021
5779 Haze 31 1002 66 5000 4.12 210 11:45 11.09.2021
5780 Haze 30 1003 74 4000 1.03 160 10:40 11.09.2021
5781 Clouds 26 1006 100 3000 1.54 180 08:54 11.09.2021
5782 Clouds 27 1007 100 3000 1.54 320 07:44 11.09.2021
5783 Haze 25 1006 94 4000 1.54 220 04:23 11.09.2021
5784 Rain 24 1003 95 9995 2.96 221 22:47 10.09.2021
5785 Rain 24 1004 94 7934 3.09 221 22:18 10.09.2021
5786 Mist 24 1005 100 2000 0 0 21:40 10.09.2021
5787 Rain 24 1006 100 2000 1.03 320 19:32 10.09.2021
5788 Thunderstorm 24 1007 100 2000 2.06 270 17:58 10.09.2021
5789 Thunderstorm 25 1005 100 2000 1.03 300 16:28 10.09.2021
5790 Haze 26 1004 100 3000 1.54 250 13:32 10.09.2021
5791 Haze 31 1004 62 5000 4.12 280 10:54 10.09.2021
5792 Haze 30 1007 70 5000 2.57 250 08:26 10.09.2021
5793 Haze 30 1007 66 5000 2.57 260 07:43 10.09.2021
5794 Rain 25 1006 100 3000 1.03 230 00:40 10.09.2021
5795 Haze 26 1007 100 3000 0 0 21:54 09.09.2021
5796 Haze 26 1007 100 3000 1.03 100 20:48 09.09.2021
5797 Haze 26 1007 100 3000 1.03 100 20:27 09.09.2021
5798 Rain 27 1007 94 3000 0 0 18:46 09.09.2021
5799 Haze 27 1007 100 3000 0 0 17:51 09.09.2021
5800 Haze 28 1006 83 4000 1.54 180 16:39 09.09.2021
5801 Rain 28 1005 78 4000 1.03 270 15:25 09.09.2021
5802 Haze 30 1004 70 5000 5.14 230 12:33 09.09.2021
5803 Haze 30 1005 74 5000 4.12 230 11:22 09.09.2021
5804 Haze 29 1006 79 5000 2.57 220 09:36 09.09.2021
5805 Haze 26 1008 100 4000 2.57 210 07:45 09.09.2021
5806 Rain 25 1007 100 2000 2.06 170 05:47 09.09.2021
5807 Clouds 25 1005 100 2500 3.09 190 00:33 09.09.2021
5808 Thunderstorm 26 1005 94 2500 2.57 190 21:49 08.09.2021
5809 Thunderstorm 26 1006 94 2500 1.03 140 20:49 08.09.2021
5810 Thunderstorm 26 1006 100 2500 1.03 160 19:46 08.09.2021
5811 Mist 26 1006 100 2500 2.57 150 18:47 08.09.2021
5812 Mist 26 1006 100 2500 1.03 140 18:25 08.09.2021
5813 Mist 26 1005 100 2500 2.06 130 17:40 08.09.2021
5814 Mist 26 1003 100 2500 1.03 120 15:35 08.09.2021
5815 Haze 27 1003 100 3000 4.12 160 13:33 08.09.2021
5816 Haze 27 1003 100 3000 3.6 160 12:41 08.09.2021
5817 Haze 27 1003 100 3000 3.6 160 12:23 08.09.2021
5818 Haze 26 1003 100 10000 3.6 170 11:26 08.09.2021
5819 Haze 27 1004 100 5000 2.06 170 10:31 08.09.2021
5820 Haze 27 1004 100 5000 2.57 210 09:55 08.09.2021
5821 Mist 26 1005 94 3000 5.14 180 07:45 08.09.2021
5822 Mist 26 1005 100 3000 4.12 170 07:45 08.09.2021
5823 Drizzle 25 1005 100 3000 6.17 180 06:43 08.09.2021
5824 Clouds 25 1002 100 1200 3.09 140 23:18 07.09.2021
5825 Haze 25 1002 100 3000 2.06 160 22:19 07.09.2021
5826 Haze 26 1003 100 3000 1.54 150 20:41 07.09.2021
5827 Haze 26 1003 100 3000 2.57 140 18:53 07.09.2021
5828 Haze 26 1003 100 3000 0 0 18:25 07.09.2021
5829 Haze 26 1002 100 3000 1.03 110 17:22 07.09.2021
5830 Haze 27 1001 94 3000 2.57 120 15:56 07.09.2021
5831 Haze 28 1000 89 3000 1.54 120 14:47 07.09.2021
5832 Rain 29 999 79 3000 1.54 80 13:50 07.09.2021
5833 Mist 27 1000 100 3000 1.03 70 11:58 07.09.2021
5834 Haze 27 1001 100 4000 2.57 110 10:45 07.09.2021
5835 Haze 28 1002 94 4000 2.57 90 09:40 07.09.2021
5836 Clouds 25 1004 100 2000 1.03 20 07:46 07.09.2021
5837 Thunderstorm 25 1005 100 600 2.57 120 06:19 07.09.2021
5838 Mist 25 1002 100 3000 0 0 02:38 07.09.2021
5839 Clouds 25 1002 100 2000 0 0 00:55 07.09.2021
5840 Rain 25 1001 100 3000 0 0 23:43 06.09.2021
5841 Rain 25 1001 100 3000 0 0 23:21 06.09.2021
5842 Rain 25 1001 91 10000 2.77 9 22:46 06.09.2021
5843 Clouds 25 1003 100 3000 0 0 21:52 06.09.2021
5844 Mist 25 1005 100 3000 2.57 270 19:36 06.09.2021
5845 Mist 25 1005 100 3000 2.57 270 19:18 06.09.2021
5846 Thunderstorm 26 1005 100 10000 2.57 20 18:27 06.09.2021
5847 Thunderstorm 26 1005 100 10000 2.57 20 18:27 06.09.2021
5848 Rain 29 1004 84 3000 1.54 330 17:36 06.09.2021
5849 Rain 29 1003 94 3000 2.06 260 15:59 06.09.2021
5850 Haze 31 1001 70 4000 2.06 350 14:34 06.09.2021
5851 Haze 31 1001 66 5000 2.57 350 12:48 06.09.2021
5852 Haze 34 1001 59 5000 3.09 10 11:33 06.09.2021
5853 Haze 33 1004 58 5000 1.54 90 09:59 06.09.2021
5854 Haze 32 1006 66 5000 1.03 30 07:34 06.09.2021
5855 Rain 25 1003 87 10000 1.83 354 00:22 06.09.2021
5856 Haze 27 1004 94 3000 2.57 360 23:19 05.09.2021
5857 Haze 27 1005 100 3000 2.06 320 22:30 05.09.2021
5858 Haze 27 1005 100 3000 1.03 310 21:55 05.09.2021
5859 Haze 27 1006 100 3000 1.54 300 20:55 05.09.2021
5860 Haze 27 1006 100 3000 1.03 270 19:22 05.09.2021
5861 Haze 28 1005 83 3000 2.06 310 17:36 05.09.2021
5862 Haze 28 1005 83 3000 2.06 310 17:36 05.09.2021
5863 Haze 29 1004 74 5000 1.03 360 15:40 05.09.2021
5864 Haze 30 1002 62 5000 4.12 330 14:37 05.09.2021
5865 Haze 32 1003 62 5000 2.06 20 12:34 05.09.2021
5866 Haze 32 1004 62 5000 1.03 90 10:59 05.09.2021
5867 Haze 32 1004 58 5000 1.54 140 10:33 05.09.2021
5868 Haze 31 1005 62 5000 0 0 09:25 05.09.2021
5869 Haze 30 1006 70 5000 1.54 350 08:22 05.09.2021
5870 Mist 25 1005 100 2500 2.06 320 03:19 05.09.2021
5871 Haze 25 1005 100 3000 1.03 350 00:30 05.09.2021
5872 Haze 25 1005 100 3000 1.03 230 23:43 04.09.2021
5873 Haze 26 1005 94 3000 1.03 290 22:36 04.09.2021
5874 Haze 26 1005 100 3000 1.03 290 21:58 04.09.2021
5875 Haze 27 1006 94 3000 1.03 330 19:53 04.09.2021
5876 Clouds 26 1004 86 10000 1.85 316 19:27 04.09.2021
5877 Haze 27 1005 78 4000 1.03 330 16:26 04.09.2021
5878 Haze 31 1002 66 4000 1.54 240 13:30 04.09.2021
5879 Haze 30 1004 70 4000 1.54 120 11:20 04.09.2021
5880 Haze 30 1006 74 4000 0 0 09:25 04.09.2021
5881 Rain 28 1008 94 3000 2.06 110 06:55 04.09.2021
5882 Rain 25 1005 100 2500 0 0 00:27 04.09.2021
5883 Clouds 25 1006 94 2500 1.54 350 23:32 03.09.2021
5884 Rain 24 1007 100 2500 1.03 90 22:39 03.09.2021
5885 Thunderstorm 24 1007 100 2500 1.54 230 21:35 03.09.2021
5886 Thunderstorm 24 1008 100 2500 1.54 280 20:43 03.09.2021
5887 Thunderstorm 23 1008 100 2500 1.54 240 19:55 03.09.2021
5888 Thunderstorm 23 1007 100 2500 1.54 130 19:19 03.09.2021
5889 Thunderstorm 27 1007 83 3000 5.14 320 17:53 03.09.2021
5890 Thunderstorm 28 1006 94 3000 1.03 110 16:37 03.09.2021
5891 Thunderstorm 30 1004 70 4000 1.03 30 14:58 03.09.2021
5892 Haze 32 1003 62 5000 2.06 180 12:24 03.09.2021
5893 Haze 33 1005 58 5000 2.57 180 10:31 03.09.2021
5894 Haze 31 1007 62 5000 0 0 08:46 03.09.2021
5895 Haze 31 1008 66 5000 0 0 07:44 03.09.2021
5896 Haze 25 1006 100 3000 1.54 300 01:40 03.09.2021
5897 Haze 26 1007 100 3000 0 0 22:57 02.09.2021
5898 Haze 26 1007 100 3000 0 0 21:35 02.09.2021
5899 Haze 26 1008 100 3000 0 0 19:55 02.09.2021
5900 Haze 25 1008 100 3000 1.54 270 17:32 02.09.2021
5901 Haze 25 1008 100 3000 1.54 270 17:32 02.09.2021
5902 Haze 25 1006 100 3000 1.25 103 15:50 02.09.2021
5903 Thunderstorm 29 1005 74 3000 4.63 280 13:57 02.09.2021
5904 Haze 32 1004 58 5000 1.03 200 12:48 02.09.2021
5905 Haze 32 1006 58 5000 1.54 200 11:35 02.09.2021
5906 Haze 30 1008 70 5000 1.54 190 09:40 02.09.2021
5907 Haze 29 1009 79 4000 3.09 240 07:48 02.09.2021
5908 Haze 28 1009 83 4000 3.09 250 07:18 02.09.2021
5909 Haze 28 1009 83 4000 3.09 250 07:18 02.09.2021
5910 Mist 25 1007 94 2000 0 0 02:54 02.09.2021
5911 Mist 25 1007 100 2000 0 0 01:55 02.09.2021
5912 Mist 25 1007 100 2000 0 0 01:25 02.09.2021
5913 Mist 25 1007 100 3000 0 0 23:39 01.09.2021
5914 Mist 25 1008 94 3000 0 0 22:39 01.09.2021
5915 Mist 25 1008 94 3000 1.03 120 21:39 01.09.2021
5916 Mist 25 1009 94 3000 1.03 200 20:29 01.09.2021
5917 Mist 25 1008 100 3000 0 0 18:33 01.09.2021
5918 Mist 25 1007 100 3000 0 0 17:38 01.09.2021
5919 Haze 25 1007 100 3000 0 0 16:47 01.09.2021
5920 Haze 25 1006 100 2500 0 0 15:27 01.09.2021
5921 Clouds 25 1006 100 2000 1.03 160 11:50 01.09.2021
5922 Clouds 25 1007 100 10000 5.14 170 10:59 01.09.2021
5923 Haze 29 1008 79 3000 4.12 140 08:46 01.09.2021
5924 Clouds 27 1009 100 2000 3.09 150 07:51 01.09.2021
5925 Clouds 23 1006 96 10000 3.57 135 01:48 01.09.2021
5926 Rain 25 1007 100 2000 2.57 150 22:33 31.08.2021
5927 Rain 24 1006 93 10000 3.67 141 21:22 31.08.2021
5928 Mist 25 1008 100 2000 1.03 120 19:45 31.08.2021
5929 Rain 25 1007 100 2000 1.54 120 18:27 31.08.2021
5930 Rain 25 1007 100 2000 2.06 100 17:36 31.08.2021
5931 Thunderstorm 25 1007 100 2000 1.03 110 16:52 31.08.2021
5932 Thunderstorm 25 1006 100 2000 2.06 90 16:24 31.08.2021
5933 Haze 30 1004 70 5000 2.57 140 12:57 31.08.2021
5934 Haze 27 1005 100 5000 2.06 150 11:26 31.08.2021
5935 Thunderstorm 26 1005 100 5000 1.03 140 10:52 31.08.2021
5936 Clouds 28 1006 100 2500 2.57 150 09:43 31.08.2021
5937 Haze 29 1007 74 4000 2.57 130 08:37 31.08.2021
5938 Mist 26 1007 100 3000 2.57 120 05:58 31.08.2021
5939 Clouds 24 1003 95 10000 2.79 74 00:23 31.08.2021
5940 Mist 25 1004 100 2000 1.03 60 23:29 30.08.2021
5941 Thunderstorm 26 1005 94 1800 0 0 21:43 30.08.2021
5942 Mist 26 1005 100 3000 1.03 10 20:42 30.08.2021
5943 Mist 26 1005 100 3000 1.03 10 20:18 30.08.2021
5944 Mist 26 1005 100 3000 0 0 19:29 30.08.2021
5945 Mist 26 1006 100 3000 0 0 18:29 30.08.2021
5946 Mist 26 1006 100 3000 0 0 17:44 30.08.2021
5947 Mist 26 1003 100 3000 0 0 15:56 30.08.2021
5948 Mist 27 1002 100 3000 0 0 14:39 30.08.2021
5949 Mist 26 1002 100 3000 1.03 30 13:27 30.08.2021
5950 Mist 27 1002 94 2500 3.09 240 11:56 30.08.2021
5951 Mist 29 1004 84 2000 1.03 40 08:27 30.08.2021
5952 Mist 26 1003 100 3000 0 0 22:20 29.08.2021
5953 Mist 26 1003 100 3000 2.06 10 21:25 29.08.2021
5954 Mist 26 1004 100 3000 2.57 340 19:32 29.08.2021
5955 Mist 25 1004 100 3000 3.09 320 18:30 29.08.2021
5956 Clouds 27 1003 83 3000 4.12 320 16:33 29.08.2021
5957 Clouds 27 1000 81 10000 2.68 350 14:34 29.08.2021
5958 Haze 29 1000 79 3000 1.03 100 13:57 29.08.2021
5959 Haze 31 1000 66 3000 2.06 130 12:58 29.08.2021
5960 Thunderstorm 31 1000 66 4000 1.03 120 12:19 29.08.2021
5961 Haze 33 1000 62 4000 1.54 100 11:41 29.08.2021
5962 Haze 32 1000 62 4000 0 0 10:49 29.08.2021
5963 Haze 32 1001 66 4000 1.54 100 10:30 29.08.2021
5964 Haze 32 1002 62 4000 1.54 40 09:35 29.08.2021
5965 Mist 26 1002 100 2500 2.06 320 04:21 29.08.2021
5966 Mist 25 1003 100 3000 2.06 290 22:57 28.08.2021
5967 Rain 26 1002 78 3000 2.57 330 20:34 28.08.2021
5968 Haze 27 1004 83 3000 0 0 19:30 28.08.2021
5969 Mist 27 1004 100 3000 0 0 18:26 28.08.2021
5970 Rain 27 1004 100 3000 0 0 17:46 28.08.2021
5971 Clouds 28 1003 78 4000 1.03 120 16:44 28.08.2021
5972 Haze 29 1002 74 4000 2.06 110 15:20 28.08.2021
5973 Haze 33 1000 49 5000 2.06 330 13:58 28.08.2021
5974 Haze 33 1000 49 5000 2.06 330 13:39 28.08.2021
5975 Haze 33 1001 52 5000 2.57 300 12:30 28.08.2021
5976 Haze 33 1002 49 5000 4.12 320 10:47 28.08.2021
5977 Haze 32 1003 55 5000 2.06 350 09:48 28.08.2021
5978 Haze 31 1004 62 5000 1.54 350 07:56 28.08.2021
5979 Clouds 25 1002 78 10000 2.07 332 23:49 27.08.2021
5980 Mist 26 1005 100 3000 0 0 21:29 27.08.2021
5981 Mist 26 1005 100 3000 0 0 20:52 27.08.2021
5982 Haze 26 1005 100 4000 0 0 19:34 27.08.2021
5983 Clouds 28 1003 69 10000 2.21 328 18:39 27.08.2021
5984 Haze 27 1005 89 4000 1.03 170 17:54 27.08.2021
5985 Haze 28 1004 74 4000 0 0 16:35 27.08.2021
5986 Haze 30 1003 58 4000 0 0 14:44 27.08.2021
5987 Haze 31 1004 55 4000 1.03 300 12:57 27.08.2021
5988 Haze 30 1004 58 4000 1.03 30 11:43 27.08.2021
5989 Haze 29 1005 70 4000 4.12 330 10:49 27.08.2021
5990 Haze 29 1005 70 4000 2.06 270 09:58 27.08.2021
5991 Haze 32 1006 51 5000 2.06 280 08:57 27.08.2021
5992 Haze 32 1006 51 5000 2.06 280 08:35 27.08.2021
5993 Haze 30 1006 62 5000 2.06 330 05:35 27.08.2021
5994 Haze 25 1004 100 3000 1.03 300 00:40 27.08.2021
5995 Haze 25 1004 100 3000 0 0 23:52 26.08.2021
5996 Haze 26 1004 94 4000 1.54 320 22:25 26.08.2021
5997 Haze 26 1005 89 4000 0 0 21:36 26.08.2021
5998 Haze 27 1005 78 4000 1.03 230 19:30 26.08.2021
5999 Haze 28 1005 74 4000 1.54 270 17:50 26.08.2021
6000 Haze 28 1005 74 4000 1.54 250 17:25 26.08.2021
6001 Haze 28 1004 74 4000 1.54 240 16:26 26.08.2021
6002 Haze 31 1003 58 5000 2.57 240 14:20 26.08.2021
6003 Haze 32 1003 51 5000 4.12 250 13:20 26.08.2021
6004 Haze 32 1003 55 5000 4.63 230 12:32 26.08.2021
6005 Haze 32 1004 51 5000 3.09 270 11:22 26.08.2021
6006 Haze 32 1006 62 5000 3.09 270 08:35 26.08.2021
6007 Haze 30 1006 66 5000 5.14 250 07:52 26.08.2021
6008 Mist 26 1005 100 3000 0 0 22:56 25.08.2021
6009 Mist 26 1005 100 3000 0 0 22:36 25.08.2021
6010 Mist 26 1005 100 3000 0 0 21:55 25.08.2021
6011 Mist 27 1006 100 3000 0 0 20:55 25.08.2021
6012 Rain 27 1006 100 3000 0 0 20:29 25.08.2021
6013 Haze 27 1006 89 4000 1.03 180 18:45 25.08.2021
6014 Haze 28 1006 83 4000 1.03 260 17:51 25.08.2021
6015 Haze 33 1004 55 4000 1.54 300 15:46 25.08.2021
6016 Haze 33 1003 55 4000 1.54 300 14:49 25.08.2021
6017 Haze 33 1003 55 5000 1.54 300 14:30 25.08.2021
6018 Haze 32 1003 55 5000 2.06 320 13:30 25.08.2021
6019 Haze 33 1005 55 5000 4.63 310 11:28 25.08.2021
6020 Haze 33 1005 52 5000 4.63 300 10:55 25.08.2021
6021 Haze 32 1006 58 5000 4.12 300 09:58 25.08.2021
6022 Haze 32 1007 58 5000 5.14 300 09:24 25.08.2021
6023 Haze 32 1007 62 5000 5.14 300 08:32 25.08.2021
6024 Haze 27 1007 100 4000 1.54 260 04:51 25.08.2021
6025 Mist 25 1006 94 3000 0 0 00:53 25.08.2021
6026 Mist 25 1007 100 3000 0 0 22:50 24.08.2021
6027 Mist 26 1008 100 3000 1.54 310 20:48 24.08.2021
6028 Mist 26 1008 100 3000 1.03 250 19:53 24.08.2021
6029 Mist 26 1008 100 3000 0.51 290 18:51 24.08.2021
6030 Mist 26 1008 100 3000 0.51 270 17:50 24.08.2021
6031 Mist 26 1008 94 3000 0 0 17:19 24.08.2021
6032 Thunderstorm 25 1005 100 2500 3.6 180 14:34 24.08.2021
6033 Rain 29 1005 74 3000 1.54 340 13:29 24.08.2021
6034 Haze 32 1005 62 5000 2.57 250 12:36 24.08.2021
6035 Haze 32 1007 66 5000 1.03 210 10:48 24.08.2021
6036 Haze 32 1007 66 5000 1.03 210 10:28 24.08.2021
6037 Haze 32 1009 58 5000 2.57 290 08:59 24.08.2021
6038 Haze 30 1009 70 5000 3.09 270 06:55 24.08.2021
6039 Haze 27 1009 100 5000 2.57 250 04:54 24.08.2021
6040 Mist 26 1007 100 1800 1.54 250 00:48 24.08.2021
6041 Mist 26 1007 100 2500 0 0 23:19 23.08.2021
6042 Mist 26 1008 100 2500 0 0 22:39 23.08.2021
6043 Mist 26 1009 100 2500 1.03 150 20:39 23.08.2021
6044 Mist 26 1009 100 2500 1.03 210 19:19 23.08.2021
6045 Clouds 26 1007 100 2000 1.03 60 16:41 23.08.2021
6046 Clouds 29 1006 74 2000 2.57 40 14:49 23.08.2021
6047 Haze 33 1005 58 4000 2.57 250 13:23 23.08.2021
6048 Haze 33 1006 58 4000 3.09 200 12:19 23.08.2021
6049 Haze 33 1007 58 4000 4.63 270 10:38 23.08.2021
6050 Haze 33 1008 58 4000 3.6 210 09:41 23.08.2021
6051 Haze 31 1009 70 4000 2.06 250 08:33 23.08.2021
6052 Haze 30 1010 74 4000 2.57 180 06:50 23.08.2021
6053 Haze 29 1010 79 4000 2.06 230 06:30 23.08.2021
6054 Haze 26 1007 100 3000 1.03 140 00:54 23.08.2021
6055 Haze 26 1008 100 3000 1.03 210 22:45 22.08.2021
6056 Haze 26 1008 100 3000 1.03 210 22:26 22.08.2021
6057 Haze 26 1009 100 3000 1.03 210 20:22 22.08.2021
6058 Haze 27 1009 94 3000 0 0 19:35 22.08.2021
6059 Haze 27 1007 89 3000 1.03 150 16:48 22.08.2021
6060 Haze 30 1006 66 4000 1.54 180 15:22 22.08.2021
6061 Haze 30 1006 66 4000 1.54 180 14:37 22.08.2021
6062 Haze 30 1006 70 4000 2.06 210 13:21 22.08.2021
6063 Haze 31 1006 66 4000 2.06 230 12:51 22.08.2021
6064 Haze 30 1007 66 4000 2.06 210 12:25 22.08.2021
6065 Haze 30 1007 66 4000 2.06 200 11:42 22.08.2021
6066 Haze 30 1008 70 4000 2.06 220 10:22 22.08.2021
6067 Haze 28 1010 83 4000 1.03 210 08:19 22.08.2021
6068 Mist 26 1009 100 2000 3.09 230 04:56 22.08.2021
6069 Haze 26 1008 94 3000 1.03 180 23:57 21.08.2021
6070 Haze 26 1008 94 3000 1.03 180 23:57 21.08.2021
6071 Haze 26 1009 100 3000 0 0 22:34 21.08.2021
6072 Haze 26 1009 100 3000 0 0 20:24 21.08.2021
6073 Haze 26 1009 100 3000 0 0 18:39 21.08.2021
6074 Haze 26 1009 100 3000 0 0 17:59 21.08.2021
6075 Haze 27 1008 100 3000 0 0 16:54 21.08.2021
6076 Clouds 27 1008 100 4000 1.54 230 16:25 21.08.2021
6077 Haze 28 1007 83 4000 1.03 220 15:35 21.08.2021
6078 Haze 29 1005 74 4000 2.06 200 14:38 21.08.2021
6079 Haze 29 1006 79 4000 2.57 180 13:29 21.08.2021
6080 Haze 29 1006 74 4000 2.57 180 12:24 21.08.2021
6081 Haze 29 1008 74 5000 3.6 180 09:28 21.08.2021
6082 Haze 26 1009 94 3000 2.06 170 05:32 21.08.2021
6083 Mist 25 1007 94 3000 1.03 180 22:43 20.08.2021
6084 Mist 25 1007 100 3000 1.03 220 21:18 20.08.2021
6085 Haze 25 1007 100 4000 1.54 240 17:47 20.08.2021
6086 Haze 26 1005 94 4000 1.54 230 15:57 20.08.2021
6087 Rain 28 1004 83 5000 1.03 210 13:36 20.08.2021
6088 Haze 28 1004 89 5000 3.09 260 11:37 20.08.2021
6089 Haze 28 1005 83 5000 2.57 260 10:42 20.08.2021
6090 Haze 27 1006 89 5000 4.12 270 09:36 20.08.2021
6091 Haze 27 1006 89 5000 4.12 270 08:41 20.08.2021
6092 Haze 27 1006 83 5000 3.6 250 06:58 20.08.2021
6093 Rain 24 1005 100 2000 0 0 04:21 20.08.2021
6094 Clouds 23 1002 96 10000 2.37 259 00:19 20.08.2021
6095 Haze 25 1004 100 3000 1.03 250 22:39 19.08.2021
6096 Haze 25 1004 100 3000 1.03 250 22:18 19.08.2021
6097 Haze 25 1005 100 3000 1.03 250 20:25 19.08.2021
6098 Haze 25 1005 100 3000 1.03 260 19:30 19.08.2021
6099 Haze 26 1004 94 3000 2.06 270 17:18 19.08.2021
6100 Haze 26 1003 94 3000 2.06 310 15:52 19.08.2021
6101 Haze 26 1002 89 3000 3.6 310 13:20 19.08.2021
6102 Haze 27 1002 78 3000 4.63 320 12:32 19.08.2021
6103 Haze 28 1003 83 3000 2.57 310 11:21 19.08.2021
6104 Haze 28 1004 89 3000 3.6 320 09:50 19.08.2021
6105 Drizzle 27 1004 94 2500 2.57 330 09:30 19.08.2021
6106 Haze 26 1005 100 3000 2.57 330 08:54 19.08.2021
6107 Haze 26 1005 94 3000 2.57 340 06:32 19.08.2021
6108 Rain 24 1003 100 2000 1.03 10 02:21 19.08.2021
6109 Rain 24 1002 100 1800 1.03 340 01:41 19.08.2021
6110 Rain 25 1003 100 1800 1.03 330 22:40 18.08.2021
6111 Rain 26 1003 94 1800 0 0 21:37 18.08.2021
6112 Rain 26 1004 94 2000 0 0 20:24 18.08.2021
6113 Rain 26 1004 100 1800 1.03 240 19:28 18.08.2021
6114 Rain 26 1004 100 1800 0 0 18:36 18.08.2021
6115 Rain 26 1004 100 2000 0 0 17:24 18.08.2021
6116 Clouds 26 1003 100 2000 0 0 15:45 18.08.2021
6117 Rain 26 1003 100 2000 0 0 15:22 18.08.2021
6118 Rain 25 1002 100 2000 1.54 320 13:28 18.08.2021
6119 Thunderstorm 26 1003 100 1200 1.54 20 12:41 18.08.2021
6120 Clouds 26 1003 100 1200 1.54 20 12:23 18.08.2021
6121 Haze 29 1005 89 4000 2.06 350 08:59 18.08.2021
6122 Mist 25 1005 100 2500 1.03 0 04:30 18.08.2021
6123 Clouds 24 1004 100 2000 1.03 320 23:35 17.08.2021
6124 Rain 24 1004 100 2000 1.03 320 22:21 17.08.2021
6125 Rain 24 1005 100 2000 1.03 300 21:22 17.08.2021
6126 Clouds 24 1006 100 2000 1.03 300 20:42 17.08.2021
6127 Rain 24 1006 100 2000 1.03 340 18:49 17.08.2021
6128 Thunderstorm 26 1006 100 2000 1.03 20 17:26 17.08.2021
6129 Clouds 26 1005 100 2000 1.03 20 16:28 17.08.2021
6130 Clouds 26 1005 100 1500 1.54 20 15:35 17.08.2021
6131 Mist 26 1004 100 2000 1.03 230 13:23 17.08.2021
6132 Clouds 32 1002 55 10000 2.23 307 11:00 17.08.2021
6133 Mist 29 1006 84 2000 2.57 190 09:20 17.08.2021
6134 Clouds 25 1007 100 2000 1.03 220 07:30 17.08.2021
6135 Rain 24 1006 100 2000 3.6 240 23:28 16.08.2021
6136 Rain 24 1007 100 2000 3.09 240 22:54 16.08.2021
6137 Rain 24 1007 100 2000 3.09 240 22:35 16.08.2021
6138 Rain 24 1008 100 2000 3.09 200 21:51 16.08.2021
6139 Rain 24 1008 100 2500 1.03 280 20:52 16.08.2021
6140 Clouds 24 1008 100 2000 2.06 260 19:29 16.08.2021
6141 Thunderstorm 24 1008 100 2000 1.54 330 18:50 16.08.2021
6142 Thunderstorm 24 1008 100 2000 2.57 350 17:55 16.08.2021
6143 Rain 28 1007 78 3000 3.6 30 16:51 16.08.2021
6144 Haze 29 1006 79 4000 0 0 15:26 16.08.2021
6145 Haze 30 1004 79 4000 3.6 270 14:21 16.08.2021
6146 Haze 31 1004 70 4000 0 0 12:59 16.08.2021
6147 Rain 31 1005 66 4000 0 0 12:24 16.08.2021
6148 Haze 32 1007 62 5000 2.06 330 09:33 16.08.2021
6149 Haze 30 1007 70 5000 2.06 350 08:43 16.08.2021
6150 Haze 30 1008 70 5000 3.09 350 07:30 16.08.2021
6151 Haze 29 1008 70 5000 2.57 320 05:56 16.08.2021
6152 Haze 26 1006 89 3000 0 0 01:22 16.08.2021
6153 Haze 27 1006 74 3000 0 0 21:34 15.08.2021
6154 Haze 27 1006 78 3000 1.03 310 19:41 15.08.2021
6155 Haze 27 1006 74 3000 0 0 18:41 15.08.2021
6156 Haze 26 1006 83 3000 1.03 20 17:49 15.08.2021
6157 Haze 28 1005 69 3000 3.6 330 16:43 15.08.2021
6158 Haze 29 1004 70 3000 4.12 270 15:35 15.08.2021
6159 Haze 30 1003 84 4000 0 0 14:36 15.08.2021
6160 Haze 29 1003 74 5000 1.03 150 13:34 15.08.2021
6161 Haze 33 1005 49 5000 1.03 310 10:41 15.08.2021
6162 Haze 30 1006 62 5000 2.57 290 06:55 15.08.2021
6163 Clouds 25 1003 78 10000 3.02 301 01:22 15.08.2021
6164 Haze 25 1004 94 3000 0 0 00:32 15.08.2021
6165 Haze 26 1005 89 3000 0 0 21:22 14.08.2021
6166 Haze 27 1005 83 3000 0 0 20:21 14.08.2021
6167 Haze 27 1005 78 3000 0 0 19:31 14.08.2021
6168 Haze 28 1004 83 4000 1.54 260 17:35 14.08.2021
6169 Haze 28 1004 74 4000 1.54 260 16:39 14.08.2021
6170 Haze 31 1003 66 5000 3.09 260 15:34 14.08.2021
6171 Haze 32 1002 55 5000 4.12 260 13:32 14.08.2021
6172 Haze 33 1004 52 5000 2.57 270 10:56 14.08.2021
6173 Haze 32 1006 58 5000 1.03 320 08:53 14.08.2021
6174 Haze 27 1004 78 3000 3.09 320 00:21 14.08.2021
6175 Haze 27 1005 89 3000 0 0 23:49 13.08.2021
6176 Haze 27 1006 83 3000 0 0 21:49 13.08.2021
6177 Haze 28 1006 78 3000 0 0 19:29 13.08.2021
6178 Haze 28 1006 74 3000 0 0 18:45 13.08.2021
6179 Haze 28 1006 74 3000 1.54 150 16:51 13.08.2021
6180 Haze 32 1005 62 4000 3.09 150 15:41 13.08.2021
6181 Haze 34 1005 59 5000 2.57 280 11:21 13.08.2021
6182 Haze 33 1006 66 5000 4.12 260 10:39 13.08.2021
6183 Haze 32 1007 70 5000 1.54 340 08:39 13.08.2021
6184 Haze 31 1008 70 5000 2.06 340 07:48 13.08.2021
6185 Haze 29 1009 74 4000 2.06 330 06:31 13.08.2021
6186 Clouds 25 1005 76 10000 2.78 296 00:18 13.08.2021
6187 Haze 26 1007 100 4000 0 0 21:43 12.08.2021
6188 Haze 27 1008 94 4000 0 0 20:26 12.08.2021
6189 Haze 27 1008 83 4000 1.54 310 19:49 12.08.2021
6190 Haze 28 1008 74 4000 1.54 300 17:56 12.08.2021
6191 Haze 27 1007 78 4000 2.06 260 16:50 12.08.2021
6192 Haze 27 1007 78 4000 3.6 280 15:34 12.08.2021
6193 Haze 28 1006 69 4000 4.63 290 13:46 12.08.2021
6194 Haze 34 1007 49 5000 3.6 310 11:34 12.08.2021
6195 Haze 33 1009 55 5000 2.57 300 08:53 12.08.2021
6196 Haze 32 1009 58 5000 3.6 340 07:18 12.08.2021
6197 Haze 25 1007 94 3000 0 0 23:20 11.08.2021
6198 Haze 26 1007 94 3000 0 0 21:37 11.08.2021
6199 Haze 27 1008 83 3000 1.03 260 18:48 11.08.2021
6200 Haze 27 1008 83 3000 0 0 18:24 11.08.2021
6201 Haze 31 1006 58 4000 1.54 280 15:21 11.08.2021
6202 Haze 32 1005 55 4000 2.06 280 14:25 11.08.2021
6203 Haze 33 1005 52 5000 3.6 320 12:37 11.08.2021
6204 Haze 33 1006 52 5000 5.14 290 11:57 11.08.2021
6205 Haze 32 1007 58 5000 3.6 260 11:39 11.08.2021
6206 Haze 32 1007 58 5000 3.6 260 11:18 11.08.2021
6207 Haze 30 1008 66 5000 5.14 260 08:38 11.08.2021
6208 Mist 25 1007 100 2500 0 0 02:40 11.08.2021
6209 Rain 26 1006 100 2500 0 0 22:33 10.08.2021
6210 Clouds 26 1007 100 2500 1.03 220 21:38 10.08.2021
6211 Clouds 26 1007 100 2500 1.03 320 20:42 10.08.2021
6212 Clouds 26 1007 100 2500 1.03 300 19:25 10.08.2021
6213 Clouds 28 1007 78 3000 2.06 10 16:49 10.08.2021
6214 Haze 30 1006 66 3000 1.03 340 15:22 10.08.2021
6215 Haze 30 1005 66 3000 3.09 330 14:39 10.08.2021
6216 Haze 31 1006 66 4000 4.12 310 10:47 10.08.2021
6217 Haze 31 1008 66 4000 3.09 270 08:18 10.08.2021
6218 Haze 28 1008 78 5000 2.06 260 04:59 10.08.2021
6219 Haze 28 1008 78 5000 2.06 260 04:59 10.08.2021
6220 Haze 26 1007 100 3000 0 0 00:33 10.08.2021
6221 Haze 27 1007 94 3000 1.03 310 23:23 09.08.2021
6222 Haze 27 1008 100 3000 1.03 310 21:38 09.08.2021
6223 Haze 27 1008 100 3000 1.03 310 20:35 09.08.2021
6224 Haze 29 1007 74 3000 1.03 270 17:57 09.08.2021
6225 Haze 30 1007 70 3000 1.54 290 15:35 09.08.2021
6226 Haze 31 1006 66 3000 1.54 280 14:36 09.08.2021
6227 Haze 32 1005 66 3000 2.06 260 13:29 09.08.2021
6228 Haze 27 1006 100 3000 0 0 11:47 09.08.2021
6229 Clouds 29 1008 74 3000 4.12 280 09:21 09.08.2021
6230 Haze 32 1009 62 5000 3.6 260 07:59 09.08.2021
6231 Haze 27 1008 83 3000 1.03 280 21:31 08.08.2021
6232 Haze 27 1009 83 3000 1.03 290 20:36 08.08.2021
6233 Haze 28 1008 78 3000 1.54 260 17:35 08.08.2021
6234 Haze 30 1006 66 4000 2.06 250 15:44 08.08.2021
6235 Haze 32 1005 55 5000 3.09 260 14:29 08.08.2021
6236 Haze 33 1005 58 5000 4.63 230 12:46 08.08.2021
6237 Haze 32 1006 62 5000 4.63 260 10:35 08.08.2021
6238 Haze 29 1009 74 5000 2.06 210 06:41 08.08.2021
6239 Haze 25 1006 100 3000 0 0 00:52 08.08.2021
6240 Haze 25 1006 100 3000 0 0 00:24 08.08.2021
6241 Haze 26 1007 100 3000 1.03 260 21:44 07.08.2021
6242 Haze 27 1007 83 3000 1.03 310 20:59 07.08.2021
6243 Haze 27 1007 83 3000 1.03 250 18:21 07.08.2021
6244 Haze 28 1006 74 3000 2.57 240 16:50 07.08.2021
6245 Haze 30 1004 70 4000 1.54 230 15:36 07.08.2021
6246 Haze 32 1003 62 4000 1.54 210 13:34 07.08.2021
6247 Haze 31 1006 66 4000 2.06 210 10:32 07.08.2021
6248 Haze 30 1007 66 4000 5.14 260 07:41 07.08.2021
6249 Haze 24 1005 100 3000 0 0 02:20 07.08.2021
6250 Haze 24 1004 100 3000 1.54 210 22:23 06.08.2021
6251 Haze 25 1005 100 3000 2.06 200 20:35 06.08.2021
6252 Haze 25 1005 100 3000 1.03 190 19:57 06.08.2021
6253 Haze 25 1005 100 3000 1.03 190 19:18 06.08.2021
6254 Haze 27 1004 83 3000 1.03 210 17:34 06.08.2021
6255 Haze 29 1003 74 4000 2.57 240 11:22 06.08.2021
6256 Haze 29 1004 70 4000 3.09 270 09:56 06.08.2021
6257 Haze 28 1005 78 4000 3.6 240 07:54 06.08.2021
6258 Mist 25 1003 100 2500 1.54 230 23:34 05.08.2021
6259 Mist 25 1003 100 2500 1.54 210 22:30 05.08.2021
6260 Clouds 25 1003 88 10000 2.62 274 20:47 05.08.2021
6261 Haze 25 1005 100 2500 0 0 19:29 05.08.2021
6262 Haze 25 1004 100 2500 0 0 16:53 05.08.2021
6263 Haze 25 1002 100 3000 1.54 230 14:49 05.08.2021
6264 Clouds 25 1003 100 1800 4.12 300 11:38 05.08.2021
6265 Haze 29 1004 74 4000 3.6 250 08:51 05.08.2021
6266 Haze 26 1005 100 4000 3.6 220 04:51 05.08.2021
6267 Mist 25 1004 100 3000 1.54 240 23:36 04.08.2021
6268 Mist 25 1005 94 4000 1.54 240 21:44 04.08.2021
6269 Mist 25 1005 94 4000 1.54 240 21:21 04.08.2021
6270 Haze 25 1006 100 4000 1.03 220 18:22 04.08.2021
6271 Haze 25 1005 100 4000 2.06 200 16:40 04.08.2021
6272 Haze 25 1005 100 4000 4.12 210 14:42 04.08.2021
6273 Haze 30 1005 66 5000 6.17 240 11:20 04.08.2021
6274 Haze 26 1007 100 5000 4.12 240 04:54 04.08.2021
6275 Haze 26 1007 83 3000 2.06 220 20:35 03.08.2021
6276 Haze 26 1007 89 3000 2.06 210 19:58 03.08.2021
6277 Haze 26 1007 83 3000 1.03 220 17:50 03.08.2021
6278 Haze 27 1006 78 3000 2.06 220 16:23 03.08.2021
6279 Haze 29 1005 70 4000 5.14 270 11:44 03.08.2021
6280 Haze 29 1006 70 4000 6.17 250 10:39 03.08.2021
6281 Haze 24 1005 100 3000 1.54 220 02:38 03.08.2021
6282 Haze 25 1006 94 3000 1.54 210 17:34 02.08.2021
6283 Haze 25 1005 94 3000 1.54 210 16:38 02.08.2021
6284 Haze 25 1004 100 3000 1.54 250 14:51 02.08.2021
6285 Clouds 25 1004 100 2000 1.54 290 11:59 02.08.2021
6286 Clouds 25 1004 100 2500 2.57 220 11:34 02.08.2021
6287 Haze 27 1004 78 4000 4.12 250 09:49 02.08.2021
6288 Haze 26 1002 89 3000 5.14 250 22:33 01.08.2021
6289 Haze 26 1004 100 3000 2.57 210 18:19 01.08.2021
6290 Haze 27 1001 83 3000 2.57 240 13:38 01.08.2021
6291 Haze 26 1002 100 3000 2.06 200 11:38 01.08.2021
6292 Haze 27 1003 78 5000 5.14 240 08:36 01.08.2021
6293 Haze 25 1003 88 3000 3.09 240 03:47 01.08.2021
6294 Haze 25 1003 100 3000 2.57 230 22:48 31.07.2021
6295 Haze 25 1004 88 3000 2.57 230 20:28 31.07.2021
6296 Haze 27 1004 78 4000 2.57 260 16:59 31.07.2021
6297 Haze 27 1004 78 4000 2.57 260 16:22 31.07.2021
6298 Haze 28 1003 69 5000 4.12 280 12:27 31.07.2021
6299 Haze 28 1005 74 4000 7.2 250 06:56 31.07.2021
6300 Mist 24 1003 100 2000 3.09 240 23:58 30.07.2021
6301 Rain 24 1004 100 2000 3.09 230 20:28 30.07.2021
6302 Rain 25 1003 100 1800 1.54 220 16:33 30.07.2021
6303 Haze 25 1004 94 3000 1.03 230 22:27 29.07.2021
6304 Haze 30 1002 70 4000 5.14 270 12:34 29.07.2021
6305 Mist 25 1005 100 3000 3.09 240 04:53 29.07.2021
6306 Mist 25 1004 94 3000 4.12 250 04:28 29.07.2021
6307 Rain 24 1005 100 2000 3.6 260 20:52 28.07.2021
6308 Haze 25 1004 94 3000 2.57 250 17:19 28.07.2021
6309 Haze 29 1003 84 4000 5.14 270 10:48 28.07.2021
6310 Mist 25 1002 94 2500 3.6 260 01:53 28.07.2021
6311 Mist 25 1003 100 2500 1.54 300 21:37 27.07.2021
6312 Mist 25 1004 100 2500 0 0 18:26 27.07.2021
6313 Mist 26 1002 100 3000 1.03 320 14:51 27.07.2021
6314 Haze 30 1001 62 4000 7.72 260 10:36 27.07.2021
6315 Haze 26 1002 83 3000 1.54 230 03:46 27.07.2021
6316 Haze 27 1001 89 4000 3.09 210 15:34 26.07.2021
6317 Haze 27 1001 89 4000 3.09 210 15:34 26.07.2021
6318 Haze 29 1000 74 4000 5.14 220 13:43 26.07.2021
6319 Haze 25 1003 94 3000 4.12 230 21:44 25.07.2021
6320 Haze 25 1003 88 3000 3.09 220 20:54 25.07.2021
6321 Haze 27 1002 74 4000 7.2 250 17:45 25.07.2021
6322 Haze 28 1000 69 4000 5.66 250 14:34 25.07.2021
6323 Haze 30 1001 70 5000 7.72 250 08:21 25.07.2021
6324 Haze 30 1001 70 5000 5.14 240 07:52 25.07.2021
6325 Haze 26 1001 100 3000 3.09 250 20:22 24.07.2021
6326 Haze 26 1001 100 3000 1.54 220 19:36 24.07.2021
6327 Haze 28 999 78 3000 2.57 280 11:27 24.07.2021
6328 Mist 25 1000 94 3000 1.03 270 17:35 23.07.2021
6329 Haze 25 998 88 4000 3.09 330 14:35 23.07.2021
6330 Haze 25 998 100 4000 3.09 310 12:40 23.07.2021
6331 Rain 23 998 100 1800 2.57 260 22:50 22.07.2021
6332 Clouds 25 997 100 9488 4.12 320 14:57 22.07.2021
6333 Clouds 25 997 100 1000 2.57 320 11:19 22.07.2021
6334 Haze 30 998 79 4000 2.57 350 08:26 22.07.2021
6335 Mist 26 999 94 2500 0 0 22:33 21.07.2021
6336 Mist 25 1000 100 2000 0 0 21:33 21.07.2021
6337 Clouds 25 1001 100 2000 1.03 160 18:45 21.07.2021
6338 Clouds 25 1001 100 1500 2.06 260 10:37 21.07.2021
6339 Clouds 25 1002 100 2000 3.09 260 09:19 21.07.2021
6340 Clouds 25 1004 100 1500 4.12 240 04:51 21.07.2021
6341 Mist 26 1005 94 3000 1.54 220 20:29 20.07.2021
6342 Rain 27 1004 83 3000 2.06 270 16:36 20.07.2021
6343 Haze 28 1003 74 3000 1.54 300 15:27 20.07.2021
6344 Haze 29 1003 65 4000 4.63 310 11:20 20.07.2021
6345 Haze 30 1005 70 4000 5.14 260 07:37 20.07.2021
6346 Mist 25 1003 100 2500 1.54 220 02:58 20.07.2021
6347 Clouds 26 1004 100 2000 0 0 17:50 19.07.2021
6348 Haze 31 1000 70 4000 1.03 50 12:45 19.07.2021
6349 Mist 26 1004 100 2500 3.6 200 04:58 19.07.2021
6350 Haze 30 1003 74 3000 2.57 320 15:45 18.07.2021
6351 Haze 33 1003 62 3000 2.57 180 10:19 18.07.2021
6352 Haze 28 1005 94 3000 1.03 210 22:30 17.07.2021
6353 Haze 28 1005 89 3000 1.03 210 21:58 17.07.2021
6354 Haze 28 1005 89 3000 1.03 210 21:40 17.07.2021
6355 Haze 28 1005 89 3000 1.03 210 21:40 17.07.2021
6356 Haze 33 1004 70 4000 0 0 12:35 17.07.2021
6357 Haze 33 1005 66 4000 0 0 11:30 17.07.2021
6358 Haze 27 1008 94 3000 1.03 170 04:47 17.07.2021
6359 Haze 31 1005 74 4000 1.03 150 15:34 16.07.2021
6360 Haze 31 1006 74 5000 2.06 120 11:43 16.07.2021
6361 Haze 29 1007 79 5000 2.57 170 07:24 16.07.2021
6362 Haze 28 1004 89 3000 1.03 110 18:33 15.07.2021
6363 Haze 31 1001 70 5000 1.03 140 13:49 15.07.2021
6364 Haze 29 1003 74 5000 2.06 100 09:25 15.07.2021
6365 Mist 25 1001 100 2000 1.03 70 00:31 15.07.2021
6366 Haze 28 1000 78 3000 0 0 16:48 14.07.2021
6367 Haze 29 1001 89 3000 2.57 80 11:59 14.07.2021
6368 Haze 26 1002 94 3000 1.03 100 04:44 14.07.2021
6369 Mist 26 1002 94 3000 0 0 20:22 13.07.2021
6370 Thunderstorm 26 1003 94 2500 0 0 19:50 13.07.2021
6371 Thunderstorm 26 1003 94 2500 0 0 19:21 13.07.2021
6372 Thunderstorm 26 1004 100 3000 1.03 130 18:43 13.07.2021
6373 Haze 26 1004 94 3000 1.54 200 18:23 13.07.2021
6374 Haze 30 1000 74 2500 1.03 330 14:34 13.07.2021
6375 Haze 31 1002 66 5000 1.54 130 09:38 13.07.2021
6376 Clouds 25 1003 100 2000 1.03 130 22:51 12.07.2021
6377 Haze 30 1002 70 4000 2.57 90 17:28 12.07.2021
6378 Haze 31 1001 62 4000 2.57 90 15:20 12.07.2021
6379 Mist 26 1002 100 2500 0 0 00:31 12.07.2021
6380 Haze 27 1003 94 2500 0 0 20:53 11.07.2021
6381 Haze 30 1000 79 2500 2.06 120 15:50 11.07.2021
6382 Rain 26 1001 100 2000 0 0 01:55 11.07.2021
6383 Mist 27 1001 100 2500 0 0 17:19 10.07.2021
6384 Haze 31 1002 79 3000 1.03 320 07:52 10.07.2021
6385 Mist 25 1002 100 2500 0 0 02:27 10.07.2021
6386 Haze 26 1003 94 3000 0 0 19:47 09.07.2021
6387 Haze 28 1001 89 2500 3.6 260 14:50 09.07.2021
6388 Haze 33 1000 70 4000 1.03 170 12:48 09.07.2021
6389 Fog 24 1003 100 1500 2.57 220 23:55 08.07.2021
6390 Fog 24 1004 100 1500 2.57 200 22:49 08.07.2021
6391 Mist 24 1005 100 2500 0 0 19:49 08.07.2021
6392 Mist 24 1004 100 2500 0 0 17:50 08.07.2021
6393 Clouds 24 1006 100 1500 1.03 320 13:49 08.07.2021
6394 Clouds 24 1006 100 1500 1.03 340 13:30 08.07.2021
6395 Clouds 24 1006 100 1500 1.03 100 12:33 08.07.2021
6396 Clouds 24 1007 100 800 1.03 110 10:54 08.07.2021
6397 Rain 25 1007 100 1500 3.6 220 06:20 08.07.2021
6398 Mist 25 1005 100 2500 4.12 220 02:53 08.07.2021
6399 Mist 25 1005 100 2500 0 0 22:58 07.07.2021
6400 Mist 25 1005 100 2500 0 0 22:19 07.07.2021
6401 Rain 26 1006 100 2500 0 0 21:45 07.07.2021
6402 Rain 26 1006 100 2500 0 0 21:24 07.07.2021
6403 Haze 27 1005 94 3000 2.06 230 19:58 07.07.2021
6404 Haze 27 1005 94 3000 2.06 230 19:29 07.07.2021
6405 Haze 27 1004 94 3000 2.06 220 17:48 07.07.2021
6406 Haze 28 1003 83 3000 4.63 240 15:47 07.07.2021
6407 Haze 30 1001 79 3000 0 0 14:33 07.07.2021
6408 Haze 36 1004 59 5000 2.06 270 10:23 07.07.2021
6409 Haze 30 1006 84 5000 2.06 310 06:53 07.07.2021
6410 Haze 29 1006 94 4000 0 0 05:49 07.07.2021
6411 Mist 26 1004 100 2500 0 0 02:52 07.07.2021
6412 Mist 27 1005 94 2500 0 0 19:31 06.07.2021
6413 Mist 27 1005 94 2500 0 0 18:53 06.07.2021
6414 Clouds 32 1003 47 10000 0.92 142 18:31 06.07.2021
6415 Mist 28 1004 94 2500 0 0 16:59 06.07.2021
6416 Mist 26 1002 100 2500 0 0 13:33 06.07.2021
6417 Haze 35 1005 59 4000 0 0 09:42 06.07.2021
6418 Haze 34 1006 62 4000 0 0 08:35 06.07.2021
6419 Haze 34 1006 66 4000 0 0 08:35 06.07.2021
6420 Haze 32 1006 74 4000 0 0 07:39 06.07.2021
6421 Haze 27 1004 94 3000 0 0 01:54 06.07.2021
6422 Clouds 29 1003 64 10000 1.97 225 23:18 05.07.2021
6423 Haze 28 1005 89 3000 2.57 200 21:58 05.07.2021
6424 Thunderstorm 30 1006 84 3000 0 0 16:54 05.07.2021
6425 Haze 35 1006 63 5000 1.03 50 08:48 05.07.2021
6426 Haze 32 1007 66 5000 1.54 350 05:47 05.07.2021
6427 Haze 29 1007 89 3000 0 0 04:41 05.07.2021
6428 Haze 28 1005 94 3000 0 0 23:21 04.07.2021
6429 Haze 29 1006 84 3000 0 0 20:42 04.07.2021
6430 Haze 30 1006 79 3000 0 0 17:35 04.07.2021
6431 Haze 37 1003 56 5000 1.03 310 13:51 04.07.2021
6432 Haze 36 1006 63 5000 3.09 320 09:35 04.07.2021
6433 Mist 26 1005 100 2500 0 0 01:30 04.07.2021
6434 Mist 26 1005 100 2500 0 0 01:30 04.07.2021
6435 Haze 26 1005 94 3000 0 0 22:44 03.07.2021
6436 Haze 34 1003 59 4000 2.06 260 15:41 03.07.2021
6437 Haze 36 1003 56 5000 2.57 300 12:39 03.07.2021
6438 Haze 34 1006 62 5000 2.57 300 09:41 03.07.2021
6439 Haze 34 1006 62 5000 2.57 300 09:20 03.07.2021
6440 Haze 34 1006 62 5000 4.12 300 08:44 03.07.2021
6441 Haze 28 1005 94 3000 2.06 180 17:57 02.07.2021
6442 Haze 29 1006 89 3000 3.09 240 07:41 02.07.2021
6443 Mist 27 1006 94 2500 3.09 200 06:34 02.07.2021
6444 Haze 25 1003 94 3000 3.09 210 23:25 01.07.2021
6445 Mist 25 1004 94 3000 3.6 210 22:30 01.07.2021
6446 Mist 25 1004 94 3000 3.6 210 22:30 01.07.2021
6447 Mist 25 1004 94 3000 3.6 210 22:30 01.07.2021
6448 Mist 26 1004 94 3000 4.12 210 21:34 01.07.2021
6449 Rain 26 1004 100 3000 3.6 200 19:37 01.07.2021
6450 Rain 26 1004 100 3000 3.6 200 19:18 01.07.2021
6451 Rain 26 1004 100 3000 5.14 210 18:46 01.07.2021
6452 Rain 27 1004 100 3000 3.09 160 17:33 01.07.2021
6453 Mist 28 1002 100 3000 5.14 150 15:45 01.07.2021
6454 Haze 29 1002 89 3000 1.03 200 15:22 01.07.2021
6455 Haze 34 1001 70 2500 5.66 250 11:48 01.07.2021
6456 Haze 33 1004 62 4000 1.54 220 08:53 01.07.2021
6457 Rain 26 1004 94 3000 1.54 290 23:23 30.06.2021
6458 Haze 26 1004 94 3000 2.06 260 22:21 30.06.2021
6459 Haze 26 1004 94 3000 2.06 220 21:55 30.06.2021
6460 Haze 26 1004 94 3000 2.06 220 20:59 30.06.2021
6461 Haze 26 1004 94 3000 2.06 220 20:20 30.06.2021
6462 Haze 28 1004 89 3000 0 0 16:42 30.06.2021
6463 Clouds 33 1003 75 4000 1.54 30 13:25 30.06.2021
6464 Haze 34 1005 70 5000 3.09 210 08:58 30.06.2021
6465 Mist 27 1004 100 3000 0 0 23:56 29.06.2021
6466 Haze 29 1006 89 3000 0 0 19:29 29.06.2021
6467 Haze 30 1006 89 3000 0.51 10 17:45 29.06.2021
6468 Haze 30 1005 89 3000 1.54 20 17:24 29.06.2021
6469 Haze 29 1004 89 3000 0 0 15:50 29.06.2021
6470 Haze 30 1004 89 4000 0 0 14:55 29.06.2021
6471 Haze 30 1004 89 4000 0 0 14:55 29.06.2021
6472 Mist 30 1003 89 2500 3.6 210 13:21 29.06.2021
6473 Mist 24 1006 100 2000 0 0 02:53 29.06.2021
6474 Clouds 28 1004 71 10000 3.56 208 23:20 28.06.2021
6475 Clouds 28 1004 71 10000 3.56 208 23:20 28.06.2021
6476 Mist 24 1006 100 2000 1.03 290 20:49 28.06.2021
6477 Rain 25 1007 100 2000 1.03 310 18:18 28.06.2021
6478 Mist 26 1007 94 2000 4.63 250 16:57 28.06.2021
6479 Clouds 26 1005 100 1000 3.6 300 14:30 28.06.2021
6480 Haze 33 1005 58 3000 2.57 180 11:44 28.06.2021
6481 Clouds 26 1007 100 3000 2.06 220 23:47 27.06.2021
6482 Haze 26 1007 100 3000 2.06 220 22:31 27.06.2021
6483 Haze 27 1007 83 3000 1.03 150 19:44 27.06.2021
6484 Haze 27 1007 83 3000 0 0 17:44 27.06.2021
6485 Rain 29 1006 74 3000 1.54 60 15:39 27.06.2021
6486 Clouds 30 1006 58 2000 7.72 350 11:21 27.06.2021
6487 Clouds 26 1005 100 3000 0 0 00:37 27.06.2021
6488 Rain 29 1003 70 10000 1.81 247 21:53 26.06.2021
6489 Haze 26 1006 83 3000 1.54 130 20:48 26.06.2021
6490 Haze 27 1006 78 3000 1.54 130 19:27 26.06.2021
6491 Rain 29 1004 61 3000 2.57 100 15:39 26.06.2021
6492 Haze 31 1002 58 4000 2.06 60 13:57 26.06.2021
6493 Haze 35 1003 46 5000 2.57 350 10:39 26.06.2021
6494 Haze 30 1005 66 5000 6.17 320 06:24 26.06.2021
6495 Mist 25 1003 100 3000 1.03 240 22:24 25.06.2021
6496 Mist 26 1005 89 3000 0 0 20:35 25.06.2021
6497 Mist 28 1004 74 3000 1.54 300 18:48 25.06.2021
6498 Mist 28 1003 83 3000 0 0 17:30 25.06.2021
6499 Haze 28 1003 83 3000 1.03 120 16:21 25.06.2021
6500 Rain 30 1002 70 3000 2.57 340 13:42 25.06.2021
6501 Haze 30 1004 66 5000 3.09 330 09:56 25.06.2021
6502 Haze 28 1005 69 5000 6.17 290 07:23 25.06.2021
6503 Haze 25 1004 83 3000 4.63 300 03:59 25.06.2021
6504 Rain 22 1006 100 2000 1.03 280 23:48 24.06.2021
6505 Rain 22 1007 100 2000 2.06 270 21:48 24.06.2021
6506 Rain 23 1007 94 2000 1.54 10 20:42 24.06.2021
6507 Rain 23 1008 94 1500 2.06 350 19:47 24.06.2021
6508 Haze 27 1005 78 3000 3.6 250 18:20 24.06.2021
6509 Haze 28 1004 78 3000 4.12 240 15:23 24.06.2021
6510 Haze 28 1003 78 3000 4.12 240 14:52 24.06.2021
6511 Haze 28 1003 74 3000 4.12 240 13:18 24.06.2021
6512 Clouds 26 1006 83 3000 2.57 260 09:51 24.06.2021
6513 Haze 27 1007 78 3000 3.6 300 08:28 24.06.2021
6514 Haze 27 1006 83 3000 3.09 270 06:39 24.06.2021
6515 Haze 25 1006 94 3000 1.03 120 23:33 23.06.2021
6516 Haze 26 1006 78 3000 1.03 330 22:25 23.06.2021
6517 Haze 27 1006 89 3000 3.09 270 20:59 23.06.2021
6518 Haze 26 1006 100 3000 2.06 220 19:51 23.06.2021
6519 Haze 26 1006 100 3000 2.06 220 18:28 23.06.2021
6520 Clouds 25 1005 100 2500 1.54 170 16:52 23.06.2021
6521 Haze 28 1003 74 2500 3.6 230 14:30 23.06.2021
6522 Haze 29 1004 79 2500 4.12 210 12:37 23.06.2021
6523 Haze 28 1005 78 3000 3.6 230 10:49 23.06.2021
6524 Haze 26 1006 83 2500 2.57 300 09:20 23.06.2021
6525 Clouds 26 1007 94 2000 3.09 270 08:38 23.06.2021
6526 Clouds 26 1007 89 2000 3.09 260 07:48 23.06.2021
6527 Mist 25 1006 100 1800 1.03 260 04:34 23.06.2021
6528 Rain 26 1003 78 10000 3.88 298 00:49 23.06.2021
6529 Rain 25 1005 100 3000 1.54 260 23:58 22.06.2021
6530 Rain 27 1005 78 3000 1.54 260 22:47 22.06.2021
6531 Rain 27 1005 78 3000 1.54 260 22:29 22.06.2021
6532 Haze 27 1006 83 3000 1.54 210 21:39 22.06.2021
6533 Haze 28 1006 78 3000 1.54 180 20:18 22.06.2021
6534 Haze 28 1006 78 3000 1.54 180 18:58 22.06.2021
6535 Haze 28 1006 78 3000 1.54 180 18:27 22.06.2021
6536 Haze 28 1005 78 3000 1.03 100 17:23 22.06.2021
6537 Haze 28 1005 74 3000 1.03 100 16:38 22.06.2021
6538 Haze 30 1004 66 3000 1.03 70 14:49 22.06.2021
6539 Haze 31 1003 70 3000 1.54 350 14:21 22.06.2021
6540 Clouds 33 1002 49 3000 5.14 10 12:59 22.06.2021
6541 Haze 33 1003 49 4000 2.57 290 11:53 22.06.2021
6542 Haze 33 1005 49 4000 3.09 210 10:31 22.06.2021
6543 Haze 32 1007 55 5000 4.12 280 07:56 22.06.2021
6544 Haze 28 1005 78 3000 1.54 290 00:50 22.06.2021
6545 Haze 28 1005 83 3000 1.03 300 23:29 21.06.2021
6546 Haze 28 1005 74 3000 1.03 210 22:27 21.06.2021
6547 Haze 28 1006 69 3000 1.03 300 21:23 21.06.2021
6548 Haze 28 1006 83 3000 0.51 280 20:43 21.06.2021
6549 Haze 29 1006 65 3000 1.54 200 19:53 21.06.2021
6550 Haze 29 1006 61 3000 1.03 200 18:57 21.06.2021
6551 Haze 31 1005 55 3000 1.54 290 17:26 21.06.2021
6552 Haze 31 1005 55 3000 4.12 260 16:44 21.06.2021
6553 Haze 31 1004 55 3000 1.54 230 16:23 21.06.2021
6554 Haze 32 1004 51 3000 1.54 240 15:45 21.06.2021
6555 Haze 35 1003 52 4000 4.12 270 14:18 21.06.2021
6556 Haze 34 1004 49 4000 4.12 290 13:33 21.06.2021
6557 Haze 35 1004 49 4000 2.06 300 12:36 21.06.2021
6558 Haze 35 1004 49 4000 4.12 260 11:49 21.06.2021
6559 Haze 34 1005 52 4000 4.12 250 10:30 21.06.2021
6560 Haze 33 1007 55 5000 4.12 310 09:29 21.06.2021
6561 Haze 33 1007 58 5000 5.14 270 08:21 21.06.2021
6562 Haze 31 1008 62 5000 3.09 300 06:47 21.06.2021
6563 Haze 26 1006 94 3000 1.54 180 00:29 21.06.2021
6564 Haze 26 1006 94 3000 1.54 180 23:35 20.06.2021
6565 Haze 27 1007 89 3000 1.54 210 22:58 20.06.2021
6566 Haze 27 1007 89 3000 2.06 220 21:58 20.06.2021
6567 Haze 27 1007 89 3000 2.06 220 21:26 20.06.2021
6568 Haze 29 1006 79 3000 1.03 290 19:41 20.06.2021
6569 Haze 29 1006 79 3000 1.03 290 19:22 20.06.2021
6570 Haze 29 1005 79 3000 1.03 250 17:50 20.06.2021
6571 Haze 30 1005 70 3000 1.54 310 16:51 20.06.2021
6572 Haze 30 1005 54 3000 4.12 270 15:50 20.06.2021
6573 Haze 31 1005 66 3000 4.12 270 15:31 20.06.2021
6574 Haze 31 1004 66 3000 5.14 330 14:46 20.06.2021
6575 Haze 35 1004 49 3000 9.26 270 13:40 20.06.2021
6576 Haze 34 1004 59 3000 8.75 270 12:56 20.06.2021
6577 Haze 31 1005 79 3000 8.75 250 11:46 20.06.2021
6578 Clouds 34 1005 59 6000 3.6 290 10:35 20.06.2021
6579 Clouds 33 1006 62 6000 3.6 290 09:45 20.06.2021
6580 Clouds 31 1007 66 6000 5.14 290 07:34 20.06.2021
6581 Haze 25 1004 94 3000 2.57 240 23:38 19.06.2021
6582 Haze 25 1005 94 3000 3.09 220 22:59 19.06.2021
6583 Haze 25 1005 94 3000 2.06 240 21:52 19.06.2021
6584 Haze 25 1005 94 3000 2.06 240 21:27 19.06.2021
6585 Haze 26 1006 89 3000 2.57 210 18:55 19.06.2021
6586 Haze 26 1005 89 3000 2.57 200 18:22 19.06.2021
6587 Haze 27 1005 94 3000 1.03 180 17:27 19.06.2021
6588 Haze 27 1005 89 3000 1.03 190 16:48 19.06.2021
6589 Haze 28 1003 83 3000 1.03 180 15:40 19.06.2021
6590 Haze 29 1003 79 3000 4.12 220 12:54 19.06.2021
6591 Haze 30 1003 74 3000 6.17 260 11:54 19.06.2021
6592 Haze 30 1003 84 3000 2.06 330 10:46 19.06.2021
6593 Clouds 30 1004 84 3000 5.14 230 10:46 19.06.2021
6594 Clouds 30 1004 84 3000 5.14 230 10:26 19.06.2021
6595 Haze 30 1004 84 5000 6.17 250 09:56 19.06.2021
6596 Haze 27 1006 89 5000 5.14 220 07:50 19.06.2021
6597 Haze 27 1006 89 5000 5.66 220 06:34 19.06.2021
6598 Mist 25 1004 100 2000 2.06 210 02:28 19.06.2021
6599 Mist 25 1003 94 3000 0 0 00:20 19.06.2021
6600 Clouds 25 1003 100 3000 0 0 23:34 18.06.2021
6601 Clouds 25 1003 100 3000 2.06 220 22:53 18.06.2021
6602 Clouds 25 1003 100 3000 2.06 220 22:27 18.06.2021
6603 Haze 25 1004 100 3000 3.09 210 21:44 18.06.2021
6604 Haze 25 1004 100 3000 3.09 210 21:22 18.06.2021
6605 Haze 26 1005 94 3000 2.06 210 20:23 18.06.2021
6606 Clouds 26 1004 94 3000 0 0 18:29 18.06.2021
6607 Rain 28 1003 89 3000 0 0 17:40 18.06.2021
6608 Rain 29 1003 70 3000 1.03 30 16:33 18.06.2021
6609 Rain 30 1002 70 3000 1.03 260 15:46 18.06.2021
6610 Haze 30 1000 70 4000 5.14 220 14:34 18.06.2021
6611 Haze 32 1001 66 4000 5.14 190 13:41 18.06.2021
6612 Haze 32 1000 66 5000 3.6 210 12:48 18.06.2021
6613 Haze 32 1000 66 5000 5.14 210 12:29 18.06.2021
6614 Haze 32 1001 66 5000 5.14 220 11:30 18.06.2021
6615 Haze 33 1001 70 5000 4.12 230 10:52 18.06.2021
6616 Haze 33 1001 70 5000 4.63 240 10:23 18.06.2021
6617 Haze 32 1002 70 5000 5.14 230 09:49 18.06.2021
6618 Haze 31 1003 74 5000 5.66 240 08:50 18.06.2021
6619 Haze 30 1003 79 5000 4.12 220 08:23 18.06.2021
6620 Haze 29 1004 84 4000 5.14 230 07:29 18.06.2021
6621 Mist 24 1004 100 2500 0 0 03:23 18.06.2021
6622 Rain 24 1002 94 2500 2.57 240 00:32 18.06.2021
6623 Rain 23 1003 100 1500 1.03 200 22:56 17.06.2021
6624 Rain 24 1005 100 1500 1.03 50 22:25 17.06.2021
6625 Mist 24 1005 100 2500 1.03 60 21:49 17.06.2021
6626 Rain 24 1004 100 2500 3.6 210 20:58 17.06.2021
6627 Clouds 24 1004 100 2500 3.6 210 20:30 17.06.2021
6628 Rain 24 1005 100 3000 4.63 230 19:52 17.06.2021
6629 Rain 24 1005 100 3000 3.09 200 18:51 17.06.2021
6630 Rain 24 1004 100 3000 5.14 210 17:49 17.06.2021
6631 Rain 25 1004 100 3000 3.6 210 17:21 17.06.2021
6632 Rain 25 1002 83 3000 4.63 170 16:28 17.06.2021
6633 Rain 25 1001 100 2000 5.14 350 15:40 17.06.2021
6634 Rain 26 1000 83 3000 3.09 340 14:26 17.06.2021
6635 Haze 34 999 49 5000 3.09 310 12:54 17.06.2021
6636 Haze 34 999 49 5000 3.09 240 12:30 17.06.2021
6637 Haze 34 1000 49 5000 3.6 260 11:21 17.06.2021
6638 Haze 33 1001 55 5000 3.6 280 10:42 17.06.2021
6639 Haze 33 1001 55 5000 3.6 280 10:19 17.06.2021
6640 Haze 33 1001 52 5000 2.57 270 09:38 17.06.2021
6641 Haze 31 1003 62 5000 4.12 240 08:24 17.06.2021
6642 Haze 31 1003 62 5000 3.09 240 07:47 17.06.2021
6643 Haze 28 1003 74 5000 3.09 260 04:36 17.06.2021
6644 Haze 23 1002 88 3000 1.03 150 00:43 17.06.2021
6645 Haze 23 1002 88 3000 1.03 150 23:38 16.06.2021
6646 Haze 23 1002 88 3000 1.03 150 23:18 16.06.2021
6647 Mist 25 1003 83 3000 2.57 210 21:55 16.06.2021
6648 Mist 25 1003 83 3000 2.57 210 21:37 16.06.2021
6649 Mist 25 1003 83 3000 2.57 210 21:18 16.06.2021
6650 Rain 26 1004 100 3000 3.6 210 20:32 16.06.2021
6651 Rain 26 1004 94 3000 2.57 140 19:49 16.06.2021
6652 Clouds 26 1004 94 3000 2.57 140 19:26 16.06.2021
6653 Clouds 26 1003 78 3000 5.14 200 18:44 16.06.2021
6654 Clouds 27 1003 78 3000 4.63 220 17:56 16.06.2021
6655 Clouds 28 1002 65 3000 2.06 140 17:28 16.06.2021
6656 Clouds 28 1001 69 3000 2.06 100 16:54 16.06.2021
6657 Haze 29 1001 70 3000 3.09 210 16:36 16.06.2021
6658 Haze 31 1000 62 3000 1.54 140 15:47 16.06.2021
6659 Haze 31 1000 62 3000 2.06 140 15:23 16.06.2021
6660 Haze 32 1000 58 3000 1.54 140 14:42 16.06.2021
6661 Haze 32 1000 58 3000 1.54 140 14:23 16.06.2021
6662 Haze 32 1000 58 3000 2.06 110 13:43 16.06.2021
6663 Haze 31 1000 62 3000 3.09 130 13:21 16.06.2021
6664 Haze 33 1000 49 3000 1.54 220 12:35 16.06.2021
6665 Haze 34 1000 52 3000 1.54 60 11:57 16.06.2021
6666 Haze 34 1000 46 3000 2.57 290 11:23 16.06.2021
6667 Haze 34 1001 46 4000 2.06 280 10:41 16.06.2021
6668 Haze 32 1002 51 4000 3.6 320 09:48 16.06.2021
6669 Haze 32 1003 55 4000 3.6 290 09:21 16.06.2021
6670 Haze 31 1003 62 4000 3.09 240 07:51 16.06.2021
6671 Haze 30 1003 66 4000 3.09 260 07:33 16.06.2021
6672 Haze 25 1001 88 3000 1.03 200 02:51 16.06.2021
6673 Haze 25 1001 83 3000 2.06 240 00:39 16.06.2021
6674 Haze 25 1001 83 3000 2.57 230 23:43 15.06.2021
6675 Haze 25 1001 83 3000 2.57 230 23:19 15.06.2021
6676 Haze 25 1001 83 3000 4.63 220 22:39 15.06.2021
6677 Haze 25 1001 83 3000 2.57 210 21:50 15.06.2021
6678 Haze 25 1001 83 3000 2.57 230 20:52 15.06.2021
6679 Haze 26 1001 78 3000 3.09 180 19:45 15.06.2021
6680 Haze 26 1001 78 3000 3.09 180 19:21 15.06.2021
6681 Haze 27 1000 83 3000 1.03 360 16:56 15.06.2021
6682 Haze 27 999 83 3000 1.54 180 16:30 15.06.2021
6683 Mist 27 999 78 3000 1.03 290 15:40 15.06.2021
6684 Mist 27 998 83 3000 1.54 180 14:52 15.06.2021
6685 Mist 27 998 78 3000 1.54 210 13:55 15.06.2021
6686 Mist 26 998 94 3000 1.54 170 13:31 15.06.2021
6687 Clouds 25 998 94 3000 1.54 90 12:46 15.06.2021
6688 Clouds 27 998 69 1500 7.72 340 11:53 15.06.2021
6689 Clouds 31 999 55 3000 2.06 360 11:19 15.06.2021
6690 Haze 35 999 49 4000 2.57 240 10:53 15.06.2021
6691 Haze 34 999 52 5000 4.12 270 10:34 15.06.2021
6692 Haze 33 1000 55 5000 4.12 260 09:47 15.06.2021
6693 Haze 33 1001 55 5000 5.14 300 08:30 15.06.2021
6694 Haze 31 1001 62 5000 5.14 260 07:50 15.06.2021
6695 Haze 30 1001 66 5000 6.17 260 06:38 15.06.2021
6696 Haze 26 1001 83 5000 2.57 240 04:36 15.06.2021
6697 Clouds 24 1000 88 3000 3.09 210 00:49 15.06.2021
6698 Clouds 25 1000 83 3000 3.09 210 23:59 14.06.2021
6699 Clouds 25 1000 83 3000 3.09 210 23:26 14.06.2021
6700 Haze 25 1000 78 3000 1.54 240 22:43 14.06.2021
6701 Haze 25 1000 78 3000 1.54 240 22:21 14.06.2021
6702 Haze 26 1000 78 3000 3.09 200 21:47 14.06.2021
6703 Rain 26 1000 78 3000 3.09 200 21:24 14.06.2021
6704 Haze 27 1001 74 3000 5.14 210 20:55 14.06.2021
6705 Haze 27 1001 74 3000 5.14 210 20:55 14.06.2021
6706 Haze 27 1001 74 3000 5.14 210 20:23 14.06.2021
6707 Rain 27 1000 74 3000 2.06 260 19:39 14.06.2021
6708 Haze 27 1000 74 3000 3.09 260 18:59 14.06.2021
6709 Haze 27 1000 74 3000 3.09 260 18:36 14.06.2021
6710 Haze 28 1000 74 3000 2.06 260 18:18 14.06.2021
6711 Haze 27 1000 78 3000 2.06 310 17:30 14.06.2021
6712 Rain 25 999 82 10000 1.19 98 16:41 14.06.2021
6713 Rain 27 998 78 2500 7.72 330 15:51 14.06.2021
6714 Rain 27 998 78 2500 7.72 330 15:31 14.06.2021
6715 Haze 35 997 46 3000 3.09 280 14:51 14.06.2021
6716 Haze 35 996 46 4000 4.63 290 13:44 14.06.2021
6717 Haze 35 997 46 5000 5.14 300 12:55 14.06.2021
6718 Haze 35 997 46 5000 5.14 300 12:37 14.06.2021
6719 Haze 35 998 49 5000 4.12 300 11:51 14.06.2021
6720 Haze 35 999 49 5000 5.66 280 10:57 14.06.2021
6721 Haze 35 999 49 5000 5.66 280 10:57 14.06.2021
6722 Rain 33 1000 55 5000 6.17 300 09:46 14.06.2021
6723 Haze 33 1000 55 5000 7.72 300 09:25 14.06.2021
6724 Haze 33 1001 55 5000 6.17 290 08:42 14.06.2021
6725 Haze 31 1002 62 5000 5.14 280 07:52 14.06.2021
6726 Haze 29 1002 70 4000 4.12 240 06:28 14.06.2021
6727 Haze 28 1002 69 3000 3.09 240 04:55 14.06.2021
6728 Haze 26 1000 78 3000 1.54 260 00:46 14.06.2021
6729 Haze 27 1000 74 3000 1.03 280 23:52 13.06.2021
6730 Haze 27 1000 74 3000 1.03 280 23:23 13.06.2021
6731 Haze 27 1000 69 3000 2.57 330 22:40 13.06.2021
6732 Haze 27 1000 69 3000 2.57 330 22:19 13.06.2021
6733 Haze 27 1000 69 3000 6.69 330 21:47 13.06.2021
6734 Haze 27 1000 69 3000 6.69 330 21:29 13.06.2021
6735 Haze 27 1001 69 3000 3.6 330 20:45 13.06.2021
6736 Haze 27 1001 69 3000 3.6 330 20:26 13.06.2021
6737 Haze 27 1001 69 3000 3.6 330 20:26 13.06.2021
6738 Haze 27 1001 74 3000 2.06 320 19:43 13.06.2021
6739 Haze 27 1001 74 3000 2.06 320 19:24 13.06.2021
6740 Haze 27 1001 74 3000 2.57 310 18:39 13.06.2021
6741 Rain 26 1001 78 3000 6.17 270 18:18 13.06.2021
6742 Clouds 31 1001 55 3000 6.17 330 17:23 13.06.2021
6743 Haze 33 999 58 3000 0 0 16:19 13.06.2021
6744 Haze 34 998 52 4000 2.06 330 15:24 13.06.2021
6745 Haze 36 997 46 5000 5.66 320 14:30 13.06.2021
6746 Haze 36 998 46 5000 5.14 310 13:43 13.06.2021
6747 Haze 36 998 46 5000 4.12 330 13:23 13.06.2021
6748 Haze 35 998 49 5000 4.63 300 12:48 13.06.2021
6749 Haze 35 998 49 5000 6.17 320 12:25 13.06.2021
6750 Haze 34 1000 55 5000 4.63 310 11:36 13.06.2021